<?xml version="1.0" encoding="UTF-8" standalone="no" ?>
<gpx xmlns="http://www.topografix.com/GPX/1/1" xmlns:xsi="http://www.w3.org/2001/XMLSchema-instance" xsi:schemaLocation="http://www.topografix.com/GPX/1/1 http://www.topografix.com/GPX/1/1/gpx.xsd" version="1.1" creator="VisuGPX - https://www.visugpx.com">
  <metadata>
    <name>Lac de Laprade  25 juil. 2020 </name>
  </metadata>
  <trk>
    <name><![CDATA[Verdalle Marche 25 juil. 2020 à 07:54]]></name>
    <trkseg>
      <trkpt lat="43.45422" lon="2.21599">
        <ele>851.8</ele>
        <time>2020-07-25T05:54:33Z</time>
      </trkpt>
      <trkpt lat="43.4542" lon="2.21603">
        <ele>851.9</ele>
        <time>2020-07-25T05:54:50Z</time>
      </trkpt>
      <trkpt lat="43.45422" lon="2.21607">
        <ele>850.3</ele>
        <time>2020-07-25T05:55:13Z</time>
      </trkpt>
      <trkpt lat="43.45431" lon="2.21613">
        <ele>849</ele>
        <time>2020-07-25T05:55:17Z</time>
      </trkpt>
      <trkpt lat="43.45431" lon="2.21613">
        <ele>849</ele>
        <time>2020-07-25T05:55:26Z</time>
      </trkpt>
      <trkpt lat="43.4544" lon="2.21604">
        <ele>846.1</ele>
        <time>2020-07-25T05:55:30Z</time>
      </trkpt>
      <trkpt lat="43.45437" lon="2.21599">
        <ele>845.1</ele>
        <time>2020-07-25T05:55:35Z</time>
      </trkpt>
      <trkpt lat="43.45433" lon="2.21598">
        <ele>844.8</ele>
        <time>2020-07-25T05:55:40Z</time>
      </trkpt>
      <trkpt lat="43.45431" lon="2.21595">
        <ele>844.6</ele>
        <time>2020-07-25T05:56:03Z</time>
      </trkpt>
      <trkpt lat="43.45441" lon="2.216">
        <ele>843.3</ele>
        <time>2020-07-25T05:56:08Z</time>
      </trkpt>
      <trkpt lat="43.45445" lon="2.21598">
        <ele>840.8</ele>
        <time>2020-07-25T05:57:00Z</time>
      </trkpt>
      <trkpt lat="43.45447" lon="2.21604">
        <ele>839.9</ele>
        <time>2020-07-25T05:57:05Z</time>
      </trkpt>
      <trkpt lat="43.45444" lon="2.21615">
        <ele>839</ele>
        <time>2020-07-25T05:57:10Z</time>
      </trkpt>
      <trkpt lat="43.45438" lon="2.21637">
        <ele>837.7</ele>
        <time>2020-07-25T05:57:14Z</time>
      </trkpt>
      <trkpt lat="43.45443" lon="2.21659">
        <ele>835</ele>
        <time>2020-07-25T05:57:18Z</time>
      </trkpt>
      <trkpt lat="43.45451" lon="2.21692">
        <ele>830.5</ele>
        <time>2020-07-25T05:57:23Z</time>
      </trkpt>
      <trkpt lat="43.45455" lon="2.21729">
        <ele>826.6</ele>
        <time>2020-07-25T05:57:27Z</time>
      </trkpt>
      <trkpt lat="43.45456" lon="2.2176">
        <ele>822.4</ele>
        <time>2020-07-25T05:57:32Z</time>
      </trkpt>
      <trkpt lat="43.45502" lon="2.21738">
        <ele>816.9</ele>
        <time>2020-07-25T05:57:37Z</time>
      </trkpt>
      <trkpt lat="43.45535" lon="2.21743">
        <ele>812</ele>
        <time>2020-07-25T05:57:41Z</time>
      </trkpt>
      <trkpt lat="43.45579" lon="2.2176">
        <ele>806.7</ele>
        <time>2020-07-25T05:57:46Z</time>
      </trkpt>
      <trkpt lat="43.45622" lon="2.2177">
        <ele>801.4</ele>
        <time>2020-07-25T05:57:51Z</time>
      </trkpt>
      <trkpt lat="43.45647" lon="2.21788">
        <ele>796.9</ele>
        <time>2020-07-25T05:57:55Z</time>
      </trkpt>
      <trkpt lat="43.45671" lon="2.21819">
        <ele>788.4</ele>
        <time>2020-07-25T05:57:59Z</time>
      </trkpt>
      <trkpt lat="43.45678" lon="2.21879">
        <ele>781</ele>
        <time>2020-07-25T05:58:04Z</time>
      </trkpt>
      <trkpt lat="43.45669" lon="2.21949">
        <ele>766.1</ele>
        <time>2020-07-25T05:58:09Z</time>
      </trkpt>
      <trkpt lat="43.45654" lon="2.21971">
        <ele>761.2</ele>
        <time>2020-07-25T05:58:13Z</time>
      </trkpt>
      <trkpt lat="43.45638" lon="2.21977">
        <ele>757.6</ele>
        <time>2020-07-25T05:58:17Z</time>
      </trkpt>
      <trkpt lat="43.45633" lon="2.21979">
        <ele>754.5</ele>
        <time>2020-07-25T05:58:21Z</time>
      </trkpt>
      <trkpt lat="43.4566" lon="2.2201">
        <ele>753.8</ele>
        <time>2020-07-25T05:58:26Z</time>
      </trkpt>
      <trkpt lat="43.45685" lon="2.22037">
        <ele>748.3</ele>
        <time>2020-07-25T05:58:30Z</time>
      </trkpt>
      <trkpt lat="43.45698" lon="2.22055">
        <ele>743.7</ele>
        <time>2020-07-25T05:58:35Z</time>
      </trkpt>
      <trkpt lat="43.45704" lon="2.22075">
        <ele>741.7</ele>
        <time>2020-07-25T05:58:39Z</time>
      </trkpt>
      <trkpt lat="43.45708" lon="2.22088">
        <ele>739.4</ele>
        <time>2020-07-25T05:58:43Z</time>
      </trkpt>
      <trkpt lat="43.45709" lon="2.22099">
        <ele>738.5</ele>
        <time>2020-07-25T05:58:48Z</time>
      </trkpt>
      <trkpt lat="43.45713" lon="2.22113">
        <ele>738.9</ele>
        <time>2020-07-25T05:58:52Z</time>
      </trkpt>
      <trkpt lat="43.45719" lon="2.22127">
        <ele>737.7</ele>
        <time>2020-07-25T05:58:57Z</time>
      </trkpt>
      <trkpt lat="43.45724" lon="2.22145">
        <ele>735.1</ele>
        <time>2020-07-25T05:59:01Z</time>
      </trkpt>
      <trkpt lat="43.45725" lon="2.22155">
        <ele>733.3</ele>
        <time>2020-07-25T05:59:05Z</time>
      </trkpt>
      <trkpt lat="43.45725" lon="2.22169">
        <ele>731.3</ele>
        <time>2020-07-25T05:59:10Z</time>
      </trkpt>
      <trkpt lat="43.45725" lon="2.22186">
        <ele>728.2</ele>
        <time>2020-07-25T05:59:14Z</time>
      </trkpt>
      <trkpt lat="43.45723" lon="2.22198">
        <ele>727.7</ele>
        <time>2020-07-25T05:59:18Z</time>
      </trkpt>
      <trkpt lat="43.45724" lon="2.22218">
        <ele>725.2</ele>
        <time>2020-07-25T05:59:23Z</time>
      </trkpt>
      <trkpt lat="43.45728" lon="2.22236">
        <ele>723.8</ele>
        <time>2020-07-25T05:59:28Z</time>
      </trkpt>
      <trkpt lat="43.4573" lon="2.22245">
        <ele>723.4</ele>
        <time>2020-07-25T05:59:32Z</time>
      </trkpt>
      <trkpt lat="43.4573" lon="2.22257">
        <ele>722.6</ele>
        <time>2020-07-25T05:59:36Z</time>
      </trkpt>
      <trkpt lat="43.45733" lon="2.22275">
        <ele>722.9</ele>
        <time>2020-07-25T05:59:41Z</time>
      </trkpt>
      <trkpt lat="43.45734" lon="2.22284">
        <ele>723.1</ele>
        <time>2020-07-25T05:59:45Z</time>
      </trkpt>
      <trkpt lat="43.45731" lon="2.2229">
        <ele>723.8</ele>
        <time>2020-07-25T05:59:49Z</time>
      </trkpt>
      <trkpt lat="43.45729" lon="2.22298">
        <ele>726.4</ele>
        <time>2020-07-25T05:59:53Z</time>
      </trkpt>
      <trkpt lat="43.45727" lon="2.22303">
        <ele>731</ele>
        <time>2020-07-25T05:59:58Z</time>
      </trkpt>
      <trkpt lat="43.45732" lon="2.22308">
        <ele>731.3</ele>
        <time>2020-07-25T06:00:02Z</time>
      </trkpt>
      <trkpt lat="43.45733" lon="2.2232">
        <ele>733.1</ele>
        <time>2020-07-25T06:00:06Z</time>
      </trkpt>
      <trkpt lat="43.45743" lon="2.22333">
        <ele>737.5</ele>
        <time>2020-07-25T06:00:11Z</time>
      </trkpt>
      <trkpt lat="43.45748" lon="2.2234">
        <ele>740.6</ele>
        <time>2020-07-25T06:00:16Z</time>
      </trkpt>
      <trkpt lat="43.45755" lon="2.22352">
        <ele>744.1</ele>
        <time>2020-07-25T06:00:20Z</time>
      </trkpt>
      <trkpt lat="43.45766" lon="2.2236">
        <ele>747.7</ele>
        <time>2020-07-25T06:00:24Z</time>
      </trkpt>
      <trkpt lat="43.45774" lon="2.22372">
        <ele>752.4</ele>
        <time>2020-07-25T06:00:29Z</time>
      </trkpt>
      <trkpt lat="43.45779" lon="2.22378">
        <ele>755.9</ele>
        <time>2020-07-25T06:00:33Z</time>
      </trkpt>
      <trkpt lat="43.45787" lon="2.22381">
        <ele>760.1</ele>
        <time>2020-07-25T06:00:38Z</time>
      </trkpt>
      <trkpt lat="43.45794" lon="2.22385">
        <ele>764.2</ele>
        <time>2020-07-25T06:00:42Z</time>
      </trkpt>
      <trkpt lat="43.45803" lon="2.22389">
        <ele>768</ele>
        <time>2020-07-25T06:00:47Z</time>
      </trkpt>
      <trkpt lat="43.45817" lon="2.22393">
        <ele>773.3</ele>
        <time>2020-07-25T06:00:52Z</time>
      </trkpt>
      <trkpt lat="43.45827" lon="2.22402">
        <ele>775.4</ele>
        <time>2020-07-25T06:00:56Z</time>
      </trkpt>
      <trkpt lat="43.45837" lon="2.22411">
        <ele>775.3</ele>
        <time>2020-07-25T06:01:00Z</time>
      </trkpt>
      <trkpt lat="43.45843" lon="2.22415">
        <ele>776.2</ele>
        <time>2020-07-25T06:01:05Z</time>
      </trkpt>
      <trkpt lat="43.45853" lon="2.2242">
        <ele>776.2</ele>
        <time>2020-07-25T06:01:09Z</time>
      </trkpt>
      <trkpt lat="43.45864" lon="2.22432">
        <ele>776</ele>
        <time>2020-07-25T06:01:14Z</time>
      </trkpt>
      <trkpt lat="43.4587" lon="2.22438">
        <ele>776.5</ele>
        <time>2020-07-25T06:01:18Z</time>
      </trkpt>
      <trkpt lat="43.45876" lon="2.22446">
        <ele>777</ele>
        <time>2020-07-25T06:01:23Z</time>
      </trkpt>
      <trkpt lat="43.45886" lon="2.22457">
        <ele>777.5</ele>
        <time>2020-07-25T06:01:27Z</time>
      </trkpt>
      <trkpt lat="43.45898" lon="2.22464">
        <ele>778.7</ele>
        <time>2020-07-25T06:01:32Z</time>
      </trkpt>
      <trkpt lat="43.45912" lon="2.22472">
        <ele>777.9</ele>
        <time>2020-07-25T06:01:36Z</time>
      </trkpt>
      <trkpt lat="43.45928" lon="2.22481">
        <ele>776.9</ele>
        <time>2020-07-25T06:01:40Z</time>
      </trkpt>
      <trkpt lat="43.45942" lon="2.22491">
        <ele>774</ele>
        <time>2020-07-25T06:01:44Z</time>
      </trkpt>
      <trkpt lat="43.45955" lon="2.22505">
        <ele>770.9</ele>
        <time>2020-07-25T06:01:49Z</time>
      </trkpt>
      <trkpt lat="43.45961" lon="2.22513">
        <ele>768.2</ele>
        <time>2020-07-25T06:01:53Z</time>
      </trkpt>
      <trkpt lat="43.45968" lon="2.2252">
        <ele>766.5</ele>
        <time>2020-07-25T06:01:57Z</time>
      </trkpt>
      <trkpt lat="43.45974" lon="2.22524">
        <ele>767.2</ele>
        <time>2020-07-25T06:02:01Z</time>
      </trkpt>
      <trkpt lat="43.4598" lon="2.22529">
        <ele>769.7</ele>
        <time>2020-07-25T06:02:05Z</time>
      </trkpt>
      <trkpt lat="43.45988" lon="2.22536">
        <ele>771.8</ele>
        <time>2020-07-25T06:02:09Z</time>
      </trkpt>
      <trkpt lat="43.45995" lon="2.22542">
        <ele>774.2</ele>
        <time>2020-07-25T06:02:13Z</time>
      </trkpt>
      <trkpt lat="43.46001" lon="2.22551">
        <ele>775.5</ele>
        <time>2020-07-25T06:02:17Z</time>
      </trkpt>
      <trkpt lat="43.46004" lon="2.22555">
        <ele>776.3</ele>
        <time>2020-07-25T06:02:20Z</time>
      </trkpt>
      <trkpt lat="43.46007" lon="2.22559">
        <ele>777.5</ele>
        <time>2020-07-25T06:02:24Z</time>
      </trkpt>
      <trkpt lat="43.46011" lon="2.22563">
        <ele>778.4</ele>
        <time>2020-07-25T06:02:29Z</time>
      </trkpt>
      <trkpt lat="43.46017" lon="2.22572">
        <ele>779.3</ele>
        <time>2020-07-25T06:02:33Z</time>
      </trkpt>
      <trkpt lat="43.46025" lon="2.22592">
        <ele>777.9</ele>
        <time>2020-07-25T06:02:38Z</time>
      </trkpt>
      <trkpt lat="43.46033" lon="2.22611">
        <ele>776.7</ele>
        <time>2020-07-25T06:02:42Z</time>
      </trkpt>
      <trkpt lat="43.46041" lon="2.2263">
        <ele>775.9</ele>
        <time>2020-07-25T06:02:47Z</time>
      </trkpt>
      <trkpt lat="43.46048" lon="2.22641">
        <ele>774.6</ele>
        <time>2020-07-25T06:02:51Z</time>
      </trkpt>
      <trkpt lat="43.46054" lon="2.22654">
        <ele>772.4</ele>
        <time>2020-07-25T06:02:55Z</time>
      </trkpt>
      <trkpt lat="43.46059" lon="2.22666">
        <ele>772.2</ele>
        <time>2020-07-25T06:02:59Z</time>
      </trkpt>
      <trkpt lat="43.46069" lon="2.22683">
        <ele>771.4</ele>
        <time>2020-07-25T06:03:04Z</time>
      </trkpt>
      <trkpt lat="43.46076" lon="2.22693">
        <ele>771.4</ele>
        <time>2020-07-25T06:03:08Z</time>
      </trkpt>
      <trkpt lat="43.46082" lon="2.22704">
        <ele>774</ele>
        <time>2020-07-25T06:03:12Z</time>
      </trkpt>
      <trkpt lat="43.46089" lon="2.22717">
        <ele>776.3</ele>
        <time>2020-07-25T06:03:17Z</time>
      </trkpt>
      <trkpt lat="43.46097" lon="2.22717">
        <ele>778.6</ele>
        <time>2020-07-25T06:03:21Z</time>
      </trkpt>
      <trkpt lat="43.46107" lon="2.22722">
        <ele>782.5</ele>
        <time>2020-07-25T06:03:26Z</time>
      </trkpt>
      <trkpt lat="43.46115" lon="2.22729">
        <ele>786</ele>
        <time>2020-07-25T06:03:30Z</time>
      </trkpt>
      <trkpt lat="43.46121" lon="2.22735">
        <ele>791</ele>
        <time>2020-07-25T06:03:35Z</time>
      </trkpt>
      <trkpt lat="43.46132" lon="2.22754">
        <ele>790.4</ele>
        <time>2020-07-25T06:03:40Z</time>
      </trkpt>
      <trkpt lat="43.46145" lon="2.22774">
        <ele>786.2</ele>
        <time>2020-07-25T06:03:44Z</time>
      </trkpt>
      <trkpt lat="43.46157" lon="2.22784">
        <ele>785.3</ele>
        <time>2020-07-25T06:03:49Z</time>
      </trkpt>
      <trkpt lat="43.46164" lon="2.22794">
        <ele>784.9</ele>
        <time>2020-07-25T06:03:53Z</time>
      </trkpt>
      <trkpt lat="43.4617" lon="2.22816">
        <ele>783</ele>
        <time>2020-07-25T06:03:58Z</time>
      </trkpt>
      <trkpt lat="43.4617" lon="2.2283">
        <ele>782.4</ele>
        <time>2020-07-25T06:04:02Z</time>
      </trkpt>
      <trkpt lat="43.4617" lon="2.22849">
        <ele>781.7</ele>
        <time>2020-07-25T06:04:06Z</time>
      </trkpt>
      <trkpt lat="43.46175" lon="2.22864">
        <ele>780.7</ele>
        <time>2020-07-25T06:04:10Z</time>
      </trkpt>
      <trkpt lat="43.4618" lon="2.22882">
        <ele>779.3</ele>
        <time>2020-07-25T06:04:14Z</time>
      </trkpt>
      <trkpt lat="43.46182" lon="2.22897">
        <ele>777.9</ele>
        <time>2020-07-25T06:04:18Z</time>
      </trkpt>
      <trkpt lat="43.46184" lon="2.2291">
        <ele>776.6</ele>
        <time>2020-07-25T06:04:22Z</time>
      </trkpt>
      <trkpt lat="43.46178" lon="2.22923">
        <ele>774.3</ele>
        <time>2020-07-25T06:04:26Z</time>
      </trkpt>
      <trkpt lat="43.46178" lon="2.22938">
        <ele>772.9</ele>
        <time>2020-07-25T06:04:30Z</time>
      </trkpt>
      <trkpt lat="43.46178" lon="2.22952">
        <ele>772.4</ele>
        <time>2020-07-25T06:04:34Z</time>
      </trkpt>
      <trkpt lat="43.46184" lon="2.22966">
        <ele>772.6</ele>
        <time>2020-07-25T06:04:38Z</time>
      </trkpt>
      <trkpt lat="43.46189" lon="2.22983">
        <ele>772.9</ele>
        <time>2020-07-25T06:04:42Z</time>
      </trkpt>
      <trkpt lat="43.46192" lon="2.23001">
        <ele>773.3</ele>
        <time>2020-07-25T06:04:47Z</time>
      </trkpt>
      <trkpt lat="43.46195" lon="2.23012">
        <ele>774.5</ele>
        <time>2020-07-25T06:04:51Z</time>
      </trkpt>
      <trkpt lat="43.46196" lon="2.23025">
        <ele>775.1</ele>
        <time>2020-07-25T06:04:55Z</time>
      </trkpt>
      <trkpt lat="43.46206" lon="2.23042">
        <ele>777.2</ele>
        <time>2020-07-25T06:04:59Z</time>
      </trkpt>
      <trkpt lat="43.46217" lon="2.23059">
        <ele>778.4</ele>
        <time>2020-07-25T06:05:04Z</time>
      </trkpt>
      <trkpt lat="43.46224" lon="2.23073">
        <ele>778.6</ele>
        <time>2020-07-25T06:05:08Z</time>
      </trkpt>
      <trkpt lat="43.46233" lon="2.23089">
        <ele>778.3</ele>
        <time>2020-07-25T06:05:13Z</time>
      </trkpt>
      <trkpt lat="43.46242" lon="2.23104">
        <ele>777.7</ele>
        <time>2020-07-25T06:05:17Z</time>
      </trkpt>
      <trkpt lat="43.46251" lon="2.23125">
        <ele>777.7</ele>
        <time>2020-07-25T06:05:22Z</time>
      </trkpt>
      <trkpt lat="43.46257" lon="2.23141">
        <ele>777.8</ele>
        <time>2020-07-25T06:05:27Z</time>
      </trkpt>
      <trkpt lat="43.46265" lon="2.23152">
        <ele>778.6</ele>
        <time>2020-07-25T06:05:31Z</time>
      </trkpt>
      <trkpt lat="43.46271" lon="2.23164">
        <ele>778.8</ele>
        <time>2020-07-25T06:05:35Z</time>
      </trkpt>
      <trkpt lat="43.46281" lon="2.23171">
        <ele>781.4</ele>
        <time>2020-07-25T06:05:39Z</time>
      </trkpt>
      <trkpt lat="43.46287" lon="2.23182">
        <ele>782.7</ele>
        <time>2020-07-25T06:05:43Z</time>
      </trkpt>
      <trkpt lat="43.46295" lon="2.23193">
        <ele>784.7</ele>
        <time>2020-07-25T06:05:47Z</time>
      </trkpt>
      <trkpt lat="43.463" lon="2.23204">
        <ele>786.6</ele>
        <time>2020-07-25T06:05:51Z</time>
      </trkpt>
      <trkpt lat="43.46308" lon="2.23218">
        <ele>788.7</ele>
        <time>2020-07-25T06:05:56Z</time>
      </trkpt>
      <trkpt lat="43.46314" lon="2.23232">
        <ele>789.7</ele>
        <time>2020-07-25T06:06:00Z</time>
      </trkpt>
      <trkpt lat="43.46321" lon="2.23238">
        <ele>790.2</ele>
        <time>2020-07-25T06:06:04Z</time>
      </trkpt>
      <trkpt lat="43.46327" lon="2.2325">
        <ele>790.7</ele>
        <time>2020-07-25T06:06:08Z</time>
      </trkpt>
      <trkpt lat="43.46343" lon="2.23259">
        <ele>790.2</ele>
        <time>2020-07-25T06:06:13Z</time>
      </trkpt>
      <trkpt lat="43.46352" lon="2.23268">
        <ele>789.1</ele>
        <time>2020-07-25T06:06:18Z</time>
      </trkpt>
      <trkpt lat="43.46357" lon="2.23275">
        <ele>788.6</ele>
        <time>2020-07-25T06:06:22Z</time>
      </trkpt>
      <trkpt lat="43.46363" lon="2.23281">
        <ele>790.1</ele>
        <time>2020-07-25T06:06:26Z</time>
      </trkpt>
      <trkpt lat="43.4637" lon="2.23286">
        <ele>791.8</ele>
        <time>2020-07-25T06:06:30Z</time>
      </trkpt>
      <trkpt lat="43.46381" lon="2.23297">
        <ele>792.4</ele>
        <time>2020-07-25T06:06:35Z</time>
      </trkpt>
      <trkpt lat="43.4639" lon="2.23309">
        <ele>792.3</ele>
        <time>2020-07-25T06:06:39Z</time>
      </trkpt>
      <trkpt lat="43.464" lon="2.23326">
        <ele>794.3</ele>
        <time>2020-07-25T06:06:44Z</time>
      </trkpt>
      <trkpt lat="43.46413" lon="2.23339">
        <ele>795.8</ele>
        <time>2020-07-25T06:06:48Z</time>
      </trkpt>
      <trkpt lat="43.46427" lon="2.23355">
        <ele>795.9</ele>
        <time>2020-07-25T06:06:53Z</time>
      </trkpt>
      <trkpt lat="43.4644" lon="2.23374">
        <ele>794.4</ele>
        <time>2020-07-25T06:06:58Z</time>
      </trkpt>
      <trkpt lat="43.46445" lon="2.23388">
        <ele>793</ele>
        <time>2020-07-25T06:07:02Z</time>
      </trkpt>
      <trkpt lat="43.46451" lon="2.234">
        <ele>794.8</ele>
        <time>2020-07-25T06:07:06Z</time>
      </trkpt>
      <trkpt lat="43.46453" lon="2.23411">
        <ele>798.2</ele>
        <time>2020-07-25T06:07:11Z</time>
      </trkpt>
      <trkpt lat="43.46452" lon="2.23418">
        <ele>803.2</ele>
        <time>2020-07-25T06:07:15Z</time>
      </trkpt>
      <trkpt lat="43.46451" lon="2.23424">
        <ele>809.8</ele>
        <time>2020-07-25T06:07:19Z</time>
      </trkpt>
      <trkpt lat="43.4645" lon="2.23429">
        <ele>814.5</ele>
        <time>2020-07-25T06:07:23Z</time>
      </trkpt>
      <trkpt lat="43.46452" lon="2.23442">
        <ele>816.7</ele>
        <time>2020-07-25T06:07:27Z</time>
      </trkpt>
      <trkpt lat="43.46453" lon="2.23447">
        <ele>818.3</ele>
        <time>2020-07-25T06:07:31Z</time>
      </trkpt>
      <trkpt lat="43.46451" lon="2.23461">
        <ele>819.5</ele>
        <time>2020-07-25T06:07:35Z</time>
      </trkpt>
      <trkpt lat="43.4644" lon="2.2347">
        <ele>819.5</ele>
        <time>2020-07-25T06:07:40Z</time>
      </trkpt>
      <trkpt lat="43.46431" lon="2.2348">
        <ele>820.5</ele>
        <time>2020-07-25T06:07:44Z</time>
      </trkpt>
      <trkpt lat="43.46426" lon="2.23493">
        <ele>822</ele>
        <time>2020-07-25T06:07:48Z</time>
      </trkpt>
      <trkpt lat="43.46425" lon="2.23503">
        <ele>822.9</ele>
        <time>2020-07-25T06:07:52Z</time>
      </trkpt>
      <trkpt lat="43.4643" lon="2.23516">
        <ele>824</ele>
        <time>2020-07-25T06:07:57Z</time>
      </trkpt>
      <trkpt lat="43.46432" lon="2.23532">
        <ele>825.5</ele>
        <time>2020-07-25T06:08:01Z</time>
      </trkpt>
      <trkpt lat="43.46432" lon="2.23549">
        <ele>826.6</ele>
        <time>2020-07-25T06:08:05Z</time>
      </trkpt>
      <trkpt lat="43.46435" lon="2.23569">
        <ele>828.8</ele>
        <time>2020-07-25T06:08:09Z</time>
      </trkpt>
      <trkpt lat="43.46438" lon="2.23584">
        <ele>831.7</ele>
        <time>2020-07-25T06:08:13Z</time>
      </trkpt>
      <trkpt lat="43.46446" lon="2.23613">
        <ele>835.2</ele>
        <time>2020-07-25T06:08:18Z</time>
      </trkpt>
      <trkpt lat="43.46445" lon="2.23636">
        <ele>837.7</ele>
        <time>2020-07-25T06:08:22Z</time>
      </trkpt>
      <trkpt lat="43.46441" lon="2.23655">
        <ele>838.5</ele>
        <time>2020-07-25T06:08:26Z</time>
      </trkpt>
      <trkpt lat="43.46432" lon="2.23672">
        <ele>837.4</ele>
        <time>2020-07-25T06:08:31Z</time>
      </trkpt>
      <trkpt lat="43.46419" lon="2.23681">
        <ele>836.9</ele>
        <time>2020-07-25T06:08:36Z</time>
      </trkpt>
      <trkpt lat="43.46412" lon="2.23687">
        <ele>837.3</ele>
        <time>2020-07-25T06:08:40Z</time>
      </trkpt>
      <trkpt lat="43.46403" lon="2.2369">
        <ele>838</ele>
        <time>2020-07-25T06:08:44Z</time>
      </trkpt>
      <trkpt lat="43.46386" lon="2.23693">
        <ele>836.2</ele>
        <time>2020-07-25T06:08:48Z</time>
      </trkpt>
      <trkpt lat="43.46371" lon="2.23697">
        <ele>836.6</ele>
        <time>2020-07-25T06:08:52Z</time>
      </trkpt>
      <trkpt lat="43.46359" lon="2.23704">
        <ele>839.2</ele>
        <time>2020-07-25T06:08:56Z</time>
      </trkpt>
      <trkpt lat="43.46345" lon="2.23716">
        <ele>840.2</ele>
        <time>2020-07-25T06:09:01Z</time>
      </trkpt>
      <trkpt lat="43.46339" lon="2.23728">
        <ele>840.1</ele>
        <time>2020-07-25T06:09:05Z</time>
      </trkpt>
      <trkpt lat="43.4633" lon="2.23736">
        <ele>839.8</ele>
        <time>2020-07-25T06:09:09Z</time>
      </trkpt>
      <trkpt lat="43.4632" lon="2.23746">
        <ele>839.3</ele>
        <time>2020-07-25T06:09:13Z</time>
      </trkpt>
      <trkpt lat="43.46305" lon="2.23752">
        <ele>838.2</ele>
        <time>2020-07-25T06:09:17Z</time>
      </trkpt>
      <trkpt lat="43.46294" lon="2.2376">
        <ele>837.6</ele>
        <time>2020-07-25T06:09:21Z</time>
      </trkpt>
      <trkpt lat="43.46285" lon="2.23769">
        <ele>837.4</ele>
        <time>2020-07-25T06:09:25Z</time>
      </trkpt>
      <trkpt lat="43.46274" lon="2.23772">
        <ele>837.8</ele>
        <time>2020-07-25T06:09:29Z</time>
      </trkpt>
      <trkpt lat="43.46257" lon="2.23776">
        <ele>838</ele>
        <time>2020-07-25T06:09:34Z</time>
      </trkpt>
      <trkpt lat="43.46247" lon="2.23782">
        <ele>838.5</ele>
        <time>2020-07-25T06:09:38Z</time>
      </trkpt>
      <trkpt lat="43.46237" lon="2.23787">
        <ele>839.5</ele>
        <time>2020-07-25T06:09:42Z</time>
      </trkpt>
      <trkpt lat="43.46222" lon="2.2379">
        <ele>837.1</ele>
        <time>2020-07-25T06:09:47Z</time>
      </trkpt>
      <trkpt lat="43.46209" lon="2.23789">
        <ele>835.3</ele>
        <time>2020-07-25T06:09:51Z</time>
      </trkpt>
      <trkpt lat="43.462" lon="2.23786">
        <ele>835.3</ele>
        <time>2020-07-25T06:09:56Z</time>
      </trkpt>
      <trkpt lat="43.46192" lon="2.2379">
        <ele>835.1</ele>
        <time>2020-07-25T06:10:00Z</time>
      </trkpt>
      <trkpt lat="43.46185" lon="2.2379">
        <ele>833.2</ele>
        <time>2020-07-25T06:10:04Z</time>
      </trkpt>
      <trkpt lat="43.46177" lon="2.23787">
        <ele>830.7</ele>
        <time>2020-07-25T06:10:08Z</time>
      </trkpt>
      <trkpt lat="43.46162" lon="2.23788">
        <ele>827.8</ele>
        <time>2020-07-25T06:10:13Z</time>
      </trkpt>
      <trkpt lat="43.4614" lon="2.23779">
        <ele>821.2</ele>
        <time>2020-07-25T06:10:18Z</time>
      </trkpt>
      <trkpt lat="43.46132" lon="2.23778">
        <ele>822.9</ele>
        <time>2020-07-25T06:10:22Z</time>
      </trkpt>
      <trkpt lat="43.46128" lon="2.23779">
        <ele>822.5</ele>
        <time>2020-07-25T06:10:27Z</time>
      </trkpt>
      <trkpt lat="43.46128" lon="2.23779">
        <ele>822.5</ele>
        <time>2020-07-25T06:11:32Z</time>
      </trkpt>
      <trkpt lat="43.46119" lon="2.23776">
        <ele>821.4</ele>
        <time>2020-07-25T06:11:37Z</time>
      </trkpt>
      <trkpt lat="43.46119" lon="2.23776">
        <ele>821.4</ele>
        <time>2020-07-25T06:11:48Z</time>
      </trkpt>
      <trkpt lat="43.46108" lon="2.23764">
        <ele>822.4</ele>
        <time>2020-07-25T06:11:52Z</time>
      </trkpt>
      <trkpt lat="43.46103" lon="2.23757">
        <ele>822.9</ele>
        <time>2020-07-25T06:11:56Z</time>
      </trkpt>
      <trkpt lat="43.46095" lon="2.23749">
        <ele>823.4</ele>
        <time>2020-07-25T06:12:00Z</time>
      </trkpt>
      <trkpt lat="43.46082" lon="2.2373">
        <ele>823.7</ele>
        <time>2020-07-25T06:12:05Z</time>
      </trkpt>
      <trkpt lat="43.46068" lon="2.23713">
        <ele>823.8</ele>
        <time>2020-07-25T06:12:09Z</time>
      </trkpt>
      <trkpt lat="43.46052" lon="2.2369">
        <ele>823.4</ele>
        <time>2020-07-25T06:12:14Z</time>
      </trkpt>
      <trkpt lat="43.46038" lon="2.23669">
        <ele>822.4</ele>
        <time>2020-07-25T06:12:19Z</time>
      </trkpt>
      <trkpt lat="43.4603" lon="2.23658">
        <ele>821.9</ele>
        <time>2020-07-25T06:12:23Z</time>
      </trkpt>
      <trkpt lat="43.46021" lon="2.23651">
        <ele>821</ele>
        <time>2020-07-25T06:12:27Z</time>
      </trkpt>
      <trkpt lat="43.46002" lon="2.23647">
        <ele>820.3</ele>
        <time>2020-07-25T06:12:32Z</time>
      </trkpt>
      <trkpt lat="43.45981" lon="2.23652">
        <ele>819.3</ele>
        <time>2020-07-25T06:12:37Z</time>
      </trkpt>
      <trkpt lat="43.45962" lon="2.23664">
        <ele>817.6</ele>
        <time>2020-07-25T06:12:41Z</time>
      </trkpt>
      <trkpt lat="43.4595" lon="2.23686">
        <ele>817.4</ele>
        <time>2020-07-25T06:12:46Z</time>
      </trkpt>
      <trkpt lat="43.45944" lon="2.237">
        <ele>817.8</ele>
        <time>2020-07-25T06:12:50Z</time>
      </trkpt>
      <trkpt lat="43.45941" lon="2.23723">
        <ele>819.1</ele>
        <time>2020-07-25T06:12:54Z</time>
      </trkpt>
      <trkpt lat="43.45942" lon="2.23738">
        <ele>818.8</ele>
        <time>2020-07-25T06:12:58Z</time>
      </trkpt>
      <trkpt lat="43.45947" lon="2.23752">
        <ele>816.5</ele>
        <time>2020-07-25T06:13:02Z</time>
      </trkpt>
      <trkpt lat="43.4595" lon="2.23766">
        <ele>814.5</ele>
        <time>2020-07-25T06:13:07Z</time>
      </trkpt>
      <trkpt lat="43.45951" lon="2.23781">
        <ele>815</ele>
        <time>2020-07-25T06:13:12Z</time>
      </trkpt>
      <trkpt lat="43.45957" lon="2.23793">
        <ele>815.6</ele>
        <time>2020-07-25T06:13:16Z</time>
      </trkpt>
      <trkpt lat="43.45963" lon="2.23807">
        <ele>817.3</ele>
        <time>2020-07-25T06:13:21Z</time>
      </trkpt>
      <trkpt lat="43.45969" lon="2.23819">
        <ele>818.3</ele>
        <time>2020-07-25T06:13:25Z</time>
      </trkpt>
      <trkpt lat="43.45977" lon="2.23827">
        <ele>816.9</ele>
        <time>2020-07-25T06:13:29Z</time>
      </trkpt>
      <trkpt lat="43.45986" lon="2.23835">
        <ele>816.6</ele>
        <time>2020-07-25T06:13:33Z</time>
      </trkpt>
      <trkpt lat="43.45996" lon="2.23847">
        <ele>817.4</ele>
        <time>2020-07-25T06:13:37Z</time>
      </trkpt>
      <trkpt lat="43.46004" lon="2.23856">
        <ele>818.7</ele>
        <time>2020-07-25T06:13:41Z</time>
      </trkpt>
      <trkpt lat="43.46011" lon="2.23861">
        <ele>819.7</ele>
        <time>2020-07-25T06:13:45Z</time>
      </trkpt>
      <trkpt lat="43.46017" lon="2.23877">
        <ele>822.1</ele>
        <time>2020-07-25T06:13:50Z</time>
      </trkpt>
      <trkpt lat="43.46022" lon="2.23893">
        <ele>820.9</ele>
        <time>2020-07-25T06:13:54Z</time>
      </trkpt>
      <trkpt lat="43.4603" lon="2.23909">
        <ele>818.5</ele>
        <time>2020-07-25T06:13:59Z</time>
      </trkpt>
      <trkpt lat="43.46033" lon="2.23924">
        <ele>823.4</ele>
        <time>2020-07-25T06:14:04Z</time>
      </trkpt>
      <trkpt lat="43.46033" lon="2.23938">
        <ele>826.2</ele>
        <time>2020-07-25T06:14:08Z</time>
      </trkpt>
      <trkpt lat="43.46034" lon="2.23957">
        <ele>829.9</ele>
        <time>2020-07-25T06:14:12Z</time>
      </trkpt>
      <trkpt lat="43.4604" lon="2.23976">
        <ele>831.3</ele>
        <time>2020-07-25T06:14:17Z</time>
      </trkpt>
      <trkpt lat="43.46046" lon="2.23992">
        <ele>833.8</ele>
        <time>2020-07-25T06:14:22Z</time>
      </trkpt>
      <trkpt lat="43.46052" lon="2.23999">
        <ele>836.5</ele>
        <time>2020-07-25T06:14:26Z</time>
      </trkpt>
      <trkpt lat="43.46063" lon="2.24007">
        <ele>840.3</ele>
        <time>2020-07-25T06:14:30Z</time>
      </trkpt>
      <trkpt lat="43.46078" lon="2.24011">
        <ele>846</ele>
        <time>2020-07-25T06:14:34Z</time>
      </trkpt>
      <trkpt lat="43.4609" lon="2.24013">
        <ele>848.4</ele>
        <time>2020-07-25T06:14:38Z</time>
      </trkpt>
      <trkpt lat="43.46103" lon="2.24014">
        <ele>850.6</ele>
        <time>2020-07-25T06:14:42Z</time>
      </trkpt>
      <trkpt lat="43.46121" lon="2.24018">
        <ele>853.1</ele>
        <time>2020-07-25T06:14:47Z</time>
      </trkpt>
      <trkpt lat="43.46142" lon="2.24025">
        <ele>852.3</ele>
        <time>2020-07-25T06:14:52Z</time>
      </trkpt>
      <trkpt lat="43.46156" lon="2.24029">
        <ele>851.7</ele>
        <time>2020-07-25T06:14:56Z</time>
      </trkpt>
      <trkpt lat="43.46171" lon="2.24043">
        <ele>849.1</ele>
        <time>2020-07-25T06:15:01Z</time>
      </trkpt>
      <trkpt lat="43.46183" lon="2.24048">
        <ele>846.7</ele>
        <time>2020-07-25T06:15:05Z</time>
      </trkpt>
      <trkpt lat="43.46198" lon="2.24049">
        <ele>843.4</ele>
        <time>2020-07-25T06:15:09Z</time>
      </trkpt>
      <trkpt lat="43.4621" lon="2.24055">
        <ele>844</ele>
        <time>2020-07-25T06:15:13Z</time>
      </trkpt>
      <trkpt lat="43.46222" lon="2.24057">
        <ele>846.4</ele>
        <time>2020-07-25T06:15:17Z</time>
      </trkpt>
      <trkpt lat="43.46232" lon="2.2406">
        <ele>849.8</ele>
        <time>2020-07-25T06:15:21Z</time>
      </trkpt>
      <trkpt lat="43.46228" lon="2.24059">
        <ele>851</ele>
        <time>2020-07-25T06:15:32Z</time>
      </trkpt>
      <trkpt lat="43.46222" lon="2.24059">
        <ele>850.4</ele>
        <time>2020-07-25T06:15:36Z</time>
      </trkpt>
      <trkpt lat="43.46213" lon="2.2406">
        <ele>850.5</ele>
        <time>2020-07-25T06:15:41Z</time>
      </trkpt>
      <trkpt lat="43.46205" lon="2.24062">
        <ele>850.2</ele>
        <time>2020-07-25T06:15:45Z</time>
      </trkpt>
      <trkpt lat="43.46199" lon="2.24064">
        <ele>850.5</ele>
        <time>2020-07-25T06:15:49Z</time>
      </trkpt>
      <trkpt lat="43.46186" lon="2.24061">
        <ele>851.6</ele>
        <time>2020-07-25T06:15:53Z</time>
      </trkpt>
      <trkpt lat="43.46175" lon="2.2406">
        <ele>852</ele>
        <time>2020-07-25T06:15:57Z</time>
      </trkpt>
      <trkpt lat="43.46161" lon="2.24061">
        <ele>849.9</ele>
        <time>2020-07-25T06:16:02Z</time>
      </trkpt>
      <trkpt lat="43.46151" lon="2.24061">
        <ele>850.5</ele>
        <time>2020-07-25T06:16:06Z</time>
      </trkpt>
      <trkpt lat="43.46138" lon="2.24059">
        <ele>850.3</ele>
        <time>2020-07-25T06:16:10Z</time>
      </trkpt>
      <trkpt lat="43.46125" lon="2.24061">
        <ele>851</ele>
        <time>2020-07-25T06:16:14Z</time>
      </trkpt>
      <trkpt lat="43.46111" lon="2.24069">
        <ele>854.3</ele>
        <time>2020-07-25T06:16:18Z</time>
      </trkpt>
      <trkpt lat="43.46097" lon="2.24085">
        <ele>851.6</ele>
        <time>2020-07-25T06:16:23Z</time>
      </trkpt>
      <trkpt lat="43.46087" lon="2.24099">
        <ele>849</ele>
        <time>2020-07-25T06:16:27Z</time>
      </trkpt>
      <trkpt lat="43.46071" lon="2.24115">
        <ele>846.8</ele>
        <time>2020-07-25T06:16:32Z</time>
      </trkpt>
      <trkpt lat="43.46064" lon="2.2412">
        <ele>850.1</ele>
        <time>2020-07-25T06:16:36Z</time>
      </trkpt>
      <trkpt lat="43.46061" lon="2.24133">
        <ele>854.4</ele>
        <time>2020-07-25T06:16:41Z</time>
      </trkpt>
      <trkpt lat="43.46059" lon="2.24148">
        <ele>859.4</ele>
        <time>2020-07-25T06:16:45Z</time>
      </trkpt>
      <trkpt lat="43.46055" lon="2.24164">
        <ele>862.7</ele>
        <time>2020-07-25T06:16:50Z</time>
      </trkpt>
      <trkpt lat="43.46054" lon="2.24174">
        <ele>864</ele>
        <time>2020-07-25T06:16:54Z</time>
      </trkpt>
      <trkpt lat="43.46052" lon="2.24189">
        <ele>868.5</ele>
        <time>2020-07-25T06:16:59Z</time>
      </trkpt>
      <trkpt lat="43.46047" lon="2.24206">
        <ele>871.7</ele>
        <time>2020-07-25T06:17:04Z</time>
      </trkpt>
      <trkpt lat="43.46046" lon="2.24218">
        <ele>873.8</ele>
        <time>2020-07-25T06:17:08Z</time>
      </trkpt>
      <trkpt lat="43.46049" lon="2.2423">
        <ele>875.8</ele>
        <time>2020-07-25T06:17:12Z</time>
      </trkpt>
      <trkpt lat="43.46057" lon="2.2425">
        <ele>873.1</ele>
        <time>2020-07-25T06:17:17Z</time>
      </trkpt>
      <trkpt lat="43.46066" lon="2.2427">
        <ele>869.6</ele>
        <time>2020-07-25T06:17:21Z</time>
      </trkpt>
      <trkpt lat="43.4607" lon="2.24284">
        <ele>867.3</ele>
        <time>2020-07-25T06:17:25Z</time>
      </trkpt>
      <trkpt lat="43.4608" lon="2.243">
        <ele>862.3</ele>
        <time>2020-07-25T06:17:29Z</time>
      </trkpt>
      <trkpt lat="43.46086" lon="2.24316">
        <ele>857.1</ele>
        <time>2020-07-25T06:17:33Z</time>
      </trkpt>
      <trkpt lat="43.46086" lon="2.24331">
        <ele>854.9</ele>
        <time>2020-07-25T06:17:38Z</time>
      </trkpt>
      <trkpt lat="43.46086" lon="2.24344">
        <ele>854.3</ele>
        <time>2020-07-25T06:17:42Z</time>
      </trkpt>
      <trkpt lat="43.46087" lon="2.24359">
        <ele>853.8</ele>
        <time>2020-07-25T06:17:46Z</time>
      </trkpt>
      <trkpt lat="43.46086" lon="2.24373">
        <ele>853.9</ele>
        <time>2020-07-25T06:17:50Z</time>
      </trkpt>
      <trkpt lat="43.46083" lon="2.24391">
        <ele>858.3</ele>
        <time>2020-07-25T06:17:55Z</time>
      </trkpt>
      <trkpt lat="43.46077" lon="2.2441">
        <ele>861.7</ele>
        <time>2020-07-25T06:18:00Z</time>
      </trkpt>
      <trkpt lat="43.4607" lon="2.24427">
        <ele>861.6</ele>
        <time>2020-07-25T06:18:04Z</time>
      </trkpt>
      <trkpt lat="43.46065" lon="2.24445">
        <ele>863.3</ele>
        <time>2020-07-25T06:18:08Z</time>
      </trkpt>
      <trkpt lat="43.46061" lon="2.24464">
        <ele>866.3</ele>
        <time>2020-07-25T06:18:12Z</time>
      </trkpt>
      <trkpt lat="43.46056" lon="2.24484">
        <ele>867.6</ele>
        <time>2020-07-25T06:18:16Z</time>
      </trkpt>
      <trkpt lat="43.46052" lon="2.24502">
        <ele>869.1</ele>
        <time>2020-07-25T06:18:20Z</time>
      </trkpt>
      <trkpt lat="43.46047" lon="2.2453">
        <ele>870.1</ele>
        <time>2020-07-25T06:18:25Z</time>
      </trkpt>
      <trkpt lat="43.46041" lon="2.24555">
        <ele>869.7</ele>
        <time>2020-07-25T06:18:30Z</time>
      </trkpt>
      <trkpt lat="43.46039" lon="2.24577">
        <ele>871.5</ele>
        <time>2020-07-25T06:18:35Z</time>
      </trkpt>
      <trkpt lat="43.46036" lon="2.24598">
        <ele>872.8</ele>
        <time>2020-07-25T06:18:39Z</time>
      </trkpt>
      <trkpt lat="43.46029" lon="2.24622">
        <ele>874.2</ele>
        <time>2020-07-25T06:18:44Z</time>
      </trkpt>
      <trkpt lat="43.46025" lon="2.24648">
        <ele>874.4</ele>
        <time>2020-07-25T06:18:49Z</time>
      </trkpt>
      <trkpt lat="43.46025" lon="2.24676">
        <ele>874.1</ele>
        <time>2020-07-25T06:18:53Z</time>
      </trkpt>
      <trkpt lat="43.46021" lon="2.24703">
        <ele>872.7</ele>
        <time>2020-07-25T06:18:58Z</time>
      </trkpt>
      <trkpt lat="43.46014" lon="2.2473">
        <ele>871.1</ele>
        <time>2020-07-25T06:19:02Z</time>
      </trkpt>
      <trkpt lat="43.46007" lon="2.24753">
        <ele>871.6</ele>
        <time>2020-07-25T06:19:06Z</time>
      </trkpt>
      <trkpt lat="43.45998" lon="2.24778">
        <ele>870.9</ele>
        <time>2020-07-25T06:19:10Z</time>
      </trkpt>
      <trkpt lat="43.4599" lon="2.24801">
        <ele>871.2</ele>
        <time>2020-07-25T06:19:14Z</time>
      </trkpt>
      <trkpt lat="43.45984" lon="2.24831">
        <ele>873</ele>
        <time>2020-07-25T06:19:19Z</time>
      </trkpt>
      <trkpt lat="43.45982" lon="2.24858">
        <ele>874.5</ele>
        <time>2020-07-25T06:19:23Z</time>
      </trkpt>
      <trkpt lat="43.45981" lon="2.24885">
        <ele>874.4</ele>
        <time>2020-07-25T06:19:27Z</time>
      </trkpt>
      <trkpt lat="43.45978" lon="2.24915">
        <ele>873.9</ele>
        <time>2020-07-25T06:19:31Z</time>
      </trkpt>
      <trkpt lat="43.45976" lon="2.24946">
        <ele>872.8</ele>
        <time>2020-07-25T06:19:35Z</time>
      </trkpt>
      <trkpt lat="43.4597" lon="2.2498">
        <ele>872</ele>
        <time>2020-07-25T06:19:40Z</time>
      </trkpt>
      <trkpt lat="43.45963" lon="2.25016">
        <ele>872.4</ele>
        <time>2020-07-25T06:19:45Z</time>
      </trkpt>
      <trkpt lat="43.45956" lon="2.25045">
        <ele>870.4</ele>
        <time>2020-07-25T06:19:49Z</time>
      </trkpt>
      <trkpt lat="43.4594" lon="2.25071">
        <ele>872.6</ele>
        <time>2020-07-25T06:19:53Z</time>
      </trkpt>
      <trkpt lat="43.4592" lon="2.25092">
        <ele>869.2</ele>
        <time>2020-07-25T06:19:57Z</time>
      </trkpt>
      <trkpt lat="43.45894" lon="2.25109">
        <ele>867.3</ele>
        <time>2020-07-25T06:20:01Z</time>
      </trkpt>
      <trkpt lat="43.45867" lon="2.25129">
        <ele>866</ele>
        <time>2020-07-25T06:20:05Z</time>
      </trkpt>
      <trkpt lat="43.4583" lon="2.25157">
        <ele>863.6</ele>
        <time>2020-07-25T06:20:10Z</time>
      </trkpt>
      <trkpt lat="43.458" lon="2.25179">
        <ele>863.3</ele>
        <time>2020-07-25T06:20:14Z</time>
      </trkpt>
      <trkpt lat="43.45768" lon="2.25204">
        <ele>862.5</ele>
        <time>2020-07-25T06:20:18Z</time>
      </trkpt>
      <trkpt lat="43.4573" lon="2.25231">
        <ele>860.9</ele>
        <time>2020-07-25T06:20:23Z</time>
      </trkpt>
      <trkpt lat="43.457" lon="2.25251">
        <ele>859.7</ele>
        <time>2020-07-25T06:20:27Z</time>
      </trkpt>
      <trkpt lat="43.45669" lon="2.25274">
        <ele>858.2</ele>
        <time>2020-07-25T06:20:31Z</time>
      </trkpt>
      <trkpt lat="43.45635" lon="2.25299">
        <ele>856</ele>
        <time>2020-07-25T06:20:35Z</time>
      </trkpt>
      <trkpt lat="43.45601" lon="2.25321">
        <ele>854.2</ele>
        <time>2020-07-25T06:20:39Z</time>
      </trkpt>
      <trkpt lat="43.45566" lon="2.25346">
        <ele>851.5</ele>
        <time>2020-07-25T06:20:43Z</time>
      </trkpt>
      <trkpt lat="43.45548" lon="2.25384">
        <ele>848.6</ele>
        <time>2020-07-25T06:20:47Z</time>
      </trkpt>
      <trkpt lat="43.45553" lon="2.25429">
        <ele>847.2</ele>
        <time>2020-07-25T06:20:51Z</time>
      </trkpt>
      <trkpt lat="43.45567" lon="2.25462">
        <ele>846</ele>
        <time>2020-07-25T06:20:55Z</time>
      </trkpt>
      <trkpt lat="43.4558" lon="2.25487">
        <ele>844.9</ele>
        <time>2020-07-25T06:20:59Z</time>
      </trkpt>
      <trkpt lat="43.45602" lon="2.25516">
        <ele>843.5</ele>
        <time>2020-07-25T06:21:03Z</time>
      </trkpt>
      <trkpt lat="43.45624" lon="2.25543">
        <ele>839.8</ele>
        <time>2020-07-25T06:21:08Z</time>
      </trkpt>
      <trkpt lat="43.45647" lon="2.25567">
        <ele>837.6</ele>
        <time>2020-07-25T06:21:12Z</time>
      </trkpt>
      <trkpt lat="43.45686" lon="2.25621">
        <ele>826.4</ele>
        <time>2020-07-25T06:21:16Z</time>
      </trkpt>
      <trkpt lat="43.45685" lon="2.25707">
        <ele>818.6</ele>
        <time>2020-07-25T06:21:21Z</time>
      </trkpt>
      <trkpt lat="43.45664" lon="2.25753">
        <ele>816</ele>
        <time>2020-07-25T06:21:25Z</time>
      </trkpt>
      <trkpt lat="43.45634" lon="2.2579">
        <ele>815.2</ele>
        <time>2020-07-25T06:21:30Z</time>
      </trkpt>
      <trkpt lat="43.45609" lon="2.25794">
        <ele>813.4</ele>
        <time>2020-07-25T06:21:34Z</time>
      </trkpt>
      <trkpt lat="43.45586" lon="2.25788">
        <ele>811.5</ele>
        <time>2020-07-25T06:21:38Z</time>
      </trkpt>
      <trkpt lat="43.45569" lon="2.25773">
        <ele>810.6</ele>
        <time>2020-07-25T06:21:42Z</time>
      </trkpt>
      <trkpt lat="43.4556" lon="2.25754">
        <ele>812.1</ele>
        <time>2020-07-25T06:21:46Z</time>
      </trkpt>
      <trkpt lat="43.4555" lon="2.25737">
        <ele>812.6</ele>
        <time>2020-07-25T06:21:50Z</time>
      </trkpt>
      <trkpt lat="43.45537" lon="2.25726">
        <ele>813.1</ele>
        <time>2020-07-25T06:21:54Z</time>
      </trkpt>
      <trkpt lat="43.45524" lon="2.25721">
        <ele>813.3</ele>
        <time>2020-07-25T06:21:58Z</time>
      </trkpt>
      <trkpt lat="43.45506" lon="2.25723">
        <ele>812.8</ele>
        <time>2020-07-25T06:22:03Z</time>
      </trkpt>
      <trkpt lat="43.45494" lon="2.25732">
        <ele>811.9</ele>
        <time>2020-07-25T06:22:07Z</time>
      </trkpt>
      <trkpt lat="43.45478" lon="2.2574">
        <ele>812</ele>
        <time>2020-07-25T06:22:11Z</time>
      </trkpt>
      <trkpt lat="43.45464" lon="2.25753">
        <ele>813.7</ele>
        <time>2020-07-25T06:22:15Z</time>
      </trkpt>
      <trkpt lat="43.45449" lon="2.25766">
        <ele>818.7</ele>
        <time>2020-07-25T06:22:19Z</time>
      </trkpt>
      <trkpt lat="43.4543" lon="2.25779">
        <ele>827.8</ele>
        <time>2020-07-25T06:22:24Z</time>
      </trkpt>
      <trkpt lat="43.45414" lon="2.25789">
        <ele>833.3</ele>
        <time>2020-07-25T06:22:28Z</time>
      </trkpt>
      <trkpt lat="43.45398" lon="2.258">
        <ele>837.4</ele>
        <time>2020-07-25T06:22:32Z</time>
      </trkpt>
      <trkpt lat="43.45379" lon="2.25808">
        <ele>843.4</ele>
        <time>2020-07-25T06:22:36Z</time>
      </trkpt>
      <trkpt lat="43.45358" lon="2.25818">
        <ele>846.6</ele>
        <time>2020-07-25T06:22:41Z</time>
      </trkpt>
      <trkpt lat="43.45343" lon="2.25827">
        <ele>847.5</ele>
        <time>2020-07-25T06:22:45Z</time>
      </trkpt>
      <trkpt lat="43.45327" lon="2.25837">
        <ele>850.3</ele>
        <time>2020-07-25T06:22:49Z</time>
      </trkpt>
      <trkpt lat="43.45311" lon="2.2585">
        <ele>852.9</ele>
        <time>2020-07-25T06:22:54Z</time>
      </trkpt>
      <trkpt lat="43.4529" lon="2.25865">
        <ele>852.9</ele>
        <time>2020-07-25T06:22:59Z</time>
      </trkpt>
      <trkpt lat="43.45274" lon="2.25879">
        <ele>853.2</ele>
        <time>2020-07-25T06:23:03Z</time>
      </trkpt>
      <trkpt lat="43.45253" lon="2.25898">
        <ele>852.8</ele>
        <time>2020-07-25T06:23:08Z</time>
      </trkpt>
      <trkpt lat="43.45237" lon="2.25913">
        <ele>852.2</ele>
        <time>2020-07-25T06:23:12Z</time>
      </trkpt>
      <trkpt lat="43.45218" lon="2.25926">
        <ele>851.8</ele>
        <time>2020-07-25T06:23:16Z</time>
      </trkpt>
      <trkpt lat="43.452" lon="2.25941">
        <ele>852.8</ele>
        <time>2020-07-25T06:23:20Z</time>
      </trkpt>
      <trkpt lat="43.45182" lon="2.25953">
        <ele>852.9</ele>
        <time>2020-07-25T06:23:24Z</time>
      </trkpt>
      <trkpt lat="43.45156" lon="2.25959">
        <ele>853.6</ele>
        <time>2020-07-25T06:23:29Z</time>
      </trkpt>
      <trkpt lat="43.45136" lon="2.25965">
        <ele>855</ele>
        <time>2020-07-25T06:23:33Z</time>
      </trkpt>
      <trkpt lat="43.45118" lon="2.25974">
        <ele>854.2</ele>
        <time>2020-07-25T06:23:37Z</time>
      </trkpt>
      <trkpt lat="43.45093" lon="2.25977">
        <ele>852.5</ele>
        <time>2020-07-25T06:23:42Z</time>
      </trkpt>
      <trkpt lat="43.45069" lon="2.25977">
        <ele>852.3</ele>
        <time>2020-07-25T06:23:47Z</time>
      </trkpt>
      <trkpt lat="43.45048" lon="2.25974">
        <ele>850.9</ele>
        <time>2020-07-25T06:23:51Z</time>
      </trkpt>
      <trkpt lat="43.45021" lon="2.25972">
        <ele>849.1</ele>
        <time>2020-07-25T06:23:56Z</time>
      </trkpt>
      <trkpt lat="43.45" lon="2.25973">
        <ele>847.6</ele>
        <time>2020-07-25T06:24:00Z</time>
      </trkpt>
      <trkpt lat="43.44974" lon="2.25974">
        <ele>843.9</ele>
        <time>2020-07-25T06:24:05Z</time>
      </trkpt>
      <trkpt lat="43.44951" lon="2.25969">
        <ele>841.1</ele>
        <time>2020-07-25T06:24:09Z</time>
      </trkpt>
      <trkpt lat="43.44924" lon="2.25973">
        <ele>837.8</ele>
        <time>2020-07-25T06:24:14Z</time>
      </trkpt>
      <trkpt lat="43.44903" lon="2.25978">
        <ele>835.3</ele>
        <time>2020-07-25T06:24:18Z</time>
      </trkpt>
      <trkpt lat="43.4488" lon="2.25996">
        <ele>833</ele>
        <time>2020-07-25T06:24:23Z</time>
      </trkpt>
      <trkpt lat="43.44857" lon="2.26016">
        <ele>831.1</ele>
        <time>2020-07-25T06:24:28Z</time>
      </trkpt>
      <trkpt lat="43.44837" lon="2.2603">
        <ele>830.2</ele>
        <time>2020-07-25T06:24:32Z</time>
      </trkpt>
      <trkpt lat="43.44814" lon="2.26057">
        <ele>829.9</ele>
        <time>2020-07-25T06:24:37Z</time>
      </trkpt>
      <trkpt lat="43.44793" lon="2.26081">
        <ele>835.9</ele>
        <time>2020-07-25T06:24:41Z</time>
      </trkpt>
      <trkpt lat="43.44777" lon="2.26099">
        <ele>837.4</ele>
        <time>2020-07-25T06:24:46Z</time>
      </trkpt>
      <trkpt lat="43.44758" lon="2.26115">
        <ele>837.9</ele>
        <time>2020-07-25T06:24:50Z</time>
      </trkpt>
      <trkpt lat="43.44739" lon="2.26131">
        <ele>838.5</ele>
        <time>2020-07-25T06:24:54Z</time>
      </trkpt>
      <trkpt lat="43.44714" lon="2.26148">
        <ele>842.9</ele>
        <time>2020-07-25T06:24:59Z</time>
      </trkpt>
      <trkpt lat="43.44693" lon="2.26151">
        <ele>845</ele>
        <time>2020-07-25T06:25:03Z</time>
      </trkpt>
      <trkpt lat="43.4467" lon="2.26132">
        <ele>845.5</ele>
        <time>2020-07-25T06:25:08Z</time>
      </trkpt>
      <trkpt lat="43.44656" lon="2.26103">
        <ele>846.2</ele>
        <time>2020-07-25T06:25:13Z</time>
      </trkpt>
      <trkpt lat="43.44643" lon="2.26078">
        <ele>846.4</ele>
        <time>2020-07-25T06:25:17Z</time>
      </trkpt>
      <trkpt lat="43.44626" lon="2.26061">
        <ele>846.4</ele>
        <time>2020-07-25T06:25:21Z</time>
      </trkpt>
      <trkpt lat="43.44603" lon="2.26058">
        <ele>846.7</ele>
        <time>2020-07-25T06:25:25Z</time>
      </trkpt>
      <trkpt lat="43.44579" lon="2.26067">
        <ele>846.9</ele>
        <time>2020-07-25T06:25:29Z</time>
      </trkpt>
      <trkpt lat="43.44558" lon="2.26078">
        <ele>849.4</ele>
        <time>2020-07-25T06:25:33Z</time>
      </trkpt>
      <trkpt lat="43.44537" lon="2.26086">
        <ele>852.9</ele>
        <time>2020-07-25T06:25:37Z</time>
      </trkpt>
      <trkpt lat="43.44515" lon="2.26086">
        <ele>851.3</ele>
        <time>2020-07-25T06:25:41Z</time>
      </trkpt>
      <trkpt lat="43.44495" lon="2.26078">
        <ele>849.1</ele>
        <time>2020-07-25T06:25:45Z</time>
      </trkpt>
      <trkpt lat="43.44473" lon="2.26064">
        <ele>848.6</ele>
        <time>2020-07-25T06:25:49Z</time>
      </trkpt>
      <trkpt lat="43.4445" lon="2.26042">
        <ele>848.3</ele>
        <time>2020-07-25T06:25:53Z</time>
      </trkpt>
      <trkpt lat="43.44426" lon="2.26012">
        <ele>847.9</ele>
        <time>2020-07-25T06:25:57Z</time>
      </trkpt>
      <trkpt lat="43.44401" lon="2.2598">
        <ele>847.3</ele>
        <time>2020-07-25T06:26:01Z</time>
      </trkpt>
      <trkpt lat="43.44367" lon="2.25946">
        <ele>847</ele>
        <time>2020-07-25T06:26:06Z</time>
      </trkpt>
      <trkpt lat="43.44332" lon="2.25922">
        <ele>845</ele>
        <time>2020-07-25T06:26:11Z</time>
      </trkpt>
      <trkpt lat="43.44304" lon="2.25907">
        <ele>844.3</ele>
        <time>2020-07-25T06:26:15Z</time>
      </trkpt>
      <trkpt lat="43.4427" lon="2.25885">
        <ele>842</ele>
        <time>2020-07-25T06:26:20Z</time>
      </trkpt>
      <trkpt lat="43.44247" lon="2.25863">
        <ele>840.7</ele>
        <time>2020-07-25T06:26:24Z</time>
      </trkpt>
      <trkpt lat="43.44218" lon="2.25839">
        <ele>840.5</ele>
        <time>2020-07-25T06:26:28Z</time>
      </trkpt>
      <trkpt lat="43.44185" lon="2.25834">
        <ele>839.4</ele>
        <time>2020-07-25T06:26:32Z</time>
      </trkpt>
      <trkpt lat="43.44159" lon="2.25841">
        <ele>838.6</ele>
        <time>2020-07-25T06:26:36Z</time>
      </trkpt>
      <trkpt lat="43.44135" lon="2.25855">
        <ele>838</ele>
        <time>2020-07-25T06:26:41Z</time>
      </trkpt>
      <trkpt lat="43.44116" lon="2.25866">
        <ele>836.7</ele>
        <time>2020-07-25T06:26:46Z</time>
      </trkpt>
      <trkpt lat="43.44105" lon="2.25875">
        <ele>836.2</ele>
        <time>2020-07-25T06:26:50Z</time>
      </trkpt>
      <trkpt lat="43.44094" lon="2.25889">
        <ele>838.6</ele>
        <time>2020-07-25T06:26:54Z</time>
      </trkpt>
      <trkpt lat="43.44082" lon="2.25909">
        <ele>842.5</ele>
        <time>2020-07-25T06:26:59Z</time>
      </trkpt>
      <trkpt lat="43.44075" lon="2.25925">
        <ele>844.5</ele>
        <time>2020-07-25T06:27:03Z</time>
      </trkpt>
      <trkpt lat="43.44064" lon="2.25944">
        <ele>847.4</ele>
        <time>2020-07-25T06:27:08Z</time>
      </trkpt>
      <trkpt lat="43.44054" lon="2.25958">
        <ele>849.5</ele>
        <time>2020-07-25T06:27:12Z</time>
      </trkpt>
      <trkpt lat="43.44045" lon="2.25974">
        <ele>851.5</ele>
        <time>2020-07-25T06:27:17Z</time>
      </trkpt>
      <trkpt lat="43.4404" lon="2.25988">
        <ele>852.7</ele>
        <time>2020-07-25T06:27:21Z</time>
      </trkpt>
      <trkpt lat="43.44035" lon="2.26004">
        <ele>853</ele>
        <time>2020-07-25T06:27:25Z</time>
      </trkpt>
      <trkpt lat="43.44028" lon="2.26016">
        <ele>855.4</ele>
        <time>2020-07-25T06:27:29Z</time>
      </trkpt>
      <trkpt lat="43.44016" lon="2.26026">
        <ele>855.7</ele>
        <time>2020-07-25T06:27:34Z</time>
      </trkpt>
      <trkpt lat="43.44006" lon="2.26035">
        <ele>857</ele>
        <time>2020-07-25T06:27:38Z</time>
      </trkpt>
      <trkpt lat="43.43994" lon="2.26043">
        <ele>857.2</ele>
        <time>2020-07-25T06:27:42Z</time>
      </trkpt>
      <trkpt lat="43.43976" lon="2.26048">
        <ele>857.2</ele>
        <time>2020-07-25T06:27:47Z</time>
      </trkpt>
      <trkpt lat="43.43962" lon="2.26051">
        <ele>856.2</ele>
        <time>2020-07-25T06:27:52Z</time>
      </trkpt>
      <trkpt lat="43.43952" lon="2.2605">
        <ele>855.3</ele>
        <time>2020-07-25T06:27:56Z</time>
      </trkpt>
      <trkpt lat="43.43938" lon="2.26051">
        <ele>854.7</ele>
        <time>2020-07-25T06:28:01Z</time>
      </trkpt>
      <trkpt lat="43.43928" lon="2.26052">
        <ele>854.2</ele>
        <time>2020-07-25T06:28:05Z</time>
      </trkpt>
      <trkpt lat="43.43914" lon="2.26054">
        <ele>854.1</ele>
        <time>2020-07-25T06:28:09Z</time>
      </trkpt>
      <trkpt lat="43.439" lon="2.26056">
        <ele>853.4</ele>
        <time>2020-07-25T06:28:13Z</time>
      </trkpt>
      <trkpt lat="43.43881" lon="2.26053">
        <ele>851.9</ele>
        <time>2020-07-25T06:28:18Z</time>
      </trkpt>
      <trkpt lat="43.43866" lon="2.26053">
        <ele>851.2</ele>
        <time>2020-07-25T06:28:23Z</time>
      </trkpt>
      <trkpt lat="43.43849" lon="2.2605">
        <ele>850.4</ele>
        <time>2020-07-25T06:28:27Z</time>
      </trkpt>
      <trkpt lat="43.43834" lon="2.26046">
        <ele>850.9</ele>
        <time>2020-07-25T06:28:31Z</time>
      </trkpt>
      <trkpt lat="43.43819" lon="2.26045">
        <ele>851.5</ele>
        <time>2020-07-25T06:28:35Z</time>
      </trkpt>
      <trkpt lat="43.43798" lon="2.26042">
        <ele>850.4</ele>
        <time>2020-07-25T06:28:40Z</time>
      </trkpt>
      <trkpt lat="43.43779" lon="2.26035">
        <ele>849.7</ele>
        <time>2020-07-25T06:28:44Z</time>
      </trkpt>
      <trkpt lat="43.43758" lon="2.26023">
        <ele>848.9</ele>
        <time>2020-07-25T06:28:48Z</time>
      </trkpt>
      <trkpt lat="43.43736" lon="2.26014">
        <ele>849</ele>
        <time>2020-07-25T06:28:53Z</time>
      </trkpt>
      <trkpt lat="43.4372" lon="2.26014">
        <ele>849.6</ele>
        <time>2020-07-25T06:28:57Z</time>
      </trkpt>
      <trkpt lat="43.43698" lon="2.26028">
        <ele>849.4</ele>
        <time>2020-07-25T06:29:01Z</time>
      </trkpt>
      <trkpt lat="43.4368" lon="2.26047">
        <ele>848.9</ele>
        <time>2020-07-25T06:29:05Z</time>
      </trkpt>
      <trkpt lat="43.43662" lon="2.26067">
        <ele>846</ele>
        <time>2020-07-25T06:29:09Z</time>
      </trkpt>
      <trkpt lat="43.43643" lon="2.26086">
        <ele>847.3</ele>
        <time>2020-07-25T06:29:14Z</time>
      </trkpt>
      <trkpt lat="43.43624" lon="2.261">
        <ele>846.9</ele>
        <time>2020-07-25T06:29:18Z</time>
      </trkpt>
      <trkpt lat="43.43598" lon="2.2612">
        <ele>845.1</ele>
        <time>2020-07-25T06:29:23Z</time>
      </trkpt>
      <trkpt lat="43.4357" lon="2.26136">
        <ele>843.8</ele>
        <time>2020-07-25T06:29:28Z</time>
      </trkpt>
      <trkpt lat="43.43548" lon="2.26154">
        <ele>840.6</ele>
        <time>2020-07-25T06:29:32Z</time>
      </trkpt>
      <trkpt lat="43.43523" lon="2.26175">
        <ele>838</ele>
        <time>2020-07-25T06:29:36Z</time>
      </trkpt>
      <trkpt lat="43.43491" lon="2.26201">
        <ele>836.2</ele>
        <time>2020-07-25T06:29:41Z</time>
      </trkpt>
      <trkpt lat="43.43458" lon="2.26222">
        <ele>835.1</ele>
        <time>2020-07-25T06:29:46Z</time>
      </trkpt>
      <trkpt lat="43.43431" lon="2.26241">
        <ele>838.3</ele>
        <time>2020-07-25T06:29:50Z</time>
      </trkpt>
      <trkpt lat="43.43403" lon="2.26254">
        <ele>841.9</ele>
        <time>2020-07-25T06:29:54Z</time>
      </trkpt>
      <trkpt lat="43.43374" lon="2.26274">
        <ele>840.2</ele>
        <time>2020-07-25T06:29:58Z</time>
      </trkpt>
      <trkpt lat="43.43342" lon="2.26293">
        <ele>837.9</ele>
        <time>2020-07-25T06:30:02Z</time>
      </trkpt>
      <trkpt lat="43.43306" lon="2.26295">
        <ele>836.4</ele>
        <time>2020-07-25T06:30:06Z</time>
      </trkpt>
      <trkpt lat="43.43264" lon="2.26281">
        <ele>835.1</ele>
        <time>2020-07-25T06:30:11Z</time>
      </trkpt>
      <trkpt lat="43.43235" lon="2.26263">
        <ele>833.8</ele>
        <time>2020-07-25T06:30:15Z</time>
      </trkpt>
      <trkpt lat="43.43205" lon="2.26252">
        <ele>831.8</ele>
        <time>2020-07-25T06:30:19Z</time>
      </trkpt>
      <trkpt lat="43.4317" lon="2.26234">
        <ele>829.4</ele>
        <time>2020-07-25T06:30:23Z</time>
      </trkpt>
      <trkpt lat="43.43143" lon="2.26212">
        <ele>828.9</ele>
        <time>2020-07-25T06:30:27Z</time>
      </trkpt>
      <trkpt lat="43.43121" lon="2.26221">
        <ele>827.6</ele>
        <time>2020-07-25T06:30:32Z</time>
      </trkpt>
      <trkpt lat="43.43107" lon="2.26276">
        <ele>827.3</ele>
        <time>2020-07-25T06:30:37Z</time>
      </trkpt>
      <trkpt lat="43.43089" lon="2.26312">
        <ele>826.3</ele>
        <time>2020-07-25T06:30:41Z</time>
      </trkpt>
      <trkpt lat="43.43069" lon="2.26345">
        <ele>824.1</ele>
        <time>2020-07-25T06:30:45Z</time>
      </trkpt>
      <trkpt lat="43.43028" lon="2.26349">
        <ele>820.2</ele>
        <time>2020-07-25T06:30:49Z</time>
      </trkpt>
      <trkpt lat="43.42993" lon="2.26352">
        <ele>817.8</ele>
        <time>2020-07-25T06:30:53Z</time>
      </trkpt>
      <trkpt lat="43.42973" lon="2.26391">
        <ele>817.4</ele>
        <time>2020-07-25T06:30:58Z</time>
      </trkpt>
      <trkpt lat="43.42952" lon="2.26433">
        <ele>814.8</ele>
        <time>2020-07-25T06:31:02Z</time>
      </trkpt>
      <trkpt lat="43.42928" lon="2.26492">
        <ele>811.3</ele>
        <time>2020-07-25T06:31:07Z</time>
      </trkpt>
      <trkpt lat="43.429" lon="2.26535">
        <ele>808.6</ele>
        <time>2020-07-25T06:31:11Z</time>
      </trkpt>
      <trkpt lat="43.42877" lon="2.26574">
        <ele>807.4</ele>
        <time>2020-07-25T06:31:15Z</time>
      </trkpt>
      <trkpt lat="43.42846" lon="2.26615">
        <ele>804.7</ele>
        <time>2020-07-25T06:31:19Z</time>
      </trkpt>
      <trkpt lat="43.42797" lon="2.26638">
        <ele>801.3</ele>
        <time>2020-07-25T06:31:24Z</time>
      </trkpt>
      <trkpt lat="43.42773" lon="2.2669">
        <ele>799.2</ele>
        <time>2020-07-25T06:31:29Z</time>
      </trkpt>
      <trkpt lat="43.42754" lon="2.26738">
        <ele>798.6</ele>
        <time>2020-07-25T06:31:33Z</time>
      </trkpt>
      <trkpt lat="43.42732" lon="2.26784">
        <ele>801.6</ele>
        <time>2020-07-25T06:31:37Z</time>
      </trkpt>
      <trkpt lat="43.42715" lon="2.26833">
        <ele>798.3</ele>
        <time>2020-07-25T06:31:41Z</time>
      </trkpt>
      <trkpt lat="43.42703" lon="2.26888">
        <ele>795.5</ele>
        <time>2020-07-25T06:31:45Z</time>
      </trkpt>
      <trkpt lat="43.42693" lon="2.26941">
        <ele>794</ele>
        <time>2020-07-25T06:31:49Z</time>
      </trkpt>
      <trkpt lat="43.42672" lon="2.26978">
        <ele>795</ele>
        <time>2020-07-25T06:31:53Z</time>
      </trkpt>
      <trkpt lat="43.42627" lon="2.2698">
        <ele>793.7</ele>
        <time>2020-07-25T06:31:58Z</time>
      </trkpt>
      <trkpt lat="43.42587" lon="2.27009">
        <ele>792.5</ele>
        <time>2020-07-25T06:32:03Z</time>
      </trkpt>
      <trkpt lat="43.42556" lon="2.27034">
        <ele>790.9</ele>
        <time>2020-07-25T06:32:07Z</time>
      </trkpt>
      <trkpt lat="43.42517" lon="2.27063">
        <ele>788.6</ele>
        <time>2020-07-25T06:32:11Z</time>
      </trkpt>
      <trkpt lat="43.42475" lon="2.27096">
        <ele>784.6</ele>
        <time>2020-07-25T06:32:16Z</time>
      </trkpt>
      <trkpt lat="43.42445" lon="2.27126">
        <ele>782.6</ele>
        <time>2020-07-25T06:32:20Z</time>
      </trkpt>
      <trkpt lat="43.42422" lon="2.27167">
        <ele>780.9</ele>
        <time>2020-07-25T06:32:24Z</time>
      </trkpt>
      <trkpt lat="43.42403" lon="2.27211">
        <ele>779.1</ele>
        <time>2020-07-25T06:32:28Z</time>
      </trkpt>
      <trkpt lat="43.42388" lon="2.27257">
        <ele>780.5</ele>
        <time>2020-07-25T06:32:32Z</time>
      </trkpt>
      <trkpt lat="43.42396" lon="2.27309">
        <ele>780.6</ele>
        <time>2020-07-25T06:32:36Z</time>
      </trkpt>
      <trkpt lat="43.42432" lon="2.27339">
        <ele>779.5</ele>
        <time>2020-07-25T06:32:40Z</time>
      </trkpt>
      <trkpt lat="43.42477" lon="2.27355">
        <ele>778.2</ele>
        <time>2020-07-25T06:32:45Z</time>
      </trkpt>
      <trkpt lat="43.42507" lon="2.27378">
        <ele>777</ele>
        <time>2020-07-25T06:32:50Z</time>
      </trkpt>
      <trkpt lat="43.42532" lon="2.27407">
        <ele>778</ele>
        <time>2020-07-25T06:32:54Z</time>
      </trkpt>
      <trkpt lat="43.42551" lon="2.27456">
        <ele>776.8</ele>
        <time>2020-07-25T06:32:58Z</time>
      </trkpt>
      <trkpt lat="43.42565" lon="2.27499">
        <ele>773.4</ele>
        <time>2020-07-25T06:33:02Z</time>
      </trkpt>
      <trkpt lat="43.42571" lon="2.27559">
        <ele>771.5</ele>
        <time>2020-07-25T06:33:07Z</time>
      </trkpt>
      <trkpt lat="43.42574" lon="2.27605">
        <ele>770.6</ele>
        <time>2020-07-25T06:33:11Z</time>
      </trkpt>
      <trkpt lat="43.42579" lon="2.27654">
        <ele>770.3</ele>
        <time>2020-07-25T06:33:15Z</time>
      </trkpt>
      <trkpt lat="43.42585" lon="2.27698">
        <ele>769.3</ele>
        <time>2020-07-25T06:33:19Z</time>
      </trkpt>
      <trkpt lat="43.42588" lon="2.27737">
        <ele>767.9</ele>
        <time>2020-07-25T06:33:23Z</time>
      </trkpt>
      <trkpt lat="43.42578" lon="2.27775">
        <ele>767.8</ele>
        <time>2020-07-25T06:33:27Z</time>
      </trkpt>
      <trkpt lat="43.42571" lon="2.27819">
        <ele>766.5</ele>
        <time>2020-07-25T06:33:32Z</time>
      </trkpt>
      <trkpt lat="43.42562" lon="2.27852">
        <ele>765.2</ele>
        <time>2020-07-25T06:33:36Z</time>
      </trkpt>
      <trkpt lat="43.42557" lon="2.27883">
        <ele>764.2</ele>
        <time>2020-07-25T06:33:40Z</time>
      </trkpt>
      <trkpt lat="43.42553" lon="2.2792">
        <ele>763.8</ele>
        <time>2020-07-25T06:33:45Z</time>
      </trkpt>
      <trkpt lat="43.4255" lon="2.27951">
        <ele>763.1</ele>
        <time>2020-07-25T06:33:49Z</time>
      </trkpt>
      <trkpt lat="43.42543" lon="2.27985">
        <ele>761.9</ele>
        <time>2020-07-25T06:33:54Z</time>
      </trkpt>
      <trkpt lat="43.42531" lon="2.28013">
        <ele>761</ele>
        <time>2020-07-25T06:33:58Z</time>
      </trkpt>
      <trkpt lat="43.42525" lon="2.28038">
        <ele>759.9</ele>
        <time>2020-07-25T06:34:02Z</time>
      </trkpt>
      <trkpt lat="43.42521" lon="2.2806">
        <ele>759.4</ele>
        <time>2020-07-25T06:34:06Z</time>
      </trkpt>
      <trkpt lat="43.42517" lon="2.28086">
        <ele>760.6</ele>
        <time>2020-07-25T06:34:10Z</time>
      </trkpt>
      <trkpt lat="43.4251" lon="2.28118">
        <ele>765.2</ele>
        <time>2020-07-25T06:34:15Z</time>
      </trkpt>
      <trkpt lat="43.42503" lon="2.28142">
        <ele>767.9</ele>
        <time>2020-07-25T06:34:19Z</time>
      </trkpt>
      <trkpt lat="43.42495" lon="2.28171">
        <ele>769.4</ele>
        <time>2020-07-25T06:34:24Z</time>
      </trkpt>
      <trkpt lat="43.4249" lon="2.28191">
        <ele>770</ele>
        <time>2020-07-25T06:34:28Z</time>
      </trkpt>
      <trkpt lat="43.42491" lon="2.28208">
        <ele>769.6</ele>
        <time>2020-07-25T06:34:33Z</time>
      </trkpt>
      <trkpt lat="43.42493" lon="2.28207">
        <ele>769</ele>
        <time>2020-07-25T06:34:39Z</time>
      </trkpt>
      <trkpt lat="43.42501" lon="2.28209">
        <ele>768.9</ele>
        <time>2020-07-25T06:34:43Z</time>
      </trkpt>
      <trkpt lat="43.42513" lon="2.2821">
        <ele>769.3</ele>
        <time>2020-07-25T06:34:48Z</time>
      </trkpt>
      <trkpt lat="43.42522" lon="2.28212">
        <ele>770.1</ele>
        <time>2020-07-25T06:34:52Z</time>
      </trkpt>
      <trkpt lat="43.42534" lon="2.28215">
        <ele>771.6</ele>
        <time>2020-07-25T06:34:57Z</time>
      </trkpt>
      <trkpt lat="43.42535" lon="2.28215">
        <ele>771.7</ele>
        <time>2020-07-25T06:35:04Z</time>
      </trkpt>
      <trkpt lat="43.42551" lon="2.28216">
        <ele>771.6</ele>
        <time>2020-07-25T06:35:09Z</time>
      </trkpt>
      <trkpt lat="43.42554" lon="2.28217">
        <ele>771.9</ele>
        <time>2020-07-25T06:35:18Z</time>
      </trkpt>
      <trkpt lat="43.4257" lon="2.28216">
        <ele>771.3</ele>
        <time>2020-07-25T06:35:22Z</time>
      </trkpt>
      <trkpt lat="43.42581" lon="2.28225">
        <ele>770.9</ele>
        <time>2020-07-25T06:35:27Z</time>
      </trkpt>
      <trkpt lat="43.42588" lon="2.28228">
        <ele>770.5</ele>
        <time>2020-07-25T06:35:32Z</time>
      </trkpt>
      <trkpt lat="43.42596" lon="2.28237">
        <ele>771.7</ele>
        <time>2020-07-25T06:35:35Z</time>
      </trkpt>
      <trkpt lat="43.42605" lon="2.28242">
        <ele>772.8</ele>
        <time>2020-07-25T06:35:40Z</time>
      </trkpt>
      <trkpt lat="43.42613" lon="2.2825">
        <ele>773.1</ele>
        <time>2020-07-25T06:35:44Z</time>
      </trkpt>
      <trkpt lat="43.42623" lon="2.28255">
        <ele>772.9</ele>
        <time>2020-07-25T06:35:48Z</time>
      </trkpt>
      <trkpt lat="43.42632" lon="2.28253">
        <ele>772.7</ele>
        <time>2020-07-25T06:35:52Z</time>
      </trkpt>
      <trkpt lat="43.42641" lon="2.28255">
        <ele>772.9</ele>
        <time>2020-07-25T06:35:57Z</time>
      </trkpt>
      <trkpt lat="43.4265" lon="2.28261">
        <ele>771.6</ele>
        <time>2020-07-25T06:36:01Z</time>
      </trkpt>
      <trkpt lat="43.42663" lon="2.28269">
        <ele>767.6</ele>
        <time>2020-07-25T06:36:06Z</time>
      </trkpt>
      <trkpt lat="43.4267" lon="2.28279">
        <ele>765.4</ele>
        <time>2020-07-25T06:36:10Z</time>
      </trkpt>
      <trkpt lat="43.42676" lon="2.28282">
        <ele>763.9</ele>
        <time>2020-07-25T06:36:14Z</time>
      </trkpt>
      <trkpt lat="43.42683" lon="2.28284">
        <ele>763.1</ele>
        <time>2020-07-25T06:36:18Z</time>
      </trkpt>
      <trkpt lat="43.4269" lon="2.28282">
        <ele>762.7</ele>
        <time>2020-07-25T06:36:22Z</time>
      </trkpt>
      <trkpt lat="43.42698" lon="2.28276">
        <ele>762.3</ele>
        <time>2020-07-25T06:36:26Z</time>
      </trkpt>
      <trkpt lat="43.42709" lon="2.28272">
        <ele>765</ele>
        <time>2020-07-25T06:36:31Z</time>
      </trkpt>
      <trkpt lat="43.42718" lon="2.28266">
        <ele>766.2</ele>
        <time>2020-07-25T06:36:35Z</time>
      </trkpt>
      <trkpt lat="43.42723" lon="2.28256">
        <ele>766</ele>
        <time>2020-07-25T06:36:40Z</time>
      </trkpt>
      <trkpt lat="43.42721" lon="2.28251">
        <ele>766.5</ele>
        <time>2020-07-25T06:36:46Z</time>
      </trkpt>
      <trkpt lat="43.4272" lon="2.28248">
        <ele>766.4</ele>
        <time>2020-07-25T06:36:55Z</time>
      </trkpt>
      <trkpt lat="43.42713" lon="2.28229">
        <ele>768.1</ele>
        <time>2020-07-25T06:36:59Z</time>
      </trkpt>
      <trkpt lat="43.42708" lon="2.28219">
        <ele>768</ele>
        <time>2020-07-25T06:37:03Z</time>
      </trkpt>
      <trkpt lat="43.42702" lon="2.28209">
        <ele>767.8</ele>
        <time>2020-07-25T06:37:08Z</time>
      </trkpt>
      <trkpt lat="43.42695" lon="2.28194">
        <ele>767.1</ele>
        <time>2020-07-25T06:37:12Z</time>
      </trkpt>
      <trkpt lat="43.42689" lon="2.28183">
        <ele>766.3</ele>
        <time>2020-07-25T06:37:17Z</time>
      </trkpt>
      <trkpt lat="43.42688" lon="2.28176">
        <ele>766.7</ele>
        <time>2020-07-25T06:37:21Z</time>
      </trkpt>
      <trkpt lat="43.42689" lon="2.28165">
        <ele>767.8</ele>
        <time>2020-07-25T06:37:26Z</time>
      </trkpt>
      <trkpt lat="43.42689" lon="2.28156">
        <ele>768.1</ele>
        <time>2020-07-25T06:37:30Z</time>
      </trkpt>
      <trkpt lat="43.42688" lon="2.28146">
        <ele>767.8</ele>
        <time>2020-07-25T06:37:34Z</time>
      </trkpt>
      <trkpt lat="43.42689" lon="2.28145">
        <ele>768.1</ele>
        <time>2020-07-25T06:38:09Z</time>
      </trkpt>
      <trkpt lat="43.42681" lon="2.28137">
        <ele>768.3</ele>
        <time>2020-07-25T06:38:13Z</time>
      </trkpt>
      <trkpt lat="43.42679" lon="2.28123">
        <ele>768.3</ele>
        <time>2020-07-25T06:38:18Z</time>
      </trkpt>
      <trkpt lat="43.42679" lon="2.28114">
        <ele>768.9</ele>
        <time>2020-07-25T06:38:22Z</time>
      </trkpt>
      <trkpt lat="43.42679" lon="2.28107">
        <ele>769.3</ele>
        <time>2020-07-25T06:38:26Z</time>
      </trkpt>
      <trkpt lat="43.42679" lon="2.28099">
        <ele>769.7</ele>
        <time>2020-07-25T06:38:30Z</time>
      </trkpt>
      <trkpt lat="43.42679" lon="2.28092">
        <ele>770</ele>
        <time>2020-07-25T06:38:34Z</time>
      </trkpt>
      <trkpt lat="43.42678" lon="2.28091">
        <ele>770.1</ele>
        <time>2020-07-25T06:38:53Z</time>
      </trkpt>
      <trkpt lat="43.42669" lon="2.28075">
        <ele>770.5</ele>
        <time>2020-07-25T06:38:57Z</time>
      </trkpt>
      <trkpt lat="43.42665" lon="2.28073">
        <ele>770.6</ele>
        <time>2020-07-25T06:39:01Z</time>
      </trkpt>
      <trkpt lat="43.42661" lon="2.28067">
        <ele>770.7</ele>
        <time>2020-07-25T06:39:06Z</time>
      </trkpt>
      <trkpt lat="43.42659" lon="2.28062">
        <ele>770.7</ele>
        <time>2020-07-25T06:39:14Z</time>
      </trkpt>
      <trkpt lat="43.42652" lon="2.28055">
        <ele>770.4</ele>
        <time>2020-07-25T06:39:18Z</time>
      </trkpt>
      <trkpt lat="43.42652" lon="2.28055">
        <ele>770.4</ele>
        <time>2020-07-25T06:39:23Z</time>
      </trkpt>
      <trkpt lat="43.42641" lon="2.28038">
        <ele>772</ele>
        <time>2020-07-25T06:39:28Z</time>
      </trkpt>
      <trkpt lat="43.42636" lon="2.28032">
        <ele>772.3</ele>
        <time>2020-07-25T06:39:32Z</time>
      </trkpt>
      <trkpt lat="43.42632" lon="2.28026">
        <ele>772.3</ele>
        <time>2020-07-25T06:39:36Z</time>
      </trkpt>
      <trkpt lat="43.42629" lon="2.28017">
        <ele>772.7</ele>
        <time>2020-07-25T06:39:40Z</time>
      </trkpt>
      <trkpt lat="43.42628" lon="2.2801">
        <ele>773.8</ele>
        <time>2020-07-25T06:39:44Z</time>
      </trkpt>
      <trkpt lat="43.42621" lon="2.27998">
        <ele>773.1</ele>
        <time>2020-07-25T06:39:48Z</time>
      </trkpt>
      <trkpt lat="43.42618" lon="2.27989">
        <ele>772.5</ele>
        <time>2020-07-25T06:39:52Z</time>
      </trkpt>
      <trkpt lat="43.4262" lon="2.27985">
        <ele>772.7</ele>
        <time>2020-07-25T06:39:56Z</time>
      </trkpt>
      <trkpt lat="43.42623" lon="2.27983">
        <ele>772</ele>
        <time>2020-07-25T06:40:01Z</time>
      </trkpt>
      <trkpt lat="43.42624" lon="2.27982">
        <ele>772</ele>
        <time>2020-07-25T06:40:10Z</time>
      </trkpt>
      <trkpt lat="43.4263" lon="2.27963">
        <ele>772.6</ele>
        <time>2020-07-25T06:40:14Z</time>
      </trkpt>
      <trkpt lat="43.42637" lon="2.27953">
        <ele>772.6</ele>
        <time>2020-07-25T06:40:19Z</time>
      </trkpt>
      <trkpt lat="43.42648" lon="2.27941">
        <ele>772.5</ele>
        <time>2020-07-25T06:40:23Z</time>
      </trkpt>
      <trkpt lat="43.42657" lon="2.27933">
        <ele>772</ele>
        <time>2020-07-25T06:40:27Z</time>
      </trkpt>
      <trkpt lat="43.42664" lon="2.27933">
        <ele>771.7</ele>
        <time>2020-07-25T06:40:31Z</time>
      </trkpt>
      <trkpt lat="43.42666" lon="2.27927">
        <ele>771.7</ele>
        <time>2020-07-25T06:40:35Z</time>
      </trkpt>
      <trkpt lat="43.42664" lon="2.27913">
        <ele>772.1</ele>
        <time>2020-07-25T06:40:40Z</time>
      </trkpt>
      <trkpt lat="43.42663" lon="2.27904">
        <ele>772.8</ele>
        <time>2020-07-25T06:40:44Z</time>
      </trkpt>
      <trkpt lat="43.42665" lon="2.27895">
        <ele>772.6</ele>
        <time>2020-07-25T06:40:48Z</time>
      </trkpt>
      <trkpt lat="43.42656" lon="2.27886">
        <ele>772.7</ele>
        <time>2020-07-25T06:40:53Z</time>
      </trkpt>
      <trkpt lat="43.42644" lon="2.27878">
        <ele>772.3</ele>
        <time>2020-07-25T06:40:58Z</time>
      </trkpt>
      <trkpt lat="43.4264" lon="2.27874">
        <ele>771.1</ele>
        <time>2020-07-25T06:41:02Z</time>
      </trkpt>
      <trkpt lat="43.42632" lon="2.27867">
        <ele>770.2</ele>
        <time>2020-07-25T06:41:06Z</time>
      </trkpt>
      <trkpt lat="43.42624" lon="2.27861">
        <ele>770.2</ele>
        <time>2020-07-25T06:41:10Z</time>
      </trkpt>
      <trkpt lat="43.42621" lon="2.27857">
        <ele>769.3</ele>
        <time>2020-07-25T06:41:14Z</time>
      </trkpt>
      <trkpt lat="43.42618" lon="2.27853">
        <ele>769.3</ele>
        <time>2020-07-25T06:41:18Z</time>
      </trkpt>
      <trkpt lat="43.42617" lon="2.27852">
        <ele>769</ele>
        <time>2020-07-25T06:41:29Z</time>
      </trkpt>
      <trkpt lat="43.42605" lon="2.27843">
        <ele>769</ele>
        <time>2020-07-25T06:41:33Z</time>
      </trkpt>
      <trkpt lat="43.42603" lon="2.27841">
        <ele>769</ele>
        <time>2020-07-25T06:41:39Z</time>
      </trkpt>
      <trkpt lat="43.42599" lon="2.27823">
        <ele>767.8</ele>
        <time>2020-07-25T06:41:44Z</time>
      </trkpt>
      <trkpt lat="43.426" lon="2.27817">
        <ele>767.5</ele>
        <time>2020-07-25T06:41:56Z</time>
      </trkpt>
      <trkpt lat="43.42598" lon="2.27803">
        <ele>770.2</ele>
        <time>2020-07-25T06:42:01Z</time>
      </trkpt>
      <trkpt lat="43.42598" lon="2.27803">
        <ele>770.2</ele>
        <time>2020-07-25T06:42:44Z</time>
      </trkpt>
      <trkpt lat="43.42594" lon="2.27791">
        <ele>773.6</ele>
        <time>2020-07-25T06:42:48Z</time>
      </trkpt>
      <trkpt lat="43.42594" lon="2.27791">
        <ele>773.6</ele>
        <time>2020-07-25T06:46:31Z</time>
      </trkpt>
      <trkpt lat="43.42595" lon="2.27804">
        <ele>774.4</ele>
        <time>2020-07-25T06:46:34Z</time>
      </trkpt>
      <trkpt lat="43.42595" lon="2.27804">
        <ele>774.4</ele>
        <time>2020-07-25T06:47:26Z</time>
      </trkpt>
      <trkpt lat="43.42583" lon="2.27796">
        <ele>774.6</ele>
        <time>2020-07-25T06:47:30Z</time>
      </trkpt>
      <trkpt lat="43.42577" lon="2.27805">
        <ele>774.5</ele>
        <time>2020-07-25T06:47:34Z</time>
      </trkpt>
      <trkpt lat="43.42574" lon="2.27822">
        <ele>774.3</ele>
        <time>2020-07-25T06:47:39Z</time>
      </trkpt>
      <trkpt lat="43.42571" lon="2.27844">
        <ele>774.3</ele>
        <time>2020-07-25T06:47:44Z</time>
      </trkpt>
      <trkpt lat="43.42565" lon="2.27869">
        <ele>773.8</ele>
        <time>2020-07-25T06:47:49Z</time>
      </trkpt>
      <trkpt lat="43.42559" lon="2.27889">
        <ele>774</ele>
        <time>2020-07-25T06:47:52Z</time>
      </trkpt>
      <trkpt lat="43.42555" lon="2.27916">
        <ele>773.8</ele>
        <time>2020-07-25T06:47:57Z</time>
      </trkpt>
      <trkpt lat="43.42554" lon="2.27936">
        <ele>774.3</ele>
        <time>2020-07-25T06:48:02Z</time>
      </trkpt>
      <trkpt lat="43.42547" lon="2.2796">
        <ele>773.9</ele>
        <time>2020-07-25T06:48:06Z</time>
      </trkpt>
      <trkpt lat="43.42541" lon="2.2798">
        <ele>773.4</ele>
        <time>2020-07-25T06:48:10Z</time>
      </trkpt>
      <trkpt lat="43.42532" lon="2.27996">
        <ele>773.2</ele>
        <time>2020-07-25T06:48:15Z</time>
      </trkpt>
      <trkpt lat="43.42525" lon="2.2801">
        <ele>773.9</ele>
        <time>2020-07-25T06:48:18Z</time>
      </trkpt>
      <trkpt lat="43.42518" lon="2.2802">
        <ele>775.8</ele>
        <time>2020-07-25T06:48:22Z</time>
      </trkpt>
      <trkpt lat="43.42517" lon="2.28024">
        <ele>775.4</ele>
        <time>2020-07-25T06:49:03Z</time>
      </trkpt>
      <trkpt lat="43.42507" lon="2.28019">
        <ele>775.7</ele>
        <time>2020-07-25T06:49:07Z</time>
      </trkpt>
      <trkpt lat="43.42503" lon="2.28004">
        <ele>775.4</ele>
        <time>2020-07-25T06:49:12Z</time>
      </trkpt>
      <trkpt lat="43.42497" lon="2.27989">
        <ele>775</ele>
        <time>2020-07-25T06:49:16Z</time>
      </trkpt>
      <trkpt lat="43.42492" lon="2.2797">
        <ele>774.9</ele>
        <time>2020-07-25T06:49:20Z</time>
      </trkpt>
      <trkpt lat="43.4249" lon="2.27946">
        <ele>773.8</ele>
        <time>2020-07-25T06:49:25Z</time>
      </trkpt>
      <trkpt lat="43.42494" lon="2.27936">
        <ele>773.3</ele>
        <time>2020-07-25T06:49:30Z</time>
      </trkpt>
      <trkpt lat="43.42502" lon="2.27928">
        <ele>772.3</ele>
        <time>2020-07-25T06:49:35Z</time>
      </trkpt>
      <trkpt lat="43.42502" lon="2.27918">
        <ele>771.6</ele>
        <time>2020-07-25T06:49:39Z</time>
      </trkpt>
      <trkpt lat="43.42498" lon="2.27905">
        <ele>771</ele>
        <time>2020-07-25T06:49:44Z</time>
      </trkpt>
      <trkpt lat="43.42501" lon="2.27893">
        <ele>769.7</ele>
        <time>2020-07-25T06:49:48Z</time>
      </trkpt>
      <trkpt lat="43.42503" lon="2.27881">
        <ele>769.1</ele>
        <time>2020-07-25T06:49:52Z</time>
      </trkpt>
      <trkpt lat="43.4251" lon="2.27868">
        <ele>768.6</ele>
        <time>2020-07-25T06:49:57Z</time>
      </trkpt>
      <trkpt lat="43.42514" lon="2.27856">
        <ele>767.7</ele>
        <time>2020-07-25T06:50:00Z</time>
      </trkpt>
      <trkpt lat="43.42518" lon="2.27846">
        <ele>766.4</ele>
        <time>2020-07-25T06:50:05Z</time>
      </trkpt>
      <trkpt lat="43.42519" lon="2.27832">
        <ele>765.9</ele>
        <time>2020-07-25T06:50:09Z</time>
      </trkpt>
      <trkpt lat="43.42517" lon="2.27824">
        <ele>765.7</ele>
        <time>2020-07-25T06:50:13Z</time>
      </trkpt>
      <trkpt lat="43.42508" lon="2.27819">
        <ele>767.7</ele>
        <time>2020-07-25T06:50:18Z</time>
      </trkpt>
      <trkpt lat="43.42504" lon="2.27826">
        <ele>770</ele>
        <time>2020-07-25T06:50:22Z</time>
      </trkpt>
      <trkpt lat="43.42495" lon="2.27832">
        <ele>772.6</ele>
        <time>2020-07-25T06:50:27Z</time>
      </trkpt>
      <trkpt lat="43.42482" lon="2.27832">
        <ele>773.5</ele>
        <time>2020-07-25T06:50:31Z</time>
      </trkpt>
      <trkpt lat="43.42473" lon="2.27838">
        <ele>774.9</ele>
        <time>2020-07-25T06:50:35Z</time>
      </trkpt>
      <trkpt lat="43.42459" lon="2.27844">
        <ele>776</ele>
        <time>2020-07-25T06:50:40Z</time>
      </trkpt>
      <trkpt lat="43.42449" lon="2.27849">
        <ele>776.2</ele>
        <time>2020-07-25T06:50:44Z</time>
      </trkpt>
      <trkpt lat="43.42433" lon="2.27857">
        <ele>778.2</ele>
        <time>2020-07-25T06:50:49Z</time>
      </trkpt>
      <trkpt lat="43.42419" lon="2.27863">
        <ele>780.1</ele>
        <time>2020-07-25T06:50:53Z</time>
      </trkpt>
      <trkpt lat="43.42408" lon="2.27863">
        <ele>781.9</ele>
        <time>2020-07-25T06:50:58Z</time>
      </trkpt>
      <trkpt lat="43.42408" lon="2.27866">
        <ele>782.6</ele>
        <time>2020-07-25T06:51:31Z</time>
      </trkpt>
      <trkpt lat="43.42397" lon="2.27871">
        <ele>785.4</ele>
        <time>2020-07-25T06:51:35Z</time>
      </trkpt>
      <trkpt lat="43.42388" lon="2.2787">
        <ele>786.3</ele>
        <time>2020-07-25T06:51:40Z</time>
      </trkpt>
      <trkpt lat="43.42375" lon="2.27867">
        <ele>786.2</ele>
        <time>2020-07-25T06:51:44Z</time>
      </trkpt>
      <trkpt lat="43.4236" lon="2.27863">
        <ele>783.9</ele>
        <time>2020-07-25T06:51:48Z</time>
      </trkpt>
      <trkpt lat="43.42347" lon="2.27857">
        <ele>781.3</ele>
        <time>2020-07-25T06:51:52Z</time>
      </trkpt>
      <trkpt lat="43.42337" lon="2.27849">
        <ele>779.2</ele>
        <time>2020-07-25T06:51:56Z</time>
      </trkpt>
      <trkpt lat="43.42324" lon="2.27844">
        <ele>777.2</ele>
        <time>2020-07-25T06:52:00Z</time>
      </trkpt>
      <trkpt lat="43.42309" lon="2.27837">
        <ele>775.4</ele>
        <time>2020-07-25T06:52:04Z</time>
      </trkpt>
      <trkpt lat="43.42297" lon="2.27831">
        <ele>774.2</ele>
        <time>2020-07-25T06:52:08Z</time>
      </trkpt>
      <trkpt lat="43.42287" lon="2.27832">
        <ele>771.6</ele>
        <time>2020-07-25T06:52:13Z</time>
      </trkpt>
      <trkpt lat="43.42277" lon="2.2783">
        <ele>769.9</ele>
        <time>2020-07-25T06:52:17Z</time>
      </trkpt>
      <trkpt lat="43.42263" lon="2.27822">
        <ele>768.3</ele>
        <time>2020-07-25T06:52:22Z</time>
      </trkpt>
      <trkpt lat="43.42254" lon="2.27817">
        <ele>767.6</ele>
        <time>2020-07-25T06:52:26Z</time>
      </trkpt>
      <trkpt lat="43.42236" lon="2.27804">
        <ele>767.5</ele>
        <time>2020-07-25T06:52:31Z</time>
      </trkpt>
      <trkpt lat="43.42226" lon="2.27797">
        <ele>766.9</ele>
        <time>2020-07-25T06:52:35Z</time>
      </trkpt>
      <trkpt lat="43.42218" lon="2.27793">
        <ele>766.7</ele>
        <time>2020-07-25T06:52:40Z</time>
      </trkpt>
      <trkpt lat="43.42211" lon="2.2779">
        <ele>766.4</ele>
        <time>2020-07-25T06:52:44Z</time>
      </trkpt>
      <trkpt lat="43.42201" lon="2.27785">
        <ele>766.8</ele>
        <time>2020-07-25T06:52:48Z</time>
      </trkpt>
      <trkpt lat="43.42189" lon="2.27782">
        <ele>768.1</ele>
        <time>2020-07-25T06:52:53Z</time>
      </trkpt>
      <trkpt lat="43.42182" lon="2.27777">
        <ele>769.4</ele>
        <time>2020-07-25T06:52:57Z</time>
      </trkpt>
      <trkpt lat="43.42178" lon="2.27772">
        <ele>769.3</ele>
        <time>2020-07-25T06:53:01Z</time>
      </trkpt>
      <trkpt lat="43.42175" lon="2.27769">
        <ele>770.9</ele>
        <time>2020-07-25T06:54:04Z</time>
      </trkpt>
      <trkpt lat="43.42172" lon="2.27783">
        <ele>773.4</ele>
        <time>2020-07-25T06:54:08Z</time>
      </trkpt>
      <trkpt lat="43.42172" lon="2.27783">
        <ele>773.4</ele>
        <time>2020-07-25T06:54:18Z</time>
      </trkpt>
      <trkpt lat="43.42163" lon="2.27766">
        <ele>773.9</ele>
        <time>2020-07-25T06:54:22Z</time>
      </trkpt>
      <trkpt lat="43.42157" lon="2.27758">
        <ele>774.3</ele>
        <time>2020-07-25T06:54:26Z</time>
      </trkpt>
      <trkpt lat="43.42149" lon="2.27755">
        <ele>774.9</ele>
        <time>2020-07-25T06:54:30Z</time>
      </trkpt>
      <trkpt lat="43.42146" lon="2.27749">
        <ele>775.7</ele>
        <time>2020-07-25T06:54:34Z</time>
      </trkpt>
      <trkpt lat="43.42146" lon="2.27737">
        <ele>776.7</ele>
        <time>2020-07-25T06:54:39Z</time>
      </trkpt>
      <trkpt lat="43.42147" lon="2.27726">
        <ele>777.4</ele>
        <time>2020-07-25T06:54:43Z</time>
      </trkpt>
      <trkpt lat="43.42147" lon="2.27714">
        <ele>778</ele>
        <time>2020-07-25T06:54:47Z</time>
      </trkpt>
      <trkpt lat="43.42149" lon="2.27704">
        <ele>778.8</ele>
        <time>2020-07-25T06:54:52Z</time>
      </trkpt>
      <trkpt lat="43.42152" lon="2.27693">
        <ele>778.9</ele>
        <time>2020-07-25T06:54:56Z</time>
      </trkpt>
      <trkpt lat="43.42149" lon="2.27677">
        <ele>778.9</ele>
        <time>2020-07-25T06:55:00Z</time>
      </trkpt>
      <trkpt lat="43.42153" lon="2.27651">
        <ele>778.7</ele>
        <time>2020-07-25T06:55:05Z</time>
      </trkpt>
      <trkpt lat="43.42155" lon="2.27623">
        <ele>779.2</ele>
        <time>2020-07-25T06:55:10Z</time>
      </trkpt>
      <trkpt lat="43.42157" lon="2.27603">
        <ele>779.3</ele>
        <time>2020-07-25T06:55:14Z</time>
      </trkpt>
      <trkpt lat="43.42158" lon="2.27583">
        <ele>779.5</ele>
        <time>2020-07-25T06:55:18Z</time>
      </trkpt>
      <trkpt lat="43.42164" lon="2.27558">
        <ele>780</ele>
        <time>2020-07-25T06:55:23Z</time>
      </trkpt>
      <trkpt lat="43.42166" lon="2.27533">
        <ele>779.9</ele>
        <time>2020-07-25T06:55:28Z</time>
      </trkpt>
      <trkpt lat="43.42169" lon="2.27516">
        <ele>779.2</ele>
        <time>2020-07-25T06:55:32Z</time>
      </trkpt>
      <trkpt lat="43.42168" lon="2.27506">
        <ele>778.9</ele>
        <time>2020-07-25T06:55:36Z</time>
      </trkpt>
      <trkpt lat="43.42162" lon="2.27496">
        <ele>778.8</ele>
        <time>2020-07-25T06:55:41Z</time>
      </trkpt>
      <trkpt lat="43.42158" lon="2.27482">
        <ele>779.2</ele>
        <time>2020-07-25T06:55:46Z</time>
      </trkpt>
      <trkpt lat="43.42158" lon="2.27468">
        <ele>778.9</ele>
        <time>2020-07-25T06:55:50Z</time>
      </trkpt>
      <trkpt lat="43.42163" lon="2.27451">
        <ele>777.1</ele>
        <time>2020-07-25T06:55:54Z</time>
      </trkpt>
      <trkpt lat="43.4217" lon="2.27426">
        <ele>773.6</ele>
        <time>2020-07-25T06:55:59Z</time>
      </trkpt>
      <trkpt lat="43.42173" lon="2.27412">
        <ele>772.7</ele>
        <time>2020-07-25T06:56:03Z</time>
      </trkpt>
      <trkpt lat="43.42176" lon="2.27398">
        <ele>771.7</ele>
        <time>2020-07-25T06:56:08Z</time>
      </trkpt>
      <trkpt lat="43.42176" lon="2.27387">
        <ele>771.2</ele>
        <time>2020-07-25T06:56:12Z</time>
      </trkpt>
      <trkpt lat="43.42182" lon="2.27374">
        <ele>770.1</ele>
        <time>2020-07-25T06:56:17Z</time>
      </trkpt>
      <trkpt lat="43.42185" lon="2.27362">
        <ele>768.7</ele>
        <time>2020-07-25T06:56:22Z</time>
      </trkpt>
      <trkpt lat="43.42188" lon="2.27355">
        <ele>768.2</ele>
        <time>2020-07-25T06:56:26Z</time>
      </trkpt>
      <trkpt lat="43.42188" lon="2.27355">
        <ele>768.2</ele>
        <time>2020-07-25T06:56:31Z</time>
      </trkpt>
      <trkpt lat="43.42195" lon="2.27333">
        <ele>768.7</ele>
        <time>2020-07-25T06:56:35Z</time>
      </trkpt>
      <trkpt lat="43.42198" lon="2.27329">
        <ele>769</ele>
        <time>2020-07-25T06:56:39Z</time>
      </trkpt>
      <trkpt lat="43.42192" lon="2.27313">
        <ele>768.3</ele>
        <time>2020-07-25T06:56:43Z</time>
      </trkpt>
      <trkpt lat="43.42189" lon="2.27301">
        <ele>768.3</ele>
        <time>2020-07-25T06:56:47Z</time>
      </trkpt>
      <trkpt lat="43.42189" lon="2.27291">
        <ele>767.8</ele>
        <time>2020-07-25T06:56:51Z</time>
      </trkpt>
      <trkpt lat="43.42191" lon="2.27275">
        <ele>768.1</ele>
        <time>2020-07-25T06:56:55Z</time>
      </trkpt>
      <trkpt lat="43.42194" lon="2.2726">
        <ele>767.5</ele>
        <time>2020-07-25T06:57:00Z</time>
      </trkpt>
      <trkpt lat="43.42196" lon="2.27245">
        <ele>766.7</ele>
        <time>2020-07-25T06:57:05Z</time>
      </trkpt>
      <trkpt lat="43.42201" lon="2.27221">
        <ele>766.6</ele>
        <time>2020-07-25T06:57:10Z</time>
      </trkpt>
      <trkpt lat="43.42206" lon="2.27202">
        <ele>765.9</ele>
        <time>2020-07-25T06:57:14Z</time>
      </trkpt>
      <trkpt lat="43.42211" lon="2.27189">
        <ele>765.5</ele>
        <time>2020-07-25T06:57:18Z</time>
      </trkpt>
      <trkpt lat="43.42213" lon="2.27172">
        <ele>765.9</ele>
        <time>2020-07-25T06:57:23Z</time>
      </trkpt>
      <trkpt lat="43.42215" lon="2.27155">
        <ele>766.2</ele>
        <time>2020-07-25T06:57:27Z</time>
      </trkpt>
      <trkpt lat="43.42219" lon="2.2714">
        <ele>767.4</ele>
        <time>2020-07-25T06:57:31Z</time>
      </trkpt>
      <trkpt lat="43.42219" lon="2.27126">
        <ele>770.2</ele>
        <time>2020-07-25T06:57:35Z</time>
      </trkpt>
      <trkpt lat="43.42221" lon="2.27115">
        <ele>771.4</ele>
        <time>2020-07-25T06:57:39Z</time>
      </trkpt>
      <trkpt lat="43.42225" lon="2.27102">
        <ele>771.2</ele>
        <time>2020-07-25T06:57:43Z</time>
      </trkpt>
      <trkpt lat="43.4223" lon="2.27091">
        <ele>770.2</ele>
        <time>2020-07-25T06:57:47Z</time>
      </trkpt>
      <trkpt lat="43.42233" lon="2.27076">
        <ele>770.9</ele>
        <time>2020-07-25T06:57:52Z</time>
      </trkpt>
      <trkpt lat="43.42236" lon="2.27061">
        <ele>771.2</ele>
        <time>2020-07-25T06:57:56Z</time>
      </trkpt>
      <trkpt lat="43.42238" lon="2.27037">
        <ele>773.3</ele>
        <time>2020-07-25T06:58:01Z</time>
      </trkpt>
      <trkpt lat="43.4224" lon="2.27025">
        <ele>774.7</ele>
        <time>2020-07-25T06:58:05Z</time>
      </trkpt>
      <trkpt lat="43.42238" lon="2.27013">
        <ele>774.9</ele>
        <time>2020-07-25T06:58:09Z</time>
      </trkpt>
      <trkpt lat="43.42236" lon="2.26997">
        <ele>775.5</ele>
        <time>2020-07-25T06:58:13Z</time>
      </trkpt>
      <trkpt lat="43.42238" lon="2.26986">
        <ele>776</ele>
        <time>2020-07-25T06:58:17Z</time>
      </trkpt>
      <trkpt lat="43.4224" lon="2.26974">
        <ele>775.1</ele>
        <time>2020-07-25T06:58:21Z</time>
      </trkpt>
      <trkpt lat="43.42239" lon="2.26965">
        <ele>774.9</ele>
        <time>2020-07-25T06:58:25Z</time>
      </trkpt>
      <trkpt lat="43.42239" lon="2.26964">
        <ele>775</ele>
        <time>2020-07-25T06:58:34Z</time>
      </trkpt>
      <trkpt lat="43.42233" lon="2.2695">
        <ele>778.1</ele>
        <time>2020-07-25T06:58:39Z</time>
      </trkpt>
      <trkpt lat="43.42233" lon="2.2695">
        <ele>778.1</ele>
        <time>2020-07-25T06:58:50Z</time>
      </trkpt>
      <trkpt lat="43.42228" lon="2.26934">
        <ele>781.2</ele>
        <time>2020-07-25T06:58:55Z</time>
      </trkpt>
      <trkpt lat="43.42227" lon="2.2693">
        <ele>780.7</ele>
        <time>2020-07-25T06:59:01Z</time>
      </trkpt>
      <trkpt lat="43.4222" lon="2.26916">
        <ele>781.2</ele>
        <time>2020-07-25T06:59:06Z</time>
      </trkpt>
      <trkpt lat="43.42219" lon="2.26909">
        <ele>781.6</ele>
        <time>2020-07-25T06:59:10Z</time>
      </trkpt>
      <trkpt lat="43.42213" lon="2.26898">
        <ele>780.9</ele>
        <time>2020-07-25T06:59:15Z</time>
      </trkpt>
      <trkpt lat="43.42211" lon="2.2689">
        <ele>780.1</ele>
        <time>2020-07-25T06:59:19Z</time>
      </trkpt>
      <trkpt lat="43.42211" lon="2.2689">
        <ele>780.1</ele>
        <time>2020-07-25T06:59:25Z</time>
      </trkpt>
      <trkpt lat="43.422" lon="2.2688">
        <ele>779.9</ele>
        <time>2020-07-25T06:59:29Z</time>
      </trkpt>
      <trkpt lat="43.422" lon="2.2688">
        <ele>779.9</ele>
        <time>2020-07-25T06:59:38Z</time>
      </trkpt>
      <trkpt lat="43.42203" lon="2.26868">
        <ele>778.5</ele>
        <time>2020-07-25T06:59:43Z</time>
      </trkpt>
      <trkpt lat="43.42203" lon="2.26868">
        <ele>778.5</ele>
        <time>2020-07-25T07:00:03Z</time>
      </trkpt>
      <trkpt lat="43.42208" lon="2.26856">
        <ele>778.5</ele>
        <time>2020-07-25T07:00:07Z</time>
      </trkpt>
      <trkpt lat="43.42208" lon="2.26856">
        <ele>778.5</ele>
        <time>2020-07-25T07:00:37Z</time>
      </trkpt>
      <trkpt lat="43.422" lon="2.26845">
        <ele>778.8</ele>
        <time>2020-07-25T07:00:42Z</time>
      </trkpt>
      <trkpt lat="43.422" lon="2.26845">
        <ele>778.8</ele>
        <time>2020-07-25T07:00:55Z</time>
      </trkpt>
      <trkpt lat="43.42191" lon="2.26831">
        <ele>779</ele>
        <time>2020-07-25T07:00:59Z</time>
      </trkpt>
      <trkpt lat="43.42191" lon="2.26831">
        <ele>779</ele>
        <time>2020-07-25T07:01:07Z</time>
      </trkpt>
      <trkpt lat="43.42178" lon="2.26817">
        <ele>778.8</ele>
        <time>2020-07-25T07:01:11Z</time>
      </trkpt>
      <trkpt lat="43.42171" lon="2.26815">
        <ele>778.7</ele>
        <time>2020-07-25T07:01:16Z</time>
      </trkpt>
      <trkpt lat="43.42164" lon="2.26814">
        <ele>778.5</ele>
        <time>2020-07-25T07:01:20Z</time>
      </trkpt>
      <trkpt lat="43.42149" lon="2.26808">
        <ele>778.4</ele>
        <time>2020-07-25T07:01:25Z</time>
      </trkpt>
      <trkpt lat="43.4214" lon="2.26806">
        <ele>778.3</ele>
        <time>2020-07-25T07:01:29Z</time>
      </trkpt>
      <trkpt lat="43.42133" lon="2.26806">
        <ele>777.9</ele>
        <time>2020-07-25T07:01:34Z</time>
      </trkpt>
      <trkpt lat="43.4213" lon="2.26806">
        <ele>777.8</ele>
        <time>2020-07-25T07:01:39Z</time>
      </trkpt>
      <trkpt lat="43.42118" lon="2.26809">
        <ele>777.7</ele>
        <time>2020-07-25T07:01:43Z</time>
      </trkpt>
      <trkpt lat="43.42111" lon="2.26812">
        <ele>777.7</ele>
        <time>2020-07-25T07:01:47Z</time>
      </trkpt>
      <trkpt lat="43.42107" lon="2.26815">
        <ele>777.6</ele>
        <time>2020-07-25T07:01:52Z</time>
      </trkpt>
      <trkpt lat="43.42107" lon="2.26815">
        <ele>777.6</ele>
        <time>2020-07-25T07:01:57Z</time>
      </trkpt>
      <trkpt lat="43.42094" lon="2.26822">
        <ele>777.2</ele>
        <time>2020-07-25T07:02:01Z</time>
      </trkpt>
      <trkpt lat="43.42094" lon="2.26822">
        <ele>777.2</ele>
        <time>2020-07-25T07:02:17Z</time>
      </trkpt>
      <trkpt lat="43.42087" lon="2.26834">
        <ele>773.9</ele>
        <time>2020-07-25T07:02:21Z</time>
      </trkpt>
      <trkpt lat="43.42087" lon="2.26834">
        <ele>773.9</ele>
        <time>2020-07-25T07:02:57Z</time>
      </trkpt>
      <trkpt lat="43.42086" lon="2.26823">
        <ele>773.5</ele>
        <time>2020-07-25T07:03:01Z</time>
      </trkpt>
      <trkpt lat="43.42086" lon="2.26823">
        <ele>773.5</ele>
        <time>2020-07-25T07:03:49Z</time>
      </trkpt>
      <trkpt lat="43.42077" lon="2.2684">
        <ele>772.8</ele>
        <time>2020-07-25T07:03:54Z</time>
      </trkpt>
      <trkpt lat="43.42073" lon="2.26843">
        <ele>772.5</ele>
        <time>2020-07-25T07:03:58Z</time>
      </trkpt>
      <trkpt lat="43.42063" lon="2.26843">
        <ele>772.3</ele>
        <time>2020-07-25T07:04:03Z</time>
      </trkpt>
      <trkpt lat="43.42056" lon="2.26846">
        <ele>772.2</ele>
        <time>2020-07-25T07:04:07Z</time>
      </trkpt>
      <trkpt lat="43.42041" lon="2.2685">
        <ele>771.7</ele>
        <time>2020-07-25T07:04:12Z</time>
      </trkpt>
      <trkpt lat="43.42035" lon="2.2685">
        <ele>771.5</ele>
        <time>2020-07-25T07:04:17Z</time>
      </trkpt>
      <trkpt lat="43.42028" lon="2.26854">
        <ele>771.5</ele>
        <time>2020-07-25T07:04:21Z</time>
      </trkpt>
      <trkpt lat="43.42021" lon="2.2686">
        <ele>770.3</ele>
        <time>2020-07-25T07:04:25Z</time>
      </trkpt>
      <trkpt lat="43.42015" lon="2.26856">
        <ele>768.9</ele>
        <time>2020-07-25T07:04:29Z</time>
      </trkpt>
      <trkpt lat="43.4201" lon="2.26845">
        <ele>767.7</ele>
        <time>2020-07-25T07:04:34Z</time>
      </trkpt>
      <trkpt lat="43.42004" lon="2.26838">
        <ele>767.8</ele>
        <time>2020-07-25T07:04:39Z</time>
      </trkpt>
      <trkpt lat="43.42001" lon="2.2683">
        <ele>768.5</ele>
        <time>2020-07-25T07:04:43Z</time>
      </trkpt>
      <trkpt lat="43.41999" lon="2.26823">
        <ele>769</ele>
        <time>2020-07-25T07:04:47Z</time>
      </trkpt>
      <trkpt lat="43.41995" lon="2.26813">
        <ele>769.8</ele>
        <time>2020-07-25T07:04:52Z</time>
      </trkpt>
      <trkpt lat="43.41996" lon="2.26803">
        <ele>770.5</ele>
        <time>2020-07-25T07:04:56Z</time>
      </trkpt>
      <trkpt lat="43.41996" lon="2.26792">
        <ele>771.8</ele>
        <time>2020-07-25T07:05:01Z</time>
      </trkpt>
      <trkpt lat="43.41997" lon="2.26782">
        <ele>772.7</ele>
        <time>2020-07-25T07:05:05Z</time>
      </trkpt>
      <trkpt lat="43.41997" lon="2.26763">
        <ele>773.7</ele>
        <time>2020-07-25T07:05:10Z</time>
      </trkpt>
      <trkpt lat="43.41999" lon="2.26751">
        <ele>774</ele>
        <time>2020-07-25T07:05:14Z</time>
      </trkpt>
      <trkpt lat="43.41999" lon="2.26751">
        <ele>774</ele>
        <time>2020-07-25T07:06:16Z</time>
      </trkpt>
      <trkpt lat="43.42011" lon="2.26749">
        <ele>769.4</ele>
        <time>2020-07-25T07:06:20Z</time>
      </trkpt>
      <trkpt lat="43.42017" lon="2.26752">
        <ele>769.3</ele>
        <time>2020-07-25T07:06:24Z</time>
      </trkpt>
      <trkpt lat="43.42025" lon="2.26753">
        <ele>769.3</ele>
        <time>2020-07-25T07:06:29Z</time>
      </trkpt>
      <trkpt lat="43.42032" lon="2.26741">
        <ele>769.6</ele>
        <time>2020-07-25T07:06:33Z</time>
      </trkpt>
      <trkpt lat="43.4204" lon="2.26727">
        <ele>768.4</ele>
        <time>2020-07-25T07:06:37Z</time>
      </trkpt>
      <trkpt lat="43.42046" lon="2.26716">
        <ele>767</ele>
        <time>2020-07-25T07:06:41Z</time>
      </trkpt>
      <trkpt lat="43.42059" lon="2.26707">
        <ele>766.6</ele>
        <time>2020-07-25T07:06:46Z</time>
      </trkpt>
      <trkpt lat="43.42065" lon="2.267">
        <ele>765.9</ele>
        <time>2020-07-25T07:06:50Z</time>
      </trkpt>
      <trkpt lat="43.4207" lon="2.2669">
        <ele>766.2</ele>
        <time>2020-07-25T07:06:55Z</time>
      </trkpt>
      <trkpt lat="43.42075" lon="2.26682">
        <ele>766.5</ele>
        <time>2020-07-25T07:06:59Z</time>
      </trkpt>
      <trkpt lat="43.42079" lon="2.2667">
        <ele>766.8</ele>
        <time>2020-07-25T07:07:03Z</time>
      </trkpt>
      <trkpt lat="43.42086" lon="2.26658">
        <ele>766.1</ele>
        <time>2020-07-25T07:07:07Z</time>
      </trkpt>
      <trkpt lat="43.42094" lon="2.26648">
        <ele>766.3</ele>
        <time>2020-07-25T07:07:11Z</time>
      </trkpt>
      <trkpt lat="43.42105" lon="2.26638">
        <ele>765.9</ele>
        <time>2020-07-25T07:07:15Z</time>
      </trkpt>
      <trkpt lat="43.42119" lon="2.26633">
        <ele>765</ele>
        <time>2020-07-25T07:07:20Z</time>
      </trkpt>
      <trkpt lat="43.4213" lon="2.26635">
        <ele>764.3</ele>
        <time>2020-07-25T07:07:25Z</time>
      </trkpt>
      <trkpt lat="43.42141" lon="2.26635">
        <ele>763.8</ele>
        <time>2020-07-25T07:07:29Z</time>
      </trkpt>
      <trkpt lat="43.42155" lon="2.26634">
        <ele>763.5</ele>
        <time>2020-07-25T07:07:34Z</time>
      </trkpt>
      <trkpt lat="43.42168" lon="2.26631">
        <ele>762.8</ele>
        <time>2020-07-25T07:07:38Z</time>
      </trkpt>
      <trkpt lat="43.42181" lon="2.26629">
        <ele>762.1</ele>
        <time>2020-07-25T07:07:43Z</time>
      </trkpt>
      <trkpt lat="43.42194" lon="2.26626">
        <ele>761.5</ele>
        <time>2020-07-25T07:07:47Z</time>
      </trkpt>
      <trkpt lat="43.42212" lon="2.26613">
        <ele>760.8</ele>
        <time>2020-07-25T07:07:52Z</time>
      </trkpt>
      <trkpt lat="43.42226" lon="2.26602">
        <ele>760.2</ele>
        <time>2020-07-25T07:07:56Z</time>
      </trkpt>
      <trkpt lat="43.4224" lon="2.26592">
        <ele>759.5</ele>
        <time>2020-07-25T07:08:01Z</time>
      </trkpt>
      <trkpt lat="43.42251" lon="2.26584">
        <ele>758.6</ele>
        <time>2020-07-25T07:08:05Z</time>
      </trkpt>
      <trkpt lat="43.42259" lon="2.26577">
        <ele>758</ele>
        <time>2020-07-25T07:08:09Z</time>
      </trkpt>
      <trkpt lat="43.42267" lon="2.26567">
        <ele>757.5</ele>
        <time>2020-07-25T07:08:13Z</time>
      </trkpt>
      <trkpt lat="43.42276" lon="2.26556">
        <ele>757</ele>
        <time>2020-07-25T07:08:17Z</time>
      </trkpt>
      <trkpt lat="43.42287" lon="2.26546">
        <ele>757</ele>
        <time>2020-07-25T07:08:21Z</time>
      </trkpt>
      <trkpt lat="43.42296" lon="2.2654">
        <ele>756.3</ele>
        <time>2020-07-25T07:08:26Z</time>
      </trkpt>
      <trkpt lat="43.42297" lon="2.2654">
        <ele>756</ele>
        <time>2020-07-25T07:08:49Z</time>
      </trkpt>
      <trkpt lat="43.42288" lon="2.26524">
        <ele>759.8</ele>
        <time>2020-07-25T07:08:53Z</time>
      </trkpt>
      <trkpt lat="43.42292" lon="2.26506">
        <ele>760.4</ele>
        <time>2020-07-25T07:08:58Z</time>
      </trkpt>
      <trkpt lat="43.42296" lon="2.26495">
        <ele>760.9</ele>
        <time>2020-07-25T07:09:02Z</time>
      </trkpt>
      <trkpt lat="43.42297" lon="2.26487">
        <ele>762.2</ele>
        <time>2020-07-25T07:09:07Z</time>
      </trkpt>
      <trkpt lat="43.42296" lon="2.26482">
        <ele>763.3</ele>
        <time>2020-07-25T07:09:14Z</time>
      </trkpt>
      <trkpt lat="43.42286" lon="2.26463">
        <ele>766.5</ele>
        <time>2020-07-25T07:09:19Z</time>
      </trkpt>
      <trkpt lat="43.42285" lon="2.26459">
        <ele>766.9</ele>
        <time>2020-07-25T07:09:27Z</time>
      </trkpt>
      <trkpt lat="43.42285" lon="2.26447">
        <ele>769.6</ele>
        <time>2020-07-25T07:09:31Z</time>
      </trkpt>
      <trkpt lat="43.42285" lon="2.26447">
        <ele>769.6</ele>
        <time>2020-07-25T07:09:45Z</time>
      </trkpt>
      <trkpt lat="43.42281" lon="2.26427">
        <ele>772.8</ele>
        <time>2020-07-25T07:09:49Z</time>
      </trkpt>
      <trkpt lat="43.42281" lon="2.26418">
        <ele>774.1</ele>
        <time>2020-07-25T07:09:53Z</time>
      </trkpt>
      <trkpt lat="43.42282" lon="2.26417">
        <ele>774.5</ele>
        <time>2020-07-25T07:10:03Z</time>
      </trkpt>
      <trkpt lat="43.42286" lon="2.26398">
        <ele>776.1</ele>
        <time>2020-07-25T07:10:07Z</time>
      </trkpt>
      <trkpt lat="43.42286" lon="2.26397">
        <ele>776.1</ele>
        <time>2020-07-25T07:10:16Z</time>
      </trkpt>
      <trkpt lat="43.42287" lon="2.26378">
        <ele>776.3</ele>
        <time>2020-07-25T07:10:20Z</time>
      </trkpt>
      <trkpt lat="43.42291" lon="2.26373">
        <ele>777</ele>
        <time>2020-07-25T07:10:25Z</time>
      </trkpt>
      <trkpt lat="43.42291" lon="2.26373">
        <ele>777</ele>
        <time>2020-07-25T07:10:31Z</time>
      </trkpt>
      <trkpt lat="43.42301" lon="2.26359">
        <ele>780</ele>
        <time>2020-07-25T07:10:35Z</time>
      </trkpt>
      <trkpt lat="43.42304" lon="2.26352">
        <ele>780.9</ele>
        <time>2020-07-25T07:10:39Z</time>
      </trkpt>
      <trkpt lat="43.42304" lon="2.26351">
        <ele>781</ele>
        <time>2020-07-25T07:10:52Z</time>
      </trkpt>
      <trkpt lat="43.42304" lon="2.26333">
        <ele>781.9</ele>
        <time>2020-07-25T07:10:57Z</time>
      </trkpt>
      <trkpt lat="43.42304" lon="2.26333">
        <ele>781.9</ele>
        <time>2020-07-25T07:11:05Z</time>
      </trkpt>
      <trkpt lat="43.42314" lon="2.26314">
        <ele>783.9</ele>
        <time>2020-07-25T07:11:10Z</time>
      </trkpt>
      <trkpt lat="43.42316" lon="2.26307">
        <ele>784.3</ele>
        <time>2020-07-25T07:11:14Z</time>
      </trkpt>
      <trkpt lat="43.42322" lon="2.26297">
        <ele>784.5</ele>
        <time>2020-07-25T07:11:19Z</time>
      </trkpt>
      <trkpt lat="43.42321" lon="2.26294">
        <ele>784.7</ele>
        <time>2020-07-25T07:11:27Z</time>
      </trkpt>
      <trkpt lat="43.42326" lon="2.26277">
        <ele>784.5</ele>
        <time>2020-07-25T07:11:31Z</time>
      </trkpt>
      <trkpt lat="43.42326" lon="2.26277">
        <ele>784.5</ele>
        <time>2020-07-25T07:11:36Z</time>
      </trkpt>
      <trkpt lat="43.42334" lon="2.26261">
        <ele>785.2</ele>
        <time>2020-07-25T07:11:41Z</time>
      </trkpt>
      <trkpt lat="43.42335" lon="2.26258">
        <ele>785.2</ele>
        <time>2020-07-25T07:11:47Z</time>
      </trkpt>
      <trkpt lat="43.42334" lon="2.2624">
        <ele>787.1</ele>
        <time>2020-07-25T07:11:52Z</time>
      </trkpt>
      <trkpt lat="43.42334" lon="2.2624">
        <ele>787.1</ele>
        <time>2020-07-25T07:12:01Z</time>
      </trkpt>
      <trkpt lat="43.42334" lon="2.26223">
        <ele>790</ele>
        <time>2020-07-25T07:12:05Z</time>
      </trkpt>
      <trkpt lat="43.42334" lon="2.26223">
        <ele>790</ele>
        <time>2020-07-25T07:12:11Z</time>
      </trkpt>
      <trkpt lat="43.42339" lon="2.26206">
        <ele>789.8</ele>
        <time>2020-07-25T07:12:15Z</time>
      </trkpt>
      <trkpt lat="43.42338" lon="2.26194">
        <ele>790.5</ele>
        <time>2020-07-25T07:12:19Z</time>
      </trkpt>
      <trkpt lat="43.4234" lon="2.26191">
        <ele>790.6</ele>
        <time>2020-07-25T07:12:27Z</time>
      </trkpt>
      <trkpt lat="43.42348" lon="2.26178">
        <ele>791.5</ele>
        <time>2020-07-25T07:12:31Z</time>
      </trkpt>
      <trkpt lat="43.4235" lon="2.26176">
        <ele>791.6</ele>
        <time>2020-07-25T07:12:38Z</time>
      </trkpt>
      <trkpt lat="43.42358" lon="2.26159">
        <ele>790.9</ele>
        <time>2020-07-25T07:12:43Z</time>
      </trkpt>
      <trkpt lat="43.42363" lon="2.26152">
        <ele>791.3</ele>
        <time>2020-07-25T07:12:47Z</time>
      </trkpt>
      <trkpt lat="43.42363" lon="2.26151">
        <ele>791.4</ele>
        <time>2020-07-25T07:12:52Z</time>
      </trkpt>
      <trkpt lat="43.42363" lon="2.26133">
        <ele>793.4</ele>
        <time>2020-07-25T07:12:57Z</time>
      </trkpt>
      <trkpt lat="43.42363" lon="2.2613">
        <ele>793.8</ele>
        <time>2020-07-25T07:13:02Z</time>
      </trkpt>
      <trkpt lat="43.42369" lon="2.26112">
        <ele>794.4</ele>
        <time>2020-07-25T07:13:07Z</time>
      </trkpt>
      <trkpt lat="43.42373" lon="2.26106">
        <ele>794.1</ele>
        <time>2020-07-25T07:13:11Z</time>
      </trkpt>
      <trkpt lat="43.42376" lon="2.26102">
        <ele>793.7</ele>
        <time>2020-07-25T07:13:21Z</time>
      </trkpt>
      <trkpt lat="43.42386" lon="2.26093">
        <ele>793.7</ele>
        <time>2020-07-25T07:13:25Z</time>
      </trkpt>
      <trkpt lat="43.42386" lon="2.26093">
        <ele>793.7</ele>
        <time>2020-07-25T07:13:31Z</time>
      </trkpt>
      <trkpt lat="43.42391" lon="2.26078">
        <ele>794.3</ele>
        <time>2020-07-25T07:13:35Z</time>
      </trkpt>
      <trkpt lat="43.42397" lon="2.26071">
        <ele>795.3</ele>
        <time>2020-07-25T07:13:39Z</time>
      </trkpt>
      <trkpt lat="43.42402" lon="2.26068">
        <ele>796.7</ele>
        <time>2020-07-25T07:13:43Z</time>
      </trkpt>
      <trkpt lat="43.42403" lon="2.26067">
        <ele>797.3</ele>
        <time>2020-07-25T07:13:47Z</time>
      </trkpt>
      <trkpt lat="43.42408" lon="2.26055">
        <ele>799.8</ele>
        <time>2020-07-25T07:13:51Z</time>
      </trkpt>
      <trkpt lat="43.4241" lon="2.26047">
        <ele>801.1</ele>
        <time>2020-07-25T07:13:55Z</time>
      </trkpt>
      <trkpt lat="43.42411" lon="2.26044">
        <ele>802</ele>
        <time>2020-07-25T07:14:04Z</time>
      </trkpt>
      <trkpt lat="43.4241" lon="2.26033">
        <ele>804.7</ele>
        <time>2020-07-25T07:14:08Z</time>
      </trkpt>
      <trkpt lat="43.42413" lon="2.26024">
        <ele>806.2</ele>
        <time>2020-07-25T07:14:13Z</time>
      </trkpt>
      <trkpt lat="43.42413" lon="2.26023">
        <ele>806.4</ele>
        <time>2020-07-25T07:14:24Z</time>
      </trkpt>
      <trkpt lat="43.42423" lon="2.2601">
        <ele>809</ele>
        <time>2020-07-25T07:14:29Z</time>
      </trkpt>
      <trkpt lat="43.42423" lon="2.2601">
        <ele>809</ele>
        <time>2020-07-25T07:14:34Z</time>
      </trkpt>
      <trkpt lat="43.42433" lon="2.25997">
        <ele>809</ele>
        <time>2020-07-25T07:14:38Z</time>
      </trkpt>
      <trkpt lat="43.42433" lon="2.25997">
        <ele>809</ele>
        <time>2020-07-25T07:14:43Z</time>
      </trkpt>
      <trkpt lat="43.42439" lon="2.25981">
        <ele>810.9</ele>
        <time>2020-07-25T07:14:47Z</time>
      </trkpt>
      <trkpt lat="43.42444" lon="2.25977">
        <ele>811.6</ele>
        <time>2020-07-25T07:14:52Z</time>
      </trkpt>
      <trkpt lat="43.42449" lon="2.25968">
        <ele>812.1</ele>
        <time>2020-07-25T07:14:56Z</time>
      </trkpt>
      <trkpt lat="43.42457" lon="2.25956">
        <ele>811.1</ele>
        <time>2020-07-25T07:15:01Z</time>
      </trkpt>
      <trkpt lat="43.42463" lon="2.25944">
        <ele>811.5</ele>
        <time>2020-07-25T07:15:06Z</time>
      </trkpt>
      <trkpt lat="43.42467" lon="2.2594">
        <ele>811.5</ele>
        <time>2020-07-25T07:15:11Z</time>
      </trkpt>
      <trkpt lat="43.42474" lon="2.25929">
        <ele>813</ele>
        <time>2020-07-25T07:15:15Z</time>
      </trkpt>
      <trkpt lat="43.42481" lon="2.25924">
        <ele>811.3</ele>
        <time>2020-07-25T07:15:19Z</time>
      </trkpt>
      <trkpt lat="43.42487" lon="2.25912">
        <ele>811</ele>
        <time>2020-07-25T07:15:23Z</time>
      </trkpt>
      <trkpt lat="43.42496" lon="2.25901">
        <ele>810.1</ele>
        <time>2020-07-25T07:15:28Z</time>
      </trkpt>
      <trkpt lat="43.42498" lon="2.25892">
        <ele>810.1</ele>
        <time>2020-07-25T07:15:32Z</time>
      </trkpt>
      <trkpt lat="43.42504" lon="2.25882">
        <ele>810.1</ele>
        <time>2020-07-25T07:15:36Z</time>
      </trkpt>
      <trkpt lat="43.42514" lon="2.25865">
        <ele>809.6</ele>
        <time>2020-07-25T07:15:41Z</time>
      </trkpt>
      <trkpt lat="43.42521" lon="2.25854">
        <ele>809.5</ele>
        <time>2020-07-25T07:15:45Z</time>
      </trkpt>
      <trkpt lat="43.42524" lon="2.25845">
        <ele>808.9</ele>
        <time>2020-07-25T07:15:49Z</time>
      </trkpt>
      <trkpt lat="43.4253" lon="2.25837">
        <ele>808.6</ele>
        <time>2020-07-25T07:15:53Z</time>
      </trkpt>
      <trkpt lat="43.42531" lon="2.25835">
        <ele>808.1</ele>
        <time>2020-07-25T07:15:58Z</time>
      </trkpt>
      <trkpt lat="43.42538" lon="2.25819">
        <ele>807.1</ele>
        <time>2020-07-25T07:16:02Z</time>
      </trkpt>
      <trkpt lat="43.42542" lon="2.25809">
        <ele>806.6</ele>
        <time>2020-07-25T07:16:06Z</time>
      </trkpt>
      <trkpt lat="43.42548" lon="2.25791">
        <ele>805.1</ele>
        <time>2020-07-25T07:16:11Z</time>
      </trkpt>
      <trkpt lat="43.42549" lon="2.25787">
        <ele>804.6</ele>
        <time>2020-07-25T07:16:26Z</time>
      </trkpt>
      <trkpt lat="43.42557" lon="2.2577">
        <ele>804.3</ele>
        <time>2020-07-25T07:16:30Z</time>
      </trkpt>
      <trkpt lat="43.42562" lon="2.25764">
        <ele>804.7</ele>
        <time>2020-07-25T07:16:35Z</time>
      </trkpt>
      <trkpt lat="43.42568" lon="2.25755">
        <ele>805.4</ele>
        <time>2020-07-25T07:16:39Z</time>
      </trkpt>
      <trkpt lat="43.42571" lon="2.25755">
        <ele>806.8</ele>
        <time>2020-07-25T07:16:53Z</time>
      </trkpt>
      <trkpt lat="43.42585" lon="2.25752">
        <ele>809.7</ele>
        <time>2020-07-25T07:16:57Z</time>
      </trkpt>
      <trkpt lat="43.4259" lon="2.25751">
        <ele>811.3</ele>
        <time>2020-07-25T07:17:01Z</time>
      </trkpt>
      <trkpt lat="43.42591" lon="2.25751">
        <ele>811.9</ele>
        <time>2020-07-25T07:17:05Z</time>
      </trkpt>
      <trkpt lat="43.42603" lon="2.2575">
        <ele>812.2</ele>
        <time>2020-07-25T07:17:10Z</time>
      </trkpt>
      <trkpt lat="43.42607" lon="2.25749">
        <ele>812.8</ele>
        <time>2020-07-25T07:17:14Z</time>
      </trkpt>
      <trkpt lat="43.42614" lon="2.2574">
        <ele>813.2</ele>
        <time>2020-07-25T07:17:19Z</time>
      </trkpt>
      <trkpt lat="43.42617" lon="2.25737">
        <ele>813.9</ele>
        <time>2020-07-25T07:17:24Z</time>
      </trkpt>
      <trkpt lat="43.42627" lon="2.25731">
        <ele>815.3</ele>
        <time>2020-07-25T07:17:29Z</time>
      </trkpt>
      <trkpt lat="43.42634" lon="2.25726">
        <ele>816.1</ele>
        <time>2020-07-25T07:17:33Z</time>
      </trkpt>
      <trkpt lat="43.42639" lon="2.25725">
        <ele>816.8</ele>
        <time>2020-07-25T07:17:37Z</time>
      </trkpt>
      <trkpt lat="43.42642" lon="2.25721">
        <ele>816.7</ele>
        <time>2020-07-25T07:17:45Z</time>
      </trkpt>
      <trkpt lat="43.42654" lon="2.25714">
        <ele>817.8</ele>
        <time>2020-07-25T07:17:50Z</time>
      </trkpt>
      <trkpt lat="43.42658" lon="2.25711">
        <ele>818.1</ele>
        <time>2020-07-25T07:17:55Z</time>
      </trkpt>
      <trkpt lat="43.42662" lon="2.25705">
        <ele>819.2</ele>
        <time>2020-07-25T07:18:00Z</time>
      </trkpt>
      <trkpt lat="43.4267" lon="2.25697">
        <ele>821.8</ele>
        <time>2020-07-25T07:18:05Z</time>
      </trkpt>
      <trkpt lat="43.4267" lon="2.25696">
        <ele>822</ele>
        <time>2020-07-25T07:18:14Z</time>
      </trkpt>
      <trkpt lat="43.42679" lon="2.25676">
        <ele>824.8</ele>
        <time>2020-07-25T07:18:18Z</time>
      </trkpt>
      <trkpt lat="43.42683" lon="2.25666">
        <ele>825.3</ele>
        <time>2020-07-25T07:18:23Z</time>
      </trkpt>
      <trkpt lat="43.42686" lon="2.2566">
        <ele>826.2</ele>
        <time>2020-07-25T07:18:27Z</time>
      </trkpt>
      <trkpt lat="43.4269" lon="2.25654">
        <ele>826.4</ele>
        <time>2020-07-25T07:18:31Z</time>
      </trkpt>
      <trkpt lat="43.4269" lon="2.25654">
        <ele>826.4</ele>
        <time>2020-07-25T07:18:48Z</time>
      </trkpt>
      <trkpt lat="43.42699" lon="2.25638">
        <ele>827.4</ele>
        <time>2020-07-25T07:18:53Z</time>
      </trkpt>
      <trkpt lat="43.42699" lon="2.25637">
        <ele>827.4</ele>
        <time>2020-07-25T07:19:05Z</time>
      </trkpt>
      <trkpt lat="43.42702" lon="2.25621">
        <ele>827.2</ele>
        <time>2020-07-25T07:19:09Z</time>
      </trkpt>
      <trkpt lat="43.42702" lon="2.25621">
        <ele>827.2</ele>
        <time>2020-07-25T07:20:00Z</time>
      </trkpt>
      <trkpt lat="43.4271" lon="2.25613">
        <ele>827.3</ele>
        <time>2020-07-25T07:20:04Z</time>
      </trkpt>
      <trkpt lat="43.4271" lon="2.25613">
        <ele>827.3</ele>
        <time>2020-07-25T07:20:16Z</time>
      </trkpt>
      <trkpt lat="43.42716" lon="2.25598">
        <ele>827.3</ele>
        <time>2020-07-25T07:20:20Z</time>
      </trkpt>
      <trkpt lat="43.42718" lon="2.25595">
        <ele>827.3</ele>
        <time>2020-07-25T07:20:25Z</time>
      </trkpt>
      <trkpt lat="43.4272" lon="2.25581">
        <ele>827.4</ele>
        <time>2020-07-25T07:20:29Z</time>
      </trkpt>
      <trkpt lat="43.4273" lon="2.25575">
        <ele>827.5</ele>
        <time>2020-07-25T07:20:33Z</time>
      </trkpt>
      <trkpt lat="43.42731" lon="2.25569">
        <ele>827.7</ele>
        <time>2020-07-25T07:20:39Z</time>
      </trkpt>
      <trkpt lat="43.42727" lon="2.25556">
        <ele>827.9</ele>
        <time>2020-07-25T07:20:43Z</time>
      </trkpt>
      <trkpt lat="43.42735" lon="2.25544">
        <ele>828</ele>
        <time>2020-07-25T07:20:47Z</time>
      </trkpt>
      <trkpt lat="43.42739" lon="2.25529">
        <ele>828.1</ele>
        <time>2020-07-25T07:20:51Z</time>
      </trkpt>
      <trkpt lat="43.42744" lon="2.25523">
        <ele>828.2</ele>
        <time>2020-07-25T07:20:55Z</time>
      </trkpt>
      <trkpt lat="43.42749" lon="2.2551">
        <ele>828.5</ele>
        <time>2020-07-25T07:21:00Z</time>
      </trkpt>
      <trkpt lat="43.42744" lon="2.2549">
        <ele>828.5</ele>
        <time>2020-07-25T07:21:04Z</time>
      </trkpt>
      <trkpt lat="43.42742" lon="2.25475">
        <ele>828.8</ele>
        <time>2020-07-25T07:21:09Z</time>
      </trkpt>
      <trkpt lat="43.42735" lon="2.25461">
        <ele>828.9</ele>
        <time>2020-07-25T07:21:13Z</time>
      </trkpt>
      <trkpt lat="43.42722" lon="2.25437">
        <ele>829.2</ele>
        <time>2020-07-25T07:21:18Z</time>
      </trkpt>
      <trkpt lat="43.42715" lon="2.2543">
        <ele>829.6</ele>
        <time>2020-07-25T07:21:22Z</time>
      </trkpt>
      <trkpt lat="43.42705" lon="2.2541">
        <ele>829.3</ele>
        <time>2020-07-25T07:21:27Z</time>
      </trkpt>
      <trkpt lat="43.42694" lon="2.25395">
        <ele>829</ele>
        <time>2020-07-25T07:21:31Z</time>
      </trkpt>
      <trkpt lat="43.42686" lon="2.25376">
        <ele>828.4</ele>
        <time>2020-07-25T07:21:36Z</time>
      </trkpt>
      <trkpt lat="43.42677" lon="2.25364">
        <ele>828.1</ele>
        <time>2020-07-25T07:21:40Z</time>
      </trkpt>
      <trkpt lat="43.42655" lon="2.25338">
        <ele>828.1</ele>
        <time>2020-07-25T07:21:45Z</time>
      </trkpt>
      <trkpt lat="43.42638" lon="2.25315">
        <ele>828.3</ele>
        <time>2020-07-25T07:21:49Z</time>
      </trkpt>
      <trkpt lat="43.42629" lon="2.25296">
        <ele>828.5</ele>
        <time>2020-07-25T07:21:53Z</time>
      </trkpt>
      <trkpt lat="43.42617" lon="2.25279">
        <ele>828.9</ele>
        <time>2020-07-25T07:21:57Z</time>
      </trkpt>
      <trkpt lat="43.42597" lon="2.25265">
        <ele>830.1</ele>
        <time>2020-07-25T07:22:01Z</time>
      </trkpt>
      <trkpt lat="43.4259" lon="2.25247">
        <ele>833.1</ele>
        <time>2020-07-25T07:22:05Z</time>
      </trkpt>
      <trkpt lat="43.42585" lon="2.25234">
        <ele>834.1</ele>
        <time>2020-07-25T07:22:09Z</time>
      </trkpt>
      <trkpt lat="43.42576" lon="2.25222">
        <ele>836.9</ele>
        <time>2020-07-25T07:22:13Z</time>
      </trkpt>
      <trkpt lat="43.42566" lon="2.25207">
        <ele>837.6</ele>
        <time>2020-07-25T07:22:17Z</time>
      </trkpt>
      <trkpt lat="43.42561" lon="2.2519">
        <ele>837.9</ele>
        <time>2020-07-25T07:22:21Z</time>
      </trkpt>
      <trkpt lat="43.42563" lon="2.25167">
        <ele>838.7</ele>
        <time>2020-07-25T07:22:26Z</time>
      </trkpt>
      <trkpt lat="43.42565" lon="2.25147">
        <ele>839.4</ele>
        <time>2020-07-25T07:22:30Z</time>
      </trkpt>
      <trkpt lat="43.42568" lon="2.25134">
        <ele>840.2</ele>
        <time>2020-07-25T07:22:34Z</time>
      </trkpt>
      <trkpt lat="43.42571" lon="2.25116">
        <ele>840.6</ele>
        <time>2020-07-25T07:22:39Z</time>
      </trkpt>
      <trkpt lat="43.4257" lon="2.25092">
        <ele>841.1</ele>
        <time>2020-07-25T07:22:43Z</time>
      </trkpt>
      <trkpt lat="43.42571" lon="2.25073">
        <ele>844</ele>
        <time>2020-07-25T07:22:47Z</time>
      </trkpt>
      <trkpt lat="43.42563" lon="2.25047">
        <ele>843.9</ele>
        <time>2020-07-25T07:22:51Z</time>
      </trkpt>
      <trkpt lat="43.4255" lon="2.25013">
        <ele>844.4</ele>
        <time>2020-07-25T07:22:55Z</time>
      </trkpt>
      <trkpt lat="43.42535" lon="2.24966">
        <ele>845.2</ele>
        <time>2020-07-25T07:23:00Z</time>
      </trkpt>
      <trkpt lat="43.42522" lon="2.2493">
        <ele>846.1</ele>
        <time>2020-07-25T07:23:04Z</time>
      </trkpt>
      <trkpt lat="43.42525" lon="2.24909">
        <ele>847</ele>
        <time>2020-07-25T07:23:08Z</time>
      </trkpt>
      <trkpt lat="43.42522" lon="2.24873">
        <ele>847.5</ele>
        <time>2020-07-25T07:23:13Z</time>
      </trkpt>
      <trkpt lat="43.42523" lon="2.24843">
        <ele>847.1</ele>
        <time>2020-07-25T07:23:18Z</time>
      </trkpt>
      <trkpt lat="43.4252" lon="2.24818">
        <ele>846.5</ele>
        <time>2020-07-25T07:23:22Z</time>
      </trkpt>
      <trkpt lat="43.42514" lon="2.24809">
        <ele>845.8</ele>
        <time>2020-07-25T07:23:26Z</time>
      </trkpt>
      <trkpt lat="43.42487" lon="2.24798">
        <ele>844.8</ele>
        <time>2020-07-25T07:23:31Z</time>
      </trkpt>
      <trkpt lat="43.42473" lon="2.24782">
        <ele>843.4</ele>
        <time>2020-07-25T07:23:35Z</time>
      </trkpt>
      <trkpt lat="43.42445" lon="2.24761">
        <ele>839</ele>
        <time>2020-07-25T07:23:40Z</time>
      </trkpt>
      <trkpt lat="43.42408" lon="2.24759">
        <ele>836.9</ele>
        <time>2020-07-25T07:23:44Z</time>
      </trkpt>
      <trkpt lat="43.42354" lon="2.2475">
        <ele>838.6</ele>
        <time>2020-07-25T07:23:49Z</time>
      </trkpt>
      <trkpt lat="43.42328" lon="2.24747">
        <ele>838</ele>
        <time>2020-07-25T07:23:53Z</time>
      </trkpt>
      <trkpt lat="43.42307" lon="2.2474">
        <ele>841</ele>
        <time>2020-07-25T07:23:57Z</time>
      </trkpt>
      <trkpt lat="43.42293" lon="2.24732">
        <ele>841.1</ele>
        <time>2020-07-25T07:24:01Z</time>
      </trkpt>
      <trkpt lat="43.42276" lon="2.24727">
        <ele>839.3</ele>
        <time>2020-07-25T07:24:05Z</time>
      </trkpt>
      <trkpt lat="43.42252" lon="2.24711">
        <ele>834.2</ele>
        <time>2020-07-25T07:24:09Z</time>
      </trkpt>
      <trkpt lat="43.4223" lon="2.24691">
        <ele>831.5</ele>
        <time>2020-07-25T07:24:13Z</time>
      </trkpt>
      <trkpt lat="43.42217" lon="2.24682">
        <ele>826.1</ele>
        <time>2020-07-25T07:24:17Z</time>
      </trkpt>
      <trkpt lat="43.42211" lon="2.24678">
        <ele>824.4</ele>
        <time>2020-07-25T07:24:21Z</time>
      </trkpt>
      <trkpt lat="43.42211" lon="2.24678">
        <ele>824</ele>
        <time>2020-07-25T07:24:52Z</time>
      </trkpt>
      <trkpt lat="43.42199" lon="2.24677">
        <ele>823.7</ele>
        <time>2020-07-25T07:24:57Z</time>
      </trkpt>
      <trkpt lat="43.42199" lon="2.24677">
        <ele>823.7</ele>
        <time>2020-07-25T07:25:01Z</time>
      </trkpt>
      <trkpt lat="43.42189" lon="2.24661">
        <ele>823.3</ele>
        <time>2020-07-25T07:25:06Z</time>
      </trkpt>
      <trkpt lat="43.42184" lon="2.24658">
        <ele>823</ele>
        <time>2020-07-25T07:25:10Z</time>
      </trkpt>
      <trkpt lat="43.4218" lon="2.24655">
        <ele>822.9</ele>
        <time>2020-07-25T07:25:14Z</time>
      </trkpt>
      <trkpt lat="43.42174" lon="2.24644">
        <ele>822.6</ele>
        <time>2020-07-25T07:25:19Z</time>
      </trkpt>
      <trkpt lat="43.42173" lon="2.24634">
        <ele>821.9</ele>
        <time>2020-07-25T07:25:23Z</time>
      </trkpt>
      <trkpt lat="43.42173" lon="2.24623">
        <ele>820.8</ele>
        <time>2020-07-25T07:25:27Z</time>
      </trkpt>
      <trkpt lat="43.42166" lon="2.2461">
        <ele>819.4</ele>
        <time>2020-07-25T07:25:31Z</time>
      </trkpt>
      <trkpt lat="43.4216" lon="2.24596">
        <ele>815.8</ele>
        <time>2020-07-25T07:25:35Z</time>
      </trkpt>
      <trkpt lat="43.42152" lon="2.24578">
        <ele>812.9</ele>
        <time>2020-07-25T07:25:40Z</time>
      </trkpt>
      <trkpt lat="43.42141" lon="2.24558">
        <ele>810.2</ele>
        <time>2020-07-25T07:25:45Z</time>
      </trkpt>
      <trkpt lat="43.42135" lon="2.24548">
        <ele>807.9</ele>
        <time>2020-07-25T07:25:49Z</time>
      </trkpt>
      <trkpt lat="43.42128" lon="2.24536">
        <ele>805.7</ele>
        <time>2020-07-25T07:25:53Z</time>
      </trkpt>
      <trkpt lat="43.42117" lon="2.24525">
        <ele>803.8</ele>
        <time>2020-07-25T07:25:57Z</time>
      </trkpt>
      <trkpt lat="43.42101" lon="2.24515">
        <ele>801.2</ele>
        <time>2020-07-25T07:26:01Z</time>
      </trkpt>
      <trkpt lat="43.42085" lon="2.24505">
        <ele>797.4</ele>
        <time>2020-07-25T07:26:05Z</time>
      </trkpt>
      <trkpt lat="43.42067" lon="2.24496">
        <ele>791.7</ele>
        <time>2020-07-25T07:26:09Z</time>
      </trkpt>
      <trkpt lat="43.42051" lon="2.24488">
        <ele>788.3</ele>
        <time>2020-07-25T07:26:13Z</time>
      </trkpt>
      <trkpt lat="43.42037" lon="2.24483">
        <ele>786.5</ele>
        <time>2020-07-25T07:26:17Z</time>
      </trkpt>
      <trkpt lat="43.42029" lon="2.24477">
        <ele>785.2</ele>
        <time>2020-07-25T07:26:21Z</time>
      </trkpt>
      <trkpt lat="43.42027" lon="2.24466">
        <ele>782.6</ele>
        <time>2020-07-25T07:26:26Z</time>
      </trkpt>
      <trkpt lat="43.42031" lon="2.24458">
        <ele>779.8</ele>
        <time>2020-07-25T07:26:30Z</time>
      </trkpt>
      <trkpt lat="43.4204" lon="2.24453">
        <ele>775.5</ele>
        <time>2020-07-25T07:26:35Z</time>
      </trkpt>
      <trkpt lat="43.42048" lon="2.24453">
        <ele>771.3</ele>
        <time>2020-07-25T07:26:39Z</time>
      </trkpt>
      <trkpt lat="43.42058" lon="2.24456">
        <ele>767.9</ele>
        <time>2020-07-25T07:26:43Z</time>
      </trkpt>
      <trkpt lat="43.42065" lon="2.24451">
        <ele>764.8</ele>
        <time>2020-07-25T07:26:47Z</time>
      </trkpt>
      <trkpt lat="43.42078" lon="2.24448">
        <ele>760.2</ele>
        <time>2020-07-25T07:26:52Z</time>
      </trkpt>
      <trkpt lat="43.42092" lon="2.24448">
        <ele>756.5</ele>
        <time>2020-07-25T07:26:56Z</time>
      </trkpt>
      <trkpt lat="43.42113" lon="2.24451">
        <ele>753.9</ele>
        <time>2020-07-25T07:27:00Z</time>
      </trkpt>
      <trkpt lat="43.4214" lon="2.24446">
        <ele>749.5</ele>
        <time>2020-07-25T07:27:05Z</time>
      </trkpt>
      <trkpt lat="43.42164" lon="2.24451">
        <ele>746.1</ele>
        <time>2020-07-25T07:27:10Z</time>
      </trkpt>
      <trkpt lat="43.42173" lon="2.24453">
        <ele>744.1</ele>
        <time>2020-07-25T07:27:14Z</time>
      </trkpt>
      <trkpt lat="43.4218" lon="2.24441">
        <ele>743.9</ele>
        <time>2020-07-25T07:27:19Z</time>
      </trkpt>
      <trkpt lat="43.42178" lon="2.24434">
        <ele>741.9</ele>
        <time>2020-07-25T07:27:23Z</time>
      </trkpt>
      <trkpt lat="43.42171" lon="2.24423">
        <ele>740.3</ele>
        <time>2020-07-25T07:27:27Z</time>
      </trkpt>
      <trkpt lat="43.42166" lon="2.24415">
        <ele>738.7</ele>
        <time>2020-07-25T07:27:31Z</time>
      </trkpt>
      <trkpt lat="43.42158" lon="2.24411">
        <ele>737.1</ele>
        <time>2020-07-25T07:27:35Z</time>
      </trkpt>
      <trkpt lat="43.42145" lon="2.24403">
        <ele>735.7</ele>
        <time>2020-07-25T07:27:39Z</time>
      </trkpt>
      <trkpt lat="43.42134" lon="2.24393">
        <ele>734.3</ele>
        <time>2020-07-25T07:27:43Z</time>
      </trkpt>
      <trkpt lat="43.42122" lon="2.24382">
        <ele>734.4</ele>
        <time>2020-07-25T07:27:47Z</time>
      </trkpt>
      <trkpt lat="43.42109" lon="2.24363">
        <ele>736</ele>
        <time>2020-07-25T07:27:51Z</time>
      </trkpt>
      <trkpt lat="43.42093" lon="2.24334">
        <ele>737.6</ele>
        <time>2020-07-25T07:27:56Z</time>
      </trkpt>
      <trkpt lat="43.42082" lon="2.24315">
        <ele>737.6</ele>
        <time>2020-07-25T07:28:00Z</time>
      </trkpt>
      <trkpt lat="43.42069" lon="2.24292">
        <ele>736.3</ele>
        <time>2020-07-25T07:28:05Z</time>
      </trkpt>
      <trkpt lat="43.42062" lon="2.24279">
        <ele>734.2</ele>
        <time>2020-07-25T07:28:09Z</time>
      </trkpt>
      <trkpt lat="43.42057" lon="2.24275">
        <ele>732.7</ele>
        <time>2020-07-25T07:28:13Z</time>
      </trkpt>
      <trkpt lat="43.42051" lon="2.24272">
        <ele>731.9</ele>
        <time>2020-07-25T07:28:17Z</time>
      </trkpt>
      <trkpt lat="43.42041" lon="2.24266">
        <ele>733.9</ele>
        <time>2020-07-25T07:28:22Z</time>
      </trkpt>
      <trkpt lat="43.4204" lon="2.24266">
        <ele>733.4</ele>
        <time>2020-07-25T07:28:58Z</time>
      </trkpt>
      <trkpt lat="43.42028" lon="2.24268">
        <ele>732.3</ele>
        <time>2020-07-25T07:29:03Z</time>
      </trkpt>
      <trkpt lat="43.42028" lon="2.24268">
        <ele>732.3</ele>
        <time>2020-07-25T07:29:48Z</time>
      </trkpt>
      <trkpt lat="43.42023" lon="2.24278">
        <ele>732.8</ele>
        <time>2020-07-25T07:29:53Z</time>
      </trkpt>
      <trkpt lat="43.42023" lon="2.24278">
        <ele>732.8</ele>
        <time>2020-07-25T07:30:12Z</time>
      </trkpt>
      <trkpt lat="43.42019" lon="2.24264">
        <ele>734.6</ele>
        <time>2020-07-25T07:30:17Z</time>
      </trkpt>
      <trkpt lat="43.42019" lon="2.24264">
        <ele>734.6</ele>
        <time>2020-07-25T07:31:10Z</time>
      </trkpt>
      <trkpt lat="43.42007" lon="2.24254">
        <ele>735.4</ele>
        <time>2020-07-25T07:31:14Z</time>
      </trkpt>
      <trkpt lat="43.42002" lon="2.24235">
        <ele>734.9</ele>
        <time>2020-07-25T07:31:19Z</time>
      </trkpt>
      <trkpt lat="43.42" lon="2.24225">
        <ele>734.6</ele>
        <time>2020-07-25T07:31:23Z</time>
      </trkpt>
      <trkpt lat="43.41994" lon="2.24229">
        <ele>734.2</ele>
        <time>2020-07-25T07:31:28Z</time>
      </trkpt>
      <trkpt lat="43.41994" lon="2.24229">
        <ele>734.2</ele>
        <time>2020-07-25T07:31:33Z</time>
      </trkpt>
      <trkpt lat="43.41982" lon="2.24231">
        <ele>733.6</ele>
        <time>2020-07-25T07:31:37Z</time>
      </trkpt>
      <trkpt lat="43.41982" lon="2.24231">
        <ele>733.6</ele>
        <time>2020-07-25T07:32:03Z</time>
      </trkpt>
      <trkpt lat="43.41976" lon="2.24221">
        <ele>728</ele>
        <time>2020-07-25T07:32:07Z</time>
      </trkpt>
      <trkpt lat="43.41976" lon="2.24221">
        <ele>728</ele>
        <time>2020-07-25T07:32:27Z</time>
      </trkpt>
      <trkpt lat="43.41979" lon="2.24234">
        <ele>729.6</ele>
        <time>2020-07-25T07:32:31Z</time>
      </trkpt>
      <trkpt lat="43.41979" lon="2.24234">
        <ele>729.6</ele>
        <time>2020-07-25T07:33:06Z</time>
      </trkpt>
      <trkpt lat="43.41985" lon="2.24213">
        <ele>728.4</ele>
        <time>2020-07-25T07:33:10Z</time>
      </trkpt>
      <trkpt lat="43.41978" lon="2.24191">
        <ele>727.4</ele>
        <time>2020-07-25T07:33:15Z</time>
      </trkpt>
      <trkpt lat="43.41969" lon="2.24178">
        <ele>727.3</ele>
        <time>2020-07-25T07:33:19Z</time>
      </trkpt>
      <trkpt lat="43.41962" lon="2.24167">
        <ele>726.4</ele>
        <time>2020-07-25T07:33:23Z</time>
      </trkpt>
      <trkpt lat="43.41956" lon="2.24147">
        <ele>726.6</ele>
        <time>2020-07-25T07:33:27Z</time>
      </trkpt>
      <trkpt lat="43.41947" lon="2.24126">
        <ele>727.8</ele>
        <time>2020-07-25T07:33:31Z</time>
      </trkpt>
      <trkpt lat="43.41937" lon="2.24113">
        <ele>726.9</ele>
        <time>2020-07-25T07:33:35Z</time>
      </trkpt>
      <trkpt lat="43.41915" lon="2.24098">
        <ele>723.6</ele>
        <time>2020-07-25T07:33:40Z</time>
      </trkpt>
      <trkpt lat="43.41903" lon="2.2409">
        <ele>724.2</ele>
        <time>2020-07-25T07:33:44Z</time>
      </trkpt>
      <trkpt lat="43.41889" lon="2.24083">
        <ele>722.9</ele>
        <time>2020-07-25T07:33:49Z</time>
      </trkpt>
      <trkpt lat="43.4188" lon="2.24074">
        <ele>721.4</ele>
        <time>2020-07-25T07:33:53Z</time>
      </trkpt>
      <trkpt lat="43.41872" lon="2.24068">
        <ele>720.7</ele>
        <time>2020-07-25T07:33:57Z</time>
      </trkpt>
      <trkpt lat="43.41864" lon="2.24061">
        <ele>720.1</ele>
        <time>2020-07-25T07:34:02Z</time>
      </trkpt>
      <trkpt lat="43.41856" lon="2.24052">
        <ele>720.1</ele>
        <time>2020-07-25T07:34:06Z</time>
      </trkpt>
      <trkpt lat="43.41845" lon="2.24036">
        <ele>719.6</ele>
        <time>2020-07-25T07:34:11Z</time>
      </trkpt>
      <trkpt lat="43.41838" lon="2.24024">
        <ele>719</ele>
        <time>2020-07-25T07:34:15Z</time>
      </trkpt>
      <trkpt lat="43.41828" lon="2.24016">
        <ele>718.2</ele>
        <time>2020-07-25T07:34:20Z</time>
      </trkpt>
      <trkpt lat="43.4181" lon="2.23999">
        <ele>717.9</ele>
        <time>2020-07-25T07:34:25Z</time>
      </trkpt>
      <trkpt lat="43.41805" lon="2.23988">
        <ele>716.9</ele>
        <time>2020-07-25T07:34:29Z</time>
      </trkpt>
      <trkpt lat="43.41796" lon="2.23969">
        <ele>715.8</ele>
        <time>2020-07-25T07:34:34Z</time>
      </trkpt>
      <trkpt lat="43.41779" lon="2.23949">
        <ele>715.3</ele>
        <time>2020-07-25T07:34:38Z</time>
      </trkpt>
      <trkpt lat="43.4176" lon="2.23933">
        <ele>713.7</ele>
        <time>2020-07-25T07:34:43Z</time>
      </trkpt>
      <trkpt lat="43.41744" lon="2.23923">
        <ele>711.8</ele>
        <time>2020-07-25T07:34:47Z</time>
      </trkpt>
      <trkpt lat="43.41729" lon="2.23916">
        <ele>709.7</ele>
        <time>2020-07-25T07:34:51Z</time>
      </trkpt>
      <trkpt lat="43.41712" lon="2.23911">
        <ele>708</ele>
        <time>2020-07-25T07:34:55Z</time>
      </trkpt>
      <trkpt lat="43.41699" lon="2.23907">
        <ele>706</ele>
        <time>2020-07-25T07:34:59Z</time>
      </trkpt>
      <trkpt lat="43.41687" lon="2.2391">
        <ele>705.9</ele>
        <time>2020-07-25T07:35:03Z</time>
      </trkpt>
      <trkpt lat="43.41679" lon="2.23914">
        <ele>706.5</ele>
        <time>2020-07-25T07:35:07Z</time>
      </trkpt>
      <trkpt lat="43.41669" lon="2.23917">
        <ele>703.7</ele>
        <time>2020-07-25T07:35:11Z</time>
      </trkpt>
      <trkpt lat="43.4166" lon="2.23903">
        <ele>702.3</ele>
        <time>2020-07-25T07:35:16Z</time>
      </trkpt>
      <trkpt lat="43.41646" lon="2.23889">
        <ele>702.9</ele>
        <time>2020-07-25T07:35:21Z</time>
      </trkpt>
      <trkpt lat="43.41631" lon="2.23879">
        <ele>703.5</ele>
        <time>2020-07-25T07:35:25Z</time>
      </trkpt>
      <trkpt lat="43.41619" lon="2.23869">
        <ele>704.1</ele>
        <time>2020-07-25T07:35:29Z</time>
      </trkpt>
      <trkpt lat="43.41602" lon="2.2386">
        <ele>704.5</ele>
        <time>2020-07-25T07:35:33Z</time>
      </trkpt>
      <trkpt lat="43.41589" lon="2.23848">
        <ele>703.9</ele>
        <time>2020-07-25T07:35:37Z</time>
      </trkpt>
      <trkpt lat="43.41578" lon="2.23832">
        <ele>703.6</ele>
        <time>2020-07-25T07:35:41Z</time>
      </trkpt>
      <trkpt lat="43.41575" lon="2.23814">
        <ele>702.5</ele>
        <time>2020-07-25T07:35:45Z</time>
      </trkpt>
      <trkpt lat="43.41569" lon="2.238">
        <ele>701.6</ele>
        <time>2020-07-25T07:35:49Z</time>
      </trkpt>
      <trkpt lat="43.41564" lon="2.23785">
        <ele>699.9</ele>
        <time>2020-07-25T07:35:53Z</time>
      </trkpt>
      <trkpt lat="43.41559" lon="2.2376">
        <ele>698.3</ele>
        <time>2020-07-25T07:35:58Z</time>
      </trkpt>
      <trkpt lat="43.41554" lon="2.23734">
        <ele>697.5</ele>
        <time>2020-07-25T07:36:02Z</time>
      </trkpt>
      <trkpt lat="43.41548" lon="2.23701">
        <ele>693.3</ele>
        <time>2020-07-25T07:36:07Z</time>
      </trkpt>
      <trkpt lat="43.41542" lon="2.23676">
        <ele>690.7</ele>
        <time>2020-07-25T07:36:11Z</time>
      </trkpt>
      <trkpt lat="43.41538" lon="2.23646">
        <ele>689.5</ele>
        <time>2020-07-25T07:36:15Z</time>
      </trkpt>
      <trkpt lat="43.41532" lon="2.23621">
        <ele>687.2</ele>
        <time>2020-07-25T07:36:19Z</time>
      </trkpt>
      <trkpt lat="43.41536" lon="2.23595">
        <ele>685.3</ele>
        <time>2020-07-25T07:36:23Z</time>
      </trkpt>
      <trkpt lat="43.41539" lon="2.23567">
        <ele>682.8</ele>
        <time>2020-07-25T07:36:27Z</time>
      </trkpt>
      <trkpt lat="43.41538" lon="2.23544">
        <ele>680.7</ele>
        <time>2020-07-25T07:36:31Z</time>
      </trkpt>
      <trkpt lat="43.41533" lon="2.2352">
        <ele>681</ele>
        <time>2020-07-25T07:36:35Z</time>
      </trkpt>
      <trkpt lat="43.4152" lon="2.235">
        <ele>679.8</ele>
        <time>2020-07-25T07:36:40Z</time>
      </trkpt>
      <trkpt lat="43.41511" lon="2.23494">
        <ele>679</ele>
        <time>2020-07-25T07:36:44Z</time>
      </trkpt>
      <trkpt lat="43.4151" lon="2.23489">
        <ele>679.6</ele>
        <time>2020-07-25T07:37:08Z</time>
      </trkpt>
      <trkpt lat="43.41501" lon="2.23477">
        <ele>679.2</ele>
        <time>2020-07-25T07:37:12Z</time>
      </trkpt>
      <trkpt lat="43.41488" lon="2.23464">
        <ele>677.9</ele>
        <time>2020-07-25T07:37:17Z</time>
      </trkpt>
      <trkpt lat="43.41471" lon="2.2345">
        <ele>676.8</ele>
        <time>2020-07-25T07:37:22Z</time>
      </trkpt>
      <trkpt lat="43.41456" lon="2.23436">
        <ele>675.9</ele>
        <time>2020-07-25T07:37:26Z</time>
      </trkpt>
      <trkpt lat="43.4144" lon="2.23422">
        <ele>675.5</ele>
        <time>2020-07-25T07:37:30Z</time>
      </trkpt>
      <trkpt lat="43.41412" lon="2.234">
        <ele>677.5</ele>
        <time>2020-07-25T07:37:35Z</time>
      </trkpt>
      <trkpt lat="43.41394" lon="2.2338">
        <ele>678.6</ele>
        <time>2020-07-25T07:37:39Z</time>
      </trkpt>
      <trkpt lat="43.41383" lon="2.23349">
        <ele>679.5</ele>
        <time>2020-07-25T07:37:44Z</time>
      </trkpt>
      <trkpt lat="43.41381" lon="2.23329">
        <ele>680.7</ele>
        <time>2020-07-25T07:37:49Z</time>
      </trkpt>
      <trkpt lat="43.4138" lon="2.23327">
        <ele>681.8</ele>
        <time>2020-07-25T07:38:03Z</time>
      </trkpt>
      <trkpt lat="43.4136" lon="2.23339">
        <ele>688.6</ele>
        <time>2020-07-25T07:38:07Z</time>
      </trkpt>
      <trkpt lat="43.41343" lon="2.23348">
        <ele>689.4</ele>
        <time>2020-07-25T07:38:11Z</time>
      </trkpt>
      <trkpt lat="43.41326" lon="2.23353">
        <ele>690.8</ele>
        <time>2020-07-25T07:38:15Z</time>
      </trkpt>
      <trkpt lat="43.41307" lon="2.2336">
        <ele>694.6</ele>
        <time>2020-07-25T07:38:19Z</time>
      </trkpt>
      <trkpt lat="43.41287" lon="2.23365">
        <ele>699.1</ele>
        <time>2020-07-25T07:38:23Z</time>
      </trkpt>
      <trkpt lat="43.41267" lon="2.23362">
        <ele>701.2</ele>
        <time>2020-07-25T07:38:27Z</time>
      </trkpt>
      <trkpt lat="43.41247" lon="2.23361">
        <ele>701.8</ele>
        <time>2020-07-25T07:38:31Z</time>
      </trkpt>
      <trkpt lat="43.41226" lon="2.23351">
        <ele>703.1</ele>
        <time>2020-07-25T07:38:35Z</time>
      </trkpt>
      <trkpt lat="43.41208" lon="2.23343">
        <ele>703.3</ele>
        <time>2020-07-25T07:38:39Z</time>
      </trkpt>
      <trkpt lat="43.41187" lon="2.23335">
        <ele>703.6</ele>
        <time>2020-07-25T07:38:43Z</time>
      </trkpt>
      <trkpt lat="43.41164" lon="2.2333">
        <ele>704.4</ele>
        <time>2020-07-25T07:38:47Z</time>
      </trkpt>
      <trkpt lat="43.41143" lon="2.23326">
        <ele>704.7</ele>
        <time>2020-07-25T07:38:51Z</time>
      </trkpt>
      <trkpt lat="43.41124" lon="2.23316">
        <ele>706.4</ele>
        <time>2020-07-25T07:38:55Z</time>
      </trkpt>
      <trkpt lat="43.41103" lon="2.23297">
        <ele>709.7</ele>
        <time>2020-07-25T07:39:00Z</time>
      </trkpt>
      <trkpt lat="43.41081" lon="2.23279">
        <ele>711.6</ele>
        <time>2020-07-25T07:39:05Z</time>
      </trkpt>
      <trkpt lat="43.4106" lon="2.23259">
        <ele>711.4</ele>
        <time>2020-07-25T07:39:10Z</time>
      </trkpt>
      <trkpt lat="43.41038" lon="2.23246">
        <ele>708.7</ele>
        <time>2020-07-25T07:39:15Z</time>
      </trkpt>
      <trkpt lat="43.41019" lon="2.23239">
        <ele>705.8</ele>
        <time>2020-07-25T07:39:19Z</time>
      </trkpt>
      <trkpt lat="43.40994" lon="2.23236">
        <ele>706.4</ele>
        <time>2020-07-25T07:39:24Z</time>
      </trkpt>
      <trkpt lat="43.40971" lon="2.23246">
        <ele>705.5</ele>
        <time>2020-07-25T07:39:29Z</time>
      </trkpt>
      <trkpt lat="43.40954" lon="2.23258">
        <ele>701.7</ele>
        <time>2020-07-25T07:39:33Z</time>
      </trkpt>
      <trkpt lat="43.40935" lon="2.23266">
        <ele>698.9</ele>
        <time>2020-07-25T07:39:37Z</time>
      </trkpt>
      <trkpt lat="43.40921" lon="2.23274">
        <ele>697</ele>
        <time>2020-07-25T07:39:41Z</time>
      </trkpt>
      <trkpt lat="43.4092" lon="2.23275">
        <ele>696.3</ele>
        <time>2020-07-25T07:41:10Z</time>
      </trkpt>
      <trkpt lat="43.40912" lon="2.23279">
        <ele>697.1</ele>
        <time>2020-07-25T07:41:14Z</time>
      </trkpt>
      <trkpt lat="43.40912" lon="2.23279">
        <ele>697.1</ele>
        <time>2020-07-25T07:43:21Z</time>
      </trkpt>
      <trkpt lat="43.40901" lon="2.23287">
        <ele>699.6</ele>
        <time>2020-07-25T07:43:26Z</time>
      </trkpt>
      <trkpt lat="43.40891" lon="2.2329">
        <ele>700.7</ele>
        <time>2020-07-25T07:43:30Z</time>
      </trkpt>
      <trkpt lat="43.40883" lon="2.23295">
        <ele>702.1</ele>
        <time>2020-07-25T07:43:35Z</time>
      </trkpt>
      <trkpt lat="43.40878" lon="2.23299">
        <ele>702.9</ele>
        <time>2020-07-25T07:43:39Z</time>
      </trkpt>
      <trkpt lat="43.40871" lon="2.23298">
        <ele>704.4</ele>
        <time>2020-07-25T07:43:44Z</time>
      </trkpt>
      <trkpt lat="43.40867" lon="2.23297">
        <ele>705.6</ele>
        <time>2020-07-25T07:45:28Z</time>
      </trkpt>
      <trkpt lat="43.40862" lon="2.23295">
        <ele>710.1</ele>
        <time>2020-07-25T07:45:32Z</time>
      </trkpt>
      <trkpt lat="43.40857" lon="2.23298">
        <ele>711.4</ele>
        <time>2020-07-25T07:45:36Z</time>
      </trkpt>
      <trkpt lat="43.40859" lon="2.23292">
        <ele>712.7</ele>
        <time>2020-07-25T07:46:24Z</time>
      </trkpt>
      <trkpt lat="43.40864" lon="2.23285">
        <ele>712.7</ele>
        <time>2020-07-25T07:46:29Z</time>
      </trkpt>
      <trkpt lat="43.40864" lon="2.23283">
        <ele>713.1</ele>
        <time>2020-07-25T07:47:00Z</time>
      </trkpt>
      <trkpt lat="43.40858" lon="2.23295">
        <ele>714.5</ele>
        <time>2020-07-25T07:47:05Z</time>
      </trkpt>
      <trkpt lat="43.40857" lon="2.23299">
        <ele>716</ele>
        <time>2020-07-25T07:47:11Z</time>
      </trkpt>
      <trkpt lat="43.40853" lon="2.2331">
        <ele>717.3</ele>
        <time>2020-07-25T07:47:15Z</time>
      </trkpt>
      <trkpt lat="43.40854" lon="2.23326">
        <ele>718.6</ele>
        <time>2020-07-25T07:47:19Z</time>
      </trkpt>
      <trkpt lat="43.40855" lon="2.23343">
        <ele>721.5</ele>
        <time>2020-07-25T07:47:23Z</time>
      </trkpt>
      <trkpt lat="43.40856" lon="2.23362">
        <ele>723.1</ele>
        <time>2020-07-25T07:47:27Z</time>
      </trkpt>
      <trkpt lat="43.4086" lon="2.2338">
        <ele>725.3</ele>
        <time>2020-07-25T07:47:31Z</time>
      </trkpt>
      <trkpt lat="43.4086" lon="2.23405">
        <ele>726.7</ele>
        <time>2020-07-25T07:47:36Z</time>
      </trkpt>
      <trkpt lat="43.40859" lon="2.23428">
        <ele>727.8</ele>
        <time>2020-07-25T07:47:40Z</time>
      </trkpt>
      <trkpt lat="43.40857" lon="2.23449">
        <ele>728.9</ele>
        <time>2020-07-25T07:47:44Z</time>
      </trkpt>
      <trkpt lat="43.40853" lon="2.23472">
        <ele>730</ele>
        <time>2020-07-25T07:47:48Z</time>
      </trkpt>
      <trkpt lat="43.40855" lon="2.23504">
        <ele>731.7</ele>
        <time>2020-07-25T07:47:53Z</time>
      </trkpt>
      <trkpt lat="43.40854" lon="2.23531">
        <ele>733.2</ele>
        <time>2020-07-25T07:47:57Z</time>
      </trkpt>
      <trkpt lat="43.40855" lon="2.23556">
        <ele>734.6</ele>
        <time>2020-07-25T07:48:01Z</time>
      </trkpt>
      <trkpt lat="43.40859" lon="2.23582">
        <ele>736.8</ele>
        <time>2020-07-25T07:48:05Z</time>
      </trkpt>
      <trkpt lat="43.40867" lon="2.23617">
        <ele>736.5</ele>
        <time>2020-07-25T07:48:10Z</time>
      </trkpt>
      <trkpt lat="43.40866" lon="2.23644">
        <ele>736.3</ele>
        <time>2020-07-25T07:48:14Z</time>
      </trkpt>
      <trkpt lat="43.40855" lon="2.23649">
        <ele>736.4</ele>
        <time>2020-07-25T07:48:19Z</time>
      </trkpt>
      <trkpt lat="43.4085" lon="2.23628">
        <ele>735.6</ele>
        <time>2020-07-25T07:48:23Z</time>
      </trkpt>
      <trkpt lat="43.4085" lon="2.23599">
        <ele>734.6</ele>
        <time>2020-07-25T07:48:27Z</time>
      </trkpt>
      <trkpt lat="43.40852" lon="2.23571">
        <ele>732.8</ele>
        <time>2020-07-25T07:48:31Z</time>
      </trkpt>
      <trkpt lat="43.4085" lon="2.23554">
        <ele>732.6</ele>
        <time>2020-07-25T07:48:35Z</time>
      </trkpt>
      <trkpt lat="43.40843" lon="2.23541">
        <ele>732.9</ele>
        <time>2020-07-25T07:48:39Z</time>
      </trkpt>
      <trkpt lat="43.40833" lon="2.23522">
        <ele>732.4</ele>
        <time>2020-07-25T07:48:43Z</time>
      </trkpt>
      <trkpt lat="43.40822" lon="2.23503">
        <ele>732</ele>
        <time>2020-07-25T07:48:47Z</time>
      </trkpt>
      <trkpt lat="43.40814" lon="2.23483">
        <ele>731.9</ele>
        <time>2020-07-25T07:48:51Z</time>
      </trkpt>
      <trkpt lat="43.40803" lon="2.23466">
        <ele>731.6</ele>
        <time>2020-07-25T07:48:55Z</time>
      </trkpt>
      <trkpt lat="43.40792" lon="2.23445">
        <ele>731.4</ele>
        <time>2020-07-25T07:48:59Z</time>
      </trkpt>
      <trkpt lat="43.4079" lon="2.23421">
        <ele>729.3</ele>
        <time>2020-07-25T07:49:03Z</time>
      </trkpt>
      <trkpt lat="43.40783" lon="2.23396">
        <ele>727.8</ele>
        <time>2020-07-25T07:49:08Z</time>
      </trkpt>
      <trkpt lat="43.40776" lon="2.23373">
        <ele>725.5</ele>
        <time>2020-07-25T07:49:13Z</time>
      </trkpt>
      <trkpt lat="43.40768" lon="2.23352">
        <ele>724.3</ele>
        <time>2020-07-25T07:49:17Z</time>
      </trkpt>
      <trkpt lat="43.40756" lon="2.23328">
        <ele>722.8</ele>
        <time>2020-07-25T07:49:21Z</time>
      </trkpt>
      <trkpt lat="43.40747" lon="2.23308">
        <ele>722.1</ele>
        <time>2020-07-25T07:49:25Z</time>
      </trkpt>
      <trkpt lat="43.40737" lon="2.23289">
        <ele>721.3</ele>
        <time>2020-07-25T07:49:29Z</time>
      </trkpt>
      <trkpt lat="43.40723" lon="2.23262">
        <ele>717</ele>
        <time>2020-07-25T07:49:34Z</time>
      </trkpt>
      <trkpt lat="43.40711" lon="2.23243">
        <ele>713.3</ele>
        <time>2020-07-25T07:49:38Z</time>
      </trkpt>
      <trkpt lat="43.40705" lon="2.23234">
        <ele>712.3</ele>
        <time>2020-07-25T07:49:43Z</time>
      </trkpt>
      <trkpt lat="43.40702" lon="2.23231">
        <ele>712.8</ele>
        <time>2020-07-25T07:50:08Z</time>
      </trkpt>
      <trkpt lat="43.4069" lon="2.23227">
        <ele>713.3</ele>
        <time>2020-07-25T07:50:13Z</time>
      </trkpt>
      <trkpt lat="43.40678" lon="2.23223">
        <ele>713.4</ele>
        <time>2020-07-25T07:50:17Z</time>
      </trkpt>
      <trkpt lat="43.40667" lon="2.23219">
        <ele>713.5</ele>
        <time>2020-07-25T07:50:21Z</time>
      </trkpt>
      <trkpt lat="43.40653" lon="2.23217">
        <ele>713.8</ele>
        <time>2020-07-25T07:50:25Z</time>
      </trkpt>
      <trkpt lat="43.40636" lon="2.23213">
        <ele>713.5</ele>
        <time>2020-07-25T07:50:29Z</time>
      </trkpt>
      <trkpt lat="43.40613" lon="2.23213">
        <ele>713.2</ele>
        <time>2020-07-25T07:50:34Z</time>
      </trkpt>
      <trkpt lat="43.40596" lon="2.23215">
        <ele>713.5</ele>
        <time>2020-07-25T07:50:38Z</time>
      </trkpt>
      <trkpt lat="43.4058" lon="2.23216">
        <ele>713.9</ele>
        <time>2020-07-25T07:50:42Z</time>
      </trkpt>
      <trkpt lat="43.40562" lon="2.23218">
        <ele>714.4</ele>
        <time>2020-07-25T07:50:46Z</time>
      </trkpt>
      <trkpt lat="43.40538" lon="2.23211">
        <ele>716.4</ele>
        <time>2020-07-25T07:50:50Z</time>
      </trkpt>
      <trkpt lat="43.40518" lon="2.23197">
        <ele>718.3</ele>
        <time>2020-07-25T07:50:55Z</time>
      </trkpt>
      <trkpt lat="43.40498" lon="2.23186">
        <ele>718.8</ele>
        <time>2020-07-25T07:50:59Z</time>
      </trkpt>
      <trkpt lat="43.40478" lon="2.23181">
        <ele>719.3</ele>
        <time>2020-07-25T07:51:04Z</time>
      </trkpt>
      <trkpt lat="43.40462" lon="2.23181">
        <ele>718.9</ele>
        <time>2020-07-25T07:51:08Z</time>
      </trkpt>
      <trkpt lat="43.40444" lon="2.23188">
        <ele>717.2</ele>
        <time>2020-07-25T07:51:13Z</time>
      </trkpt>
      <trkpt lat="43.40429" lon="2.23197">
        <ele>715.8</ele>
        <time>2020-07-25T07:51:17Z</time>
      </trkpt>
      <trkpt lat="43.40409" lon="2.23206">
        <ele>712.9</ele>
        <time>2020-07-25T07:51:22Z</time>
      </trkpt>
      <trkpt lat="43.40397" lon="2.23203">
        <ele>712.7</ele>
        <time>2020-07-25T07:51:26Z</time>
      </trkpt>
      <trkpt lat="43.40397" lon="2.23203">
        <ele>712.7</ele>
        <time>2020-07-25T07:51:41Z</time>
      </trkpt>
      <trkpt lat="43.40386" lon="2.23177">
        <ele>714.3</ele>
        <time>2020-07-25T07:51:46Z</time>
      </trkpt>
      <trkpt lat="43.40388" lon="2.23161">
        <ele>714.9</ele>
        <time>2020-07-25T07:51:51Z</time>
      </trkpt>
      <trkpt lat="43.40387" lon="2.23145">
        <ele>715.4</ele>
        <time>2020-07-25T07:51:55Z</time>
      </trkpt>
      <trkpt lat="43.40384" lon="2.23126">
        <ele>715.6</ele>
        <time>2020-07-25T07:51:59Z</time>
      </trkpt>
      <trkpt lat="43.40378" lon="2.23106">
        <ele>716.9</ele>
        <time>2020-07-25T07:52:03Z</time>
      </trkpt>
      <trkpt lat="43.40363" lon="2.23074">
        <ele>723.9</ele>
        <time>2020-07-25T07:52:08Z</time>
      </trkpt>
      <trkpt lat="43.40353" lon="2.23055">
        <ele>726.1</ele>
        <time>2020-07-25T07:52:13Z</time>
      </trkpt>
      <trkpt lat="43.40344" lon="2.23043">
        <ele>727.9</ele>
        <time>2020-07-25T07:52:17Z</time>
      </trkpt>
      <trkpt lat="43.40331" lon="2.23027">
        <ele>728.5</ele>
        <time>2020-07-25T07:52:22Z</time>
      </trkpt>
      <trkpt lat="43.40323" lon="2.23014">
        <ele>729.1</ele>
        <time>2020-07-25T07:52:26Z</time>
      </trkpt>
      <trkpt lat="43.40315" lon="2.23001">
        <ele>731.2</ele>
        <time>2020-07-25T07:52:31Z</time>
      </trkpt>
      <trkpt lat="43.40311" lon="2.2299">
        <ele>732.6</ele>
        <time>2020-07-25T07:52:35Z</time>
      </trkpt>
      <trkpt lat="43.40303" lon="2.22977">
        <ele>731.4</ele>
        <time>2020-07-25T07:52:40Z</time>
      </trkpt>
      <trkpt lat="43.40294" lon="2.22968">
        <ele>730.3</ele>
        <time>2020-07-25T07:52:44Z</time>
      </trkpt>
      <trkpt lat="43.40287" lon="2.22961">
        <ele>730.3</ele>
        <time>2020-07-25T07:52:49Z</time>
      </trkpt>
      <trkpt lat="43.40279" lon="2.22959">
        <ele>730.9</ele>
        <time>2020-07-25T07:52:53Z</time>
      </trkpt>
      <trkpt lat="43.40269" lon="2.2296">
        <ele>730.7</ele>
        <time>2020-07-25T07:52:57Z</time>
      </trkpt>
      <trkpt lat="43.40259" lon="2.22959">
        <ele>730.3</ele>
        <time>2020-07-25T07:53:01Z</time>
      </trkpt>
      <trkpt lat="43.40252" lon="2.22958">
        <ele>731.2</ele>
        <time>2020-07-25T07:53:05Z</time>
      </trkpt>
      <trkpt lat="43.40238" lon="2.22954">
        <ele>733.1</ele>
        <time>2020-07-25T07:53:10Z</time>
      </trkpt>
      <trkpt lat="43.40226" lon="2.22946">
        <ele>734.5</ele>
        <time>2020-07-25T07:53:15Z</time>
      </trkpt>
      <trkpt lat="43.40211" lon="2.22941">
        <ele>734.9</ele>
        <time>2020-07-25T07:53:19Z</time>
      </trkpt>
      <trkpt lat="43.40199" lon="2.22945">
        <ele>733</ele>
        <time>2020-07-25T07:53:23Z</time>
      </trkpt>
      <trkpt lat="43.40191" lon="2.22942">
        <ele>732.2</ele>
        <time>2020-07-25T07:53:27Z</time>
      </trkpt>
      <trkpt lat="43.40179" lon="2.2294">
        <ele>733.2</ele>
        <time>2020-07-25T07:53:31Z</time>
      </trkpt>
      <trkpt lat="43.40162" lon="2.22939">
        <ele>733.7</ele>
        <time>2020-07-25T07:53:35Z</time>
      </trkpt>
      <trkpt lat="43.40146" lon="2.22935">
        <ele>735.6</ele>
        <time>2020-07-25T07:53:40Z</time>
      </trkpt>
      <trkpt lat="43.40134" lon="2.22934">
        <ele>736.8</ele>
        <time>2020-07-25T07:53:44Z</time>
      </trkpt>
      <trkpt lat="43.40119" lon="2.22929">
        <ele>738.4</ele>
        <time>2020-07-25T07:53:49Z</time>
      </trkpt>
      <trkpt lat="43.40107" lon="2.2292">
        <ele>737.3</ele>
        <time>2020-07-25T07:53:54Z</time>
      </trkpt>
      <trkpt lat="43.401" lon="2.22906">
        <ele>734.7</ele>
        <time>2020-07-25T07:53:59Z</time>
      </trkpt>
      <trkpt lat="43.40092" lon="2.22891">
        <ele>732.9</ele>
        <time>2020-07-25T07:54:03Z</time>
      </trkpt>
      <trkpt lat="43.40079" lon="2.22875">
        <ele>733.9</ele>
        <time>2020-07-25T07:54:08Z</time>
      </trkpt>
      <trkpt lat="43.40071" lon="2.22868">
        <ele>734.5</ele>
        <time>2020-07-25T07:54:12Z</time>
      </trkpt>
      <trkpt lat="43.40059" lon="2.22857">
        <ele>740.1</ele>
        <time>2020-07-25T07:54:17Z</time>
      </trkpt>
      <trkpt lat="43.4005" lon="2.22851">
        <ele>742.4</ele>
        <time>2020-07-25T07:54:21Z</time>
      </trkpt>
      <trkpt lat="43.4004" lon="2.22842">
        <ele>743.3</ele>
        <time>2020-07-25T07:54:25Z</time>
      </trkpt>
      <trkpt lat="43.4003" lon="2.22839">
        <ele>741.4</ele>
        <time>2020-07-25T07:54:29Z</time>
      </trkpt>
      <trkpt lat="43.40017" lon="2.22838">
        <ele>739.2</ele>
        <time>2020-07-25T07:54:33Z</time>
      </trkpt>
      <trkpt lat="43.40004" lon="2.22841">
        <ele>737.6</ele>
        <time>2020-07-25T07:54:37Z</time>
      </trkpt>
      <trkpt lat="43.39993" lon="2.22847">
        <ele>738.2</ele>
        <time>2020-07-25T07:54:41Z</time>
      </trkpt>
      <trkpt lat="43.3998" lon="2.22858">
        <ele>740.1</ele>
        <time>2020-07-25T07:54:46Z</time>
      </trkpt>
      <trkpt lat="43.39971" lon="2.22872">
        <ele>738.2</ele>
        <time>2020-07-25T07:54:50Z</time>
      </trkpt>
      <trkpt lat="43.3996" lon="2.22892">
        <ele>734.7</ele>
        <time>2020-07-25T07:54:55Z</time>
      </trkpt>
      <trkpt lat="43.39956" lon="2.22913">
        <ele>733.3</ele>
        <time>2020-07-25T07:54:59Z</time>
      </trkpt>
      <trkpt lat="43.39956" lon="2.22927">
        <ele>730.5</ele>
        <time>2020-07-25T07:55:03Z</time>
      </trkpt>
      <trkpt lat="43.3996" lon="2.22942">
        <ele>730.5</ele>
        <time>2020-07-25T07:55:07Z</time>
      </trkpt>
      <trkpt lat="43.39975" lon="2.22957">
        <ele>732.5</ele>
        <time>2020-07-25T07:55:11Z</time>
      </trkpt>
      <trkpt lat="43.39987" lon="2.22974">
        <ele>733.1</ele>
        <time>2020-07-25T07:55:15Z</time>
      </trkpt>
      <trkpt lat="43.39998" lon="2.22993">
        <ele>735.2</ele>
        <time>2020-07-25T07:55:19Z</time>
      </trkpt>
      <trkpt lat="43.40006" lon="2.23014">
        <ele>736</ele>
        <time>2020-07-25T07:55:23Z</time>
      </trkpt>
      <trkpt lat="43.40007" lon="2.23032">
        <ele>736.3</ele>
        <time>2020-07-25T07:55:27Z</time>
      </trkpt>
      <trkpt lat="43.40006" lon="2.23042">
        <ele>734.5</ele>
        <time>2020-07-25T07:55:32Z</time>
      </trkpt>
      <trkpt lat="43.40006" lon="2.23048">
        <ele>732.2</ele>
        <time>2020-07-25T07:57:32Z</time>
      </trkpt>
      <trkpt lat="43.40009" lon="2.23069">
        <ele>732.2</ele>
        <time>2020-07-25T07:57:36Z</time>
      </trkpt>
      <trkpt lat="43.40012" lon="2.23094">
        <ele>732.7</ele>
        <time>2020-07-25T07:57:40Z</time>
      </trkpt>
      <trkpt lat="43.40008" lon="2.23116">
        <ele>733.5</ele>
        <time>2020-07-25T07:57:45Z</time>
      </trkpt>
      <trkpt lat="43.39999" lon="2.23134">
        <ele>733.8</ele>
        <time>2020-07-25T07:57:49Z</time>
      </trkpt>
      <trkpt lat="43.39985" lon="2.23148">
        <ele>733.3</ele>
        <time>2020-07-25T07:57:53Z</time>
      </trkpt>
      <trkpt lat="43.39963" lon="2.23164">
        <ele>734.1</ele>
        <time>2020-07-25T07:57:57Z</time>
      </trkpt>
      <trkpt lat="43.39935" lon="2.232">
        <ele>733.4</ele>
        <time>2020-07-25T07:58:02Z</time>
      </trkpt>
      <trkpt lat="43.3991" lon="2.23229">
        <ele>731.6</ele>
        <time>2020-07-25T07:58:07Z</time>
      </trkpt>
      <trkpt lat="43.39887" lon="2.23248">
        <ele>729.6</ele>
        <time>2020-07-25T07:58:11Z</time>
      </trkpt>
      <trkpt lat="43.3986" lon="2.23276">
        <ele>727.5</ele>
        <time>2020-07-25T07:58:16Z</time>
      </trkpt>
      <trkpt lat="43.39848" lon="2.2329">
        <ele>724.4</ele>
        <time>2020-07-25T07:58:20Z</time>
      </trkpt>
      <trkpt lat="43.39839" lon="2.23295">
        <ele>719.4</ele>
        <time>2020-07-25T07:58:25Z</time>
      </trkpt>
      <trkpt lat="43.39841" lon="2.23285">
        <ele>716.2</ele>
        <time>2020-07-25T07:58:29Z</time>
      </trkpt>
      <trkpt lat="43.39858" lon="2.23267">
        <ele>712.6</ele>
        <time>2020-07-25T07:58:34Z</time>
      </trkpt>
      <trkpt lat="43.39855" lon="2.23233">
        <ele>708.4</ele>
        <time>2020-07-25T07:58:38Z</time>
      </trkpt>
      <trkpt lat="43.39833" lon="2.23194">
        <ele>706.5</ele>
        <time>2020-07-25T07:58:43Z</time>
      </trkpt>
      <trkpt lat="43.39808" lon="2.23168">
        <ele>704.6</ele>
        <time>2020-07-25T07:58:47Z</time>
      </trkpt>
      <trkpt lat="43.39787" lon="2.23134">
        <ele>701.5</ele>
        <time>2020-07-25T07:58:52Z</time>
      </trkpt>
      <trkpt lat="43.39792" lon="2.23101">
        <ele>700.1</ele>
        <time>2020-07-25T07:58:56Z</time>
      </trkpt>
      <trkpt lat="43.3982" lon="2.23071">
        <ele>698.1</ele>
        <time>2020-07-25T07:59:01Z</time>
      </trkpt>
      <trkpt lat="43.39849" lon="2.23051">
        <ele>695.5</ele>
        <time>2020-07-25T07:59:06Z</time>
      </trkpt>
      <trkpt lat="43.39869" lon="2.23024">
        <ele>693.6</ele>
        <time>2020-07-25T07:59:10Z</time>
      </trkpt>
      <trkpt lat="43.39884" lon="2.22989">
        <ele>691.7</ele>
        <time>2020-07-25T07:59:14Z</time>
      </trkpt>
      <trkpt lat="43.39877" lon="2.22931">
        <ele>691.7</ele>
        <time>2020-07-25T07:59:19Z</time>
      </trkpt>
      <trkpt lat="43.39858" lon="2.22904">
        <ele>690.7</ele>
        <time>2020-07-25T07:59:23Z</time>
      </trkpt>
      <trkpt lat="43.39834" lon="2.22882">
        <ele>689.3</ele>
        <time>2020-07-25T07:59:28Z</time>
      </trkpt>
      <trkpt lat="43.39816" lon="2.22867">
        <ele>688.4</ele>
        <time>2020-07-25T07:59:32Z</time>
      </trkpt>
      <trkpt lat="43.39791" lon="2.22858">
        <ele>686</ele>
        <time>2020-07-25T07:59:36Z</time>
      </trkpt>
      <trkpt lat="43.39766" lon="2.22842">
        <ele>683.8</ele>
        <time>2020-07-25T07:59:41Z</time>
      </trkpt>
      <trkpt lat="43.39763" lon="2.22812">
        <ele>682.2</ele>
        <time>2020-07-25T07:59:45Z</time>
      </trkpt>
      <trkpt lat="43.3977" lon="2.22774">
        <ele>679.5</ele>
        <time>2020-07-25T07:59:50Z</time>
      </trkpt>
      <trkpt lat="43.39786" lon="2.22733">
        <ele>677.4</ele>
        <time>2020-07-25T07:59:54Z</time>
      </trkpt>
      <trkpt lat="43.39807" lon="2.22684">
        <ele>674.2</ele>
        <time>2020-07-25T07:59:59Z</time>
      </trkpt>
      <trkpt lat="43.39828" lon="2.22661">
        <ele>671.3</ele>
        <time>2020-07-25T08:00:03Z</time>
      </trkpt>
      <trkpt lat="43.39847" lon="2.22653">
        <ele>668.7</ele>
        <time>2020-07-25T08:00:07Z</time>
      </trkpt>
      <trkpt lat="43.39862" lon="2.22663">
        <ele>667.2</ele>
        <time>2020-07-25T08:00:11Z</time>
      </trkpt>
      <trkpt lat="43.39884" lon="2.2267">
        <ele>665.1</ele>
        <time>2020-07-25T08:00:15Z</time>
      </trkpt>
      <trkpt lat="43.39909" lon="2.22676">
        <ele>663.5</ele>
        <time>2020-07-25T08:00:20Z</time>
      </trkpt>
      <trkpt lat="43.39931" lon="2.2268">
        <ele>662</ele>
        <time>2020-07-25T08:00:24Z</time>
      </trkpt>
      <trkpt lat="43.39953" lon="2.22691">
        <ele>660.9</ele>
        <time>2020-07-25T08:00:29Z</time>
      </trkpt>
      <trkpt lat="43.39979" lon="2.22701">
        <ele>660.3</ele>
        <time>2020-07-25T08:00:33Z</time>
      </trkpt>
      <trkpt lat="43.40006" lon="2.22718">
        <ele>657.1</ele>
        <time>2020-07-25T08:00:38Z</time>
      </trkpt>
      <trkpt lat="43.40031" lon="2.2272">
        <ele>656.1</ele>
        <time>2020-07-25T08:00:42Z</time>
      </trkpt>
      <trkpt lat="43.40088" lon="2.22703">
        <ele>652.3</ele>
        <time>2020-07-25T08:00:47Z</time>
      </trkpt>
      <trkpt lat="43.40125" lon="2.22696">
        <ele>653.5</ele>
        <time>2020-07-25T08:00:51Z</time>
      </trkpt>
      <trkpt lat="43.40142" lon="2.227">
        <ele>655</ele>
        <time>2020-07-25T08:00:56Z</time>
      </trkpt>
      <trkpt lat="43.40134" lon="2.22698">
        <ele>656.7</ele>
        <time>2020-07-25T08:01:00Z</time>
      </trkpt>
      <trkpt lat="43.40118" lon="2.22704">
        <ele>660.2</ele>
        <time>2020-07-25T08:01:05Z</time>
      </trkpt>
      <trkpt lat="43.40103" lon="2.22693">
        <ele>658.8</ele>
        <time>2020-07-25T08:01:09Z</time>
      </trkpt>
      <trkpt lat="43.40083" lon="2.22677">
        <ele>657.6</ele>
        <time>2020-07-25T08:01:13Z</time>
      </trkpt>
      <trkpt lat="43.40062" lon="2.2266">
        <ele>656.5</ele>
        <time>2020-07-25T08:01:17Z</time>
      </trkpt>
      <trkpt lat="43.40043" lon="2.22644">
        <ele>654.7</ele>
        <time>2020-07-25T08:01:21Z</time>
      </trkpt>
      <trkpt lat="43.40024" lon="2.22629">
        <ele>652.6</ele>
        <time>2020-07-25T08:01:26Z</time>
      </trkpt>
      <trkpt lat="43.40005" lon="2.22613">
        <ele>650.3</ele>
        <time>2020-07-25T08:01:31Z</time>
      </trkpt>
      <trkpt lat="43.39987" lon="2.22606">
        <ele>648.3</ele>
        <time>2020-07-25T08:01:35Z</time>
      </trkpt>
      <trkpt lat="43.39962" lon="2.22604">
        <ele>644.8</ele>
        <time>2020-07-25T08:01:39Z</time>
      </trkpt>
      <trkpt lat="43.39935" lon="2.22596">
        <ele>643.1</ele>
        <time>2020-07-25T08:01:44Z</time>
      </trkpt>
      <trkpt lat="43.39913" lon="2.2259">
        <ele>641</ele>
        <time>2020-07-25T08:01:49Z</time>
      </trkpt>
      <trkpt lat="43.39891" lon="2.22574">
        <ele>640.1</ele>
        <time>2020-07-25T08:01:53Z</time>
      </trkpt>
      <trkpt lat="43.39866" lon="2.22558">
        <ele>638.2</ele>
        <time>2020-07-25T08:01:57Z</time>
      </trkpt>
      <trkpt lat="43.39837" lon="2.22546">
        <ele>636.3</ele>
        <time>2020-07-25T08:02:01Z</time>
      </trkpt>
      <trkpt lat="43.39811" lon="2.22548">
        <ele>635.8</ele>
        <time>2020-07-25T08:02:05Z</time>
      </trkpt>
      <trkpt lat="43.3978" lon="2.22563">
        <ele>633.2</ele>
        <time>2020-07-25T08:02:10Z</time>
      </trkpt>
      <trkpt lat="43.39764" lon="2.22578">
        <ele>631.1</ele>
        <time>2020-07-25T08:02:14Z</time>
      </trkpt>
      <trkpt lat="43.39752" lon="2.22587">
        <ele>630</ele>
        <time>2020-07-25T08:02:18Z</time>
      </trkpt>
      <trkpt lat="43.39736" lon="2.22604">
        <ele>628.7</ele>
        <time>2020-07-25T08:02:23Z</time>
      </trkpt>
      <trkpt lat="43.39721" lon="2.22616">
        <ele>628.1</ele>
        <time>2020-07-25T08:02:28Z</time>
      </trkpt>
      <trkpt lat="43.39707" lon="2.22626">
        <ele>627.6</ele>
        <time>2020-07-25T08:02:32Z</time>
      </trkpt>
      <trkpt lat="43.39692" lon="2.22651">
        <ele>626.3</ele>
        <time>2020-07-25T08:02:36Z</time>
      </trkpt>
      <trkpt lat="43.39681" lon="2.22678">
        <ele>625.7</ele>
        <time>2020-07-25T08:02:40Z</time>
      </trkpt>
      <trkpt lat="43.39675" lon="2.2271">
        <ele>624.5</ele>
        <time>2020-07-25T08:02:44Z</time>
      </trkpt>
      <trkpt lat="43.39661" lon="2.22728">
        <ele>622.7</ele>
        <time>2020-07-25T08:02:48Z</time>
      </trkpt>
      <trkpt lat="43.39642" lon="2.22725">
        <ele>621</ele>
        <time>2020-07-25T08:02:53Z</time>
      </trkpt>
      <trkpt lat="43.39635" lon="2.22709">
        <ele>622.7</ele>
        <time>2020-07-25T08:02:57Z</time>
      </trkpt>
      <trkpt lat="43.39635" lon="2.22701">
        <ele>624.5</ele>
        <time>2020-07-25T08:03:01Z</time>
      </trkpt>
      <trkpt lat="43.39641" lon="2.22695">
        <ele>628.4</ele>
        <time>2020-07-25T08:03:05Z</time>
      </trkpt>
      <trkpt lat="43.39642" lon="2.22692">
        <ele>629.3</ele>
        <time>2020-07-25T08:03:30Z</time>
      </trkpt>
      <trkpt lat="43.39645" lon="2.22681">
        <ele>636.9</ele>
        <time>2020-07-25T08:03:35Z</time>
      </trkpt>
      <trkpt lat="43.39645" lon="2.22681">
        <ele>636.9</ele>
        <time>2020-07-25T08:03:41Z</time>
      </trkpt>
      <trkpt lat="43.39633" lon="2.22681">
        <ele>638.3</ele>
        <time>2020-07-25T08:03:45Z</time>
      </trkpt>
      <trkpt lat="43.39632" lon="2.22676">
        <ele>638.7</ele>
        <time>2020-07-25T08:03:49Z</time>
      </trkpt>
      <trkpt lat="43.39631" lon="2.22669">
        <ele>639</ele>
        <time>2020-07-25T08:03:53Z</time>
      </trkpt>
      <trkpt lat="43.39628" lon="2.22664">
        <ele>639.4</ele>
        <time>2020-07-25T08:03:58Z</time>
      </trkpt>
      <trkpt lat="43.39613" lon="2.22651">
        <ele>639.1</ele>
        <time>2020-07-25T08:04:03Z</time>
      </trkpt>
      <trkpt lat="43.39603" lon="2.22631">
        <ele>638.7</ele>
        <time>2020-07-25T08:04:07Z</time>
      </trkpt>
      <trkpt lat="43.39593" lon="2.22606">
        <ele>638.5</ele>
        <time>2020-07-25T08:04:11Z</time>
      </trkpt>
      <trkpt lat="43.39585" lon="2.22579">
        <ele>637.9</ele>
        <time>2020-07-25T08:04:15Z</time>
      </trkpt>
      <trkpt lat="43.39573" lon="2.22568">
        <ele>639.4</ele>
        <time>2020-07-25T08:04:20Z</time>
      </trkpt>
      <trkpt lat="43.39569" lon="2.22556">
        <ele>639.3</ele>
        <time>2020-07-25T08:04:24Z</time>
      </trkpt>
      <trkpt lat="43.39562" lon="2.22536">
        <ele>638.3</ele>
        <time>2020-07-25T08:04:29Z</time>
      </trkpt>
      <trkpt lat="43.39553" lon="2.22512">
        <ele>637.4</ele>
        <time>2020-07-25T08:04:34Z</time>
      </trkpt>
      <trkpt lat="43.39542" lon="2.22491">
        <ele>636.6</ele>
        <time>2020-07-25T08:04:38Z</time>
      </trkpt>
      <trkpt lat="43.39534" lon="2.22467">
        <ele>635.4</ele>
        <time>2020-07-25T08:04:42Z</time>
      </trkpt>
      <trkpt lat="43.39516" lon="2.22439">
        <ele>634.3</ele>
        <time>2020-07-25T08:04:47Z</time>
      </trkpt>
      <trkpt lat="43.39496" lon="2.22427">
        <ele>633.3</ele>
        <time>2020-07-25T08:04:51Z</time>
      </trkpt>
      <trkpt lat="43.39474" lon="2.22419">
        <ele>632.4</ele>
        <time>2020-07-25T08:04:55Z</time>
      </trkpt>
      <trkpt lat="43.39455" lon="2.22409">
        <ele>632.1</ele>
        <time>2020-07-25T08:04:59Z</time>
      </trkpt>
      <trkpt lat="43.3944" lon="2.22393">
        <ele>632.2</ele>
        <time>2020-07-25T08:05:03Z</time>
      </trkpt>
      <trkpt lat="43.39437" lon="2.22374">
        <ele>632</ele>
        <time>2020-07-25T08:05:08Z</time>
      </trkpt>
      <trkpt lat="43.39445" lon="2.22349">
        <ele>631.8</ele>
        <time>2020-07-25T08:05:12Z</time>
      </trkpt>
      <trkpt lat="43.3945" lon="2.22308">
        <ele>637.6</ele>
        <time>2020-07-25T08:05:17Z</time>
      </trkpt>
      <trkpt lat="43.39444" lon="2.22282">
        <ele>639.6</ele>
        <time>2020-07-25T08:05:21Z</time>
      </trkpt>
      <trkpt lat="43.39452" lon="2.22258">
        <ele>644</ele>
        <time>2020-07-25T08:05:25Z</time>
      </trkpt>
      <trkpt lat="43.39467" lon="2.22231">
        <ele>643.8</ele>
        <time>2020-07-25T08:05:30Z</time>
      </trkpt>
      <trkpt lat="43.39485" lon="2.22213">
        <ele>642.8</ele>
        <time>2020-07-25T08:05:35Z</time>
      </trkpt>
      <trkpt lat="43.39498" lon="2.22195">
        <ele>642</ele>
        <time>2020-07-25T08:05:40Z</time>
      </trkpt>
      <trkpt lat="43.39499" lon="2.22171">
        <ele>642</ele>
        <time>2020-07-25T08:05:44Z</time>
      </trkpt>
      <trkpt lat="43.39481" lon="2.22153">
        <ele>639.1</ele>
        <time>2020-07-25T08:05:48Z</time>
      </trkpt>
      <trkpt lat="43.3946" lon="2.22141">
        <ele>637.8</ele>
        <time>2020-07-25T08:05:52Z</time>
      </trkpt>
      <trkpt lat="43.39438" lon="2.22132">
        <ele>636.3</ele>
        <time>2020-07-25T08:05:57Z</time>
      </trkpt>
      <trkpt lat="43.39422" lon="2.22132">
        <ele>635.6</ele>
        <time>2020-07-25T08:06:01Z</time>
      </trkpt>
      <trkpt lat="43.39404" lon="2.22144">
        <ele>635.1</ele>
        <time>2020-07-25T08:06:05Z</time>
      </trkpt>
      <trkpt lat="43.39379" lon="2.22153">
        <ele>635.4</ele>
        <time>2020-07-25T08:06:10Z</time>
      </trkpt>
      <trkpt lat="43.39359" lon="2.22153">
        <ele>635.2</ele>
        <time>2020-07-25T08:06:14Z</time>
      </trkpt>
      <trkpt lat="43.39334" lon="2.2213">
        <ele>634.4</ele>
        <time>2020-07-25T08:06:19Z</time>
      </trkpt>
      <trkpt lat="43.39311" lon="2.22112">
        <ele>633.4</ele>
        <time>2020-07-25T08:06:23Z</time>
      </trkpt>
      <trkpt lat="43.39281" lon="2.22093">
        <ele>632.5</ele>
        <time>2020-07-25T08:06:28Z</time>
      </trkpt>
      <trkpt lat="43.39258" lon="2.22078">
        <ele>631.8</ele>
        <time>2020-07-25T08:06:32Z</time>
      </trkpt>
      <trkpt lat="43.39237" lon="2.22064">
        <ele>630.9</ele>
        <time>2020-07-25T08:06:36Z</time>
      </trkpt>
      <trkpt lat="43.39214" lon="2.22045">
        <ele>630.3</ele>
        <time>2020-07-25T08:06:41Z</time>
      </trkpt>
      <trkpt lat="43.39196" lon="2.22029">
        <ele>629.4</ele>
        <time>2020-07-25T08:06:45Z</time>
      </trkpt>
      <trkpt lat="43.39179" lon="2.22016">
        <ele>628.9</ele>
        <time>2020-07-25T08:06:49Z</time>
      </trkpt>
      <trkpt lat="43.39161" lon="2.21992">
        <ele>628.9</ele>
        <time>2020-07-25T08:06:54Z</time>
      </trkpt>
      <trkpt lat="43.39147" lon="2.21965">
        <ele>627.9</ele>
        <time>2020-07-25T08:06:58Z</time>
      </trkpt>
      <trkpt lat="43.3913" lon="2.21928">
        <ele>626.2</ele>
        <time>2020-07-25T08:07:03Z</time>
      </trkpt>
      <trkpt lat="43.39113" lon="2.21904">
        <ele>624.6</ele>
        <time>2020-07-25T08:07:07Z</time>
      </trkpt>
      <trkpt lat="43.39097" lon="2.21881">
        <ele>623.4</ele>
        <time>2020-07-25T08:07:11Z</time>
      </trkpt>
      <trkpt lat="43.39077" lon="2.2186">
        <ele>622.4</ele>
        <time>2020-07-25T08:07:15Z</time>
      </trkpt>
      <trkpt lat="43.39051" lon="2.21836">
        <ele>619.3</ele>
        <time>2020-07-25T08:07:20Z</time>
      </trkpt>
      <trkpt lat="43.3903" lon="2.21814">
        <ele>615.8</ele>
        <time>2020-07-25T08:07:24Z</time>
      </trkpt>
      <trkpt lat="43.39" lon="2.21793">
        <ele>614.1</ele>
        <time>2020-07-25T08:07:29Z</time>
      </trkpt>
      <trkpt lat="43.38975" lon="2.21784">
        <ele>612</ele>
        <time>2020-07-25T08:07:34Z</time>
      </trkpt>
      <trkpt lat="43.38954" lon="2.21776">
        <ele>611</ele>
        <time>2020-07-25T08:07:38Z</time>
      </trkpt>
      <trkpt lat="43.38933" lon="2.21769">
        <ele>609.5</ele>
        <time>2020-07-25T08:07:42Z</time>
      </trkpt>
      <trkpt lat="43.38908" lon="2.2177">
        <ele>609.2</ele>
        <time>2020-07-25T08:07:46Z</time>
      </trkpt>
      <trkpt lat="43.38878" lon="2.21777">
        <ele>611.6</ele>
        <time>2020-07-25T08:07:51Z</time>
      </trkpt>
      <trkpt lat="43.3885" lon="2.21782">
        <ele>614.6</ele>
        <time>2020-07-25T08:07:55Z</time>
      </trkpt>
      <trkpt lat="43.38825" lon="2.21774">
        <ele>616.5</ele>
        <time>2020-07-25T08:07:59Z</time>
      </trkpt>
      <trkpt lat="43.388" lon="2.21763">
        <ele>617.7</ele>
        <time>2020-07-25T08:08:03Z</time>
      </trkpt>
      <trkpt lat="43.38783" lon="2.21744">
        <ele>619.3</ele>
        <time>2020-07-25T08:08:07Z</time>
      </trkpt>
      <trkpt lat="43.38769" lon="2.2172">
        <ele>619</ele>
        <time>2020-07-25T08:08:11Z</time>
      </trkpt>
      <trkpt lat="43.38752" lon="2.21692">
        <ele>619</ele>
        <time>2020-07-25T08:08:16Z</time>
      </trkpt>
      <trkpt lat="43.38742" lon="2.21663">
        <ele>617.6</ele>
        <time>2020-07-25T08:08:20Z</time>
      </trkpt>
      <trkpt lat="43.38739" lon="2.21634">
        <ele>616.3</ele>
        <time>2020-07-25T08:08:24Z</time>
      </trkpt>
      <trkpt lat="43.3874" lon="2.21601">
        <ele>616.8</ele>
        <time>2020-07-25T08:08:29Z</time>
      </trkpt>
      <trkpt lat="43.38742" lon="2.21572">
        <ele>615.6</ele>
        <time>2020-07-25T08:08:33Z</time>
      </trkpt>
      <trkpt lat="43.38744" lon="2.21547">
        <ele>617</ele>
        <time>2020-07-25T08:08:37Z</time>
      </trkpt>
      <trkpt lat="43.3875" lon="2.21528">
        <ele>618.6</ele>
        <time>2020-07-25T08:08:41Z</time>
      </trkpt>
      <trkpt lat="43.38764" lon="2.21495">
        <ele>620.8</ele>
        <time>2020-07-25T08:08:46Z</time>
      </trkpt>
      <trkpt lat="43.38769" lon="2.21471">
        <ele>622.8</ele>
        <time>2020-07-25T08:08:50Z</time>
      </trkpt>
      <trkpt lat="43.38773" lon="2.21435">
        <ele>626</ele>
        <time>2020-07-25T08:08:55Z</time>
      </trkpt>
      <trkpt lat="43.38763" lon="2.21394">
        <ele>630.9</ele>
        <time>2020-07-25T08:08:59Z</time>
      </trkpt>
      <trkpt lat="43.38742" lon="2.21369">
        <ele>629.1</ele>
        <time>2020-07-25T08:09:03Z</time>
      </trkpt>
      <trkpt lat="43.38722" lon="2.2135">
        <ele>626.2</ele>
        <time>2020-07-25T08:09:07Z</time>
      </trkpt>
      <trkpt lat="43.38704" lon="2.21329">
        <ele>625.3</ele>
        <time>2020-07-25T08:09:11Z</time>
      </trkpt>
      <trkpt lat="43.38684" lon="2.21295">
        <ele>623.9</ele>
        <time>2020-07-25T08:09:16Z</time>
      </trkpt>
      <trkpt lat="43.3867" lon="2.2126">
        <ele>623</ele>
        <time>2020-07-25T08:09:21Z</time>
      </trkpt>
      <trkpt lat="43.38659" lon="2.21233">
        <ele>622.5</ele>
        <time>2020-07-25T08:09:25Z</time>
      </trkpt>
      <trkpt lat="43.38652" lon="2.21205">
        <ele>620.8</ele>
        <time>2020-07-25T08:09:29Z</time>
      </trkpt>
      <trkpt lat="43.38647" lon="2.21181">
        <ele>618.5</ele>
        <time>2020-07-25T08:09:33Z</time>
      </trkpt>
      <trkpt lat="43.38643" lon="2.21148">
        <ele>619.5</ele>
        <time>2020-07-25T08:09:38Z</time>
      </trkpt>
      <trkpt lat="43.38642" lon="2.2112">
        <ele>618.3</ele>
        <time>2020-07-25T08:09:42Z</time>
      </trkpt>
      <trkpt lat="43.38647" lon="2.21089">
        <ele>617.6</ele>
        <time>2020-07-25T08:09:47Z</time>
      </trkpt>
      <trkpt lat="43.38663" lon="2.21061">
        <ele>617.2</ele>
        <time>2020-07-25T08:09:52Z</time>
      </trkpt>
      <trkpt lat="43.38677" lon="2.21046">
        <ele>620.3</ele>
        <time>2020-07-25T08:09:56Z</time>
      </trkpt>
      <trkpt lat="43.38697" lon="2.21028">
        <ele>624.5</ele>
        <time>2020-07-25T08:10:01Z</time>
      </trkpt>
      <trkpt lat="43.38709" lon="2.21006">
        <ele>629.8</ele>
        <time>2020-07-25T08:10:05Z</time>
      </trkpt>
      <trkpt lat="43.38698" lon="2.20982">
        <ele>634.6</ele>
        <time>2020-07-25T08:10:09Z</time>
      </trkpt>
      <trkpt lat="43.38679" lon="2.20961">
        <ele>636</ele>
        <time>2020-07-25T08:10:13Z</time>
      </trkpt>
      <trkpt lat="43.38665" lon="2.20938">
        <ele>634.1</ele>
        <time>2020-07-25T08:10:17Z</time>
      </trkpt>
      <trkpt lat="43.38654" lon="2.20916">
        <ele>633.7</ele>
        <time>2020-07-25T08:10:21Z</time>
      </trkpt>
      <trkpt lat="43.38641" lon="2.20882">
        <ele>633.3</ele>
        <time>2020-07-25T08:10:26Z</time>
      </trkpt>
      <trkpt lat="43.38621" lon="2.20856">
        <ele>633</ele>
        <time>2020-07-25T08:10:31Z</time>
      </trkpt>
      <trkpt lat="43.38614" lon="2.20834">
        <ele>633.2</ele>
        <time>2020-07-25T08:10:35Z</time>
      </trkpt>
      <trkpt lat="43.38615" lon="2.20805">
        <ele>633.3</ele>
        <time>2020-07-25T08:10:40Z</time>
      </trkpt>
      <trkpt lat="43.38622" lon="2.20778">
        <ele>633.4</ele>
        <time>2020-07-25T08:10:44Z</time>
      </trkpt>
      <trkpt lat="43.38626" lon="2.20747">
        <ele>635.9</ele>
        <time>2020-07-25T08:10:48Z</time>
      </trkpt>
      <trkpt lat="43.38623" lon="2.20706">
        <ele>637.8</ele>
        <time>2020-07-25T08:10:53Z</time>
      </trkpt>
      <trkpt lat="43.3861" lon="2.2067">
        <ele>637.3</ele>
        <time>2020-07-25T08:10:58Z</time>
      </trkpt>
      <trkpt lat="43.38596" lon="2.20643">
        <ele>635.7</ele>
        <time>2020-07-25T08:11:02Z</time>
      </trkpt>
      <trkpt lat="43.38582" lon="2.20609">
        <ele>634.5</ele>
        <time>2020-07-25T08:11:07Z</time>
      </trkpt>
      <trkpt lat="43.38571" lon="2.20579">
        <ele>634.7</ele>
        <time>2020-07-25T08:11:11Z</time>
      </trkpt>
      <trkpt lat="43.38552" lon="2.20558">
        <ele>633.6</ele>
        <time>2020-07-25T08:11:16Z</time>
      </trkpt>
      <trkpt lat="43.38536" lon="2.2056">
        <ele>632.4</ele>
        <time>2020-07-25T08:11:20Z</time>
      </trkpt>
      <trkpt lat="43.38521" lon="2.20558">
        <ele>631.8</ele>
        <time>2020-07-25T08:11:24Z</time>
      </trkpt>
      <trkpt lat="43.38509" lon="2.20551">
        <ele>629.4</ele>
        <time>2020-07-25T08:11:28Z</time>
      </trkpt>
      <trkpt lat="43.38502" lon="2.20533">
        <ele>628</ele>
        <time>2020-07-25T08:11:32Z</time>
      </trkpt>
      <trkpt lat="43.385" lon="2.20516">
        <ele>627.5</ele>
        <time>2020-07-25T08:11:36Z</time>
      </trkpt>
      <trkpt lat="43.38499" lon="2.20486">
        <ele>628.1</ele>
        <time>2020-07-25T08:11:41Z</time>
      </trkpt>
      <trkpt lat="43.38497" lon="2.20455">
        <ele>629.9</ele>
        <time>2020-07-25T08:11:46Z</time>
      </trkpt>
      <trkpt lat="43.38493" lon="2.2043">
        <ele>631.1</ele>
        <time>2020-07-25T08:11:50Z</time>
      </trkpt>
      <trkpt lat="43.38488" lon="2.20404">
        <ele>631.6</ele>
        <time>2020-07-25T08:11:54Z</time>
      </trkpt>
      <trkpt lat="43.38482" lon="2.20375">
        <ele>634.3</ele>
        <time>2020-07-25T08:11:59Z</time>
      </trkpt>
      <trkpt lat="43.38477" lon="2.20337">
        <ele>638.9</ele>
        <time>2020-07-25T08:12:04Z</time>
      </trkpt>
      <trkpt lat="43.38472" lon="2.20306">
        <ele>640.1</ele>
        <time>2020-07-25T08:12:08Z</time>
      </trkpt>
      <trkpt lat="43.38468" lon="2.20268">
        <ele>640.6</ele>
        <time>2020-07-25T08:12:13Z</time>
      </trkpt>
      <trkpt lat="43.38466" lon="2.20241">
        <ele>641</ele>
        <time>2020-07-25T08:12:17Z</time>
      </trkpt>
      <trkpt lat="43.38471" lon="2.2021">
        <ele>638</ele>
        <time>2020-07-25T08:12:22Z</time>
      </trkpt>
      <trkpt lat="43.38471" lon="2.20185">
        <ele>636.2</ele>
        <time>2020-07-25T08:12:26Z</time>
      </trkpt>
      <trkpt lat="43.38456" lon="2.20166">
        <ele>637.4</ele>
        <time>2020-07-25T08:12:31Z</time>
      </trkpt>
      <trkpt lat="43.38447" lon="2.20154">
        <ele>637.5</ele>
        <time>2020-07-25T08:12:35Z</time>
      </trkpt>
      <trkpt lat="43.38445" lon="2.20148">
        <ele>637.9</ele>
        <time>2020-07-25T08:12:48Z</time>
      </trkpt>
      <trkpt lat="43.38447" lon="2.20138">
        <ele>636.5</ele>
        <time>2020-07-25T08:12:52Z</time>
      </trkpt>
      <trkpt lat="43.38447" lon="2.20138">
        <ele>636.5</ele>
        <time>2020-07-25T08:13:41Z</time>
      </trkpt>
      <trkpt lat="43.38439" lon="2.20121">
        <ele>633.1</ele>
        <time>2020-07-25T08:13:45Z</time>
      </trkpt>
      <trkpt lat="43.38419" lon="2.20101">
        <ele>633.5</ele>
        <time>2020-07-25T08:13:50Z</time>
      </trkpt>
      <trkpt lat="43.38407" lon="2.20082">
        <ele>633.5</ele>
        <time>2020-07-25T08:13:54Z</time>
      </trkpt>
      <trkpt lat="43.38392" lon="2.20059">
        <ele>633</ele>
        <time>2020-07-25T08:13:59Z</time>
      </trkpt>
      <trkpt lat="43.38377" lon="2.20043">
        <ele>632.5</ele>
        <time>2020-07-25T08:14:03Z</time>
      </trkpt>
      <trkpt lat="43.38359" lon="2.20031">
        <ele>632.3</ele>
        <time>2020-07-25T08:14:07Z</time>
      </trkpt>
      <trkpt lat="43.38339" lon="2.20016">
        <ele>631.5</ele>
        <time>2020-07-25T08:14:11Z</time>
      </trkpt>
      <trkpt lat="43.38318" lon="2.20011">
        <ele>631.3</ele>
        <time>2020-07-25T08:14:15Z</time>
      </trkpt>
      <trkpt lat="43.38296" lon="2.19991">
        <ele>631.5</ele>
        <time>2020-07-25T08:14:20Z</time>
      </trkpt>
      <trkpt lat="43.38285" lon="2.19958">
        <ele>632.6</ele>
        <time>2020-07-25T08:14:25Z</time>
      </trkpt>
      <trkpt lat="43.3828" lon="2.1993">
        <ele>634.1</ele>
        <time>2020-07-25T08:14:29Z</time>
      </trkpt>
      <trkpt lat="43.38276" lon="2.19905">
        <ele>636</ele>
        <time>2020-07-25T08:14:33Z</time>
      </trkpt>
      <trkpt lat="43.38273" lon="2.19881">
        <ele>638.6</ele>
        <time>2020-07-25T08:14:37Z</time>
      </trkpt>
      <trkpt lat="43.38271" lon="2.19854">
        <ele>638.8</ele>
        <time>2020-07-25T08:14:41Z</time>
      </trkpt>
      <trkpt lat="43.38268" lon="2.1983">
        <ele>638.7</ele>
        <time>2020-07-25T08:14:45Z</time>
      </trkpt>
      <trkpt lat="43.38265" lon="2.19801">
        <ele>638.7</ele>
        <time>2020-07-25T08:14:49Z</time>
      </trkpt>
      <trkpt lat="43.38269" lon="2.19772">
        <ele>640</ele>
        <time>2020-07-25T08:14:53Z</time>
      </trkpt>
      <trkpt lat="43.38272" lon="2.19745">
        <ele>641.5</ele>
        <time>2020-07-25T08:14:57Z</time>
      </trkpt>
      <trkpt lat="43.38272" lon="2.1972">
        <ele>644.7</ele>
        <time>2020-07-25T08:15:01Z</time>
      </trkpt>
      <trkpt lat="43.3827" lon="2.19693">
        <ele>646</ele>
        <time>2020-07-25T08:15:05Z</time>
      </trkpt>
      <trkpt lat="43.38279" lon="2.19659">
        <ele>647.3</ele>
        <time>2020-07-25T08:15:09Z</time>
      </trkpt>
      <trkpt lat="43.38293" lon="2.19628">
        <ele>646.2</ele>
        <time>2020-07-25T08:15:13Z</time>
      </trkpt>
      <trkpt lat="43.38309" lon="2.19611">
        <ele>646.9</ele>
        <time>2020-07-25T08:15:17Z</time>
      </trkpt>
      <trkpt lat="43.38327" lon="2.19599">
        <ele>646.2</ele>
        <time>2020-07-25T08:15:21Z</time>
      </trkpt>
      <trkpt lat="43.38343" lon="2.19594">
        <ele>645</ele>
        <time>2020-07-25T08:15:25Z</time>
      </trkpt>
      <trkpt lat="43.38364" lon="2.19596">
        <ele>643.6</ele>
        <time>2020-07-25T08:15:30Z</time>
      </trkpt>
      <trkpt lat="43.38385" lon="2.19611">
        <ele>643.4</ele>
        <time>2020-07-25T08:15:35Z</time>
      </trkpt>
      <trkpt lat="43.384" lon="2.1964">
        <ele>641.7</ele>
        <time>2020-07-25T08:15:40Z</time>
      </trkpt>
      <trkpt lat="43.3841" lon="2.19662">
        <ele>641</ele>
        <time>2020-07-25T08:15:44Z</time>
      </trkpt>
      <trkpt lat="43.38421" lon="2.1968">
        <ele>641.4</ele>
        <time>2020-07-25T08:15:48Z</time>
      </trkpt>
      <trkpt lat="43.38443" lon="2.19669">
        <ele>639.4</ele>
        <time>2020-07-25T08:15:53Z</time>
      </trkpt>
      <trkpt lat="43.38469" lon="2.19647">
        <ele>637.7</ele>
        <time>2020-07-25T08:15:58Z</time>
      </trkpt>
      <trkpt lat="43.38489" lon="2.19638">
        <ele>637.1</ele>
        <time>2020-07-25T08:16:02Z</time>
      </trkpt>
      <trkpt lat="43.38519" lon="2.19621">
        <ele>635</ele>
        <time>2020-07-25T08:16:07Z</time>
      </trkpt>
      <trkpt lat="43.38535" lon="2.196">
        <ele>631.8</ele>
        <time>2020-07-25T08:16:11Z</time>
      </trkpt>
      <trkpt lat="43.38554" lon="2.19581">
        <ele>628.6</ele>
        <time>2020-07-25T08:16:15Z</time>
      </trkpt>
      <trkpt lat="43.38551" lon="2.19561">
        <ele>627.1</ele>
        <time>2020-07-25T08:16:19Z</time>
      </trkpt>
      <trkpt lat="43.38542" lon="2.19541">
        <ele>625.1</ele>
        <time>2020-07-25T08:16:24Z</time>
      </trkpt>
      <trkpt lat="43.38523" lon="2.19514">
        <ele>621.4</ele>
        <time>2020-07-25T08:16:29Z</time>
      </trkpt>
      <trkpt lat="43.38511" lon="2.19494">
        <ele>619.1</ele>
        <time>2020-07-25T08:16:33Z</time>
      </trkpt>
      <trkpt lat="43.38496" lon="2.19471">
        <ele>618.2</ele>
        <time>2020-07-25T08:16:38Z</time>
      </trkpt>
      <trkpt lat="43.3849" lon="2.1945">
        <ele>616.3</ele>
        <time>2020-07-25T08:16:42Z</time>
      </trkpt>
      <trkpt lat="43.38494" lon="2.19423">
        <ele>613.5</ele>
        <time>2020-07-25T08:16:47Z</time>
      </trkpt>
      <trkpt lat="43.38506" lon="2.19399">
        <ele>612.4</ele>
        <time>2020-07-25T08:16:51Z</time>
      </trkpt>
      <trkpt lat="43.38522" lon="2.19379">
        <ele>612.9</ele>
        <time>2020-07-25T08:16:55Z</time>
      </trkpt>
      <trkpt lat="43.38537" lon="2.19363">
        <ele>615.4</ele>
        <time>2020-07-25T08:16:59Z</time>
      </trkpt>
      <trkpt lat="43.3856" lon="2.19348">
        <ele>619.2</ele>
        <time>2020-07-25T08:17:04Z</time>
      </trkpt>
      <trkpt lat="43.38577" lon="2.1934">
        <ele>620.1</ele>
        <time>2020-07-25T08:17:08Z</time>
      </trkpt>
      <trkpt lat="43.38591" lon="2.19332">
        <ele>620.6</ele>
        <time>2020-07-25T08:17:12Z</time>
      </trkpt>
      <trkpt lat="43.38613" lon="2.19323">
        <ele>621.3</ele>
        <time>2020-07-25T08:17:17Z</time>
      </trkpt>
      <trkpt lat="43.38635" lon="2.19313">
        <ele>621.5</ele>
        <time>2020-07-25T08:17:22Z</time>
      </trkpt>
      <trkpt lat="43.3865" lon="2.19321">
        <ele>624.2</ele>
        <time>2020-07-25T08:17:26Z</time>
      </trkpt>
      <trkpt lat="43.38672" lon="2.19325">
        <ele>625.5</ele>
        <time>2020-07-25T08:17:31Z</time>
      </trkpt>
      <trkpt lat="43.38682" lon="2.19323">
        <ele>623.8</ele>
        <time>2020-07-25T08:17:36Z</time>
      </trkpt>
      <trkpt lat="43.38669" lon="2.19303">
        <ele>624</ele>
        <time>2020-07-25T08:17:40Z</time>
      </trkpt>
      <trkpt lat="43.38662" lon="2.19276">
        <ele>623</ele>
        <time>2020-07-25T08:17:45Z</time>
      </trkpt>
      <trkpt lat="43.38652" lon="2.19254">
        <ele>624.3</ele>
        <time>2020-07-25T08:17:49Z</time>
      </trkpt>
      <trkpt lat="43.38634" lon="2.19222">
        <ele>623.2</ele>
        <time>2020-07-25T08:17:54Z</time>
      </trkpt>
      <trkpt lat="43.38626" lon="2.19199">
        <ele>623.6</ele>
        <time>2020-07-25T08:17:58Z</time>
      </trkpt>
      <trkpt lat="43.3861" lon="2.19177">
        <ele>623.5</ele>
        <time>2020-07-25T08:18:02Z</time>
      </trkpt>
      <trkpt lat="43.3859" lon="2.19161">
        <ele>622.4</ele>
        <time>2020-07-25T08:18:07Z</time>
      </trkpt>
      <trkpt lat="43.38567" lon="2.19152">
        <ele>618.4</ele>
        <time>2020-07-25T08:18:11Z</time>
      </trkpt>
      <trkpt lat="43.38542" lon="2.19143">
        <ele>615.7</ele>
        <time>2020-07-25T08:18:16Z</time>
      </trkpt>
      <trkpt lat="43.38522" lon="2.19136">
        <ele>613.3</ele>
        <time>2020-07-25T08:18:21Z</time>
      </trkpt>
      <trkpt lat="43.38504" lon="2.19131">
        <ele>611.2</ele>
        <time>2020-07-25T08:18:25Z</time>
      </trkpt>
      <trkpt lat="43.38479" lon="2.19119">
        <ele>610.3</ele>
        <time>2020-07-25T08:18:30Z</time>
      </trkpt>
      <trkpt lat="43.3847" lon="2.19103">
        <ele>609.9</ele>
        <time>2020-07-25T08:18:34Z</time>
      </trkpt>
      <trkpt lat="43.3847" lon="2.19082">
        <ele>612.5</ele>
        <time>2020-07-25T08:18:38Z</time>
      </trkpt>
      <trkpt lat="43.38473" lon="2.19058">
        <ele>617</ele>
        <time>2020-07-25T08:18:43Z</time>
      </trkpt>
      <trkpt lat="43.38476" lon="2.19034">
        <ele>620.2</ele>
        <time>2020-07-25T08:18:47Z</time>
      </trkpt>
      <trkpt lat="43.38491" lon="2.19008">
        <ele>624.2</ele>
        <time>2020-07-25T08:18:52Z</time>
      </trkpt>
      <trkpt lat="43.38508" lon="2.19004">
        <ele>627.3</ele>
        <time>2020-07-25T08:18:56Z</time>
      </trkpt>
      <trkpt lat="43.38519" lon="2.19017">
        <ele>630.9</ele>
        <time>2020-07-25T08:19:01Z</time>
      </trkpt>
      <trkpt lat="43.38531" lon="2.19024">
        <ele>632</ele>
        <time>2020-07-25T08:19:05Z</time>
      </trkpt>
      <trkpt lat="43.38545" lon="2.1903">
        <ele>632.2</ele>
        <time>2020-07-25T08:19:09Z</time>
      </trkpt>
      <trkpt lat="43.3856" lon="2.19031">
        <ele>630.8</ele>
        <time>2020-07-25T08:19:13Z</time>
      </trkpt>
      <trkpt lat="43.3858" lon="2.19026">
        <ele>628</ele>
        <time>2020-07-25T08:19:17Z</time>
      </trkpt>
      <trkpt lat="43.38601" lon="2.19021">
        <ele>626.4</ele>
        <time>2020-07-25T08:19:22Z</time>
      </trkpt>
      <trkpt lat="43.38623" lon="2.19012">
        <ele>624.6</ele>
        <time>2020-07-25T08:19:26Z</time>
      </trkpt>
      <trkpt lat="43.3865" lon="2.19004">
        <ele>625</ele>
        <time>2020-07-25T08:19:31Z</time>
      </trkpt>
      <trkpt lat="43.38672" lon="2.18998">
        <ele>627</ele>
        <time>2020-07-25T08:19:35Z</time>
      </trkpt>
      <trkpt lat="43.38703" lon="2.18998">
        <ele>630</ele>
        <time>2020-07-25T08:19:40Z</time>
      </trkpt>
      <trkpt lat="43.38722" lon="2.19007">
        <ele>630.6</ele>
        <time>2020-07-25T08:19:44Z</time>
      </trkpt>
      <trkpt lat="43.3875" lon="2.19007">
        <ele>634.6</ele>
        <time>2020-07-25T08:19:49Z</time>
      </trkpt>
      <trkpt lat="43.38762" lon="2.18996">
        <ele>638.3</ele>
        <time>2020-07-25T08:19:53Z</time>
      </trkpt>
      <trkpt lat="43.3877" lon="2.18973">
        <ele>642.4</ele>
        <time>2020-07-25T08:19:58Z</time>
      </trkpt>
      <trkpt lat="43.38778" lon="2.18949">
        <ele>641.5</ele>
        <time>2020-07-25T08:20:02Z</time>
      </trkpt>
      <trkpt lat="43.38794" lon="2.18925">
        <ele>639.1</ele>
        <time>2020-07-25T08:20:06Z</time>
      </trkpt>
      <trkpt lat="43.38815" lon="2.18901">
        <ele>636.6</ele>
        <time>2020-07-25T08:20:10Z</time>
      </trkpt>
      <trkpt lat="43.38829" lon="2.18888">
        <ele>635.5</ele>
        <time>2020-07-25T08:20:14Z</time>
      </trkpt>
      <trkpt lat="43.38848" lon="2.18877">
        <ele>635.2</ele>
        <time>2020-07-25T08:20:18Z</time>
      </trkpt>
      <trkpt lat="43.38865" lon="2.18874">
        <ele>635.7</ele>
        <time>2020-07-25T08:20:23Z</time>
      </trkpt>
      <trkpt lat="43.38881" lon="2.18874">
        <ele>634.7</ele>
        <time>2020-07-25T08:20:28Z</time>
      </trkpt>
      <trkpt lat="43.38896" lon="2.18872">
        <ele>633.9</ele>
        <time>2020-07-25T08:20:32Z</time>
      </trkpt>
      <trkpt lat="43.38918" lon="2.1888">
        <ele>627.6</ele>
        <time>2020-07-25T08:20:37Z</time>
      </trkpt>
      <trkpt lat="43.3893" lon="2.18891">
        <ele>625.4</ele>
        <time>2020-07-25T08:20:41Z</time>
      </trkpt>
      <trkpt lat="43.38942" lon="2.18911">
        <ele>625.1</ele>
        <time>2020-07-25T08:20:46Z</time>
      </trkpt>
      <trkpt lat="43.3895" lon="2.18924">
        <ele>625.1</ele>
        <time>2020-07-25T08:20:50Z</time>
      </trkpt>
      <trkpt lat="43.38959" lon="2.1894">
        <ele>624.6</ele>
        <time>2020-07-25T08:20:54Z</time>
      </trkpt>
      <trkpt lat="43.3897" lon="2.18959">
        <ele>623.6</ele>
        <time>2020-07-25T08:20:59Z</time>
      </trkpt>
      <trkpt lat="43.38977" lon="2.18979">
        <ele>622</ele>
        <time>2020-07-25T08:21:03Z</time>
      </trkpt>
      <trkpt lat="43.38985" lon="2.19007">
        <ele>620.6</ele>
        <time>2020-07-25T08:21:07Z</time>
      </trkpt>
      <trkpt lat="43.38995" lon="2.19036">
        <ele>616.6</ele>
        <time>2020-07-25T08:21:11Z</time>
      </trkpt>
      <trkpt lat="43.39009" lon="2.19065">
        <ele>614.5</ele>
        <time>2020-07-25T08:21:16Z</time>
      </trkpt>
      <trkpt lat="43.3902" lon="2.19086">
        <ele>614.9</ele>
        <time>2020-07-25T08:21:20Z</time>
      </trkpt>
      <trkpt lat="43.39033" lon="2.19108">
        <ele>615.2</ele>
        <time>2020-07-25T08:21:24Z</time>
      </trkpt>
      <trkpt lat="43.39042" lon="2.19133">
        <ele>616.4</ele>
        <time>2020-07-25T08:21:28Z</time>
      </trkpt>
      <trkpt lat="43.39053" lon="2.19162">
        <ele>619.8</ele>
        <time>2020-07-25T08:21:33Z</time>
      </trkpt>
      <trkpt lat="43.39068" lon="2.1918">
        <ele>622.7</ele>
        <time>2020-07-25T08:21:37Z</time>
      </trkpt>
      <trkpt lat="43.39087" lon="2.19188">
        <ele>623.2</ele>
        <time>2020-07-25T08:21:41Z</time>
      </trkpt>
      <trkpt lat="43.39105" lon="2.19185">
        <ele>622.4</ele>
        <time>2020-07-25T08:21:45Z</time>
      </trkpt>
      <trkpt lat="43.39128" lon="2.19172">
        <ele>621.5</ele>
        <time>2020-07-25T08:21:50Z</time>
      </trkpt>
      <trkpt lat="43.39149" lon="2.19158">
        <ele>621</ele>
        <time>2020-07-25T08:21:54Z</time>
      </trkpt>
      <trkpt lat="43.39176" lon="2.19151">
        <ele>620.2</ele>
        <time>2020-07-25T08:21:59Z</time>
      </trkpt>
      <trkpt lat="43.39196" lon="2.1915">
        <ele>619.6</ele>
        <time>2020-07-25T08:22:03Z</time>
      </trkpt>
      <trkpt lat="43.39213" lon="2.19149">
        <ele>620</ele>
        <time>2020-07-25T08:22:07Z</time>
      </trkpt>
      <trkpt lat="43.39229" lon="2.19152">
        <ele>618.7</ele>
        <time>2020-07-25T08:22:11Z</time>
      </trkpt>
      <trkpt lat="43.39244" lon="2.19164">
        <ele>616.5</ele>
        <time>2020-07-25T08:22:16Z</time>
      </trkpt>
      <trkpt lat="43.39254" lon="2.19165">
        <ele>616.1</ele>
        <time>2020-07-25T08:22:20Z</time>
      </trkpt>
      <trkpt lat="43.39261" lon="2.19154">
        <ele>614.7</ele>
        <time>2020-07-25T08:22:24Z</time>
      </trkpt>
      <trkpt lat="43.39267" lon="2.19143">
        <ele>613.6</ele>
        <time>2020-07-25T08:22:29Z</time>
      </trkpt>
      <trkpt lat="43.39269" lon="2.19138">
        <ele>612.7</ele>
        <time>2020-07-25T08:22:42Z</time>
      </trkpt>
      <trkpt lat="43.39279" lon="2.19125">
        <ele>611.9</ele>
        <time>2020-07-25T08:22:47Z</time>
      </trkpt>
      <trkpt lat="43.39279" lon="2.19125">
        <ele>611.9</ele>
        <time>2020-07-25T08:22:56Z</time>
      </trkpt>
      <trkpt lat="43.39285" lon="2.19116">
        <ele>610.3</ele>
        <time>2020-07-25T08:23:00Z</time>
      </trkpt>
      <trkpt lat="43.39285" lon="2.19116">
        <ele>610.3</ele>
        <time>2020-07-25T08:23:42Z</time>
      </trkpt>
      <trkpt lat="43.39294" lon="2.19106">
        <ele>609.4</ele>
        <time>2020-07-25T08:23:47Z</time>
      </trkpt>
      <trkpt lat="43.39298" lon="2.19095">
        <ele>609.4</ele>
        <time>2020-07-25T08:23:52Z</time>
      </trkpt>
      <trkpt lat="43.39294" lon="2.19082">
        <ele>609.7</ele>
        <time>2020-07-25T08:23:56Z</time>
      </trkpt>
      <trkpt lat="43.3929" lon="2.19067">
        <ele>610</ele>
        <time>2020-07-25T08:24:00Z</time>
      </trkpt>
      <trkpt lat="43.39286" lon="2.19049">
        <ele>612</ele>
        <time>2020-07-25T08:24:04Z</time>
      </trkpt>
      <trkpt lat="43.39287" lon="2.19031">
        <ele>614</ele>
        <time>2020-07-25T08:24:08Z</time>
      </trkpt>
      <trkpt lat="43.39291" lon="2.19013">
        <ele>615.4</ele>
        <time>2020-07-25T08:24:12Z</time>
      </trkpt>
      <trkpt lat="43.39302" lon="2.18983">
        <ele>616.9</ele>
        <time>2020-07-25T08:24:17Z</time>
      </trkpt>
      <trkpt lat="43.39311" lon="2.18953">
        <ele>620.8</ele>
        <time>2020-07-25T08:24:21Z</time>
      </trkpt>
      <trkpt lat="43.39318" lon="2.1892">
        <ele>621.6</ele>
        <time>2020-07-25T08:24:25Z</time>
      </trkpt>
      <trkpt lat="43.39326" lon="2.18894">
        <ele>619.9</ele>
        <time>2020-07-25T08:24:29Z</time>
      </trkpt>
      <trkpt lat="43.39342" lon="2.18877">
        <ele>621.6</ele>
        <time>2020-07-25T08:24:33Z</time>
      </trkpt>
      <trkpt lat="43.39365" lon="2.18863">
        <ele>624.6</ele>
        <time>2020-07-25T08:24:38Z</time>
      </trkpt>
      <trkpt lat="43.39369" lon="2.18846">
        <ele>627.2</ele>
        <time>2020-07-25T08:24:42Z</time>
      </trkpt>
      <trkpt lat="43.39357" lon="2.18806">
        <ele>630</ele>
        <time>2020-07-25T08:24:47Z</time>
      </trkpt>
      <trkpt lat="43.3936" lon="2.18772">
        <ele>632.5</ele>
        <time>2020-07-25T08:24:52Z</time>
      </trkpt>
      <trkpt lat="43.39363" lon="2.18747">
        <ele>634.7</ele>
        <time>2020-07-25T08:24:56Z</time>
      </trkpt>
      <trkpt lat="43.39367" lon="2.18715">
        <ele>636.7</ele>
        <time>2020-07-25T08:25:01Z</time>
      </trkpt>
      <trkpt lat="43.39368" lon="2.18688">
        <ele>636.6</ele>
        <time>2020-07-25T08:25:05Z</time>
      </trkpt>
      <trkpt lat="43.39381" lon="2.18653">
        <ele>635.2</ele>
        <time>2020-07-25T08:25:10Z</time>
      </trkpt>
      <trkpt lat="43.39397" lon="2.18626">
        <ele>632.9</ele>
        <time>2020-07-25T08:25:14Z</time>
      </trkpt>
      <trkpt lat="43.39407" lon="2.18601">
        <ele>631</ele>
        <time>2020-07-25T08:25:18Z</time>
      </trkpt>
      <trkpt lat="43.39394" lon="2.18585">
        <ele>630.7</ele>
        <time>2020-07-25T08:25:22Z</time>
      </trkpt>
      <trkpt lat="43.39369" lon="2.18586">
        <ele>629.9</ele>
        <time>2020-07-25T08:25:27Z</time>
      </trkpt>
      <trkpt lat="43.39353" lon="2.18595">
        <ele>628.1</ele>
        <time>2020-07-25T08:25:31Z</time>
      </trkpt>
      <trkpt lat="43.39335" lon="2.1861">
        <ele>627.9</ele>
        <time>2020-07-25T08:25:35Z</time>
      </trkpt>
      <trkpt lat="43.39311" lon="2.1863">
        <ele>627.2</ele>
        <time>2020-07-25T08:25:40Z</time>
      </trkpt>
      <trkpt lat="43.39294" lon="2.18644">
        <ele>625.5</ele>
        <time>2020-07-25T08:25:44Z</time>
      </trkpt>
      <trkpt lat="43.39278" lon="2.1866">
        <ele>623.8</ele>
        <time>2020-07-25T08:25:48Z</time>
      </trkpt>
      <trkpt lat="43.39259" lon="2.18682">
        <ele>621.5</ele>
        <time>2020-07-25T08:25:53Z</time>
      </trkpt>
      <trkpt lat="43.39243" lon="2.18697">
        <ele>620.8</ele>
        <time>2020-07-25T08:25:57Z</time>
      </trkpt>
      <trkpt lat="43.39225" lon="2.18718">
        <ele>621.7</ele>
        <time>2020-07-25T08:26:02Z</time>
      </trkpt>
      <trkpt lat="43.39208" lon="2.1874">
        <ele>622.3</ele>
        <time>2020-07-25T08:26:07Z</time>
      </trkpt>
      <trkpt lat="43.39192" lon="2.18751">
        <ele>622</ele>
        <time>2020-07-25T08:26:11Z</time>
      </trkpt>
      <trkpt lat="43.39172" lon="2.18748">
        <ele>622.3</ele>
        <time>2020-07-25T08:26:15Z</time>
      </trkpt>
      <trkpt lat="43.39146" lon="2.18747">
        <ele>621.9</ele>
        <time>2020-07-25T08:26:20Z</time>
      </trkpt>
      <trkpt lat="43.39127" lon="2.18741">
        <ele>621.9</ele>
        <time>2020-07-25T08:26:24Z</time>
      </trkpt>
      <trkpt lat="43.39114" lon="2.18716">
        <ele>624.7</ele>
        <time>2020-07-25T08:26:29Z</time>
      </trkpt>
      <trkpt lat="43.39109" lon="2.18693">
        <ele>627.4</ele>
        <time>2020-07-25T08:26:34Z</time>
      </trkpt>
      <trkpt lat="43.39108" lon="2.18672">
        <ele>628.9</ele>
        <time>2020-07-25T08:26:38Z</time>
      </trkpt>
      <trkpt lat="43.39104" lon="2.18645">
        <ele>630</ele>
        <time>2020-07-25T08:26:42Z</time>
      </trkpt>
      <trkpt lat="43.39095" lon="2.18621">
        <ele>631.1</ele>
        <time>2020-07-25T08:26:46Z</time>
      </trkpt>
      <trkpt lat="43.39083" lon="2.18587">
        <ele>631.2</ele>
        <time>2020-07-25T08:26:51Z</time>
      </trkpt>
      <trkpt lat="43.39076" lon="2.18558">
        <ele>628.5</ele>
        <time>2020-07-25T08:26:55Z</time>
      </trkpt>
      <trkpt lat="43.39064" lon="2.18534">
        <ele>628.1</ele>
        <time>2020-07-25T08:26:59Z</time>
      </trkpt>
      <trkpt lat="43.39062" lon="2.18509">
        <ele>626.4</ele>
        <time>2020-07-25T08:27:03Z</time>
      </trkpt>
      <trkpt lat="43.39063" lon="2.18482">
        <ele>625.2</ele>
        <time>2020-07-25T08:27:07Z</time>
      </trkpt>
      <trkpt lat="43.39062" lon="2.18456">
        <ele>623.2</ele>
        <time>2020-07-25T08:27:11Z</time>
      </trkpt>
      <trkpt lat="43.39056" lon="2.18423">
        <ele>617.7</ele>
        <time>2020-07-25T08:27:16Z</time>
      </trkpt>
      <trkpt lat="43.39052" lon="2.18396">
        <ele>617.5</ele>
        <time>2020-07-25T08:27:20Z</time>
      </trkpt>
      <trkpt lat="43.39051" lon="2.18368">
        <ele>616.4</ele>
        <time>2020-07-25T08:27:24Z</time>
      </trkpt>
      <trkpt lat="43.39031" lon="2.18349">
        <ele>612.7</ele>
        <time>2020-07-25T08:27:28Z</time>
      </trkpt>
      <trkpt lat="43.39014" lon="2.18338">
        <ele>611.1</ele>
        <time>2020-07-25T08:27:32Z</time>
      </trkpt>
      <trkpt lat="43.38993" lon="2.18325">
        <ele>607.5</ele>
        <time>2020-07-25T08:27:36Z</time>
      </trkpt>
      <trkpt lat="43.38977" lon="2.18313">
        <ele>604.7</ele>
        <time>2020-07-25T08:27:40Z</time>
      </trkpt>
      <trkpt lat="43.38957" lon="2.18295">
        <ele>603</ele>
        <time>2020-07-25T08:27:45Z</time>
      </trkpt>
      <trkpt lat="43.38943" lon="2.18281">
        <ele>602.3</ele>
        <time>2020-07-25T08:27:49Z</time>
      </trkpt>
      <trkpt lat="43.38933" lon="2.18263">
        <ele>602.3</ele>
        <time>2020-07-25T08:27:53Z</time>
      </trkpt>
      <trkpt lat="43.38923" lon="2.18242">
        <ele>602.4</ele>
        <time>2020-07-25T08:27:57Z</time>
      </trkpt>
      <trkpt lat="43.38908" lon="2.18226">
        <ele>604.4</ele>
        <time>2020-07-25T08:28:01Z</time>
      </trkpt>
      <trkpt lat="43.38892" lon="2.18205">
        <ele>608.3</ele>
        <time>2020-07-25T08:28:06Z</time>
      </trkpt>
      <trkpt lat="43.3889" lon="2.18182">
        <ele>610.6</ele>
        <time>2020-07-25T08:28:10Z</time>
      </trkpt>
      <trkpt lat="43.38899" lon="2.18159">
        <ele>613.8</ele>
        <time>2020-07-25T08:28:14Z</time>
      </trkpt>
      <trkpt lat="43.38908" lon="2.18137">
        <ele>615.3</ele>
        <time>2020-07-25T08:28:18Z</time>
      </trkpt>
      <trkpt lat="43.38904" lon="2.1811">
        <ele>616.6</ele>
        <time>2020-07-25T08:28:22Z</time>
      </trkpt>
      <trkpt lat="43.38896" lon="2.18085">
        <ele>618.1</ele>
        <time>2020-07-25T08:28:26Z</time>
      </trkpt>
      <trkpt lat="43.38891" lon="2.18058">
        <ele>619.7</ele>
        <time>2020-07-25T08:28:30Z</time>
      </trkpt>
      <trkpt lat="43.38875" lon="2.18027">
        <ele>619.4</ele>
        <time>2020-07-25T08:28:35Z</time>
      </trkpt>
      <trkpt lat="43.38855" lon="2.18033">
        <ele>618.7</ele>
        <time>2020-07-25T08:28:40Z</time>
      </trkpt>
      <trkpt lat="43.38843" lon="2.18047">
        <ele>619.6</ele>
        <time>2020-07-25T08:28:44Z</time>
      </trkpt>
      <trkpt lat="43.38836" lon="2.18062">
        <ele>619.6</ele>
        <time>2020-07-25T08:28:48Z</time>
      </trkpt>
      <trkpt lat="43.38822" lon="2.18082">
        <ele>617.6</ele>
        <time>2020-07-25T08:28:53Z</time>
      </trkpt>
      <trkpt lat="43.38807" lon="2.18104">
        <ele>618.8</ele>
        <time>2020-07-25T08:28:57Z</time>
      </trkpt>
      <trkpt lat="43.38792" lon="2.18127">
        <ele>621.1</ele>
        <time>2020-07-25T08:29:01Z</time>
      </trkpt>
      <trkpt lat="43.38778" lon="2.18145">
        <ele>622</ele>
        <time>2020-07-25T08:29:05Z</time>
      </trkpt>
      <trkpt lat="43.38765" lon="2.18161">
        <ele>622.1</ele>
        <time>2020-07-25T08:29:09Z</time>
      </trkpt>
      <trkpt lat="43.38746" lon="2.1818">
        <ele>622.9</ele>
        <time>2020-07-25T08:29:14Z</time>
      </trkpt>
      <trkpt lat="43.38729" lon="2.1819">
        <ele>624.8</ele>
        <time>2020-07-25T08:29:19Z</time>
      </trkpt>
      <trkpt lat="43.38713" lon="2.18198">
        <ele>627.2</ele>
        <time>2020-07-25T08:29:23Z</time>
      </trkpt>
      <trkpt lat="43.38693" lon="2.18205">
        <ele>628.8</ele>
        <time>2020-07-25T08:29:28Z</time>
      </trkpt>
      <trkpt lat="43.38673" lon="2.18213">
        <ele>628</ele>
        <time>2020-07-25T08:29:32Z</time>
      </trkpt>
      <trkpt lat="43.38652" lon="2.18221">
        <ele>627.8</ele>
        <time>2020-07-25T08:29:36Z</time>
      </trkpt>
      <trkpt lat="43.38627" lon="2.1822">
        <ele>626.8</ele>
        <time>2020-07-25T08:29:40Z</time>
      </trkpt>
      <trkpt lat="43.386" lon="2.18214">
        <ele>626.6</ele>
        <time>2020-07-25T08:29:45Z</time>
      </trkpt>
      <trkpt lat="43.38575" lon="2.18202">
        <ele>624.9</ele>
        <time>2020-07-25T08:29:50Z</time>
      </trkpt>
      <trkpt lat="43.38556" lon="2.18198">
        <ele>624.3</ele>
        <time>2020-07-25T08:29:54Z</time>
      </trkpt>
      <trkpt lat="43.38534" lon="2.18197">
        <ele>621.9</ele>
        <time>2020-07-25T08:29:58Z</time>
      </trkpt>
      <trkpt lat="43.38517" lon="2.18185">
        <ele>622.3</ele>
        <time>2020-07-25T08:30:02Z</time>
      </trkpt>
      <trkpt lat="43.38506" lon="2.1816">
        <ele>621.7</ele>
        <time>2020-07-25T08:30:07Z</time>
      </trkpt>
      <trkpt lat="43.38501" lon="2.18133">
        <ele>620.7</ele>
        <time>2020-07-25T08:30:11Z</time>
      </trkpt>
      <trkpt lat="43.38499" lon="2.18102">
        <ele>621.1</ele>
        <time>2020-07-25T08:30:16Z</time>
      </trkpt>
      <trkpt lat="43.38497" lon="2.18078">
        <ele>620.8</ele>
        <time>2020-07-25T08:30:20Z</time>
      </trkpt>
      <trkpt lat="43.38497" lon="2.18054">
        <ele>619.8</ele>
        <time>2020-07-25T08:30:24Z</time>
      </trkpt>
      <trkpt lat="43.38499" lon="2.18031">
        <ele>619.7</ele>
        <time>2020-07-25T08:30:28Z</time>
      </trkpt>
      <trkpt lat="43.385" lon="2.1801">
        <ele>619.3</ele>
        <time>2020-07-25T08:30:32Z</time>
      </trkpt>
      <trkpt lat="43.38509" lon="2.17973">
        <ele>615.3</ele>
        <time>2020-07-25T08:30:37Z</time>
      </trkpt>
      <trkpt lat="43.38521" lon="2.17951">
        <ele>613.1</ele>
        <time>2020-07-25T08:30:41Z</time>
      </trkpt>
      <trkpt lat="43.3853" lon="2.17921">
        <ele>612</ele>
        <time>2020-07-25T08:30:46Z</time>
      </trkpt>
      <trkpt lat="43.38521" lon="2.17901">
        <ele>611.1</ele>
        <time>2020-07-25T08:30:50Z</time>
      </trkpt>
      <trkpt lat="43.38513" lon="2.17881">
        <ele>611.5</ele>
        <time>2020-07-25T08:30:54Z</time>
      </trkpt>
      <trkpt lat="43.38495" lon="2.17859">
        <ele>611.3</ele>
        <time>2020-07-25T08:30:59Z</time>
      </trkpt>
      <trkpt lat="43.38484" lon="2.17833">
        <ele>611.3</ele>
        <time>2020-07-25T08:31:03Z</time>
      </trkpt>
      <trkpt lat="43.38484" lon="2.17809">
        <ele>610.7</ele>
        <time>2020-07-25T08:31:07Z</time>
      </trkpt>
      <trkpt lat="43.38487" lon="2.17776">
        <ele>607.7</ele>
        <time>2020-07-25T08:31:12Z</time>
      </trkpt>
      <trkpt lat="43.38487" lon="2.17749">
        <ele>605.6</ele>
        <time>2020-07-25T08:31:16Z</time>
      </trkpt>
      <trkpt lat="43.38478" lon="2.17727">
        <ele>603.6</ele>
        <time>2020-07-25T08:31:20Z</time>
      </trkpt>
      <trkpt lat="43.38467" lon="2.17706">
        <ele>604</ele>
        <time>2020-07-25T08:31:24Z</time>
      </trkpt>
      <trkpt lat="43.38463" lon="2.17681">
        <ele>602.4</ele>
        <time>2020-07-25T08:31:29Z</time>
      </trkpt>
      <trkpt lat="43.38475" lon="2.17657">
        <ele>604.3</ele>
        <time>2020-07-25T08:31:34Z</time>
      </trkpt>
      <trkpt lat="43.38477" lon="2.17639">
        <ele>607.1</ele>
        <time>2020-07-25T08:31:38Z</time>
      </trkpt>
      <trkpt lat="43.38475" lon="2.17625">
        <ele>608.5</ele>
        <time>2020-07-25T08:31:42Z</time>
      </trkpt>
      <trkpt lat="43.38471" lon="2.17603">
        <ele>612.6</ele>
        <time>2020-07-25T08:31:47Z</time>
      </trkpt>
      <trkpt lat="43.38468" lon="2.17583">
        <ele>615.4</ele>
        <time>2020-07-25T08:31:52Z</time>
      </trkpt>
      <trkpt lat="43.38463" lon="2.17564">
        <ele>621</ele>
        <time>2020-07-25T08:31:56Z</time>
      </trkpt>
      <trkpt lat="43.38457" lon="2.1754">
        <ele>624.9</ele>
        <time>2020-07-25T08:32:01Z</time>
      </trkpt>
      <trkpt lat="43.38448" lon="2.17518">
        <ele>626.3</ele>
        <time>2020-07-25T08:32:05Z</time>
      </trkpt>
      <trkpt lat="43.3844" lon="2.17478">
        <ele>628.8</ele>
        <time>2020-07-25T08:32:10Z</time>
      </trkpt>
      <trkpt lat="43.38451" lon="2.17442">
        <ele>627.7</ele>
        <time>2020-07-25T08:32:14Z</time>
      </trkpt>
      <trkpt lat="43.38467" lon="2.17422">
        <ele>629.3</ele>
        <time>2020-07-25T08:32:19Z</time>
      </trkpt>
      <trkpt lat="43.38479" lon="2.17419">
        <ele>632.1</ele>
        <time>2020-07-25T08:32:23Z</time>
      </trkpt>
      <trkpt lat="43.38495" lon="2.17413">
        <ele>634.5</ele>
        <time>2020-07-25T08:32:28Z</time>
      </trkpt>
      <trkpt lat="43.38516" lon="2.17409">
        <ele>635.8</ele>
        <time>2020-07-25T08:32:33Z</time>
      </trkpt>
      <trkpt lat="43.38536" lon="2.17408">
        <ele>635.2</ele>
        <time>2020-07-25T08:32:37Z</time>
      </trkpt>
      <trkpt lat="43.38557" lon="2.17406">
        <ele>635.3</ele>
        <time>2020-07-25T08:32:41Z</time>
      </trkpt>
      <trkpt lat="43.38583" lon="2.17403">
        <ele>636.1</ele>
        <time>2020-07-25T08:32:46Z</time>
      </trkpt>
      <trkpt lat="43.38601" lon="2.17381">
        <ele>636.3</ele>
        <time>2020-07-25T08:32:50Z</time>
      </trkpt>
      <trkpt lat="43.38599" lon="2.17357">
        <ele>636.7</ele>
        <time>2020-07-25T08:32:54Z</time>
      </trkpt>
      <trkpt lat="43.3859" lon="2.17327">
        <ele>633.8</ele>
        <time>2020-07-25T08:32:59Z</time>
      </trkpt>
      <trkpt lat="43.38584" lon="2.17297">
        <ele>631.9</ele>
        <time>2020-07-25T08:33:04Z</time>
      </trkpt>
      <trkpt lat="43.38591" lon="2.17281">
        <ele>629.8</ele>
        <time>2020-07-25T08:33:08Z</time>
      </trkpt>
      <trkpt lat="43.38592" lon="2.17277">
        <ele>628.7</ele>
        <time>2020-07-25T08:33:55Z</time>
      </trkpt>
      <trkpt lat="43.38604" lon="2.17263">
        <ele>628.1</ele>
        <time>2020-07-25T08:33:59Z</time>
      </trkpt>
      <trkpt lat="43.38615" lon="2.17252">
        <ele>628.7</ele>
        <time>2020-07-25T08:34:03Z</time>
      </trkpt>
      <trkpt lat="43.3863" lon="2.17238">
        <ele>629.4</ele>
        <time>2020-07-25T08:34:07Z</time>
      </trkpt>
      <trkpt lat="43.38648" lon="2.17221">
        <ele>630.1</ele>
        <time>2020-07-25T08:34:11Z</time>
      </trkpt>
      <trkpt lat="43.38658" lon="2.17191">
        <ele>630</ele>
        <time>2020-07-25T08:34:16Z</time>
      </trkpt>
      <trkpt lat="43.38649" lon="2.1717">
        <ele>629.7</ele>
        <time>2020-07-25T08:34:20Z</time>
      </trkpt>
      <trkpt lat="43.38642" lon="2.17144">
        <ele>629.1</ele>
        <time>2020-07-25T08:34:24Z</time>
      </trkpt>
      <trkpt lat="43.3864" lon="2.17116">
        <ele>629.9</ele>
        <time>2020-07-25T08:34:28Z</time>
      </trkpt>
      <trkpt lat="43.38643" lon="2.17088">
        <ele>628.8</ele>
        <time>2020-07-25T08:34:32Z</time>
      </trkpt>
      <trkpt lat="43.38644" lon="2.17058">
        <ele>627.6</ele>
        <time>2020-07-25T08:34:37Z</time>
      </trkpt>
      <trkpt lat="43.38643" lon="2.17029">
        <ele>626.6</ele>
        <time>2020-07-25T08:34:41Z</time>
      </trkpt>
      <trkpt lat="43.38636" lon="2.17003">
        <ele>626.3</ele>
        <time>2020-07-25T08:34:45Z</time>
      </trkpt>
      <trkpt lat="43.38621" lon="2.16982">
        <ele>625</ele>
        <time>2020-07-25T08:34:49Z</time>
      </trkpt>
      <trkpt lat="43.38606" lon="2.16961">
        <ele>624.3</ele>
        <time>2020-07-25T08:34:53Z</time>
      </trkpt>
      <trkpt lat="43.38584" lon="2.16943">
        <ele>622.6</ele>
        <time>2020-07-25T08:34:57Z</time>
      </trkpt>
      <trkpt lat="43.38564" lon="2.16937">
        <ele>621.5</ele>
        <time>2020-07-25T08:35:01Z</time>
      </trkpt>
      <trkpt lat="43.38541" lon="2.16941">
        <ele>621.5</ele>
        <time>2020-07-25T08:35:06Z</time>
      </trkpt>
      <trkpt lat="43.38522" lon="2.16953">
        <ele>621.3</ele>
        <time>2020-07-25T08:35:10Z</time>
      </trkpt>
      <trkpt lat="43.38498" lon="2.16961">
        <ele>618.5</ele>
        <time>2020-07-25T08:35:15Z</time>
      </trkpt>
      <trkpt lat="43.38487" lon="2.16944">
        <ele>617.1</ele>
        <time>2020-07-25T08:35:19Z</time>
      </trkpt>
      <trkpt lat="43.38474" lon="2.16922">
        <ele>615.7</ele>
        <time>2020-07-25T08:35:23Z</time>
      </trkpt>
      <trkpt lat="43.38463" lon="2.1689">
        <ele>613.8</ele>
        <time>2020-07-25T08:35:28Z</time>
      </trkpt>
      <trkpt lat="43.38452" lon="2.16863">
        <ele>612.2</ele>
        <time>2020-07-25T08:35:32Z</time>
      </trkpt>
      <trkpt lat="43.38438" lon="2.16835">
        <ele>609.2</ele>
        <time>2020-07-25T08:35:37Z</time>
      </trkpt>
      <trkpt lat="43.38429" lon="2.16814">
        <ele>608.1</ele>
        <time>2020-07-25T08:35:41Z</time>
      </trkpt>
      <trkpt lat="43.38416" lon="2.16794">
        <ele>606.1</ele>
        <time>2020-07-25T08:35:45Z</time>
      </trkpt>
      <trkpt lat="43.38394" lon="2.16771">
        <ele>603.7</ele>
        <time>2020-07-25T08:35:50Z</time>
      </trkpt>
      <trkpt lat="43.3838" lon="2.16746">
        <ele>602.1</ele>
        <time>2020-07-25T08:35:54Z</time>
      </trkpt>
      <trkpt lat="43.38381" lon="2.16709">
        <ele>599.8</ele>
        <time>2020-07-25T08:35:59Z</time>
      </trkpt>
      <trkpt lat="43.38392" lon="2.16681">
        <ele>597.9</ele>
        <time>2020-07-25T08:36:03Z</time>
      </trkpt>
      <trkpt lat="43.38407" lon="2.16653">
        <ele>597.9</ele>
        <time>2020-07-25T08:36:08Z</time>
      </trkpt>
      <trkpt lat="43.38427" lon="2.16645">
        <ele>598.6</ele>
        <time>2020-07-25T08:36:13Z</time>
      </trkpt>
      <trkpt lat="43.38443" lon="2.1665">
        <ele>599.3</ele>
        <time>2020-07-25T08:36:17Z</time>
      </trkpt>
      <trkpt lat="43.38464" lon="2.16653">
        <ele>599.1</ele>
        <time>2020-07-25T08:36:22Z</time>
      </trkpt>
      <trkpt lat="43.38478" lon="2.1665">
        <ele>599.4</ele>
        <time>2020-07-25T08:36:26Z</time>
      </trkpt>
      <trkpt lat="43.38502" lon="2.16638">
        <ele>599.6</ele>
        <time>2020-07-25T08:36:31Z</time>
      </trkpt>
      <trkpt lat="43.38522" lon="2.16626">
        <ele>599.8</ele>
        <time>2020-07-25T08:36:35Z</time>
      </trkpt>
      <trkpt lat="43.38544" lon="2.16612">
        <ele>600.5</ele>
        <time>2020-07-25T08:36:40Z</time>
      </trkpt>
      <trkpt lat="43.38561" lon="2.16599">
        <ele>602.3</ele>
        <time>2020-07-25T08:36:44Z</time>
      </trkpt>
      <trkpt lat="43.38581" lon="2.16585">
        <ele>604.7</ele>
        <time>2020-07-25T08:36:48Z</time>
      </trkpt>
      <trkpt lat="43.38605" lon="2.16564">
        <ele>607.2</ele>
        <time>2020-07-25T08:36:53Z</time>
      </trkpt>
      <trkpt lat="43.38618" lon="2.1655">
        <ele>610.6</ele>
        <time>2020-07-25T08:36:56Z</time>
      </trkpt>
      <trkpt lat="43.3863" lon="2.16538">
        <ele>613.6</ele>
        <time>2020-07-25T08:37:01Z</time>
      </trkpt>
      <trkpt lat="43.38639" lon="2.16533">
        <ele>615.4</ele>
        <time>2020-07-25T08:37:05Z</time>
      </trkpt>
      <trkpt lat="43.38646" lon="2.16523">
        <ele>616.3</ele>
        <time>2020-07-25T08:37:09Z</time>
      </trkpt>
      <trkpt lat="43.38669" lon="2.16498">
        <ele>616.4</ele>
        <time>2020-07-25T08:37:14Z</time>
      </trkpt>
      <trkpt lat="43.38678" lon="2.16491">
        <ele>617.3</ele>
        <time>2020-07-25T08:37:18Z</time>
      </trkpt>
      <trkpt lat="43.38683" lon="2.16476">
        <ele>618.1</ele>
        <time>2020-07-25T08:37:22Z</time>
      </trkpt>
      <trkpt lat="43.38682" lon="2.16461">
        <ele>620</ele>
        <time>2020-07-25T08:37:26Z</time>
      </trkpt>
      <trkpt lat="43.38667" lon="2.16447">
        <ele>620</ele>
        <time>2020-07-25T08:37:31Z</time>
      </trkpt>
      <trkpt lat="43.38653" lon="2.16437">
        <ele>619.8</ele>
        <time>2020-07-25T08:37:35Z</time>
      </trkpt>
      <trkpt lat="43.38635" lon="2.16422">
        <ele>619.4</ele>
        <time>2020-07-25T08:37:40Z</time>
      </trkpt>
      <trkpt lat="43.38625" lon="2.16408">
        <ele>618.5</ele>
        <time>2020-07-25T08:37:44Z</time>
      </trkpt>
      <trkpt lat="43.38621" lon="2.16395">
        <ele>616.8</ele>
        <time>2020-07-25T08:37:48Z</time>
      </trkpt>
      <trkpt lat="43.38625" lon="2.16389">
        <ele>616.5</ele>
        <time>2020-07-25T08:37:52Z</time>
      </trkpt>
      <trkpt lat="43.38633" lon="2.16389">
        <ele>617.4</ele>
        <time>2020-07-25T08:37:56Z</time>
      </trkpt>
      <trkpt lat="43.38641" lon="2.16388">
        <ele>618.7</ele>
        <time>2020-07-25T08:38:01Z</time>
      </trkpt>
      <trkpt lat="43.38652" lon="2.16383">
        <ele>620.1</ele>
        <time>2020-07-25T08:38:06Z</time>
      </trkpt>
      <trkpt lat="43.38661" lon="2.16384">
        <ele>621</ele>
        <time>2020-07-25T08:38:10Z</time>
      </trkpt>
      <trkpt lat="43.3867" lon="2.16388">
        <ele>622.3</ele>
        <time>2020-07-25T08:38:14Z</time>
      </trkpt>
      <trkpt lat="43.38679" lon="2.16398">
        <ele>621.8</ele>
        <time>2020-07-25T08:38:18Z</time>
      </trkpt>
      <trkpt lat="43.38688" lon="2.16404">
        <ele>623.1</ele>
        <time>2020-07-25T08:38:23Z</time>
      </trkpt>
      <trkpt lat="43.38696" lon="2.16408">
        <ele>624.8</ele>
        <time>2020-07-25T08:38:27Z</time>
      </trkpt>
      <trkpt lat="43.38703" lon="2.16414">
        <ele>628.6</ele>
        <time>2020-07-25T08:38:31Z</time>
      </trkpt>
      <trkpt lat="43.38712" lon="2.16419">
        <ele>633</ele>
        <time>2020-07-25T08:38:35Z</time>
      </trkpt>
      <trkpt lat="43.38727" lon="2.16422">
        <ele>638</ele>
        <time>2020-07-25T08:38:40Z</time>
      </trkpt>
      <trkpt lat="43.38739" lon="2.16421">
        <ele>640.5</ele>
        <time>2020-07-25T08:38:44Z</time>
      </trkpt>
      <trkpt lat="43.38751" lon="2.16424">
        <ele>645.3</ele>
        <time>2020-07-25T08:38:48Z</time>
      </trkpt>
      <trkpt lat="43.38762" lon="2.16428">
        <ele>648.9</ele>
        <time>2020-07-25T08:38:52Z</time>
      </trkpt>
      <trkpt lat="43.38771" lon="2.16426">
        <ele>651.8</ele>
        <time>2020-07-25T08:38:56Z</time>
      </trkpt>
      <trkpt lat="43.38786" lon="2.16425">
        <ele>654.8</ele>
        <time>2020-07-25T08:39:01Z</time>
      </trkpt>
      <trkpt lat="43.388" lon="2.16423">
        <ele>656.1</ele>
        <time>2020-07-25T08:39:05Z</time>
      </trkpt>
      <trkpt lat="43.38815" lon="2.16435">
        <ele>652.9</ele>
        <time>2020-07-25T08:39:09Z</time>
      </trkpt>
      <trkpt lat="43.38827" lon="2.16441">
        <ele>650.4</ele>
        <time>2020-07-25T08:39:13Z</time>
      </trkpt>
      <trkpt lat="43.38841" lon="2.16443">
        <ele>649.2</ele>
        <time>2020-07-25T08:39:17Z</time>
      </trkpt>
      <trkpt lat="43.3886" lon="2.16448">
        <ele>652.2</ele>
        <time>2020-07-25T08:39:22Z</time>
      </trkpt>
      <trkpt lat="43.38875" lon="2.16455">
        <ele>654.3</ele>
        <time>2020-07-25T08:39:26Z</time>
      </trkpt>
      <trkpt lat="43.3889" lon="2.16457">
        <ele>655.8</ele>
        <time>2020-07-25T08:39:31Z</time>
      </trkpt>
      <trkpt lat="43.38904" lon="2.16457">
        <ele>655.5</ele>
        <time>2020-07-25T08:39:35Z</time>
      </trkpt>
      <trkpt lat="43.38926" lon="2.16454">
        <ele>655.7</ele>
        <time>2020-07-25T08:39:40Z</time>
      </trkpt>
      <trkpt lat="43.38946" lon="2.1645">
        <ele>655.9</ele>
        <time>2020-07-25T08:39:44Z</time>
      </trkpt>
      <trkpt lat="43.38966" lon="2.16449">
        <ele>656.1</ele>
        <time>2020-07-25T08:39:48Z</time>
      </trkpt>
      <trkpt lat="43.38986" lon="2.1645">
        <ele>656.6</ele>
        <time>2020-07-25T08:39:52Z</time>
      </trkpt>
      <trkpt lat="43.39015" lon="2.1646">
        <ele>656.5</ele>
        <time>2020-07-25T08:39:57Z</time>
      </trkpt>
      <trkpt lat="43.39035" lon="2.16467">
        <ele>656.2</ele>
        <time>2020-07-25T08:40:01Z</time>
      </trkpt>
      <trkpt lat="43.39063" lon="2.16477">
        <ele>654.6</ele>
        <time>2020-07-25T08:40:06Z</time>
      </trkpt>
      <trkpt lat="43.39091" lon="2.16481">
        <ele>654.3</ele>
        <time>2020-07-25T08:40:11Z</time>
      </trkpt>
      <trkpt lat="43.39116" lon="2.16484">
        <ele>654.4</ele>
        <time>2020-07-25T08:40:15Z</time>
      </trkpt>
      <trkpt lat="43.39146" lon="2.16485">
        <ele>654.7</ele>
        <time>2020-07-25T08:40:20Z</time>
      </trkpt>
      <trkpt lat="43.39171" lon="2.16482">
        <ele>654.6</ele>
        <time>2020-07-25T08:40:24Z</time>
      </trkpt>
      <trkpt lat="43.39199" lon="2.16481">
        <ele>653.7</ele>
        <time>2020-07-25T08:40:29Z</time>
      </trkpt>
      <trkpt lat="43.3923" lon="2.16491">
        <ele>650.7</ele>
        <time>2020-07-25T08:40:34Z</time>
      </trkpt>
      <trkpt lat="43.3925" lon="2.16518">
        <ele>648.7</ele>
        <time>2020-07-25T08:40:38Z</time>
      </trkpt>
      <trkpt lat="43.39256" lon="2.16559">
        <ele>647.8</ele>
        <time>2020-07-25T08:40:43Z</time>
      </trkpt>
      <trkpt lat="43.39269" lon="2.16576">
        <ele>647.4</ele>
        <time>2020-07-25T08:40:47Z</time>
      </trkpt>
      <trkpt lat="43.39274" lon="2.16577">
        <ele>646.9</ele>
        <time>2020-07-25T08:40:51Z</time>
      </trkpt>
      <trkpt lat="43.39275" lon="2.16575">
        <ele>647</ele>
        <time>2020-07-25T08:40:56Z</time>
      </trkpt>
      <trkpt lat="43.39284" lon="2.16559">
        <ele>645</ele>
        <time>2020-07-25T08:41:00Z</time>
      </trkpt>
      <trkpt lat="43.39308" lon="2.1654">
        <ele>642.7</ele>
        <time>2020-07-25T08:41:05Z</time>
      </trkpt>
      <trkpt lat="43.39331" lon="2.16523">
        <ele>640.4</ele>
        <time>2020-07-25T08:41:09Z</time>
      </trkpt>
      <trkpt lat="43.39358" lon="2.16503">
        <ele>638</ele>
        <time>2020-07-25T08:41:13Z</time>
      </trkpt>
      <trkpt lat="43.39383" lon="2.1649">
        <ele>635.6</ele>
        <time>2020-07-25T08:41:17Z</time>
      </trkpt>
      <trkpt lat="43.39404" lon="2.16478">
        <ele>632.5</ele>
        <time>2020-07-25T08:41:21Z</time>
      </trkpt>
      <trkpt lat="43.39421" lon="2.16466">
        <ele>629.9</ele>
        <time>2020-07-25T08:41:25Z</time>
      </trkpt>
      <trkpt lat="43.39435" lon="2.16452">
        <ele>627.9</ele>
        <time>2020-07-25T08:41:29Z</time>
      </trkpt>
      <trkpt lat="43.39444" lon="2.16449">
        <ele>625.3</ele>
        <time>2020-07-25T08:41:34Z</time>
      </trkpt>
      <trkpt lat="43.3944" lon="2.16449">
        <ele>618.6</ele>
        <time>2020-07-25T08:41:57Z</time>
      </trkpt>
      <trkpt lat="43.39427" lon="2.16456">
        <ele>616.8</ele>
        <time>2020-07-25T08:42:02Z</time>
      </trkpt>
      <trkpt lat="43.39411" lon="2.16459">
        <ele>616.1</ele>
        <time>2020-07-25T08:42:06Z</time>
      </trkpt>
      <trkpt lat="43.39389" lon="2.16472">
        <ele>614</ele>
        <time>2020-07-25T08:42:11Z</time>
      </trkpt>
      <trkpt lat="43.39375" lon="2.16487">
        <ele>611.4</ele>
        <time>2020-07-25T08:42:15Z</time>
      </trkpt>
      <trkpt lat="43.3937" lon="2.1651">
        <ele>608.4</ele>
        <time>2020-07-25T08:42:19Z</time>
      </trkpt>
      <trkpt lat="43.39372" lon="2.16532">
        <ele>606.3</ele>
        <time>2020-07-25T08:42:24Z</time>
      </trkpt>
      <trkpt lat="43.39369" lon="2.16544">
        <ele>606.3</ele>
        <time>2020-07-25T08:42:28Z</time>
      </trkpt>
      <trkpt lat="43.39372" lon="2.16567">
        <ele>605.9</ele>
        <time>2020-07-25T08:42:32Z</time>
      </trkpt>
      <trkpt lat="43.39375" lon="2.16592">
        <ele>606.1</ele>
        <time>2020-07-25T08:42:36Z</time>
      </trkpt>
      <trkpt lat="43.39378" lon="2.16621">
        <ele>608.2</ele>
        <time>2020-07-25T08:42:41Z</time>
      </trkpt>
      <trkpt lat="43.39383" lon="2.16645">
        <ele>608.3</ele>
        <time>2020-07-25T08:42:45Z</time>
      </trkpt>
      <trkpt lat="43.39382" lon="2.16681">
        <ele>607.2</ele>
        <time>2020-07-25T08:42:50Z</time>
      </trkpt>
      <trkpt lat="43.39384" lon="2.16719">
        <ele>607.5</ele>
        <time>2020-07-25T08:42:55Z</time>
      </trkpt>
      <trkpt lat="43.3939" lon="2.16746">
        <ele>606.8</ele>
        <time>2020-07-25T08:42:59Z</time>
      </trkpt>
      <trkpt lat="43.39394" lon="2.16789">
        <ele>605.9</ele>
        <time>2020-07-25T08:43:04Z</time>
      </trkpt>
      <trkpt lat="43.39393" lon="2.1682">
        <ele>605.7</ele>
        <time>2020-07-25T08:43:08Z</time>
      </trkpt>
      <trkpt lat="43.39392" lon="2.16851">
        <ele>606</ele>
        <time>2020-07-25T08:43:12Z</time>
      </trkpt>
      <trkpt lat="43.39395" lon="2.16886">
        <ele>608</ele>
        <time>2020-07-25T08:43:17Z</time>
      </trkpt>
      <trkpt lat="43.394" lon="2.1692">
        <ele>610.7</ele>
        <time>2020-07-25T08:43:22Z</time>
      </trkpt>
      <trkpt lat="43.39415" lon="2.16953">
        <ele>610.2</ele>
        <time>2020-07-25T08:43:27Z</time>
      </trkpt>
      <trkpt lat="43.3943" lon="2.1697">
        <ele>610.4</ele>
        <time>2020-07-25T08:43:31Z</time>
      </trkpt>
      <trkpt lat="43.39447" lon="2.1698">
        <ele>610.3</ele>
        <time>2020-07-25T08:43:35Z</time>
      </trkpt>
      <trkpt lat="43.39472" lon="2.16987">
        <ele>609.5</ele>
        <time>2020-07-25T08:43:40Z</time>
      </trkpt>
      <trkpt lat="43.39494" lon="2.16993">
        <ele>608.5</ele>
        <time>2020-07-25T08:43:44Z</time>
      </trkpt>
      <trkpt lat="43.39516" lon="2.16992">
        <ele>607.3</ele>
        <time>2020-07-25T08:43:48Z</time>
      </trkpt>
      <trkpt lat="43.39534" lon="2.16992">
        <ele>606.3</ele>
        <time>2020-07-25T08:43:52Z</time>
      </trkpt>
      <trkpt lat="43.39557" lon="2.16991">
        <ele>605</ele>
        <time>2020-07-25T08:43:57Z</time>
      </trkpt>
      <trkpt lat="43.39577" lon="2.16996">
        <ele>603.9</ele>
        <time>2020-07-25T08:44:01Z</time>
      </trkpt>
      <trkpt lat="43.39595" lon="2.17004">
        <ele>602.4</ele>
        <time>2020-07-25T08:44:05Z</time>
      </trkpt>
      <trkpt lat="43.39608" lon="2.1703">
        <ele>599.4</ele>
        <time>2020-07-25T08:44:09Z</time>
      </trkpt>
      <trkpt lat="43.39613" lon="2.17051">
        <ele>598.3</ele>
        <time>2020-07-25T08:44:13Z</time>
      </trkpt>
      <trkpt lat="43.39622" lon="2.1707">
        <ele>598.8</ele>
        <time>2020-07-25T08:44:17Z</time>
      </trkpt>
      <trkpt lat="43.39629" lon="2.17081">
        <ele>599.7</ele>
        <time>2020-07-25T08:44:21Z</time>
      </trkpt>
      <trkpt lat="43.39634" lon="2.17088">
        <ele>601.5</ele>
        <time>2020-07-25T08:44:25Z</time>
      </trkpt>
      <trkpt lat="43.39637" lon="2.17092">
        <ele>603.6</ele>
        <time>2020-07-25T08:44:29Z</time>
      </trkpt>
      <trkpt lat="43.3964" lon="2.17103">
        <ele>605.9</ele>
        <time>2020-07-25T08:44:34Z</time>
      </trkpt>
      <trkpt lat="43.39649" lon="2.17111">
        <ele>608.3</ele>
        <time>2020-07-25T08:44:38Z</time>
      </trkpt>
      <trkpt lat="43.39654" lon="2.17119">
        <ele>610.3</ele>
        <time>2020-07-25T08:44:42Z</time>
      </trkpt>
      <trkpt lat="43.39658" lon="2.17123">
        <ele>611.5</ele>
        <time>2020-07-25T08:44:54Z</time>
      </trkpt>
      <trkpt lat="43.39669" lon="2.1713">
        <ele>617.3</ele>
        <time>2020-07-25T08:44:59Z</time>
      </trkpt>
      <trkpt lat="43.39669" lon="2.1713">
        <ele>617.3</ele>
        <time>2020-07-25T08:45:15Z</time>
      </trkpt>
      <trkpt lat="43.39674" lon="2.17147">
        <ele>615.9</ele>
        <time>2020-07-25T08:45:19Z</time>
      </trkpt>
      <trkpt lat="43.39676" lon="2.17158">
        <ele>615.7</ele>
        <time>2020-07-25T08:45:23Z</time>
      </trkpt>
      <trkpt lat="43.39677" lon="2.17168">
        <ele>615.6</ele>
        <time>2020-07-25T08:45:28Z</time>
      </trkpt>
      <trkpt lat="43.39679" lon="2.17183">
        <ele>615.5</ele>
        <time>2020-07-25T08:45:32Z</time>
      </trkpt>
      <trkpt lat="43.39679" lon="2.17197">
        <ele>615.5</ele>
        <time>2020-07-25T08:45:37Z</time>
      </trkpt>
      <trkpt lat="43.3968" lon="2.17208">
        <ele>615.7</ele>
        <time>2020-07-25T08:45:41Z</time>
      </trkpt>
      <trkpt lat="43.39681" lon="2.17219">
        <ele>615.6</ele>
        <time>2020-07-25T08:45:45Z</time>
      </trkpt>
      <trkpt lat="43.39681" lon="2.17234">
        <ele>615.6</ele>
        <time>2020-07-25T08:45:50Z</time>
      </trkpt>
      <trkpt lat="43.39683" lon="2.17244">
        <ele>615.8</ele>
        <time>2020-07-25T08:45:54Z</time>
      </trkpt>
      <trkpt lat="43.3969" lon="2.17256">
        <ele>616.5</ele>
        <time>2020-07-25T08:45:59Z</time>
      </trkpt>
      <trkpt lat="43.39697" lon="2.17263">
        <ele>618.1</ele>
        <time>2020-07-25T08:46:04Z</time>
      </trkpt>
      <trkpt lat="43.39701" lon="2.17267">
        <ele>619.5</ele>
        <time>2020-07-25T08:46:08Z</time>
      </trkpt>
      <trkpt lat="43.39704" lon="2.17269">
        <ele>620.8</ele>
        <time>2020-07-25T08:46:12Z</time>
      </trkpt>
      <trkpt lat="43.39708" lon="2.17269">
        <ele>622</ele>
        <time>2020-07-25T08:46:16Z</time>
      </trkpt>
      <trkpt lat="43.39711" lon="2.17268">
        <ele>623</ele>
        <time>2020-07-25T08:46:20Z</time>
      </trkpt>
      <trkpt lat="43.39717" lon="2.17267">
        <ele>626.8</ele>
        <time>2020-07-25T08:46:24Z</time>
      </trkpt>
      <trkpt lat="43.39729" lon="2.1726">
        <ele>632</ele>
        <time>2020-07-25T08:46:29Z</time>
      </trkpt>
      <trkpt lat="43.3973" lon="2.17265">
        <ele>635.3</ele>
        <time>2020-07-25T08:46:58Z</time>
      </trkpt>
      <trkpt lat="43.3973" lon="2.17274">
        <ele>636.2</ele>
        <time>2020-07-25T08:47:02Z</time>
      </trkpt>
      <trkpt lat="43.39732" lon="2.1729">
        <ele>637.8</ele>
        <time>2020-07-25T08:47:07Z</time>
      </trkpt>
      <trkpt lat="43.39729" lon="2.17301">
        <ele>639.7</ele>
        <time>2020-07-25T08:47:11Z</time>
      </trkpt>
      <trkpt lat="43.39728" lon="2.17314">
        <ele>642.8</ele>
        <time>2020-07-25T08:47:15Z</time>
      </trkpt>
      <trkpt lat="43.39728" lon="2.1733">
        <ele>647.1</ele>
        <time>2020-07-25T08:47:20Z</time>
      </trkpt>
      <trkpt lat="43.39727" lon="2.17346">
        <ele>649.8</ele>
        <time>2020-07-25T08:47:24Z</time>
      </trkpt>
      <trkpt lat="43.39726" lon="2.17363">
        <ele>652.3</ele>
        <time>2020-07-25T08:47:28Z</time>
      </trkpt>
      <trkpt lat="43.39726" lon="2.17375">
        <ele>654.9</ele>
        <time>2020-07-25T08:47:32Z</time>
      </trkpt>
      <trkpt lat="43.39726" lon="2.17379">
        <ele>654.3</ele>
        <time>2020-07-25T08:47:53Z</time>
      </trkpt>
      <trkpt lat="43.39731" lon="2.1739">
        <ele>653.2</ele>
        <time>2020-07-25T08:47:57Z</time>
      </trkpt>
      <trkpt lat="43.39731" lon="2.1739">
        <ele>653.2</ele>
        <time>2020-07-25T08:48:51Z</time>
      </trkpt>
      <trkpt lat="43.39735" lon="2.17404">
        <ele>652.6</ele>
        <time>2020-07-25T08:48:55Z</time>
      </trkpt>
      <trkpt lat="43.39735" lon="2.17404">
        <ele>652.6</ele>
        <time>2020-07-25T08:49:09Z</time>
      </trkpt>
      <trkpt lat="43.39741" lon="2.17419">
        <ele>652.3</ele>
        <time>2020-07-25T08:49:14Z</time>
      </trkpt>
      <trkpt lat="43.39741" lon="2.17419">
        <ele>652.3</ele>
        <time>2020-07-25T08:49:19Z</time>
      </trkpt>
      <trkpt lat="43.39749" lon="2.17433">
        <ele>652.6</ele>
        <time>2020-07-25T08:49:24Z</time>
      </trkpt>
      <trkpt lat="43.39749" lon="2.17433">
        <ele>652.6</ele>
        <time>2020-07-25T08:49:35Z</time>
      </trkpt>
      <trkpt lat="43.39757" lon="2.17442">
        <ele>653.3</ele>
        <time>2020-07-25T08:49:40Z</time>
      </trkpt>
      <trkpt lat="43.39762" lon="2.17458">
        <ele>654</ele>
        <time>2020-07-25T08:49:44Z</time>
      </trkpt>
      <trkpt lat="43.39766" lon="2.17473">
        <ele>654.7</ele>
        <time>2020-07-25T08:49:48Z</time>
      </trkpt>
      <trkpt lat="43.3977" lon="2.17485">
        <ele>656.3</ele>
        <time>2020-07-25T08:49:53Z</time>
      </trkpt>
      <trkpt lat="43.3978" lon="2.17498">
        <ele>658.8</ele>
        <time>2020-07-25T08:49:58Z</time>
      </trkpt>
      <trkpt lat="43.39784" lon="2.17505">
        <ele>659.4</ele>
        <time>2020-07-25T08:50:02Z</time>
      </trkpt>
      <trkpt lat="43.39791" lon="2.1752">
        <ele>660.1</ele>
        <time>2020-07-25T08:50:07Z</time>
      </trkpt>
      <trkpt lat="43.39795" lon="2.17534">
        <ele>661</ele>
        <time>2020-07-25T08:50:11Z</time>
      </trkpt>
      <trkpt lat="43.39797" lon="2.17548">
        <ele>661.3</ele>
        <time>2020-07-25T08:50:15Z</time>
      </trkpt>
      <trkpt lat="43.39798" lon="2.1756">
        <ele>662.8</ele>
        <time>2020-07-25T08:50:19Z</time>
      </trkpt>
      <trkpt lat="43.398" lon="2.17577">
        <ele>664.7</ele>
        <time>2020-07-25T08:50:24Z</time>
      </trkpt>
      <trkpt lat="43.39799" lon="2.17597">
        <ele>665</ele>
        <time>2020-07-25T08:50:29Z</time>
      </trkpt>
      <trkpt lat="43.39803" lon="2.17615">
        <ele>663.8</ele>
        <time>2020-07-25T08:50:33Z</time>
      </trkpt>
      <trkpt lat="43.39803" lon="2.17634">
        <ele>664.5</ele>
        <time>2020-07-25T08:50:38Z</time>
      </trkpt>
      <trkpt lat="43.39805" lon="2.17649">
        <ele>666.7</ele>
        <time>2020-07-25T08:50:42Z</time>
      </trkpt>
      <trkpt lat="43.39808" lon="2.17667">
        <ele>666.2</ele>
        <time>2020-07-25T08:50:47Z</time>
      </trkpt>
      <trkpt lat="43.39808" lon="2.17669">
        <ele>666.1</ele>
        <time>2020-07-25T08:50:52Z</time>
      </trkpt>
      <trkpt lat="43.39814" lon="2.17691">
        <ele>662.7</ele>
        <time>2020-07-25T08:50:56Z</time>
      </trkpt>
      <trkpt lat="43.39814" lon="2.17696">
        <ele>662.4</ele>
        <time>2020-07-25T08:51:02Z</time>
      </trkpt>
      <trkpt lat="43.39808" lon="2.17714">
        <ele>663.2</ele>
        <time>2020-07-25T08:51:07Z</time>
      </trkpt>
      <trkpt lat="43.39807" lon="2.17715">
        <ele>663.7</ele>
        <time>2020-07-25T08:51:18Z</time>
      </trkpt>
      <trkpt lat="43.39799" lon="2.17728">
        <ele>664</ele>
        <time>2020-07-25T08:51:23Z</time>
      </trkpt>
      <trkpt lat="43.39799" lon="2.17728">
        <ele>664</ele>
        <time>2020-07-25T08:51:32Z</time>
      </trkpt>
      <trkpt lat="43.39799" lon="2.17742">
        <ele>664.6</ele>
        <time>2020-07-25T08:51:37Z</time>
      </trkpt>
      <trkpt lat="43.39799" lon="2.17742">
        <ele>664.6</ele>
        <time>2020-07-25T08:51:47Z</time>
      </trkpt>
      <trkpt lat="43.3981" lon="2.17749">
        <ele>665.8</ele>
        <time>2020-07-25T08:51:51Z</time>
      </trkpt>
      <trkpt lat="43.3981" lon="2.17749">
        <ele>665.8</ele>
        <time>2020-07-25T08:52:17Z</time>
      </trkpt>
      <trkpt lat="43.39823" lon="2.17736">
        <ele>664.7</ele>
        <time>2020-07-25T08:52:22Z</time>
      </trkpt>
      <trkpt lat="43.39823" lon="2.17736">
        <ele>664.7</ele>
        <time>2020-07-25T08:52:35Z</time>
      </trkpt>
      <trkpt lat="43.39839" lon="2.17716">
        <ele>661.9</ele>
        <time>2020-07-25T08:52:40Z</time>
      </trkpt>
      <trkpt lat="43.39841" lon="2.17712">
        <ele>661.9</ele>
        <time>2020-07-25T08:52:48Z</time>
      </trkpt>
      <trkpt lat="43.39849" lon="2.17698">
        <ele>660.9</ele>
        <time>2020-07-25T08:52:53Z</time>
      </trkpt>
      <trkpt lat="43.39853" lon="2.17693">
        <ele>660.3</ele>
        <time>2020-07-25T08:52:58Z</time>
      </trkpt>
      <trkpt lat="43.39858" lon="2.17692">
        <ele>659.8</ele>
        <time>2020-07-25T08:53:03Z</time>
      </trkpt>
      <trkpt lat="43.39862" lon="2.17692">
        <ele>658.7</ele>
        <time>2020-07-25T08:53:17Z</time>
      </trkpt>
      <trkpt lat="43.39872" lon="2.17679">
        <ele>656.4</ele>
        <time>2020-07-25T08:53:21Z</time>
      </trkpt>
      <trkpt lat="43.39872" lon="2.17679">
        <ele>656.4</ele>
        <time>2020-07-25T08:53:29Z</time>
      </trkpt>
      <trkpt lat="43.39879" lon="2.17665">
        <ele>654.7</ele>
        <time>2020-07-25T08:53:34Z</time>
      </trkpt>
      <trkpt lat="43.39879" lon="2.17665">
        <ele>654.7</ele>
        <time>2020-07-25T08:53:44Z</time>
      </trkpt>
      <trkpt lat="43.39882" lon="2.17653">
        <ele>653.5</ele>
        <time>2020-07-25T08:53:49Z</time>
      </trkpt>
      <trkpt lat="43.39882" lon="2.17653">
        <ele>653.5</ele>
        <time>2020-07-25T08:54:08Z</time>
      </trkpt>
      <trkpt lat="43.39884" lon="2.17637">
        <ele>652.9</ele>
        <time>2020-07-25T08:54:13Z</time>
      </trkpt>
      <trkpt lat="43.39886" lon="2.17628">
        <ele>652.9</ele>
        <time>2020-07-25T08:54:17Z</time>
      </trkpt>
      <trkpt lat="43.39887" lon="2.17621">
        <ele>653</ele>
        <time>2020-07-25T08:54:22Z</time>
      </trkpt>
      <trkpt lat="43.39887" lon="2.17621">
        <ele>653</ele>
        <time>2020-07-25T08:54:30Z</time>
      </trkpt>
      <trkpt lat="43.3989" lon="2.17604">
        <ele>653</ele>
        <time>2020-07-25T08:54:35Z</time>
      </trkpt>
      <trkpt lat="43.39891" lon="2.17597">
        <ele>653</ele>
        <time>2020-07-25T08:54:39Z</time>
      </trkpt>
      <trkpt lat="43.39892" lon="2.17589">
        <ele>653.4</ele>
        <time>2020-07-25T08:54:43Z</time>
      </trkpt>
      <trkpt lat="43.39892" lon="2.17578">
        <ele>653.4</ele>
        <time>2020-07-25T08:54:47Z</time>
      </trkpt>
      <trkpt lat="43.39891" lon="2.17568">
        <ele>653.4</ele>
        <time>2020-07-25T08:54:52Z</time>
      </trkpt>
      <trkpt lat="43.39894" lon="2.17554">
        <ele>652.7</ele>
        <time>2020-07-25T08:54:56Z</time>
      </trkpt>
      <trkpt lat="43.39897" lon="2.17537">
        <ele>652</ele>
        <time>2020-07-25T08:55:01Z</time>
      </trkpt>
      <trkpt lat="43.39898" lon="2.17527">
        <ele>651.8</ele>
        <time>2020-07-25T08:55:05Z</time>
      </trkpt>
      <trkpt lat="43.39902" lon="2.17524">
        <ele>651.9</ele>
        <time>2020-07-25T08:55:10Z</time>
      </trkpt>
      <trkpt lat="43.39905" lon="2.17517">
        <ele>651.9</ele>
        <time>2020-07-25T08:55:14Z</time>
      </trkpt>
      <trkpt lat="43.39911" lon="2.17514">
        <ele>652</ele>
        <time>2020-07-25T08:55:18Z</time>
      </trkpt>
      <trkpt lat="43.39917" lon="2.17513">
        <ele>651.9</ele>
        <time>2020-07-25T08:55:22Z</time>
      </trkpt>
      <trkpt lat="43.39924" lon="2.17509">
        <ele>651.8</ele>
        <time>2020-07-25T08:55:26Z</time>
      </trkpt>
      <trkpt lat="43.39932" lon="2.17503">
        <ele>652.8</ele>
        <time>2020-07-25T08:55:31Z</time>
      </trkpt>
      <trkpt lat="43.3994" lon="2.17502">
        <ele>654.1</ele>
        <time>2020-07-25T08:55:36Z</time>
      </trkpt>
      <trkpt lat="43.39948" lon="2.17502">
        <ele>654.5</ele>
        <time>2020-07-25T08:55:40Z</time>
      </trkpt>
      <trkpt lat="43.39955" lon="2.175">
        <ele>655.5</ele>
        <time>2020-07-25T08:55:44Z</time>
      </trkpt>
      <trkpt lat="43.39965" lon="2.1749">
        <ele>656.7</ele>
        <time>2020-07-25T08:55:49Z</time>
      </trkpt>
      <trkpt lat="43.39975" lon="2.17487">
        <ele>657.6</ele>
        <time>2020-07-25T08:55:53Z</time>
      </trkpt>
      <trkpt lat="43.39987" lon="2.17484">
        <ele>659.6</ele>
        <time>2020-07-25T08:55:58Z</time>
      </trkpt>
      <trkpt lat="43.39994" lon="2.17479">
        <ele>660.9</ele>
        <time>2020-07-25T08:56:02Z</time>
      </trkpt>
      <trkpt lat="43.40005" lon="2.17471">
        <ele>662.8</ele>
        <time>2020-07-25T08:56:07Z</time>
      </trkpt>
      <trkpt lat="43.40014" lon="2.17469">
        <ele>664.5</ele>
        <time>2020-07-25T08:56:11Z</time>
      </trkpt>
      <trkpt lat="43.40027" lon="2.17468">
        <ele>665</ele>
        <time>2020-07-25T08:56:16Z</time>
      </trkpt>
      <trkpt lat="43.40039" lon="2.17472">
        <ele>665</ele>
        <time>2020-07-25T08:56:21Z</time>
      </trkpt>
      <trkpt lat="43.40048" lon="2.17477">
        <ele>663.1</ele>
        <time>2020-07-25T08:56:25Z</time>
      </trkpt>
      <trkpt lat="43.40053" lon="2.17481">
        <ele>661</ele>
        <time>2020-07-25T08:56:29Z</time>
      </trkpt>
      <trkpt lat="43.40056" lon="2.17485">
        <ele>660.1</ele>
        <time>2020-07-25T08:56:34Z</time>
      </trkpt>
      <trkpt lat="43.40057" lon="2.17487">
        <ele>660</ele>
        <time>2020-07-25T08:56:44Z</time>
      </trkpt>
      <trkpt lat="43.40065" lon="2.17502">
        <ele>659</ele>
        <time>2020-07-25T08:56:48Z</time>
      </trkpt>
      <trkpt lat="43.40071" lon="2.17509">
        <ele>659.5</ele>
        <time>2020-07-25T08:56:52Z</time>
      </trkpt>
      <trkpt lat="43.40079" lon="2.17511">
        <ele>659.6</ele>
        <time>2020-07-25T08:56:56Z</time>
      </trkpt>
      <trkpt lat="43.40088" lon="2.17508">
        <ele>660.1</ele>
        <time>2020-07-25T08:57:01Z</time>
      </trkpt>
      <trkpt lat="43.4009" lon="2.17507">
        <ele>660.4</ele>
        <time>2020-07-25T08:57:14Z</time>
      </trkpt>
      <trkpt lat="43.40102" lon="2.17509">
        <ele>661.1</ele>
        <time>2020-07-25T08:57:18Z</time>
      </trkpt>
      <trkpt lat="43.40102" lon="2.17509">
        <ele>661.1</ele>
        <time>2020-07-25T08:57:25Z</time>
      </trkpt>
      <trkpt lat="43.40114" lon="2.175">
        <ele>662.5</ele>
        <time>2020-07-25T08:57:29Z</time>
      </trkpt>
      <trkpt lat="43.40122" lon="2.17494">
        <ele>662.7</ele>
        <time>2020-07-25T08:57:34Z</time>
      </trkpt>
      <trkpt lat="43.40126" lon="2.17491">
        <ele>662.7</ele>
        <time>2020-07-25T08:57:38Z</time>
      </trkpt>
      <trkpt lat="43.40135" lon="2.17488">
        <ele>662.3</ele>
        <time>2020-07-25T08:57:42Z</time>
      </trkpt>
      <trkpt lat="43.4015" lon="2.17485">
        <ele>659.7</ele>
        <time>2020-07-25T08:57:47Z</time>
      </trkpt>
      <trkpt lat="43.40159" lon="2.17482">
        <ele>658.6</ele>
        <time>2020-07-25T08:57:51Z</time>
      </trkpt>
      <trkpt lat="43.40167" lon="2.17481">
        <ele>657.2</ele>
        <time>2020-07-25T08:57:55Z</time>
      </trkpt>
      <trkpt lat="43.40174" lon="2.1748">
        <ele>656.2</ele>
        <time>2020-07-25T08:57:59Z</time>
      </trkpt>
      <trkpt lat="43.40184" lon="2.17484">
        <ele>653.9</ele>
        <time>2020-07-25T08:58:03Z</time>
      </trkpt>
      <trkpt lat="43.40189" lon="2.1749">
        <ele>649.9</ele>
        <time>2020-07-25T08:58:08Z</time>
      </trkpt>
      <trkpt lat="43.40196" lon="2.17493">
        <ele>648.6</ele>
        <time>2020-07-25T08:58:12Z</time>
      </trkpt>
      <trkpt lat="43.40204" lon="2.17494">
        <ele>648.7</ele>
        <time>2020-07-25T08:58:16Z</time>
      </trkpt>
      <trkpt lat="43.40207" lon="2.17497">
        <ele>648.8</ele>
        <time>2020-07-25T08:58:29Z</time>
      </trkpt>
      <trkpt lat="43.40212" lon="2.17509">
        <ele>649.9</ele>
        <time>2020-07-25T08:58:34Z</time>
      </trkpt>
      <trkpt lat="43.40212" lon="2.17509">
        <ele>649.9</ele>
        <time>2020-07-25T08:58:45Z</time>
      </trkpt>
      <trkpt lat="43.40219" lon="2.17524">
        <ele>651</ele>
        <time>2020-07-25T08:58:50Z</time>
      </trkpt>
      <trkpt lat="43.40227" lon="2.17529">
        <ele>651.4</ele>
        <time>2020-07-25T08:58:54Z</time>
      </trkpt>
      <trkpt lat="43.40235" lon="2.17537">
        <ele>651.6</ele>
        <time>2020-07-25T08:58:59Z</time>
      </trkpt>
      <trkpt lat="43.40242" lon="2.1754">
        <ele>651.8</ele>
        <time>2020-07-25T08:59:04Z</time>
      </trkpt>
      <trkpt lat="43.40247" lon="2.17543">
        <ele>652.2</ele>
        <time>2020-07-25T08:59:08Z</time>
      </trkpt>
      <trkpt lat="43.40247" lon="2.17543">
        <ele>652.2</ele>
        <time>2020-07-25T08:59:13Z</time>
      </trkpt>
      <trkpt lat="43.40261" lon="2.17557">
        <ele>652.5</ele>
        <time>2020-07-25T08:59:17Z</time>
      </trkpt>
      <trkpt lat="43.40266" lon="2.17562">
        <ele>652.4</ele>
        <time>2020-07-25T08:59:21Z</time>
      </trkpt>
      <trkpt lat="43.4027" lon="2.17566">
        <ele>652.4</ele>
        <time>2020-07-25T08:59:32Z</time>
      </trkpt>
      <trkpt lat="43.40283" lon="2.17572">
        <ele>652</ele>
        <time>2020-07-25T08:59:37Z</time>
      </trkpt>
      <trkpt lat="43.40295" lon="2.1758">
        <ele>653.7</ele>
        <time>2020-07-25T08:59:41Z</time>
      </trkpt>
      <trkpt lat="43.40307" lon="2.17586">
        <ele>653.9</ele>
        <time>2020-07-25T08:59:45Z</time>
      </trkpt>
      <trkpt lat="43.40317" lon="2.17591">
        <ele>653.2</ele>
        <time>2020-07-25T08:59:50Z</time>
      </trkpt>
      <trkpt lat="43.40326" lon="2.17593">
        <ele>653.4</ele>
        <time>2020-07-25T08:59:54Z</time>
      </trkpt>
      <trkpt lat="43.40339" lon="2.17598">
        <ele>653.6</ele>
        <time>2020-07-25T08:59:59Z</time>
      </trkpt>
      <trkpt lat="43.40347" lon="2.17609">
        <ele>654.2</ele>
        <time>2020-07-25T09:00:03Z</time>
      </trkpt>
      <trkpt lat="43.40357" lon="2.17616">
        <ele>656.2</ele>
        <time>2020-07-25T09:00:08Z</time>
      </trkpt>
      <trkpt lat="43.40374" lon="2.17622">
        <ele>658.4</ele>
        <time>2020-07-25T09:00:12Z</time>
      </trkpt>
      <trkpt lat="43.40391" lon="2.17632">
        <ele>660.1</ele>
        <time>2020-07-25T09:00:17Z</time>
      </trkpt>
      <trkpt lat="43.40396" lon="2.17639">
        <ele>661.5</ele>
        <time>2020-07-25T09:00:21Z</time>
      </trkpt>
      <trkpt lat="43.40397" lon="2.17651">
        <ele>664.3</ele>
        <time>2020-07-25T09:00:25Z</time>
      </trkpt>
      <trkpt lat="43.40395" lon="2.17668">
        <ele>665.6</ele>
        <time>2020-07-25T09:00:29Z</time>
      </trkpt>
      <trkpt lat="43.40391" lon="2.1768">
        <ele>666</ele>
        <time>2020-07-25T09:00:33Z</time>
      </trkpt>
      <trkpt lat="43.40384" lon="2.17686">
        <ele>666.7</ele>
        <time>2020-07-25T09:00:38Z</time>
      </trkpt>
      <trkpt lat="43.40379" lon="2.17694">
        <ele>668.2</ele>
        <time>2020-07-25T09:00:42Z</time>
      </trkpt>
      <trkpt lat="43.40371" lon="2.17699">
        <ele>670.5</ele>
        <time>2020-07-25T09:00:47Z</time>
      </trkpt>
      <trkpt lat="43.40367" lon="2.17707">
        <ele>671.2</ele>
        <time>2020-07-25T09:00:51Z</time>
      </trkpt>
      <trkpt lat="43.40358" lon="2.1772">
        <ele>673.2</ele>
        <time>2020-07-25T09:00:56Z</time>
      </trkpt>
      <trkpt lat="43.40349" lon="2.17733">
        <ele>675.8</ele>
        <time>2020-07-25T09:01:01Z</time>
      </trkpt>
      <trkpt lat="43.40342" lon="2.17743">
        <ele>678.3</ele>
        <time>2020-07-25T09:01:05Z</time>
      </trkpt>
      <trkpt lat="43.40332" lon="2.17759">
        <ele>678.9</ele>
        <time>2020-07-25T09:01:10Z</time>
      </trkpt>
      <trkpt lat="43.40324" lon="2.17769">
        <ele>680</ele>
        <time>2020-07-25T09:01:14Z</time>
      </trkpt>
      <trkpt lat="43.40318" lon="2.17775">
        <ele>681</ele>
        <time>2020-07-25T09:01:18Z</time>
      </trkpt>
      <trkpt lat="43.4031" lon="2.17788">
        <ele>680.3</ele>
        <time>2020-07-25T09:01:23Z</time>
      </trkpt>
      <trkpt lat="43.40301" lon="2.17804">
        <ele>679.2</ele>
        <time>2020-07-25T09:01:27Z</time>
      </trkpt>
      <trkpt lat="43.40296" lon="2.17821">
        <ele>675.7</ele>
        <time>2020-07-25T09:01:31Z</time>
      </trkpt>
      <trkpt lat="43.40291" lon="2.1784">
        <ele>674.8</ele>
        <time>2020-07-25T09:01:35Z</time>
      </trkpt>
      <trkpt lat="43.40278" lon="2.17862">
        <ele>673.5</ele>
        <time>2020-07-25T09:01:39Z</time>
      </trkpt>
      <trkpt lat="43.40264" lon="2.17882">
        <ele>673.7</ele>
        <time>2020-07-25T09:01:44Z</time>
      </trkpt>
      <trkpt lat="43.40251" lon="2.17893">
        <ele>673.3</ele>
        <time>2020-07-25T09:01:48Z</time>
      </trkpt>
      <trkpt lat="43.40237" lon="2.17905">
        <ele>672.4</ele>
        <time>2020-07-25T09:01:52Z</time>
      </trkpt>
      <trkpt lat="43.40224" lon="2.1792">
        <ele>671.6</ele>
        <time>2020-07-25T09:01:56Z</time>
      </trkpt>
      <trkpt lat="43.40207" lon="2.17933">
        <ele>670.5</ele>
        <time>2020-07-25T09:02:01Z</time>
      </trkpt>
      <trkpt lat="43.40198" lon="2.17936">
        <ele>669.9</ele>
        <time>2020-07-25T09:02:05Z</time>
      </trkpt>
      <trkpt lat="43.40192" lon="2.17937">
        <ele>670.3</ele>
        <time>2020-07-25T09:02:10Z</time>
      </trkpt>
      <trkpt lat="43.40183" lon="2.17942">
        <ele>669.8</ele>
        <time>2020-07-25T09:02:15Z</time>
      </trkpt>
      <trkpt lat="43.40174" lon="2.17945">
        <ele>669.9</ele>
        <time>2020-07-25T09:02:19Z</time>
      </trkpt>
      <trkpt lat="43.40162" lon="2.17949">
        <ele>669.6</ele>
        <time>2020-07-25T09:02:24Z</time>
      </trkpt>
      <trkpt lat="43.4015" lon="2.17949">
        <ele>668.8</ele>
        <time>2020-07-25T09:02:28Z</time>
      </trkpt>
      <trkpt lat="43.40141" lon="2.17951">
        <ele>667.6</ele>
        <time>2020-07-25T09:02:32Z</time>
      </trkpt>
      <trkpt lat="43.4014" lon="2.17952">
        <ele>667.5</ele>
        <time>2020-07-25T09:02:37Z</time>
      </trkpt>
      <trkpt lat="43.40141" lon="2.17969">
        <ele>666.8</ele>
        <time>2020-07-25T09:02:42Z</time>
      </trkpt>
      <trkpt lat="43.40141" lon="2.17969">
        <ele>666.8</ele>
        <time>2020-07-25T09:03:04Z</time>
      </trkpt>
      <trkpt lat="43.40136" lon="2.17985">
        <ele>664.1</ele>
        <time>2020-07-25T09:03:08Z</time>
      </trkpt>
      <trkpt lat="43.40136" lon="2.17985">
        <ele>664.1</ele>
        <time>2020-07-25T09:03:56Z</time>
      </trkpt>
      <trkpt lat="43.40133" lon="2.17969">
        <ele>663.3</ele>
        <time>2020-07-25T09:04:00Z</time>
      </trkpt>
      <trkpt lat="43.40133" lon="2.17969">
        <ele>663.3</ele>
        <time>2020-07-25T09:04:16Z</time>
      </trkpt>
      <trkpt lat="43.40136" lon="2.17982">
        <ele>663</ele>
        <time>2020-07-25T09:04:20Z</time>
      </trkpt>
      <trkpt lat="43.40136" lon="2.17982">
        <ele>663</ele>
        <time>2020-07-25T09:05:37Z</time>
      </trkpt>
      <trkpt lat="43.40147" lon="2.17985">
        <ele>661.9</ele>
        <time>2020-07-25T09:05:41Z</time>
      </trkpt>
      <trkpt lat="43.40153" lon="2.17991">
        <ele>662</ele>
        <time>2020-07-25T09:05:46Z</time>
      </trkpt>
      <trkpt lat="43.40162" lon="2.18004">
        <ele>661.6</ele>
        <time>2020-07-25T09:05:50Z</time>
      </trkpt>
      <trkpt lat="43.40175" lon="2.18011">
        <ele>662</ele>
        <time>2020-07-25T09:05:55Z</time>
      </trkpt>
      <trkpt lat="43.40187" lon="2.18019">
        <ele>661.2</ele>
        <time>2020-07-25T09:05:59Z</time>
      </trkpt>
      <trkpt lat="43.40206" lon="2.18027">
        <ele>659.6</ele>
        <time>2020-07-25T09:06:04Z</time>
      </trkpt>
      <trkpt lat="43.40219" lon="2.18033">
        <ele>660</ele>
        <time>2020-07-25T09:06:08Z</time>
      </trkpt>
      <trkpt lat="43.40231" lon="2.18038">
        <ele>660</ele>
        <time>2020-07-25T09:06:13Z</time>
      </trkpt>
      <trkpt lat="43.4024" lon="2.18044">
        <ele>660.6</ele>
        <time>2020-07-25T09:06:17Z</time>
      </trkpt>
      <trkpt lat="43.4025" lon="2.18055">
        <ele>659.7</ele>
        <time>2020-07-25T09:06:21Z</time>
      </trkpt>
      <trkpt lat="43.40257" lon="2.18066">
        <ele>659.7</ele>
        <time>2020-07-25T09:06:25Z</time>
      </trkpt>
      <trkpt lat="43.40264" lon="2.18081">
        <ele>661.6</ele>
        <time>2020-07-25T09:06:30Z</time>
      </trkpt>
      <trkpt lat="43.40271" lon="2.18095">
        <ele>663.8</ele>
        <time>2020-07-25T09:06:35Z</time>
      </trkpt>
      <trkpt lat="43.40276" lon="2.18102">
        <ele>664.6</ele>
        <time>2020-07-25T09:06:39Z</time>
      </trkpt>
      <trkpt lat="43.40283" lon="2.18107">
        <ele>665.5</ele>
        <time>2020-07-25T09:06:43Z</time>
      </trkpt>
      <trkpt lat="43.40291" lon="2.18114">
        <ele>665.8</ele>
        <time>2020-07-25T09:06:47Z</time>
      </trkpt>
      <trkpt lat="43.40301" lon="2.1812">
        <ele>667.3</ele>
        <time>2020-07-25T09:06:52Z</time>
      </trkpt>
      <trkpt lat="43.40311" lon="2.18126">
        <ele>667.9</ele>
        <time>2020-07-25T09:06:57Z</time>
      </trkpt>
      <trkpt lat="43.40319" lon="2.18125">
        <ele>667.6</ele>
        <time>2020-07-25T09:07:02Z</time>
      </trkpt>
      <trkpt lat="43.40327" lon="2.1813">
        <ele>668.7</ele>
        <time>2020-07-25T09:07:06Z</time>
      </trkpt>
      <trkpt lat="43.40334" lon="2.18128">
        <ele>668.2</ele>
        <time>2020-07-25T09:07:11Z</time>
      </trkpt>
      <trkpt lat="43.40342" lon="2.18132">
        <ele>668.7</ele>
        <time>2020-07-25T09:07:16Z</time>
      </trkpt>
      <trkpt lat="43.40348" lon="2.18133">
        <ele>668.9</ele>
        <time>2020-07-25T09:07:20Z</time>
      </trkpt>
      <trkpt lat="43.40357" lon="2.18136">
        <ele>669.1</ele>
        <time>2020-07-25T09:07:25Z</time>
      </trkpt>
      <trkpt lat="43.40364" lon="2.18135">
        <ele>669.2</ele>
        <time>2020-07-25T09:07:29Z</time>
      </trkpt>
      <trkpt lat="43.4037" lon="2.18132">
        <ele>669.4</ele>
        <time>2020-07-25T09:07:34Z</time>
      </trkpt>
      <trkpt lat="43.40376" lon="2.18132">
        <ele>669.1</ele>
        <time>2020-07-25T09:07:38Z</time>
      </trkpt>
      <trkpt lat="43.40384" lon="2.1813">
        <ele>668.2</ele>
        <time>2020-07-25T09:07:43Z</time>
      </trkpt>
      <trkpt lat="43.40391" lon="2.18129">
        <ele>668.4</ele>
        <time>2020-07-25T09:07:47Z</time>
      </trkpt>
      <trkpt lat="43.40398" lon="2.18126">
        <ele>668.3</ele>
        <time>2020-07-25T09:07:52Z</time>
      </trkpt>
      <trkpt lat="43.40404" lon="2.18126">
        <ele>668.7</ele>
        <time>2020-07-25T09:07:56Z</time>
      </trkpt>
      <trkpt lat="43.40413" lon="2.18128">
        <ele>668.2</ele>
        <time>2020-07-25T09:08:01Z</time>
      </trkpt>
      <trkpt lat="43.40416" lon="2.18134">
        <ele>668.1</ele>
        <time>2020-07-25T09:08:05Z</time>
      </trkpt>
      <trkpt lat="43.40413" lon="2.1814">
        <ele>668.1</ele>
        <time>2020-07-25T09:08:10Z</time>
      </trkpt>
      <trkpt lat="43.40409" lon="2.18146">
        <ele>668.9</ele>
        <time>2020-07-25T09:08:14Z</time>
      </trkpt>
      <trkpt lat="43.40405" lon="2.18154">
        <ele>669.8</ele>
        <time>2020-07-25T09:08:19Z</time>
      </trkpt>
      <trkpt lat="43.404" lon="2.18157">
        <ele>669.9</ele>
        <time>2020-07-25T09:08:23Z</time>
      </trkpt>
      <trkpt lat="43.40396" lon="2.18165">
        <ele>669.2</ele>
        <time>2020-07-25T09:08:28Z</time>
      </trkpt>
      <trkpt lat="43.40393" lon="2.18172">
        <ele>670.2</ele>
        <time>2020-07-25T09:08:32Z</time>
      </trkpt>
      <trkpt lat="43.40388" lon="2.18178">
        <ele>671.9</ele>
        <time>2020-07-25T09:08:36Z</time>
      </trkpt>
      <trkpt lat="43.40385" lon="2.18184">
        <ele>673.1</ele>
        <time>2020-07-25T09:08:40Z</time>
      </trkpt>
      <trkpt lat="43.4038" lon="2.1819">
        <ele>674.6</ele>
        <time>2020-07-25T09:08:45Z</time>
      </trkpt>
      <trkpt lat="43.40377" lon="2.18198">
        <ele>676.3</ele>
        <time>2020-07-25T09:08:49Z</time>
      </trkpt>
      <trkpt lat="43.40373" lon="2.18207">
        <ele>677.5</ele>
        <time>2020-07-25T09:08:53Z</time>
      </trkpt>
      <trkpt lat="43.4037" lon="2.18217">
        <ele>677.7</ele>
        <time>2020-07-25T09:08:57Z</time>
      </trkpt>
      <trkpt lat="43.40366" lon="2.18225">
        <ele>678.8</ele>
        <time>2020-07-25T09:09:01Z</time>
      </trkpt>
      <trkpt lat="43.40361" lon="2.18235">
        <ele>680.5</ele>
        <time>2020-07-25T09:09:05Z</time>
      </trkpt>
      <trkpt lat="43.40357" lon="2.18243">
        <ele>681</ele>
        <time>2020-07-25T09:09:09Z</time>
      </trkpt>
      <trkpt lat="43.40353" lon="2.18248">
        <ele>681</ele>
        <time>2020-07-25T09:09:13Z</time>
      </trkpt>
      <trkpt lat="43.40349" lon="2.18252">
        <ele>681.2</ele>
        <time>2020-07-25T09:09:17Z</time>
      </trkpt>
      <trkpt lat="43.40346" lon="2.18257">
        <ele>681.4</ele>
        <time>2020-07-25T09:09:21Z</time>
      </trkpt>
      <trkpt lat="43.40341" lon="2.18261">
        <ele>681.4</ele>
        <time>2020-07-25T09:09:25Z</time>
      </trkpt>
      <trkpt lat="43.40336" lon="2.18268">
        <ele>681.2</ele>
        <time>2020-07-25T09:09:29Z</time>
      </trkpt>
      <trkpt lat="43.4033" lon="2.18275">
        <ele>682.1</ele>
        <time>2020-07-25T09:09:34Z</time>
      </trkpt>
      <trkpt lat="43.40326" lon="2.18284">
        <ele>682.9</ele>
        <time>2020-07-25T09:09:38Z</time>
      </trkpt>
      <trkpt lat="43.40319" lon="2.18293">
        <ele>684</ele>
        <time>2020-07-25T09:09:43Z</time>
      </trkpt>
      <trkpt lat="43.40313" lon="2.18302">
        <ele>685.5</ele>
        <time>2020-07-25T09:09:47Z</time>
      </trkpt>
      <trkpt lat="43.40307" lon="2.18311">
        <ele>687.1</ele>
        <time>2020-07-25T09:09:52Z</time>
      </trkpt>
      <trkpt lat="43.40304" lon="2.18321">
        <ele>687.8</ele>
        <time>2020-07-25T09:09:56Z</time>
      </trkpt>
      <trkpt lat="43.40302" lon="2.18333">
        <ele>688.5</ele>
        <time>2020-07-25T09:10:01Z</time>
      </trkpt>
      <trkpt lat="43.40301" lon="2.18341">
        <ele>689.2</ele>
        <time>2020-07-25T09:10:05Z</time>
      </trkpt>
      <trkpt lat="43.40301" lon="2.1835">
        <ele>690.5</ele>
        <time>2020-07-25T09:10:10Z</time>
      </trkpt>
      <trkpt lat="43.40301" lon="2.1836">
        <ele>692.1</ele>
        <time>2020-07-25T09:10:14Z</time>
      </trkpt>
      <trkpt lat="43.40302" lon="2.18373">
        <ele>693.6</ele>
        <time>2020-07-25T09:10:19Z</time>
      </trkpt>
      <trkpt lat="43.40303" lon="2.18384">
        <ele>694.1</ele>
        <time>2020-07-25T09:10:23Z</time>
      </trkpt>
      <trkpt lat="43.40306" lon="2.18397">
        <ele>693.4</ele>
        <time>2020-07-25T09:10:28Z</time>
      </trkpt>
      <trkpt lat="43.40309" lon="2.1841">
        <ele>693.3</ele>
        <time>2020-07-25T09:10:32Z</time>
      </trkpt>
      <trkpt lat="43.40312" lon="2.18425">
        <ele>692.2</ele>
        <time>2020-07-25T09:10:37Z</time>
      </trkpt>
      <trkpt lat="43.40315" lon="2.1844">
        <ele>690.8</ele>
        <time>2020-07-25T09:10:41Z</time>
      </trkpt>
      <trkpt lat="43.40317" lon="2.18455">
        <ele>690.4</ele>
        <time>2020-07-25T09:10:45Z</time>
      </trkpt>
      <trkpt lat="43.40318" lon="2.1847">
        <ele>691.1</ele>
        <time>2020-07-25T09:10:49Z</time>
      </trkpt>
      <trkpt lat="43.4032" lon="2.18483">
        <ele>692.6</ele>
        <time>2020-07-25T09:10:53Z</time>
      </trkpt>
      <trkpt lat="43.40323" lon="2.185">
        <ele>694.3</ele>
        <time>2020-07-25T09:10:58Z</time>
      </trkpt>
      <trkpt lat="43.40325" lon="2.18513">
        <ele>696.1</ele>
        <time>2020-07-25T09:11:02Z</time>
      </trkpt>
      <trkpt lat="43.40327" lon="2.18529">
        <ele>696.9</ele>
        <time>2020-07-25T09:11:07Z</time>
      </trkpt>
      <trkpt lat="43.40329" lon="2.18543">
        <ele>696.2</ele>
        <time>2020-07-25T09:11:12Z</time>
      </trkpt>
      <trkpt lat="43.40331" lon="2.18553">
        <ele>695.6</ele>
        <time>2020-07-25T09:11:16Z</time>
      </trkpt>
      <trkpt lat="43.40331" lon="2.18563">
        <ele>695.3</ele>
        <time>2020-07-25T09:11:20Z</time>
      </trkpt>
      <trkpt lat="43.40331" lon="2.18576">
        <ele>696.2</ele>
        <time>2020-07-25T09:11:25Z</time>
      </trkpt>
      <trkpt lat="43.40334" lon="2.18589">
        <ele>696.9</ele>
        <time>2020-07-25T09:11:30Z</time>
      </trkpt>
      <trkpt lat="43.40335" lon="2.18598">
        <ele>697.8</ele>
        <time>2020-07-25T09:11:34Z</time>
      </trkpt>
      <trkpt lat="43.40337" lon="2.1861">
        <ele>699.2</ele>
        <time>2020-07-25T09:11:38Z</time>
      </trkpt>
      <trkpt lat="43.40339" lon="2.18618">
        <ele>700.9</ele>
        <time>2020-07-25T09:11:43Z</time>
      </trkpt>
      <trkpt lat="43.40339" lon="2.18627">
        <ele>702.6</ele>
        <time>2020-07-25T09:11:47Z</time>
      </trkpt>
      <trkpt lat="43.40345" lon="2.18639">
        <ele>704</ele>
        <time>2020-07-25T09:11:52Z</time>
      </trkpt>
      <trkpt lat="43.40349" lon="2.1865">
        <ele>704.3</ele>
        <time>2020-07-25T09:11:56Z</time>
      </trkpt>
      <trkpt lat="43.40354" lon="2.18657">
        <ele>704.4</ele>
        <time>2020-07-25T09:12:01Z</time>
      </trkpt>
      <trkpt lat="43.40361" lon="2.18663">
        <ele>703.8</ele>
        <time>2020-07-25T09:12:05Z</time>
      </trkpt>
      <trkpt lat="43.40369" lon="2.18669">
        <ele>703.4</ele>
        <time>2020-07-25T09:12:10Z</time>
      </trkpt>
      <trkpt lat="43.40375" lon="2.18674">
        <ele>703.4</ele>
        <time>2020-07-25T09:12:14Z</time>
      </trkpt>
      <trkpt lat="43.40383" lon="2.18684">
        <ele>702.4</ele>
        <time>2020-07-25T09:12:19Z</time>
      </trkpt>
      <trkpt lat="43.4039" lon="2.18692">
        <ele>701.7</ele>
        <time>2020-07-25T09:12:23Z</time>
      </trkpt>
      <trkpt lat="43.40398" lon="2.187">
        <ele>698</ele>
        <time>2020-07-25T09:12:28Z</time>
      </trkpt>
      <trkpt lat="43.40403" lon="2.18708">
        <ele>696.7</ele>
        <time>2020-07-25T09:12:32Z</time>
      </trkpt>
      <trkpt lat="43.40409" lon="2.18716">
        <ele>695.3</ele>
        <time>2020-07-25T09:12:37Z</time>
      </trkpt>
      <trkpt lat="43.40409" lon="2.18717">
        <ele>694.9</ele>
        <time>2020-07-25T09:12:42Z</time>
      </trkpt>
      <trkpt lat="43.40413" lon="2.18728">
        <ele>694.8</ele>
        <time>2020-07-25T09:12:47Z</time>
      </trkpt>
      <trkpt lat="43.40414" lon="2.18734">
        <ele>694.6</ele>
        <time>2020-07-25T09:12:51Z</time>
      </trkpt>
      <trkpt lat="43.40417" lon="2.18743">
        <ele>694.7</ele>
        <time>2020-07-25T09:12:55Z</time>
      </trkpt>
      <trkpt lat="43.40424" lon="2.18755">
        <ele>694.4</ele>
        <time>2020-07-25T09:12:59Z</time>
      </trkpt>
      <trkpt lat="43.40429" lon="2.18765">
        <ele>693.6</ele>
        <time>2020-07-25T09:13:04Z</time>
      </trkpt>
      <trkpt lat="43.40434" lon="2.18772">
        <ele>693.3</ele>
        <time>2020-07-25T09:13:08Z</time>
      </trkpt>
      <trkpt lat="43.4044" lon="2.18776">
        <ele>692.9</ele>
        <time>2020-07-25T09:13:13Z</time>
      </trkpt>
      <trkpt lat="43.40445" lon="2.18777">
        <ele>692.3</ele>
        <time>2020-07-25T09:13:17Z</time>
      </trkpt>
      <trkpt lat="43.40452" lon="2.18781">
        <ele>691.8</ele>
        <time>2020-07-25T09:13:22Z</time>
      </trkpt>
      <trkpt lat="43.40458" lon="2.18785">
        <ele>692.8</ele>
        <time>2020-07-25T09:13:26Z</time>
      </trkpt>
      <trkpt lat="43.40467" lon="2.18795">
        <ele>693.8</ele>
        <time>2020-07-25T09:13:31Z</time>
      </trkpt>
      <trkpt lat="43.40474" lon="2.18799">
        <ele>694.3</ele>
        <time>2020-07-25T09:13:35Z</time>
      </trkpt>
      <trkpt lat="43.40482" lon="2.188">
        <ele>694.7</ele>
        <time>2020-07-25T09:13:39Z</time>
      </trkpt>
      <trkpt lat="43.40493" lon="2.18805">
        <ele>694.5</ele>
        <time>2020-07-25T09:13:43Z</time>
      </trkpt>
      <trkpt lat="43.405" lon="2.18813">
        <ele>695.5</ele>
        <time>2020-07-25T09:13:47Z</time>
      </trkpt>
      <trkpt lat="43.40507" lon="2.18816">
        <ele>696.4</ele>
        <time>2020-07-25T09:13:51Z</time>
      </trkpt>
      <trkpt lat="43.40515" lon="2.1882">
        <ele>697.1</ele>
        <time>2020-07-25T09:13:55Z</time>
      </trkpt>
      <trkpt lat="43.40523" lon="2.18823">
        <ele>698.3</ele>
        <time>2020-07-25T09:13:59Z</time>
      </trkpt>
      <trkpt lat="43.40534" lon="2.18829">
        <ele>699.9</ele>
        <time>2020-07-25T09:14:04Z</time>
      </trkpt>
      <trkpt lat="43.40539" lon="2.18834">
        <ele>702</ele>
        <time>2020-07-25T09:14:08Z</time>
      </trkpt>
      <trkpt lat="43.40545" lon="2.18839">
        <ele>704.3</ele>
        <time>2020-07-25T09:14:13Z</time>
      </trkpt>
      <trkpt lat="43.40551" lon="2.1884">
        <ele>705.9</ele>
        <time>2020-07-25T09:14:17Z</time>
      </trkpt>
      <trkpt lat="43.40554" lon="2.18844">
        <ele>707.7</ele>
        <time>2020-07-25T09:14:21Z</time>
      </trkpt>
      <trkpt lat="43.40558" lon="2.1885">
        <ele>709.4</ele>
        <time>2020-07-25T09:14:25Z</time>
      </trkpt>
      <trkpt lat="43.40563" lon="2.18857">
        <ele>710.1</ele>
        <time>2020-07-25T09:14:29Z</time>
      </trkpt>
      <trkpt lat="43.40567" lon="2.18865">
        <ele>711</ele>
        <time>2020-07-25T09:14:34Z</time>
      </trkpt>
      <trkpt lat="43.4057" lon="2.1887">
        <ele>711.9</ele>
        <time>2020-07-25T09:14:38Z</time>
      </trkpt>
      <trkpt lat="43.40574" lon="2.1888">
        <ele>712.7</ele>
        <time>2020-07-25T09:14:42Z</time>
      </trkpt>
      <trkpt lat="43.40582" lon="2.18892">
        <ele>712.3</ele>
        <time>2020-07-25T09:14:47Z</time>
      </trkpt>
      <trkpt lat="43.40591" lon="2.18904">
        <ele>712.6</ele>
        <time>2020-07-25T09:14:52Z</time>
      </trkpt>
      <trkpt lat="43.40598" lon="2.18918">
        <ele>711.8</ele>
        <time>2020-07-25T09:14:56Z</time>
      </trkpt>
      <trkpt lat="43.40605" lon="2.18931">
        <ele>710.4</ele>
        <time>2020-07-25T09:15:01Z</time>
      </trkpt>
      <trkpt lat="43.4061" lon="2.18942">
        <ele>710.2</ele>
        <time>2020-07-25T09:15:05Z</time>
      </trkpt>
      <trkpt lat="43.40617" lon="2.1895">
        <ele>709.4</ele>
        <time>2020-07-25T09:15:10Z</time>
      </trkpt>
      <trkpt lat="43.40629" lon="2.18955">
        <ele>709.4</ele>
        <time>2020-07-25T09:15:15Z</time>
      </trkpt>
      <trkpt lat="43.4064" lon="2.18957">
        <ele>708.6</ele>
        <time>2020-07-25T09:15:19Z</time>
      </trkpt>
      <trkpt lat="43.40658" lon="2.1896">
        <ele>705.8</ele>
        <time>2020-07-25T09:15:24Z</time>
      </trkpt>
      <trkpt lat="43.4067" lon="2.18953">
        <ele>706.3</ele>
        <time>2020-07-25T09:15:28Z</time>
      </trkpt>
      <trkpt lat="43.40681" lon="2.1894">
        <ele>708.7</ele>
        <time>2020-07-25T09:15:32Z</time>
      </trkpt>
      <trkpt lat="43.40696" lon="2.18926">
        <ele>710.2</ele>
        <time>2020-07-25T09:15:37Z</time>
      </trkpt>
      <trkpt lat="43.40704" lon="2.18915">
        <ele>711.8</ele>
        <time>2020-07-25T09:15:41Z</time>
      </trkpt>
      <trkpt lat="43.40716" lon="2.18902">
        <ele>709.6</ele>
        <time>2020-07-25T09:15:46Z</time>
      </trkpt>
      <trkpt lat="43.40717" lon="2.189">
        <ele>709.9</ele>
        <time>2020-07-25T09:16:25Z</time>
      </trkpt>
      <trkpt lat="43.40728" lon="2.18895">
        <ele>709.4</ele>
        <time>2020-07-25T09:16:29Z</time>
      </trkpt>
      <trkpt lat="43.40737" lon="2.18892">
        <ele>709.4</ele>
        <time>2020-07-25T09:16:33Z</time>
      </trkpt>
      <trkpt lat="43.40745" lon="2.18889">
        <ele>709.5</ele>
        <time>2020-07-25T09:16:37Z</time>
      </trkpt>
      <trkpt lat="43.40754" lon="2.18884">
        <ele>709.7</ele>
        <time>2020-07-25T09:16:41Z</time>
      </trkpt>
      <trkpt lat="43.40767" lon="2.18883">
        <ele>710.1</ele>
        <time>2020-07-25T09:16:46Z</time>
      </trkpt>
      <trkpt lat="43.40776" lon="2.18882">
        <ele>710.8</ele>
        <time>2020-07-25T09:16:50Z</time>
      </trkpt>
      <trkpt lat="43.40789" lon="2.18883">
        <ele>711.8</ele>
        <time>2020-07-25T09:16:55Z</time>
      </trkpt>
      <trkpt lat="43.40799" lon="2.18886">
        <ele>712.6</ele>
        <time>2020-07-25T09:16:59Z</time>
      </trkpt>
      <trkpt lat="43.40812" lon="2.18886">
        <ele>714.1</ele>
        <time>2020-07-25T09:17:04Z</time>
      </trkpt>
      <trkpt lat="43.40824" lon="2.18892">
        <ele>713.8</ele>
        <time>2020-07-25T09:17:08Z</time>
      </trkpt>
      <trkpt lat="43.4084" lon="2.18893">
        <ele>714.2</ele>
        <time>2020-07-25T09:17:13Z</time>
      </trkpt>
      <trkpt lat="43.4085" lon="2.18893">
        <ele>714.4</ele>
        <time>2020-07-25T09:17:17Z</time>
      </trkpt>
      <trkpt lat="43.40865" lon="2.18896">
        <ele>715.2</ele>
        <time>2020-07-25T09:17:22Z</time>
      </trkpt>
      <trkpt lat="43.40876" lon="2.18903">
        <ele>717.7</ele>
        <time>2020-07-25T09:17:26Z</time>
      </trkpt>
      <trkpt lat="43.40891" lon="2.18906">
        <ele>718.2</ele>
        <time>2020-07-25T09:17:31Z</time>
      </trkpt>
      <trkpt lat="43.40902" lon="2.18909">
        <ele>720.1</ele>
        <time>2020-07-25T09:17:35Z</time>
      </trkpt>
      <trkpt lat="43.40912" lon="2.18909">
        <ele>721.9</ele>
        <time>2020-07-25T09:17:39Z</time>
      </trkpt>
      <trkpt lat="43.40921" lon="2.18912">
        <ele>724</ele>
        <time>2020-07-25T09:17:43Z</time>
      </trkpt>
      <trkpt lat="43.4093" lon="2.18916">
        <ele>725.8</ele>
        <time>2020-07-25T09:17:47Z</time>
      </trkpt>
      <trkpt lat="43.40939" lon="2.1892">
        <ele>728.4</ele>
        <time>2020-07-25T09:17:51Z</time>
      </trkpt>
      <trkpt lat="43.40948" lon="2.18925">
        <ele>730.5</ele>
        <time>2020-07-25T09:17:55Z</time>
      </trkpt>
      <trkpt lat="43.40958" lon="2.18929">
        <ele>733.4</ele>
        <time>2020-07-25T09:18:00Z</time>
      </trkpt>
      <trkpt lat="43.40966" lon="2.18931">
        <ele>737.9</ele>
        <time>2020-07-25T09:18:04Z</time>
      </trkpt>
      <trkpt lat="43.40975" lon="2.18936">
        <ele>740.9</ele>
        <time>2020-07-25T09:18:08Z</time>
      </trkpt>
      <trkpt lat="43.40981" lon="2.18943">
        <ele>741.4</ele>
        <time>2020-07-25T09:18:12Z</time>
      </trkpt>
      <trkpt lat="43.40979" lon="2.18955">
        <ele>744.4</ele>
        <time>2020-07-25T09:18:17Z</time>
      </trkpt>
      <trkpt lat="43.40971" lon="2.18961">
        <ele>746.2</ele>
        <time>2020-07-25T09:18:21Z</time>
      </trkpt>
      <trkpt lat="43.40962" lon="2.18971">
        <ele>748.5</ele>
        <time>2020-07-25T09:18:26Z</time>
      </trkpt>
      <trkpt lat="43.40953" lon="2.18979">
        <ele>750.3</ele>
        <time>2020-07-25T09:18:31Z</time>
      </trkpt>
      <trkpt lat="43.40943" lon="2.18985">
        <ele>752.2</ele>
        <time>2020-07-25T09:18:35Z</time>
      </trkpt>
      <trkpt lat="43.40933" lon="2.1899">
        <ele>753</ele>
        <time>2020-07-25T09:18:39Z</time>
      </trkpt>
      <trkpt lat="43.40922" lon="2.18995">
        <ele>752.1</ele>
        <time>2020-07-25T09:18:43Z</time>
      </trkpt>
      <trkpt lat="43.40913" lon="2.19005">
        <ele>750.4</ele>
        <time>2020-07-25T09:18:47Z</time>
      </trkpt>
      <trkpt lat="43.40902" lon="2.19015">
        <ele>747.9</ele>
        <time>2020-07-25T09:18:51Z</time>
      </trkpt>
      <trkpt lat="43.40894" lon="2.19028">
        <ele>745.2</ele>
        <time>2020-07-25T09:18:55Z</time>
      </trkpt>
      <trkpt lat="43.40887" lon="2.19043">
        <ele>741.7</ele>
        <time>2020-07-25T09:18:59Z</time>
      </trkpt>
      <trkpt lat="43.40884" lon="2.19061">
        <ele>739.8</ele>
        <time>2020-07-25T09:19:04Z</time>
      </trkpt>
      <trkpt lat="43.4088" lon="2.19075">
        <ele>740.8</ele>
        <time>2020-07-25T09:19:09Z</time>
      </trkpt>
      <trkpt lat="43.40879" lon="2.19088">
        <ele>740.5</ele>
        <time>2020-07-25T09:19:13Z</time>
      </trkpt>
      <trkpt lat="43.40879" lon="2.19105">
        <ele>741.7</ele>
        <time>2020-07-25T09:19:18Z</time>
      </trkpt>
      <trkpt lat="43.40883" lon="2.19119">
        <ele>742.9</ele>
        <time>2020-07-25T09:19:22Z</time>
      </trkpt>
      <trkpt lat="43.4089" lon="2.19132">
        <ele>743.7</ele>
        <time>2020-07-25T09:19:26Z</time>
      </trkpt>
      <trkpt lat="43.409" lon="2.19143">
        <ele>742.8</ele>
        <time>2020-07-25T09:19:31Z</time>
      </trkpt>
      <trkpt lat="43.40909" lon="2.19151">
        <ele>741.1</ele>
        <time>2020-07-25T09:19:35Z</time>
      </trkpt>
      <trkpt lat="43.40921" lon="2.19157">
        <ele>739.9</ele>
        <time>2020-07-25T09:19:40Z</time>
      </trkpt>
      <trkpt lat="43.4093" lon="2.19158">
        <ele>741.7</ele>
        <time>2020-07-25T09:19:44Z</time>
      </trkpt>
      <trkpt lat="43.40941" lon="2.19163">
        <ele>744.7</ele>
        <time>2020-07-25T09:19:49Z</time>
      </trkpt>
      <trkpt lat="43.40951" lon="2.19167">
        <ele>746.7</ele>
        <time>2020-07-25T09:19:53Z</time>
      </trkpt>
      <trkpt lat="43.40964" lon="2.19177">
        <ele>746.3</ele>
        <time>2020-07-25T09:19:58Z</time>
      </trkpt>
      <trkpt lat="43.40974" lon="2.19184">
        <ele>744.6</ele>
        <time>2020-07-25T09:20:02Z</time>
      </trkpt>
      <trkpt lat="43.40986" lon="2.19191">
        <ele>739.9</ele>
        <time>2020-07-25T09:20:07Z</time>
      </trkpt>
      <trkpt lat="43.40994" lon="2.19197">
        <ele>739.2</ele>
        <time>2020-07-25T09:20:12Z</time>
      </trkpt>
      <trkpt lat="43.40999" lon="2.19202">
        <ele>739.6</ele>
        <time>2020-07-25T09:20:16Z</time>
      </trkpt>
      <trkpt lat="43.41004" lon="2.19207">
        <ele>740.2</ele>
        <time>2020-07-25T09:20:20Z</time>
      </trkpt>
      <trkpt lat="43.4101" lon="2.19213">
        <ele>740.8</ele>
        <time>2020-07-25T09:20:25Z</time>
      </trkpt>
      <trkpt lat="43.41015" lon="2.19217">
        <ele>741.4</ele>
        <time>2020-07-25T09:20:29Z</time>
      </trkpt>
      <trkpt lat="43.41021" lon="2.19225">
        <ele>741.8</ele>
        <time>2020-07-25T09:20:34Z</time>
      </trkpt>
      <trkpt lat="43.41026" lon="2.19232">
        <ele>742</ele>
        <time>2020-07-25T09:20:39Z</time>
      </trkpt>
      <trkpt lat="43.4103" lon="2.19236">
        <ele>742.3</ele>
        <time>2020-07-25T09:20:43Z</time>
      </trkpt>
      <trkpt lat="43.41036" lon="2.19238">
        <ele>743.1</ele>
        <time>2020-07-25T09:20:47Z</time>
      </trkpt>
      <trkpt lat="43.41043" lon="2.19235">
        <ele>744.4</ele>
        <time>2020-07-25T09:20:52Z</time>
      </trkpt>
      <trkpt lat="43.41049" lon="2.1923">
        <ele>746</ele>
        <time>2020-07-25T09:20:56Z</time>
      </trkpt>
      <trkpt lat="43.41055" lon="2.19225">
        <ele>747.6</ele>
        <time>2020-07-25T09:21:01Z</time>
      </trkpt>
      <trkpt lat="43.41059" lon="2.19218">
        <ele>748.9</ele>
        <time>2020-07-25T09:21:05Z</time>
      </trkpt>
      <trkpt lat="43.41067" lon="2.19212">
        <ele>749.8</ele>
        <time>2020-07-25T09:21:10Z</time>
      </trkpt>
      <trkpt lat="43.41072" lon="2.19209">
        <ele>750.5</ele>
        <time>2020-07-25T09:21:14Z</time>
      </trkpt>
      <trkpt lat="43.41079" lon="2.19205">
        <ele>750</ele>
        <time>2020-07-25T09:21:19Z</time>
      </trkpt>
      <trkpt lat="43.41084" lon="2.19202">
        <ele>750</ele>
        <time>2020-07-25T09:21:23Z</time>
      </trkpt>
      <trkpt lat="43.41089" lon="2.19197">
        <ele>750.4</ele>
        <time>2020-07-25T09:21:28Z</time>
      </trkpt>
      <trkpt lat="43.41093" lon="2.19194">
        <ele>750.9</ele>
        <time>2020-07-25T09:21:32Z</time>
      </trkpt>
      <trkpt lat="43.41102" lon="2.19193">
        <ele>751.3</ele>
        <time>2020-07-25T09:21:37Z</time>
      </trkpt>
      <trkpt lat="43.4111" lon="2.19193">
        <ele>752.2</ele>
        <time>2020-07-25T09:21:41Z</time>
      </trkpt>
      <trkpt lat="43.41116" lon="2.19192">
        <ele>752.9</ele>
        <time>2020-07-25T09:21:45Z</time>
      </trkpt>
      <trkpt lat="43.41121" lon="2.19193">
        <ele>754.4</ele>
        <time>2020-07-25T09:21:49Z</time>
      </trkpt>
      <trkpt lat="43.41127" lon="2.19196">
        <ele>756.6</ele>
        <time>2020-07-25T09:21:53Z</time>
      </trkpt>
      <trkpt lat="43.41133" lon="2.192">
        <ele>760.2</ele>
        <time>2020-07-25T09:21:58Z</time>
      </trkpt>
      <trkpt lat="43.41138" lon="2.19206">
        <ele>762.2</ele>
        <time>2020-07-25T09:22:02Z</time>
      </trkpt>
      <trkpt lat="43.41139" lon="2.19214">
        <ele>763.5</ele>
        <time>2020-07-25T09:22:06Z</time>
      </trkpt>
      <trkpt lat="43.41137" lon="2.19223">
        <ele>765.5</ele>
        <time>2020-07-25T09:22:11Z</time>
      </trkpt>
      <trkpt lat="43.41134" lon="2.19232">
        <ele>766</ele>
        <time>2020-07-25T09:22:15Z</time>
      </trkpt>
      <trkpt lat="43.41131" lon="2.1924">
        <ele>766.7</ele>
        <time>2020-07-25T09:22:19Z</time>
      </trkpt>
      <trkpt lat="43.41129" lon="2.19249">
        <ele>767.3</ele>
        <time>2020-07-25T09:22:23Z</time>
      </trkpt>
      <trkpt lat="43.41129" lon="2.19261">
        <ele>767.4</ele>
        <time>2020-07-25T09:22:28Z</time>
      </trkpt>
      <trkpt lat="43.41129" lon="2.19269">
        <ele>767.2</ele>
        <time>2020-07-25T09:22:32Z</time>
      </trkpt>
      <trkpt lat="43.4113" lon="2.19277">
        <ele>767.7</ele>
        <time>2020-07-25T09:22:36Z</time>
      </trkpt>
      <trkpt lat="43.4113" lon="2.19286">
        <ele>768.6</ele>
        <time>2020-07-25T09:22:41Z</time>
      </trkpt>
      <trkpt lat="43.41129" lon="2.19298">
        <ele>769.7</ele>
        <time>2020-07-25T09:22:45Z</time>
      </trkpt>
      <trkpt lat="43.41128" lon="2.19307">
        <ele>770.1</ele>
        <time>2020-07-25T09:22:49Z</time>
      </trkpt>
      <trkpt lat="43.41126" lon="2.19317">
        <ele>771.7</ele>
        <time>2020-07-25T09:22:54Z</time>
      </trkpt>
      <trkpt lat="43.41122" lon="2.19328">
        <ele>772.4</ele>
        <time>2020-07-25T09:22:59Z</time>
      </trkpt>
      <trkpt lat="43.4112" lon="2.19338">
        <ele>773.6</ele>
        <time>2020-07-25T09:23:03Z</time>
      </trkpt>
      <trkpt lat="43.41118" lon="2.19346">
        <ele>774.4</ele>
        <time>2020-07-25T09:23:07Z</time>
      </trkpt>
      <trkpt lat="43.41116" lon="2.19355">
        <ele>776.1</ele>
        <time>2020-07-25T09:23:12Z</time>
      </trkpt>
      <trkpt lat="43.41117" lon="2.19363">
        <ele>776.8</ele>
        <time>2020-07-25T09:23:16Z</time>
      </trkpt>
      <trkpt lat="43.4112" lon="2.1937">
        <ele>777.5</ele>
        <time>2020-07-25T09:23:20Z</time>
      </trkpt>
      <trkpt lat="43.41123" lon="2.19377">
        <ele>778.6</ele>
        <time>2020-07-25T09:23:24Z</time>
      </trkpt>
      <trkpt lat="43.41125" lon="2.19384">
        <ele>780.4</ele>
        <time>2020-07-25T09:23:28Z</time>
      </trkpt>
      <trkpt lat="43.41129" lon="2.19396">
        <ele>781.1</ele>
        <time>2020-07-25T09:23:33Z</time>
      </trkpt>
      <trkpt lat="43.41133" lon="2.19405">
        <ele>781.3</ele>
        <time>2020-07-25T09:23:37Z</time>
      </trkpt>
      <trkpt lat="43.41137" lon="2.19415">
        <ele>782.3</ele>
        <time>2020-07-25T09:23:42Z</time>
      </trkpt>
      <trkpt lat="43.41143" lon="2.19421">
        <ele>783.4</ele>
        <time>2020-07-25T09:23:46Z</time>
      </trkpt>
      <trkpt lat="43.41149" lon="2.19428">
        <ele>783.5</ele>
        <time>2020-07-25T09:23:51Z</time>
      </trkpt>
      <trkpt lat="43.41154" lon="2.19432">
        <ele>783.7</ele>
        <time>2020-07-25T09:23:55Z</time>
      </trkpt>
      <trkpt lat="43.41161" lon="2.19438">
        <ele>784.7</ele>
        <time>2020-07-25T09:24:00Z</time>
      </trkpt>
      <trkpt lat="43.41167" lon="2.19444">
        <ele>785.9</ele>
        <time>2020-07-25T09:24:04Z</time>
      </trkpt>
      <trkpt lat="43.41173" lon="2.1945">
        <ele>786.3</ele>
        <time>2020-07-25T09:24:09Z</time>
      </trkpt>
      <trkpt lat="43.41179" lon="2.19454">
        <ele>786.5</ele>
        <time>2020-07-25T09:24:13Z</time>
      </trkpt>
      <trkpt lat="43.41188" lon="2.19459">
        <ele>788.2</ele>
        <time>2020-07-25T09:24:18Z</time>
      </trkpt>
      <trkpt lat="43.41195" lon="2.19462">
        <ele>788.1</ele>
        <time>2020-07-25T09:24:22Z</time>
      </trkpt>
      <trkpt lat="43.41203" lon="2.19466">
        <ele>789.5</ele>
        <time>2020-07-25T09:24:27Z</time>
      </trkpt>
      <trkpt lat="43.41207" lon="2.19468">
        <ele>790.2</ele>
        <time>2020-07-25T09:24:31Z</time>
      </trkpt>
      <trkpt lat="43.41207" lon="2.19468">
        <ele>790.3</ele>
        <time>2020-07-25T09:25:47Z</time>
      </trkpt>
      <trkpt lat="43.41218" lon="2.19479">
        <ele>791.1</ele>
        <time>2020-07-25T09:25:51Z</time>
      </trkpt>
      <trkpt lat="43.41225" lon="2.19486">
        <ele>791.3</ele>
        <time>2020-07-25T09:25:55Z</time>
      </trkpt>
      <trkpt lat="43.41235" lon="2.19493">
        <ele>790.8</ele>
        <time>2020-07-25T09:26:00Z</time>
      </trkpt>
      <trkpt lat="43.41244" lon="2.19498">
        <ele>791.2</ele>
        <time>2020-07-25T09:26:04Z</time>
      </trkpt>
      <trkpt lat="43.41256" lon="2.19504">
        <ele>790.7</ele>
        <time>2020-07-25T09:26:09Z</time>
      </trkpt>
      <trkpt lat="43.41265" lon="2.19506">
        <ele>790.7</ele>
        <time>2020-07-25T09:26:13Z</time>
      </trkpt>
      <trkpt lat="43.41276" lon="2.19509">
        <ele>791.9</ele>
        <time>2020-07-25T09:26:18Z</time>
      </trkpt>
      <trkpt lat="43.41283" lon="2.19511">
        <ele>792.5</ele>
        <time>2020-07-25T09:26:22Z</time>
      </trkpt>
      <trkpt lat="43.41296" lon="2.19516">
        <ele>792.7</ele>
        <time>2020-07-25T09:26:27Z</time>
      </trkpt>
      <trkpt lat="43.41306" lon="2.19522">
        <ele>793.5</ele>
        <time>2020-07-25T09:26:31Z</time>
      </trkpt>
      <trkpt lat="43.41316" lon="2.19526">
        <ele>792.9</ele>
        <time>2020-07-25T09:26:35Z</time>
      </trkpt>
      <trkpt lat="43.41326" lon="2.1953">
        <ele>794.1</ele>
        <time>2020-07-25T09:26:40Z</time>
      </trkpt>
      <trkpt lat="43.41333" lon="2.19537">
        <ele>795.2</ele>
        <time>2020-07-25T09:26:44Z</time>
      </trkpt>
      <trkpt lat="43.41343" lon="2.19547">
        <ele>795.1</ele>
        <time>2020-07-25T09:26:49Z</time>
      </trkpt>
      <trkpt lat="43.41354" lon="2.19557">
        <ele>792.9</ele>
        <time>2020-07-25T09:26:54Z</time>
      </trkpt>
      <trkpt lat="43.41363" lon="2.19562">
        <ele>791.7</ele>
        <time>2020-07-25T09:26:58Z</time>
      </trkpt>
      <trkpt lat="43.41376" lon="2.19568">
        <ele>792.3</ele>
        <time>2020-07-25T09:27:03Z</time>
      </trkpt>
      <trkpt lat="43.41391" lon="2.19569">
        <ele>792.6</ele>
        <time>2020-07-25T09:27:08Z</time>
      </trkpt>
      <trkpt lat="43.41403" lon="2.19566">
        <ele>791.7</ele>
        <time>2020-07-25T09:27:12Z</time>
      </trkpt>
      <trkpt lat="43.41415" lon="2.19561">
        <ele>792.3</ele>
        <time>2020-07-25T09:27:16Z</time>
      </trkpt>
      <trkpt lat="43.41429" lon="2.1956">
        <ele>791.6</ele>
        <time>2020-07-25T09:27:21Z</time>
      </trkpt>
      <trkpt lat="43.41442" lon="2.19556">
        <ele>790.2</ele>
        <time>2020-07-25T09:27:25Z</time>
      </trkpt>
      <trkpt lat="43.41453" lon="2.19556">
        <ele>790.1</ele>
        <time>2020-07-25T09:27:29Z</time>
      </trkpt>
      <trkpt lat="43.41466" lon="2.19559">
        <ele>790.3</ele>
        <time>2020-07-25T09:27:33Z</time>
      </trkpt>
      <trkpt lat="43.41478" lon="2.19561">
        <ele>790.6</ele>
        <time>2020-07-25T09:27:37Z</time>
      </trkpt>
      <trkpt lat="43.41494" lon="2.19562">
        <ele>792</ele>
        <time>2020-07-25T09:27:42Z</time>
      </trkpt>
      <trkpt lat="43.41507" lon="2.19567">
        <ele>791.8</ele>
        <time>2020-07-25T09:27:46Z</time>
      </trkpt>
      <trkpt lat="43.4152" lon="2.1957">
        <ele>791.8</ele>
        <time>2020-07-25T09:27:50Z</time>
      </trkpt>
      <trkpt lat="43.4154" lon="2.19574">
        <ele>792.8</ele>
        <time>2020-07-25T09:27:55Z</time>
      </trkpt>
      <trkpt lat="43.41565" lon="2.19577">
        <ele>793.2</ele>
        <time>2020-07-25T09:28:00Z</time>
      </trkpt>
      <trkpt lat="43.41584" lon="2.19581">
        <ele>793.2</ele>
        <time>2020-07-25T09:28:04Z</time>
      </trkpt>
      <trkpt lat="43.41604" lon="2.1959">
        <ele>792.3</ele>
        <time>2020-07-25T09:28:09Z</time>
      </trkpt>
      <trkpt lat="43.41622" lon="2.19595">
        <ele>791.6</ele>
        <time>2020-07-25T09:28:13Z</time>
      </trkpt>
      <trkpt lat="43.41639" lon="2.19605">
        <ele>792.6</ele>
        <time>2020-07-25T09:28:17Z</time>
      </trkpt>
      <trkpt lat="43.41659" lon="2.19617">
        <ele>793.1</ele>
        <time>2020-07-25T09:28:22Z</time>
      </trkpt>
      <trkpt lat="43.41676" lon="2.19619">
        <ele>794</ele>
        <time>2020-07-25T09:28:27Z</time>
      </trkpt>
      <trkpt lat="43.41688" lon="2.19624">
        <ele>795</ele>
        <time>2020-07-25T09:28:31Z</time>
      </trkpt>
      <trkpt lat="43.41702" lon="2.19628">
        <ele>796.3</ele>
        <time>2020-07-25T09:28:35Z</time>
      </trkpt>
      <trkpt lat="43.41714" lon="2.19633">
        <ele>797.5</ele>
        <time>2020-07-25T09:28:39Z</time>
      </trkpt>
      <trkpt lat="43.41726" lon="2.19641">
        <ele>798.7</ele>
        <time>2020-07-25T09:28:43Z</time>
      </trkpt>
      <trkpt lat="43.41738" lon="2.19645">
        <ele>799.7</ele>
        <time>2020-07-25T09:28:47Z</time>
      </trkpt>
      <trkpt lat="43.4175" lon="2.1965">
        <ele>799.9</ele>
        <time>2020-07-25T09:28:51Z</time>
      </trkpt>
      <trkpt lat="43.4176" lon="2.19653">
        <ele>800.2</ele>
        <time>2020-07-25T09:28:55Z</time>
      </trkpt>
      <trkpt lat="43.4177" lon="2.19659">
        <ele>801.6</ele>
        <time>2020-07-25T09:28:59Z</time>
      </trkpt>
      <trkpt lat="43.41781" lon="2.19665">
        <ele>804.2</ele>
        <time>2020-07-25T09:29:04Z</time>
      </trkpt>
      <trkpt lat="43.41789" lon="2.19669">
        <ele>806</ele>
        <time>2020-07-25T09:29:09Z</time>
      </trkpt>
      <trkpt lat="43.41797" lon="2.19668">
        <ele>806.6</ele>
        <time>2020-07-25T09:29:13Z</time>
      </trkpt>
      <trkpt lat="43.41803" lon="2.19673">
        <ele>806.6</ele>
        <time>2020-07-25T09:29:18Z</time>
      </trkpt>
      <trkpt lat="43.41808" lon="2.1968">
        <ele>807.2</ele>
        <time>2020-07-25T09:29:22Z</time>
      </trkpt>
      <trkpt lat="43.41814" lon="2.19684">
        <ele>807.6</ele>
        <time>2020-07-25T09:29:26Z</time>
      </trkpt>
      <trkpt lat="43.4182" lon="2.19687">
        <ele>808.1</ele>
        <time>2020-07-25T09:29:30Z</time>
      </trkpt>
      <trkpt lat="43.41826" lon="2.19689">
        <ele>808.9</ele>
        <time>2020-07-25T09:29:34Z</time>
      </trkpt>
      <trkpt lat="43.41832" lon="2.19689">
        <ele>809.7</ele>
        <time>2020-07-25T09:29:38Z</time>
      </trkpt>
      <trkpt lat="43.41845" lon="2.19677">
        <ele>810.5</ele>
        <time>2020-07-25T09:29:42Z</time>
      </trkpt>
      <trkpt lat="43.41853" lon="2.1968">
        <ele>811.6</ele>
        <time>2020-07-25T09:29:46Z</time>
      </trkpt>
      <trkpt lat="43.41864" lon="2.19683">
        <ele>812.1</ele>
        <time>2020-07-25T09:29:51Z</time>
      </trkpt>
      <trkpt lat="43.41875" lon="2.19684">
        <ele>812.4</ele>
        <time>2020-07-25T09:29:56Z</time>
      </trkpt>
      <trkpt lat="43.41887" lon="2.19688">
        <ele>812.8</ele>
        <time>2020-07-25T09:30:01Z</time>
      </trkpt>
      <trkpt lat="43.41901" lon="2.1969">
        <ele>812.6</ele>
        <time>2020-07-25T09:30:06Z</time>
      </trkpt>
      <trkpt lat="43.41908" lon="2.19689">
        <ele>811.5</ele>
        <time>2020-07-25T09:30:10Z</time>
      </trkpt>
      <trkpt lat="43.41917" lon="2.19685">
        <ele>812.3</ele>
        <time>2020-07-25T09:30:14Z</time>
      </trkpt>
      <trkpt lat="43.41919" lon="2.19684">
        <ele>813.4</ele>
        <time>2020-07-25T09:31:29Z</time>
      </trkpt>
      <trkpt lat="43.41933" lon="2.19689">
        <ele>811.9</ele>
        <time>2020-07-25T09:31:34Z</time>
      </trkpt>
      <trkpt lat="43.41944" lon="2.19685">
        <ele>811.4</ele>
        <time>2020-07-25T09:31:39Z</time>
      </trkpt>
      <trkpt lat="43.41955" lon="2.19683">
        <ele>811.1</ele>
        <time>2020-07-25T09:31:44Z</time>
      </trkpt>
      <trkpt lat="43.41969" lon="2.19682">
        <ele>811.7</ele>
        <time>2020-07-25T09:31:48Z</time>
      </trkpt>
      <trkpt lat="43.4198" lon="2.1968">
        <ele>813</ele>
        <time>2020-07-25T09:31:53Z</time>
      </trkpt>
      <trkpt lat="43.41991" lon="2.1968">
        <ele>814</ele>
        <time>2020-07-25T09:31:58Z</time>
      </trkpt>
      <trkpt lat="43.41998" lon="2.19683">
        <ele>814.2</ele>
        <time>2020-07-25T09:32:02Z</time>
      </trkpt>
      <trkpt lat="43.42006" lon="2.19687">
        <ele>814.3</ele>
        <time>2020-07-25T09:32:06Z</time>
      </trkpt>
      <trkpt lat="43.42014" lon="2.19692">
        <ele>814.9</ele>
        <time>2020-07-25T09:32:11Z</time>
      </trkpt>
      <trkpt lat="43.4202" lon="2.19697">
        <ele>815.7</ele>
        <time>2020-07-25T09:32:15Z</time>
      </trkpt>
      <trkpt lat="43.42029" lon="2.19701">
        <ele>815.9</ele>
        <time>2020-07-25T09:32:20Z</time>
      </trkpt>
      <trkpt lat="43.42037" lon="2.19703">
        <ele>815.9</ele>
        <time>2020-07-25T09:32:24Z</time>
      </trkpt>
      <trkpt lat="43.42045" lon="2.19708">
        <ele>815.5</ele>
        <time>2020-07-25T09:32:28Z</time>
      </trkpt>
      <trkpt lat="43.42054" lon="2.19713">
        <ele>815.4</ele>
        <time>2020-07-25T09:32:33Z</time>
      </trkpt>
      <trkpt lat="43.42062" lon="2.19719">
        <ele>816.6</ele>
        <time>2020-07-25T09:32:37Z</time>
      </trkpt>
      <trkpt lat="43.4207" lon="2.19725">
        <ele>817.5</ele>
        <time>2020-07-25T09:32:41Z</time>
      </trkpt>
      <trkpt lat="43.42084" lon="2.19732">
        <ele>818.3</ele>
        <time>2020-07-25T09:32:46Z</time>
      </trkpt>
      <trkpt lat="43.42094" lon="2.19736">
        <ele>818.6</ele>
        <time>2020-07-25T09:32:50Z</time>
      </trkpt>
      <trkpt lat="43.42106" lon="2.19741">
        <ele>817.8</ele>
        <time>2020-07-25T09:32:55Z</time>
      </trkpt>
      <trkpt lat="43.42117" lon="2.19746">
        <ele>817.4</ele>
        <time>2020-07-25T09:32:59Z</time>
      </trkpt>
      <trkpt lat="43.42127" lon="2.19754">
        <ele>813.8</ele>
        <time>2020-07-25T09:33:04Z</time>
      </trkpt>
      <trkpt lat="43.42139" lon="2.19763">
        <ele>811.2</ele>
        <time>2020-07-25T09:33:09Z</time>
      </trkpt>
      <trkpt lat="43.42149" lon="2.1977">
        <ele>811.3</ele>
        <time>2020-07-25T09:33:13Z</time>
      </trkpt>
      <trkpt lat="43.42159" lon="2.19776">
        <ele>814.3</ele>
        <time>2020-07-25T09:33:17Z</time>
      </trkpt>
      <trkpt lat="43.4217" lon="2.19783">
        <ele>818.9</ele>
        <time>2020-07-25T09:33:22Z</time>
      </trkpt>
      <trkpt lat="43.42177" lon="2.19786">
        <ele>821.9</ele>
        <time>2020-07-25T09:33:26Z</time>
      </trkpt>
      <trkpt lat="43.42186" lon="2.19789">
        <ele>823.5</ele>
        <time>2020-07-25T09:33:30Z</time>
      </trkpt>
      <trkpt lat="43.42195" lon="2.19794">
        <ele>824.4</ele>
        <time>2020-07-25T09:33:34Z</time>
      </trkpt>
      <trkpt lat="43.42206" lon="2.198">
        <ele>823.1</ele>
        <time>2020-07-25T09:33:39Z</time>
      </trkpt>
      <trkpt lat="43.42215" lon="2.19803">
        <ele>823</ele>
        <time>2020-07-25T09:33:43Z</time>
      </trkpt>
      <trkpt lat="43.42226" lon="2.19807">
        <ele>823.4</ele>
        <time>2020-07-25T09:33:48Z</time>
      </trkpt>
      <trkpt lat="43.42236" lon="2.19812">
        <ele>823.9</ele>
        <time>2020-07-25T09:33:52Z</time>
      </trkpt>
      <trkpt lat="43.42245" lon="2.19818">
        <ele>825.3</ele>
        <time>2020-07-25T09:33:56Z</time>
      </trkpt>
      <trkpt lat="43.42254" lon="2.19827">
        <ele>825.9</ele>
        <time>2020-07-25T09:34:00Z</time>
      </trkpt>
      <trkpt lat="43.42266" lon="2.19836">
        <ele>825.1</ele>
        <time>2020-07-25T09:34:05Z</time>
      </trkpt>
      <trkpt lat="43.42278" lon="2.19848">
        <ele>824.9</ele>
        <time>2020-07-25T09:34:09Z</time>
      </trkpt>
      <trkpt lat="43.42295" lon="2.19859">
        <ele>824</ele>
        <time>2020-07-25T09:34:13Z</time>
      </trkpt>
      <trkpt lat="43.42314" lon="2.19871">
        <ele>821.1</ele>
        <time>2020-07-25T09:34:17Z</time>
      </trkpt>
      <trkpt lat="43.42335" lon="2.19883">
        <ele>819.5</ele>
        <time>2020-07-25T09:34:21Z</time>
      </trkpt>
      <trkpt lat="43.42353" lon="2.19898">
        <ele>821.6</ele>
        <time>2020-07-25T09:34:25Z</time>
      </trkpt>
      <trkpt lat="43.42372" lon="2.19913">
        <ele>821.1</ele>
        <time>2020-07-25T09:34:29Z</time>
      </trkpt>
      <trkpt lat="43.42389" lon="2.19927">
        <ele>820.6</ele>
        <time>2020-07-25T09:34:33Z</time>
      </trkpt>
      <trkpt lat="43.42407" lon="2.19931">
        <ele>819.9</ele>
        <time>2020-07-25T09:34:37Z</time>
      </trkpt>
      <trkpt lat="43.42423" lon="2.19931">
        <ele>820.2</ele>
        <time>2020-07-25T09:34:42Z</time>
      </trkpt>
      <trkpt lat="43.42431" lon="2.19929">
        <ele>819.6</ele>
        <time>2020-07-25T09:34:46Z</time>
      </trkpt>
      <trkpt lat="43.42438" lon="2.1993">
        <ele>819.9</ele>
        <time>2020-07-25T09:34:50Z</time>
      </trkpt>
      <trkpt lat="43.42449" lon="2.1993">
        <ele>818.6</ele>
        <time>2020-07-25T09:34:55Z</time>
      </trkpt>
      <trkpt lat="43.42457" lon="2.1993">
        <ele>816.4</ele>
        <time>2020-07-25T09:34:59Z</time>
      </trkpt>
      <trkpt lat="43.42466" lon="2.19932">
        <ele>816.3</ele>
        <time>2020-07-25T09:35:04Z</time>
      </trkpt>
      <trkpt lat="43.42471" lon="2.19932">
        <ele>816.4</ele>
        <time>2020-07-25T09:35:08Z</time>
      </trkpt>
      <trkpt lat="43.42477" lon="2.19933">
        <ele>816.8</ele>
        <time>2020-07-25T09:35:13Z</time>
      </trkpt>
      <trkpt lat="43.42483" lon="2.19934">
        <ele>817.4</ele>
        <time>2020-07-25T09:35:18Z</time>
      </trkpt>
      <trkpt lat="43.4249" lon="2.19934">
        <ele>818.1</ele>
        <time>2020-07-25T09:35:22Z</time>
      </trkpt>
      <trkpt lat="43.42497" lon="2.19934">
        <ele>817.9</ele>
        <time>2020-07-25T09:35:26Z</time>
      </trkpt>
      <trkpt lat="43.42505" lon="2.19931">
        <ele>817.6</ele>
        <time>2020-07-25T09:35:31Z</time>
      </trkpt>
      <trkpt lat="43.4251" lon="2.19929">
        <ele>819</ele>
        <time>2020-07-25T09:35:35Z</time>
      </trkpt>
      <trkpt lat="43.42518" lon="2.19931">
        <ele>821.2</ele>
        <time>2020-07-25T09:35:40Z</time>
      </trkpt>
      <trkpt lat="43.42523" lon="2.19931">
        <ele>822.8</ele>
        <time>2020-07-25T09:35:44Z</time>
      </trkpt>
      <trkpt lat="43.42528" lon="2.19928">
        <ele>824.3</ele>
        <time>2020-07-25T09:35:48Z</time>
      </trkpt>
      <trkpt lat="43.42534" lon="2.19925">
        <ele>826.1</ele>
        <time>2020-07-25T09:35:52Z</time>
      </trkpt>
      <trkpt lat="43.42541" lon="2.19925">
        <ele>828.5</ele>
        <time>2020-07-25T09:35:57Z</time>
      </trkpt>
      <trkpt lat="43.42545" lon="2.19925">
        <ele>829.8</ele>
        <time>2020-07-25T09:36:02Z</time>
      </trkpt>
      <trkpt lat="43.42551" lon="2.19924">
        <ele>830.6</ele>
        <time>2020-07-25T09:36:06Z</time>
      </trkpt>
      <trkpt lat="43.42556" lon="2.19923">
        <ele>830.9</ele>
        <time>2020-07-25T09:36:10Z</time>
      </trkpt>
      <trkpt lat="43.42561" lon="2.19923">
        <ele>831.5</ele>
        <time>2020-07-25T09:36:14Z</time>
      </trkpt>
      <trkpt lat="43.4257" lon="2.19926">
        <ele>832.1</ele>
        <time>2020-07-25T09:36:19Z</time>
      </trkpt>
      <trkpt lat="43.42578" lon="2.19925">
        <ele>832.2</ele>
        <time>2020-07-25T09:36:23Z</time>
      </trkpt>
      <trkpt lat="43.42587" lon="2.19926">
        <ele>834.4</ele>
        <time>2020-07-25T09:36:28Z</time>
      </trkpt>
      <trkpt lat="43.42598" lon="2.19926">
        <ele>835.7</ele>
        <time>2020-07-25T09:36:33Z</time>
      </trkpt>
      <trkpt lat="43.4261" lon="2.19927">
        <ele>834.9</ele>
        <time>2020-07-25T09:36:37Z</time>
      </trkpt>
      <trkpt lat="43.42623" lon="2.19929">
        <ele>833.7</ele>
        <time>2020-07-25T09:36:41Z</time>
      </trkpt>
      <trkpt lat="43.42639" lon="2.19931">
        <ele>833.3</ele>
        <time>2020-07-25T09:36:45Z</time>
      </trkpt>
      <trkpt lat="43.42659" lon="2.19932">
        <ele>833.8</ele>
        <time>2020-07-25T09:36:49Z</time>
      </trkpt>
      <trkpt lat="43.42678" lon="2.19928">
        <ele>834.5</ele>
        <time>2020-07-25T09:36:53Z</time>
      </trkpt>
      <trkpt lat="43.42695" lon="2.19927">
        <ele>834.8</ele>
        <time>2020-07-25T09:36:57Z</time>
      </trkpt>
      <trkpt lat="43.42712" lon="2.19926">
        <ele>835.8</ele>
        <time>2020-07-25T09:37:01Z</time>
      </trkpt>
      <trkpt lat="43.42728" lon="2.19925">
        <ele>840.1</ele>
        <time>2020-07-25T09:37:05Z</time>
      </trkpt>
      <trkpt lat="43.4275" lon="2.19923">
        <ele>844</ele>
        <time>2020-07-25T09:37:10Z</time>
      </trkpt>
      <trkpt lat="43.42774" lon="2.19924">
        <ele>845</ele>
        <time>2020-07-25T09:37:14Z</time>
      </trkpt>
      <trkpt lat="43.42807" lon="2.19921">
        <ele>843.1</ele>
        <time>2020-07-25T09:37:19Z</time>
      </trkpt>
      <trkpt lat="43.42831" lon="2.19916">
        <ele>840</ele>
        <time>2020-07-25T09:37:23Z</time>
      </trkpt>
      <trkpt lat="43.4286" lon="2.19911">
        <ele>834.4</ele>
        <time>2020-07-25T09:37:28Z</time>
      </trkpt>
      <trkpt lat="43.42882" lon="2.19909">
        <ele>832.9</ele>
        <time>2020-07-25T09:37:32Z</time>
      </trkpt>
      <trkpt lat="43.4291" lon="2.19908">
        <ele>832.1</ele>
        <time>2020-07-25T09:37:37Z</time>
      </trkpt>
      <trkpt lat="43.42932" lon="2.19908">
        <ele>831.4</ele>
        <time>2020-07-25T09:37:41Z</time>
      </trkpt>
      <trkpt lat="43.42952" lon="2.19906">
        <ele>831.4</ele>
        <time>2020-07-25T09:37:45Z</time>
      </trkpt>
      <trkpt lat="43.42975" lon="2.19893">
        <ele>830.5</ele>
        <time>2020-07-25T09:37:50Z</time>
      </trkpt>
      <trkpt lat="43.42995" lon="2.1988">
        <ele>830.4</ele>
        <time>2020-07-25T09:37:55Z</time>
      </trkpt>
      <trkpt lat="43.43001" lon="2.19881">
        <ele>831.4</ele>
        <time>2020-07-25T09:38:00Z</time>
      </trkpt>
      <trkpt lat="43.43001" lon="2.19881">
        <ele>831.4</ele>
        <time>2020-07-25T09:38:26Z</time>
      </trkpt>
      <trkpt lat="43.43015" lon="2.19875">
        <ele>831.2</ele>
        <time>2020-07-25T09:38:31Z</time>
      </trkpt>
      <trkpt lat="43.43015" lon="2.19875">
        <ele>831.1</ele>
        <time>2020-07-25T09:38:37Z</time>
      </trkpt>
      <trkpt lat="43.43034" lon="2.19859">
        <ele>830.3</ele>
        <time>2020-07-25T09:38:42Z</time>
      </trkpt>
      <trkpt lat="43.43039" lon="2.1985">
        <ele>829.2</ele>
        <time>2020-07-25T09:38:46Z</time>
      </trkpt>
      <trkpt lat="43.43045" lon="2.19839">
        <ele>827.3</ele>
        <time>2020-07-25T09:38:50Z</time>
      </trkpt>
      <trkpt lat="43.43052" lon="2.19833">
        <ele>825.3</ele>
        <time>2020-07-25T09:38:55Z</time>
      </trkpt>
      <trkpt lat="43.4306" lon="2.19826">
        <ele>823</ele>
        <time>2020-07-25T09:38:59Z</time>
      </trkpt>
      <trkpt lat="43.4307" lon="2.19816">
        <ele>821.5</ele>
        <time>2020-07-25T09:39:04Z</time>
      </trkpt>
      <trkpt lat="43.43082" lon="2.19813">
        <ele>821.5</ele>
        <time>2020-07-25T09:39:08Z</time>
      </trkpt>
      <trkpt lat="43.4309" lon="2.19812">
        <ele>815</ele>
        <time>2020-07-25T09:39:12Z</time>
      </trkpt>
      <trkpt lat="43.43102" lon="2.19823">
        <ele>814</ele>
        <time>2020-07-25T09:39:17Z</time>
      </trkpt>
      <trkpt lat="43.43114" lon="2.19832">
        <ele>811.9</ele>
        <time>2020-07-25T09:39:21Z</time>
      </trkpt>
      <trkpt lat="43.43128" lon="2.1983">
        <ele>808.9</ele>
        <time>2020-07-25T09:39:26Z</time>
      </trkpt>
      <trkpt lat="43.43139" lon="2.1982">
        <ele>807.2</ele>
        <time>2020-07-25T09:39:30Z</time>
      </trkpt>
      <trkpt lat="43.4315" lon="2.1981">
        <ele>806.4</ele>
        <time>2020-07-25T09:39:34Z</time>
      </trkpt>
      <trkpt lat="43.43159" lon="2.19806">
        <ele>805.9</ele>
        <time>2020-07-25T09:39:38Z</time>
      </trkpt>
      <trkpt lat="43.43167" lon="2.19806">
        <ele>803.8</ele>
        <time>2020-07-25T09:39:42Z</time>
      </trkpt>
      <trkpt lat="43.43171" lon="2.19819">
        <ele>802.9</ele>
        <time>2020-07-25T09:39:46Z</time>
      </trkpt>
      <trkpt lat="43.43173" lon="2.19834">
        <ele>804.9</ele>
        <time>2020-07-25T09:39:50Z</time>
      </trkpt>
      <trkpt lat="43.43171" lon="2.19858">
        <ele>805.9</ele>
        <time>2020-07-25T09:39:54Z</time>
      </trkpt>
      <trkpt lat="43.43169" lon="2.19876">
        <ele>805.8</ele>
        <time>2020-07-25T09:39:58Z</time>
      </trkpt>
      <trkpt lat="43.43167" lon="2.19899">
        <ele>806.1</ele>
        <time>2020-07-25T09:40:03Z</time>
      </trkpt>
      <trkpt lat="43.43165" lon="2.19913">
        <ele>806.2</ele>
        <time>2020-07-25T09:40:07Z</time>
      </trkpt>
      <trkpt lat="43.4316" lon="2.19922">
        <ele>806.2</ele>
        <time>2020-07-25T09:40:11Z</time>
      </trkpt>
      <trkpt lat="43.43154" lon="2.19936">
        <ele>804.3</ele>
        <time>2020-07-25T09:40:16Z</time>
      </trkpt>
      <trkpt lat="43.43151" lon="2.19948">
        <ele>802.6</ele>
        <time>2020-07-25T09:40:20Z</time>
      </trkpt>
      <trkpt lat="43.4315" lon="2.19962">
        <ele>801</ele>
        <time>2020-07-25T09:40:25Z</time>
      </trkpt>
      <trkpt lat="43.43154" lon="2.19969">
        <ele>799.6</ele>
        <time>2020-07-25T09:40:29Z</time>
      </trkpt>
      <trkpt lat="43.43154" lon="2.1997">
        <ele>799</ele>
        <time>2020-07-25T09:40:37Z</time>
      </trkpt>
      <trkpt lat="43.43158" lon="2.19987">
        <ele>796.9</ele>
        <time>2020-07-25T09:40:41Z</time>
      </trkpt>
      <trkpt lat="43.43158" lon="2.19987">
        <ele>796.9</ele>
        <time>2020-07-25T09:40:48Z</time>
      </trkpt>
      <trkpt lat="43.43179" lon="2.19991">
        <ele>795.4</ele>
        <time>2020-07-25T09:40:53Z</time>
      </trkpt>
      <trkpt lat="43.43191" lon="2.19985">
        <ele>794.4</ele>
        <time>2020-07-25T09:40:57Z</time>
      </trkpt>
      <trkpt lat="43.43203" lon="2.19974">
        <ele>793.4</ele>
        <time>2020-07-25T09:41:01Z</time>
      </trkpt>
      <trkpt lat="43.43219" lon="2.19969">
        <ele>792.2</ele>
        <time>2020-07-25T09:41:05Z</time>
      </trkpt>
      <trkpt lat="43.43239" lon="2.19964">
        <ele>790.3</ele>
        <time>2020-07-25T09:41:10Z</time>
      </trkpt>
      <trkpt lat="43.43262" lon="2.19948">
        <ele>789</ele>
        <time>2020-07-25T09:41:15Z</time>
      </trkpt>
      <trkpt lat="43.43282" lon="2.19929">
        <ele>788.1</ele>
        <time>2020-07-25T09:41:19Z</time>
      </trkpt>
      <trkpt lat="43.43298" lon="2.19902">
        <ele>786.3</ele>
        <time>2020-07-25T09:41:23Z</time>
      </trkpt>
      <trkpt lat="43.43307" lon="2.1988">
        <ele>782.2</ele>
        <time>2020-07-25T09:41:28Z</time>
      </trkpt>
      <trkpt lat="43.43316" lon="2.19855">
        <ele>778.9</ele>
        <time>2020-07-25T09:41:33Z</time>
      </trkpt>
      <trkpt lat="43.43317" lon="2.19832">
        <ele>777.5</ele>
        <time>2020-07-25T09:41:37Z</time>
      </trkpt>
      <trkpt lat="43.43319" lon="2.19811">
        <ele>773.9</ele>
        <time>2020-07-25T09:41:42Z</time>
      </trkpt>
      <trkpt lat="43.43324" lon="2.1979">
        <ele>771.6</ele>
        <time>2020-07-25T09:41:46Z</time>
      </trkpt>
      <trkpt lat="43.43326" lon="2.19768">
        <ele>768.7</ele>
        <time>2020-07-25T09:41:51Z</time>
      </trkpt>
      <trkpt lat="43.43329" lon="2.19745">
        <ele>767.2</ele>
        <time>2020-07-25T09:41:56Z</time>
      </trkpt>
      <trkpt lat="43.43334" lon="2.1973">
        <ele>765.5</ele>
        <time>2020-07-25T09:42:00Z</time>
      </trkpt>
      <trkpt lat="43.43338" lon="2.19713">
        <ele>764</ele>
        <time>2020-07-25T09:42:04Z</time>
      </trkpt>
      <trkpt lat="43.43339" lon="2.19688">
        <ele>763.5</ele>
        <time>2020-07-25T09:42:09Z</time>
      </trkpt>
      <trkpt lat="43.4334" lon="2.19669">
        <ele>762.8</ele>
        <time>2020-07-25T09:42:13Z</time>
      </trkpt>
      <trkpt lat="43.43342" lon="2.19652">
        <ele>760.7</ele>
        <time>2020-07-25T09:42:18Z</time>
      </trkpt>
      <trkpt lat="43.43348" lon="2.19635">
        <ele>760.8</ele>
        <time>2020-07-25T09:42:22Z</time>
      </trkpt>
      <trkpt lat="43.43363" lon="2.19609">
        <ele>760.3</ele>
        <time>2020-07-25T09:42:27Z</time>
      </trkpt>
      <trkpt lat="43.43372" lon="2.19595">
        <ele>760.6</ele>
        <time>2020-07-25T09:42:31Z</time>
      </trkpt>
      <trkpt lat="43.43386" lon="2.1959">
        <ele>761.4</ele>
        <time>2020-07-25T09:42:35Z</time>
      </trkpt>
      <trkpt lat="43.43404" lon="2.19587">
        <ele>761.6</ele>
        <time>2020-07-25T09:42:40Z</time>
      </trkpt>
      <trkpt lat="43.43426" lon="2.19587">
        <ele>764.1</ele>
        <time>2020-07-25T09:42:45Z</time>
      </trkpt>
      <trkpt lat="43.43438" lon="2.1959">
        <ele>765</ele>
        <time>2020-07-25T09:42:49Z</time>
      </trkpt>
      <trkpt lat="43.4346" lon="2.19581">
        <ele>764.2</ele>
        <time>2020-07-25T09:42:53Z</time>
      </trkpt>
      <trkpt lat="43.43478" lon="2.1956">
        <ele>759</ele>
        <time>2020-07-25T09:42:58Z</time>
      </trkpt>
      <trkpt lat="43.43496" lon="2.19537">
        <ele>751</ele>
        <time>2020-07-25T09:43:03Z</time>
      </trkpt>
      <trkpt lat="43.43506" lon="2.19521">
        <ele>747.1</ele>
        <time>2020-07-25T09:43:07Z</time>
      </trkpt>
      <trkpt lat="43.43517" lon="2.19503">
        <ele>744.5</ele>
        <time>2020-07-25T09:43:11Z</time>
      </trkpt>
      <trkpt lat="43.43532" lon="2.19485">
        <ele>741</ele>
        <time>2020-07-25T09:43:16Z</time>
      </trkpt>
      <trkpt lat="43.4355" lon="2.19472">
        <ele>737.5</ele>
        <time>2020-07-25T09:43:21Z</time>
      </trkpt>
      <trkpt lat="43.43566" lon="2.19462">
        <ele>734.7</ele>
        <time>2020-07-25T09:43:25Z</time>
      </trkpt>
      <trkpt lat="43.43583" lon="2.19455">
        <ele>732.4</ele>
        <time>2020-07-25T09:43:29Z</time>
      </trkpt>
      <trkpt lat="43.43606" lon="2.19447">
        <ele>729.1</ele>
        <time>2020-07-25T09:43:34Z</time>
      </trkpt>
      <trkpt lat="43.43631" lon="2.19453">
        <ele>727.2</ele>
        <time>2020-07-25T09:43:38Z</time>
      </trkpt>
      <trkpt lat="43.43646" lon="2.1945">
        <ele>727</ele>
        <time>2020-07-25T09:43:42Z</time>
      </trkpt>
      <trkpt lat="43.43669" lon="2.19447">
        <ele>725.5</ele>
        <time>2020-07-25T09:43:47Z</time>
      </trkpt>
      <trkpt lat="43.43687" lon="2.19449">
        <ele>723.3</ele>
        <time>2020-07-25T09:43:51Z</time>
      </trkpt>
      <trkpt lat="43.43708" lon="2.19452">
        <ele>720.5</ele>
        <time>2020-07-25T09:43:55Z</time>
      </trkpt>
      <trkpt lat="43.43729" lon="2.19459">
        <ele>717.5</ele>
        <time>2020-07-25T09:43:59Z</time>
      </trkpt>
      <trkpt lat="43.4375" lon="2.19462">
        <ele>714</ele>
        <time>2020-07-25T09:44:03Z</time>
      </trkpt>
      <trkpt lat="43.43772" lon="2.19465">
        <ele>712.5</ele>
        <time>2020-07-25T09:44:07Z</time>
      </trkpt>
      <trkpt lat="43.43795" lon="2.19464">
        <ele>711.3</ele>
        <time>2020-07-25T09:44:11Z</time>
      </trkpt>
      <trkpt lat="43.43812" lon="2.19469">
        <ele>711.1</ele>
        <time>2020-07-25T09:44:15Z</time>
      </trkpt>
      <trkpt lat="43.43826" lon="2.19475">
        <ele>710.8</ele>
        <time>2020-07-25T09:44:19Z</time>
      </trkpt>
      <trkpt lat="43.43844" lon="2.19478">
        <ele>710.2</ele>
        <time>2020-07-25T09:44:23Z</time>
      </trkpt>
      <trkpt lat="43.4386" lon="2.1948">
        <ele>709.1</ele>
        <time>2020-07-25T09:44:27Z</time>
      </trkpt>
      <trkpt lat="43.43879" lon="2.19475">
        <ele>709.6</ele>
        <time>2020-07-25T09:44:31Z</time>
      </trkpt>
      <trkpt lat="43.43898" lon="2.19467">
        <ele>708.5</ele>
        <time>2020-07-25T09:44:35Z</time>
      </trkpt>
      <trkpt lat="43.43929" lon="2.19451">
        <ele>704.5</ele>
        <time>2020-07-25T09:44:40Z</time>
      </trkpt>
      <trkpt lat="43.43954" lon="2.19442">
        <ele>701</ele>
        <time>2020-07-25T09:44:44Z</time>
      </trkpt>
      <trkpt lat="43.4398" lon="2.19433">
        <ele>699.6</ele>
        <time>2020-07-25T09:44:48Z</time>
      </trkpt>
      <trkpt lat="43.44004" lon="2.19432">
        <ele>698.3</ele>
        <time>2020-07-25T09:44:53Z</time>
      </trkpt>
      <trkpt lat="43.4401" lon="2.19441">
        <ele>696.7</ele>
        <time>2020-07-25T09:44:57Z</time>
      </trkpt>
      <trkpt lat="43.44012" lon="2.19467">
        <ele>696.4</ele>
        <time>2020-07-25T09:45:02Z</time>
      </trkpt>
      <trkpt lat="43.44015" lon="2.19495">
        <ele>696.1</ele>
        <time>2020-07-25T09:45:07Z</time>
      </trkpt>
      <trkpt lat="43.44016" lon="2.19517">
        <ele>696.6</ele>
        <time>2020-07-25T09:45:12Z</time>
      </trkpt>
      <trkpt lat="43.4402" lon="2.19541">
        <ele>698</ele>
        <time>2020-07-25T09:45:16Z</time>
      </trkpt>
      <trkpt lat="43.4402" lon="2.19565">
        <ele>697.6</ele>
        <time>2020-07-25T09:45:20Z</time>
      </trkpt>
      <trkpt lat="43.4402" lon="2.19596">
        <ele>698.9</ele>
        <time>2020-07-25T09:45:25Z</time>
      </trkpt>
      <trkpt lat="43.44022" lon="2.19619">
        <ele>700.3</ele>
        <time>2020-07-25T09:45:29Z</time>
      </trkpt>
      <trkpt lat="43.44021" lon="2.1964">
        <ele>700.2</ele>
        <time>2020-07-25T09:45:33Z</time>
      </trkpt>
      <trkpt lat="43.44022" lon="2.19658">
        <ele>702</ele>
        <time>2020-07-25T09:45:37Z</time>
      </trkpt>
      <trkpt lat="43.44024" lon="2.19676">
        <ele>704.6</ele>
        <time>2020-07-25T09:45:41Z</time>
      </trkpt>
      <trkpt lat="43.44029" lon="2.19696">
        <ele>708.8</ele>
        <time>2020-07-25T09:45:46Z</time>
      </trkpt>
      <trkpt lat="43.44032" lon="2.19712">
        <ele>712.8</ele>
        <time>2020-07-25T09:45:50Z</time>
      </trkpt>
      <trkpt lat="43.44029" lon="2.19732">
        <ele>715.3</ele>
        <time>2020-07-25T09:45:54Z</time>
      </trkpt>
      <trkpt lat="43.44034" lon="2.19755">
        <ele>719.4</ele>
        <time>2020-07-25T09:45:59Z</time>
      </trkpt>
      <trkpt lat="43.4404" lon="2.19774">
        <ele>718.7</ele>
        <time>2020-07-25T09:46:03Z</time>
      </trkpt>
      <trkpt lat="43.44045" lon="2.19792">
        <ele>718.4</ele>
        <time>2020-07-25T09:46:07Z</time>
      </trkpt>
      <trkpt lat="43.4405" lon="2.19814">
        <ele>716.6</ele>
        <time>2020-07-25T09:46:11Z</time>
      </trkpt>
      <trkpt lat="43.44058" lon="2.19848">
        <ele>715</ele>
        <time>2020-07-25T09:46:16Z</time>
      </trkpt>
      <trkpt lat="43.44072" lon="2.19865">
        <ele>712.3</ele>
        <time>2020-07-25T09:46:20Z</time>
      </trkpt>
      <trkpt lat="43.44097" lon="2.19879">
        <ele>712</ele>
        <time>2020-07-25T09:46:25Z</time>
      </trkpt>
      <trkpt lat="43.44121" lon="2.19885">
        <ele>710</ele>
        <time>2020-07-25T09:46:29Z</time>
      </trkpt>
      <trkpt lat="43.44153" lon="2.19888">
        <ele>707.8</ele>
        <time>2020-07-25T09:46:34Z</time>
      </trkpt>
      <trkpt lat="43.44186" lon="2.19882">
        <ele>709.2</ele>
        <time>2020-07-25T09:46:39Z</time>
      </trkpt>
      <trkpt lat="43.44208" lon="2.19865">
        <ele>709.6</ele>
        <time>2020-07-25T09:46:43Z</time>
      </trkpt>
      <trkpt lat="43.44226" lon="2.19843">
        <ele>710.3</ele>
        <time>2020-07-25T09:46:47Z</time>
      </trkpt>
      <trkpt lat="43.44254" lon="2.19827">
        <ele>708.6</ele>
        <time>2020-07-25T09:46:52Z</time>
      </trkpt>
      <trkpt lat="43.44275" lon="2.19828">
        <ele>708.6</ele>
        <time>2020-07-25T09:46:56Z</time>
      </trkpt>
      <trkpt lat="43.44297" lon="2.19832">
        <ele>708.2</ele>
        <time>2020-07-25T09:47:00Z</time>
      </trkpt>
      <trkpt lat="43.4433" lon="2.19843">
        <ele>707.3</ele>
        <time>2020-07-25T09:47:05Z</time>
      </trkpt>
      <trkpt lat="43.44364" lon="2.19834">
        <ele>706.6</ele>
        <time>2020-07-25T09:47:10Z</time>
      </trkpt>
      <trkpt lat="43.44389" lon="2.19821">
        <ele>705.7</ele>
        <time>2020-07-25T09:47:14Z</time>
      </trkpt>
      <trkpt lat="43.44408" lon="2.19785">
        <ele>704.3</ele>
        <time>2020-07-25T09:47:19Z</time>
      </trkpt>
      <trkpt lat="43.44416" lon="2.19751">
        <ele>703.4</ele>
        <time>2020-07-25T09:47:23Z</time>
      </trkpt>
      <trkpt lat="43.44424" lon="2.19716">
        <ele>705.6</ele>
        <time>2020-07-25T09:47:27Z</time>
      </trkpt>
      <trkpt lat="43.44431" lon="2.1968">
        <ele>707</ele>
        <time>2020-07-25T09:47:31Z</time>
      </trkpt>
      <trkpt lat="43.44439" lon="2.19634">
        <ele>708.3</ele>
        <time>2020-07-25T09:47:36Z</time>
      </trkpt>
      <trkpt lat="43.44448" lon="2.19586">
        <ele>710.2</ele>
        <time>2020-07-25T09:47:41Z</time>
      </trkpt>
      <trkpt lat="43.44457" lon="2.19536">
        <ele>710.6</ele>
        <time>2020-07-25T09:47:46Z</time>
      </trkpt>
      <trkpt lat="43.44464" lon="2.19496">
        <ele>708.8</ele>
        <time>2020-07-25T09:47:50Z</time>
      </trkpt>
      <trkpt lat="43.44476" lon="2.1944">
        <ele>710.1</ele>
        <time>2020-07-25T09:47:55Z</time>
      </trkpt>
      <trkpt lat="43.44487" lon="2.19393">
        <ele>709.7</ele>
        <time>2020-07-25T09:47:59Z</time>
      </trkpt>
      <trkpt lat="43.44501" lon="2.19325">
        <ele>705.7</ele>
        <time>2020-07-25T09:48:04Z</time>
      </trkpt>
      <trkpt lat="43.44511" lon="2.19275">
        <ele>700.6</ele>
        <time>2020-07-25T09:48:08Z</time>
      </trkpt>
      <trkpt lat="43.44523" lon="2.19215">
        <ele>698.5</ele>
        <time>2020-07-25T09:48:13Z</time>
      </trkpt>
      <trkpt lat="43.44526" lon="2.19178">
        <ele>695.9</ele>
        <time>2020-07-25T09:48:17Z</time>
      </trkpt>
      <trkpt lat="43.44531" lon="2.1914">
        <ele>691.5</ele>
        <time>2020-07-25T09:48:22Z</time>
      </trkpt>
      <trkpt lat="43.44531" lon="2.19113">
        <ele>689.5</ele>
        <time>2020-07-25T09:48:26Z</time>
      </trkpt>
      <trkpt lat="43.44531" lon="2.1908">
        <ele>686.7</ele>
        <time>2020-07-25T09:48:31Z</time>
      </trkpt>
      <trkpt lat="43.44532" lon="2.19054">
        <ele>684.2</ele>
        <time>2020-07-25T09:48:35Z</time>
      </trkpt>
      <trkpt lat="43.44532" lon="2.19027">
        <ele>683.2</ele>
        <time>2020-07-25T09:48:39Z</time>
      </trkpt>
      <trkpt lat="43.44535" lon="2.19002">
        <ele>686.1</ele>
        <time>2020-07-25T09:48:43Z</time>
      </trkpt>
      <trkpt lat="43.44539" lon="2.18974">
        <ele>687.2</ele>
        <time>2020-07-25T09:48:47Z</time>
      </trkpt>
      <trkpt lat="43.4454" lon="2.18937">
        <ele>687.2</ele>
        <time>2020-07-25T09:48:52Z</time>
      </trkpt>
      <trkpt lat="43.44538" lon="2.1891">
        <ele>687.9</ele>
        <time>2020-07-25T09:48:56Z</time>
      </trkpt>
      <trkpt lat="43.44528" lon="2.18874">
        <ele>690.5</ele>
        <time>2020-07-25T09:49:01Z</time>
      </trkpt>
      <trkpt lat="43.44519" lon="2.18849">
        <ele>692.1</ele>
        <time>2020-07-25T09:49:05Z</time>
      </trkpt>
      <trkpt lat="43.44508" lon="2.18827">
        <ele>694.4</ele>
        <time>2020-07-25T09:49:10Z</time>
      </trkpt>
      <trkpt lat="43.44498" lon="2.1882">
        <ele>691.4</ele>
        <time>2020-07-25T09:49:14Z</time>
      </trkpt>
      <trkpt lat="43.44495" lon="2.18824">
        <ele>690.4</ele>
        <time>2020-07-25T09:49:18Z</time>
      </trkpt>
      <trkpt lat="43.44495" lon="2.1883">
        <ele>690.3</ele>
        <time>2020-07-25T09:49:22Z</time>
      </trkpt>
      <trkpt lat="43.44494" lon="2.18836">
        <ele>691.2</ele>
        <time>2020-07-25T09:49:26Z</time>
      </trkpt>
      <trkpt lat="43.44491" lon="2.18843">
        <ele>693.6</ele>
        <time>2020-07-25T09:49:31Z</time>
      </trkpt>
      <trkpt lat="43.44489" lon="2.18848">
        <ele>695.3</ele>
        <time>2020-07-25T09:49:35Z</time>
      </trkpt>
      <trkpt lat="43.44485" lon="2.18855">
        <ele>696.8</ele>
        <time>2020-07-25T09:49:39Z</time>
      </trkpt>
      <trkpt lat="43.44481" lon="2.18869">
        <ele>698.4</ele>
        <time>2020-07-25T09:49:43Z</time>
      </trkpt>
      <trkpt lat="43.44476" lon="2.18875">
        <ele>700</ele>
        <time>2020-07-25T09:49:47Z</time>
      </trkpt>
      <trkpt lat="43.44473" lon="2.18881">
        <ele>700.8</ele>
        <time>2020-07-25T09:49:51Z</time>
      </trkpt>
      <trkpt lat="43.44464" lon="2.18889">
        <ele>699.9</ele>
        <time>2020-07-25T09:49:55Z</time>
      </trkpt>
      <trkpt lat="43.44457" lon="2.18896">
        <ele>699.1</ele>
        <time>2020-07-25T09:49:59Z</time>
      </trkpt>
      <trkpt lat="43.44445" lon="2.18912">
        <ele>698.6</ele>
        <time>2020-07-25T09:50:04Z</time>
      </trkpt>
      <trkpt lat="43.44436" lon="2.18934">
        <ele>699.5</ele>
        <time>2020-07-25T09:50:09Z</time>
      </trkpt>
      <trkpt lat="43.44424" lon="2.1895">
        <ele>700.9</ele>
        <time>2020-07-25T09:50:13Z</time>
      </trkpt>
      <trkpt lat="43.44406" lon="2.18954">
        <ele>701.3</ele>
        <time>2020-07-25T09:50:17Z</time>
      </trkpt>
      <trkpt lat="43.44392" lon="2.18945">
        <ele>702.9</ele>
        <time>2020-07-25T09:50:22Z</time>
      </trkpt>
      <trkpt lat="43.44381" lon="2.18945">
        <ele>703.8</ele>
        <time>2020-07-25T09:50:26Z</time>
      </trkpt>
      <trkpt lat="43.44366" lon="2.18944">
        <ele>701.7</ele>
        <time>2020-07-25T09:50:31Z</time>
      </trkpt>
      <trkpt lat="43.44351" lon="2.18942">
        <ele>698.9</ele>
        <time>2020-07-25T09:50:35Z</time>
      </trkpt>
      <trkpt lat="43.44336" lon="2.1894">
        <ele>696.8</ele>
        <time>2020-07-25T09:50:40Z</time>
      </trkpt>
      <trkpt lat="43.44328" lon="2.1894">
        <ele>694.8</ele>
        <time>2020-07-25T09:50:44Z</time>
      </trkpt>
      <trkpt lat="43.44323" lon="2.18938">
        <ele>691.4</ele>
        <time>2020-07-25T09:50:49Z</time>
      </trkpt>
      <trkpt lat="43.4432" lon="2.18939">
        <ele>690.7</ele>
        <time>2020-07-25T09:50:53Z</time>
      </trkpt>
      <trkpt lat="43.44317" lon="2.18939">
        <ele>690.6</ele>
        <time>2020-07-25T09:51:13Z</time>
      </trkpt>
      <trkpt lat="43.44305" lon="2.18936">
        <ele>687.2</ele>
        <time>2020-07-25T09:51:17Z</time>
      </trkpt>
      <trkpt lat="43.44305" lon="2.18936">
        <ele>687.2</ele>
        <time>2020-07-25T09:51:59Z</time>
      </trkpt>
      <trkpt lat="43.44305" lon="2.18936">
        <ele>687.2</ele>
        <time>2020-07-25T09:51:59Z</time>
      </trkpt>
    </trkseg>
  </trk>
</gpx>